<?xml version="1.0" encoding="ISO-8859-1"?>
<gpx version="1.1" 
creator="Memory-Map 5.4.2.1089 http://www.memory-map.com"
 xmlns:xsi="http://www.w3.org/2001/XMLSchema-instance"
 xmlns="http://www.topografix.com/GPX/1/1"
 xsi:schemaLocation="http://www.topografix.com/GPX/1/1 http://www.topografix.com/GPX/1/1/gpx.xsd">
<trk>
<name>User Track</name>
<type>Track</type>
<trkseg>
<trkpt lat="54.3149460000" lon="-2.0824130000"><ele>223</ele><time>2015-10-15T12:06:29Z</time></trkpt>
<trkpt lat="54.3152820000" lon="-2.0835120000"><ele>223</ele><time>2015-10-15T12:07:41Z</time></trkpt>
<trkpt lat="54.3152810000" lon="-2.0835500000"><ele>223</ele><time>2015-10-15T12:07:44Z</time></trkpt>
<trkpt lat="54.3152810000" lon="-2.0835560000"><ele>223</ele><time>2015-10-15T12:07:45Z</time></trkpt>
<trkpt lat="54.3152920000" lon="-2.0837700000"><ele>223</ele><time>2015-10-15T12:07:47Z</time></trkpt>
<trkpt lat="54.3152940000" lon="-2.0837930000"><ele>223</ele><time>2015-10-15T12:07:48Z</time></trkpt>
<trkpt lat="54.3152940000" lon="-2.0838180000"><ele>223</ele><time>2015-10-15T12:07:49Z</time></trkpt>
<trkpt lat="54.3152950000" lon="-2.0838400000"><ele>223</ele><time>2015-10-15T12:07:50Z</time></trkpt>
<trkpt lat="54.3152960000" lon="-2.0838630000"><ele>223</ele><time>2015-10-15T12:07:51Z</time></trkpt>
<trkpt lat="54.3153000000" lon="-2.0839070000"><ele>223</ele><time>2015-10-15T12:07:52Z</time></trkpt>
<trkpt lat="54.3153030000" lon="-2.0839810000"><ele>223</ele><time>2015-10-15T12:07:56Z</time></trkpt>
<trkpt lat="54.3153010000" lon="-2.0840370000"><ele>223</ele><time>2015-10-15T12:07:57Z</time></trkpt>
<trkpt lat="54.3153070000" lon="-2.0840890000"><ele>223</ele><time>2015-10-15T12:08:00Z</time></trkpt>
<trkpt lat="54.3153240000" lon="-2.0841380000"><ele>223</ele><time>2015-10-15T12:08:02Z</time></trkpt>
<trkpt lat="54.3153270000" lon="-2.0842180000"><ele>223</ele><time>2015-10-15T12:08:04Z</time></trkpt>
<trkpt lat="54.3153230000" lon="-2.0842990000"><ele>223</ele><time>2015-10-15T12:08:09Z</time></trkpt>
<trkpt lat="54.3153210000" lon="-2.0843780000"><ele>223</ele><time>2015-10-15T12:08:13Z</time></trkpt>
<trkpt lat="54.3153330000" lon="-2.0844320000"><ele>223</ele><time>2015-10-15T12:08:19Z</time></trkpt>
<trkpt lat="54.3153300000" lon="-2.0845330000"><ele>215</ele><time>2015-10-15T12:08:20Z</time></trkpt>
<trkpt lat="54.3153340000" lon="-2.0846010000"><ele>215</ele><time>2015-10-15T12:08:22Z</time></trkpt>
<trkpt lat="54.3153360000" lon="-2.0847570000"><ele>215</ele><time>2015-10-15T12:08:31Z</time></trkpt>
<trkpt lat="54.3153370000" lon="-2.0848110000"><ele>215</ele><time>2015-10-15T12:08:33Z</time></trkpt>
<trkpt lat="54.3153400000" lon="-2.0848580000"><ele>215</ele><time>2015-10-15T12:08:35Z</time></trkpt>
<trkpt lat="54.3153440000" lon="-2.0848990000"><ele>215</ele><time>2015-10-15T12:08:40Z</time></trkpt>
<trkpt lat="54.3153550000" lon="-2.0850030000"><ele>215</ele><time>2015-10-15T12:08:41Z</time></trkpt>
<trkpt lat="54.3153540000" lon="-2.0850580000"><ele>215</ele><time>2015-10-15T12:08:44Z</time></trkpt>
<trkpt lat="54.3153600000" lon="-2.0851030000"><ele>215</ele><time>2015-10-15T12:08:46Z</time></trkpt>
<trkpt lat="54.3153720000" lon="-2.0851470000"><ele>215</ele><time>2015-10-15T12:08:47Z</time></trkpt>
<trkpt lat="54.3153810000" lon="-2.0851910000"><ele>215</ele><time>2015-10-15T12:08:50Z</time></trkpt>
<trkpt lat="54.3153990000" lon="-2.0852290000"><ele>215</ele><time>2015-10-15T12:08:52Z</time></trkpt>
<trkpt lat="54.3154040000" lon="-2.0852770000"><ele>215</ele><time>2015-10-15T12:08:54Z</time></trkpt>
<trkpt lat="54.3154070000" lon="-2.0853190000"><ele>215</ele><time>2015-10-15T12:08:56Z</time></trkpt>
<trkpt lat="54.3154170000" lon="-2.0853580000"><ele>215</ele><time>2015-10-15T12:09:08Z</time></trkpt>
<trkpt lat="54.3154580000" lon="-2.0855700000"><ele>215</ele><time>2015-10-15T12:09:10Z</time></trkpt>
<trkpt lat="54.3154670000" lon="-2.0856150000"><ele>215</ele><time>2015-10-15T12:09:12Z</time></trkpt>
<trkpt lat="54.3154740000" lon="-2.0856620000"><ele>215</ele><time>2015-10-15T12:09:25Z</time></trkpt>
<trkpt lat="54.3155180000" lon="-2.0859040000"><ele>215</ele><time>2015-10-15T12:09:28Z</time></trkpt>
<trkpt lat="54.3155370000" lon="-2.0859330000"><ele>215</ele></trkpt>
<trkpt lat="54.3155630000" lon="-2.0860090000"><ele>215</ele><time>2015-10-15T12:09:48Z</time></trkpt>
<trkpt lat="54.3156190000" lon="-2.0861910000"><ele>215</ele><time>2015-10-15T12:09:49Z</time></trkpt>
<trkpt lat="54.3156410000" lon="-2.0862100000"><ele>215</ele><time>2015-10-15T12:09:51Z</time></trkpt>
<trkpt lat="54.3156550000" lon="-2.0862390000"><ele>215</ele><time>2015-10-15T12:10:02Z</time></trkpt>
<trkpt lat="54.3157590000" lon="-2.0864630000"><ele>215</ele><time>2015-10-15T12:10:08Z</time></trkpt>
<trkpt lat="54.3157710000" lon="-2.0864970000"><ele>215</ele><time>2015-10-15T12:10:10Z</time></trkpt>
<trkpt lat="54.3157810000" lon="-2.0865330000"><ele>215</ele><time>2015-10-15T12:10:21Z</time></trkpt>
<trkpt lat="54.3157930000" lon="-2.0865640000"><ele>215</ele><time>2015-10-15T12:10:26Z</time></trkpt>
<trkpt lat="54.3158960000" lon="-2.0868320000"><ele>215</ele><time>2015-10-15T12:10:28Z</time></trkpt>
<trkpt lat="54.3159020000" lon="-2.0868440000"><ele>215</ele><time>2015-10-15T12:10:30Z</time></trkpt>
<trkpt lat="54.3159530000" lon="-2.0870540000"><ele>215</ele><time>2015-10-15T12:10:41Z</time></trkpt>
<trkpt lat="54.3159650000" lon="-2.0870880000"><ele>215</ele><time>2015-10-15T12:10:43Z</time></trkpt>
<trkpt lat="54.3159730000" lon="-2.0871070000"><ele>215</ele><time>2015-10-15T12:10:44Z</time></trkpt>
<trkpt lat="54.3159800000" lon="-2.0871230000"><ele>215</ele><time>2015-10-15T12:10:45Z</time></trkpt>
<trkpt lat="54.3159880000" lon="-2.0871430000"><ele>215</ele><time>2015-10-15T12:10:46Z</time></trkpt>
<trkpt lat="54.3159920000" lon="-2.0871610000"><ele>215</ele><time>2015-10-15T12:10:47Z</time></trkpt>
<trkpt lat="54.3159990000" lon="-2.0871760000"><ele>215</ele><time>2015-10-15T12:10:48Z</time></trkpt>
<trkpt lat="54.3160040000" lon="-2.0871930000"><ele>215</ele><time>2015-10-15T12:10:49Z</time></trkpt>
<trkpt lat="54.3160090000" lon="-2.0872090000"><ele>215</ele><time>2015-10-15T12:10:50Z</time></trkpt>
<trkpt lat="54.3160650000" lon="-2.0874200000"><ele>215</ele><time>2015-10-15T12:11:00Z</time></trkpt>
<trkpt lat="54.3160710000" lon="-2.0874630000"><ele>215</ele><time>2015-10-15T12:11:03Z</time></trkpt>
<trkpt lat="54.3160870000" lon="-2.0875290000"><ele>215</ele><time>2015-10-15T12:11:07Z</time></trkpt>
<trkpt lat="54.3161050000" lon="-2.0875740000"><ele>215</ele><time>2015-10-15T12:11:10Z</time></trkpt>
<trkpt lat="54.3161180000" lon="-2.0876100000"><ele>218</ele><time>2015-10-15T12:11:12Z</time></trkpt>
<trkpt lat="54.3161280000" lon="-2.0876460000"><ele>218</ele><time>2015-10-15T12:11:23Z</time></trkpt>
<trkpt lat="54.3161830000" lon="-2.0878310000"><ele>218</ele><time>2015-10-15T12:11:24Z</time></trkpt>
<trkpt lat="54.3161910000" lon="-2.0878650000"><ele>218</ele><time>2015-10-15T12:11:26Z</time></trkpt>
<trkpt lat="54.3162060000" lon="-2.0879140000"><ele>218</ele><time>2015-10-15T12:11:44Z</time></trkpt>
<trkpt lat="54.3162620000" lon="-2.0880190000"><ele>218</ele><time>2015-10-15T12:11:45Z</time></trkpt>
<trkpt lat="54.3162720000" lon="-2.0880590000"><ele>218</ele><time>2015-10-15T12:11:46Z</time></trkpt>
<trkpt lat="54.3162760000" lon="-2.0881040000"><ele>218</ele><time>2015-10-15T12:11:49Z</time></trkpt>
<trkpt lat="54.3162870000" lon="-2.0881440000"><ele>218</ele><time>2015-10-15T12:11:51Z</time></trkpt>
<trkpt lat="54.3162960000" lon="-2.0881950000"><ele>218</ele><time>2015-10-15T12:11:54Z</time></trkpt>
<trkpt lat="54.3163090000" lon="-2.0882400000"><ele>218</ele><time>2015-10-15T12:11:57Z</time></trkpt>
<trkpt lat="54.3163220000" lon="-2.0882920000"><ele>218</ele><time>2015-10-15T12:12:00Z</time></trkpt>
<trkpt lat="54.3163370000" lon="-2.0883300000"><ele>218</ele><time>2015-10-15T12:12:02Z</time></trkpt>
<trkpt lat="54.3163570000" lon="-2.0883590000"><ele>233</ele><time>2015-10-15T12:12:04Z</time></trkpt>
<trkpt lat="54.3163710000" lon="-2.0884060000"><ele>233</ele><time>2015-10-15T12:13:47Z</time></trkpt>
<trkpt lat="54.3163960000" lon="-2.0886010000"><ele>233</ele><time>2015-10-15T12:14:14Z</time></trkpt>
<trkpt lat="54.3164230000" lon="-2.0886860000"><ele>233</ele><time>2015-10-15T12:14:16Z</time></trkpt>
<trkpt lat="54.3164370000" lon="-2.0887270000"><ele>233</ele><time>2015-10-15T12:14:19Z</time></trkpt>
<trkpt lat="54.3164560000" lon="-2.0887470000"><ele>233</ele><time>2015-10-15T12:14:20Z</time></trkpt>
<trkpt lat="54.3164730000" lon="-2.0887670000"><ele>233</ele><time>2015-10-15T12:14:33Z</time></trkpt>
<trkpt lat="54.3164910000" lon="-2.0887930000"><ele>233</ele><time>2015-10-15T12:14:38Z</time></trkpt>
<trkpt lat="54.3165970000" lon="-2.0889860000"><ele>233</ele><time>2015-10-15T12:14:39Z</time></trkpt>
<trkpt lat="54.3165990000" lon="-2.0890240000"><ele>233</ele><time>2015-10-15T12:14:42Z</time></trkpt>
<trkpt lat="54.3166090000" lon="-2.0890630000"><ele>233</ele><time>2015-10-15T12:14:47Z</time></trkpt>
<trkpt lat="54.3166070000" lon="-2.0891040000"><ele>233</ele><time>2015-10-15T12:15:00Z</time></trkpt>
<trkpt lat="54.3166070000" lon="-2.0892110000"><ele>233</ele><time>2015-10-15T12:15:01Z</time></trkpt>
<trkpt lat="54.3166000000" lon="-2.0892470000"><ele>233</ele><time>2015-10-15T12:15:18Z</time></trkpt>
<trkpt lat="54.3165760000" lon="-2.0893730000"><ele>233</ele><time>2015-10-15T12:15:44Z</time></trkpt>
<trkpt lat="54.3165420000" lon="-2.0894380000"><ele>233</ele><time>2015-10-15T12:15:45Z</time></trkpt>
<trkpt lat="54.3165030000" lon="-2.0894560000"><ele>233</ele><time>2015-10-15T12:16:07Z</time></trkpt>
<trkpt lat="54.3164650000" lon="-2.0895410000"><ele>233</ele><time>2015-10-15T12:16:08Z</time></trkpt>
<trkpt lat="54.3164490000" lon="-2.0896130000"><ele>233</ele><time>2015-10-15T12:16:27Z</time></trkpt>
<trkpt lat="54.3164380000" lon="-2.0897100000"><ele>233</ele></trkpt>
<trkpt lat="54.3164460000" lon="-2.0897920000"><ele>233</ele><time>2015-10-15T12:16:59Z</time></trkpt>
<trkpt lat="54.3164470000" lon="-2.0899490000"><ele>233</ele><time>2015-10-15T12:17:02Z</time></trkpt>
<trkpt lat="54.3164540000" lon="-2.0899930000"><ele>233</ele><time>2015-10-15T12:17:05Z</time></trkpt>
<trkpt lat="54.3164540000" lon="-2.0900420000"><ele>233</ele><time>2015-10-15T12:17:18Z</time></trkpt>
<trkpt lat="54.3164530000" lon="-2.0902050000"><ele>233</ele><time>2015-10-15T12:17:29Z</time></trkpt>
<trkpt lat="54.3164320000" lon="-2.0902760000"><ele>233</ele><time>2015-10-15T12:17:30Z</time></trkpt>
<trkpt lat="54.3164320000" lon="-2.0903340000"><ele>233</ele><time>2015-10-15T12:17:39Z</time></trkpt>
<trkpt lat="54.3164470000" lon="-2.0904530000"><ele>233</ele><time>2015-10-15T12:17:51Z</time></trkpt>
<trkpt lat="54.3164700000" lon="-2.0905810000"><ele>233</ele><time>2015-10-15T12:17:52Z</time></trkpt>
<trkpt lat="54.3165360000" lon="-2.0908550000"><ele>236</ele><time>2015-10-15T12:19:04Z</time></trkpt>
<trkpt lat="54.3165470000" lon="-2.0909390000"><ele>236</ele><time>2015-10-15T12:19:05Z</time></trkpt>
<trkpt lat="54.3165630000" lon="-2.0909840000"><ele>236</ele><time>2015-10-15T12:19:18Z</time></trkpt>
<trkpt lat="54.3166350000" lon="-2.0911290000"><ele>236</ele><time>2015-10-15T12:19:20Z</time></trkpt>
<trkpt lat="54.3166400000" lon="-2.0911670000"><ele>236</ele><time>2015-10-15T12:19:26Z</time></trkpt>
<trkpt lat="54.3166650000" lon="-2.0912520000"><ele>236</ele><time>2015-10-15T12:19:36Z</time></trkpt>
<trkpt lat="54.3167070000" lon="-2.0913520000"><ele>236</ele><time>2015-10-15T12:19:37Z</time></trkpt>
<trkpt lat="54.3167370000" lon="-2.0913930000"><ele>236</ele><time>2015-10-15T12:19:45Z</time></trkpt>
<trkpt lat="54.3167480000" lon="-2.0914350000"><ele>236</ele><time>2015-10-15T12:19:58Z</time></trkpt>
<trkpt lat="54.3168250000" lon="-2.0916200000"><ele>236</ele><time>2015-10-15T12:20:00Z</time></trkpt>
<trkpt lat="54.3168540000" lon="-2.0916670000"><ele>236</ele><time>2015-10-15T12:20:02Z</time></trkpt>
<trkpt lat="54.3168860000" lon="-2.0917200000"><ele>236</ele><time>2015-10-15T12:20:05Z</time></trkpt>
<trkpt lat="54.3169080000" lon="-2.0917580000"><ele>236</ele><time>2015-10-15T12:20:07Z</time></trkpt>
<trkpt lat="54.3169330000" lon="-2.0917820000"><ele>236</ele><time>2015-10-15T12:20:18Z</time></trkpt>
<trkpt lat="54.3170010000" lon="-2.0919390000"><ele>236</ele><time>2015-10-15T12:20:39Z</time></trkpt>
<trkpt lat="54.3171260000" lon="-2.0922740000"><ele>236</ele><time>2015-10-15T12:20:42Z</time></trkpt>
<trkpt lat="54.3171320000" lon="-2.0923160000"><ele>236</ele><time>2015-10-15T12:20:48Z</time></trkpt>
<trkpt lat="54.3171810000" lon="-2.0923540000"><ele>236</ele><time>2015-10-15T12:20:56Z</time></trkpt>
<trkpt lat="54.3172320000" lon="-2.0924340000"><ele>236</ele><time>2015-10-15T12:20:58Z</time></trkpt>
<trkpt lat="54.3172600000" lon="-2.0924770000"><ele>236</ele><time>2015-10-15T12:21:01Z</time></trkpt>
<trkpt lat="54.3172750000" lon="-2.0925020000"><ele>236</ele><time>2015-10-15T12:21:03Z</time></trkpt>
<trkpt lat="54.3172840000" lon="-2.0925360000"><ele>236</ele><time>2015-10-15T12:21:10Z</time></trkpt>
<trkpt lat="54.3173780000" lon="-2.0927690000"><ele>236</ele><time>2015-10-15T12:21:36Z</time></trkpt>
<trkpt lat="54.3174520000" lon="-2.0930560000"><ele>236</ele><time>2015-10-15T12:21:39Z</time></trkpt>
<trkpt lat="54.3174660000" lon="-2.0930950000"><ele>236</ele><time>2015-10-15T12:21:43Z</time></trkpt>
<trkpt lat="54.3174660000" lon="-2.0930950000"><ele>236</ele></trkpt>
<trkpt lat="54.3174660000" lon="-2.0930960000"><ele>236</ele><time>2015-10-15T12:21:44Z</time></trkpt>
<trkpt lat="54.3174660000" lon="-2.0930970000"><ele>236</ele><time>2015-10-15T12:21:46Z</time></trkpt>
<trkpt lat="54.3174780000" lon="-2.0931340000"><ele>236</ele><time>2015-10-15T12:21:55Z</time></trkpt>
<trkpt lat="54.3175000000" lon="-2.0932110000"><ele>236</ele><time>2015-10-15T12:22:02Z</time></trkpt>
<trkpt lat="54.3175790000" lon="-2.0935110000"><ele>236</ele><time>2015-10-15T12:22:04Z</time></trkpt>
<trkpt lat="54.3175790000" lon="-2.0935890000"><ele>236</ele><time>2015-10-15T12:22:19Z</time></trkpt>
<trkpt lat="54.3175940000" lon="-2.0937610000"><ele>247</ele><time>2015-10-15T12:22:20Z</time></trkpt>
<trkpt lat="54.3176090000" lon="-2.0937990000"><ele>247</ele><time>2015-10-15T12:22:21Z</time></trkpt>
<trkpt lat="54.3176290000" lon="-2.0938420000"><ele>247</ele><time>2015-10-15T12:22:24Z</time></trkpt>
<trkpt lat="54.3176400000" lon="-2.0938770000"><ele>247</ele><time>2015-10-15T12:22:26Z</time></trkpt>
<trkpt lat="54.3176490000" lon="-2.0939160000"><ele>247</ele><time>2015-10-15T12:22:38Z</time></trkpt>
<trkpt lat="54.3176780000" lon="-2.0941620000"><ele>247</ele><time>2015-10-15T12:22:40Z</time></trkpt>
<trkpt lat="54.3176830000" lon="-2.0942120000"><ele>247</ele><time>2015-10-15T12:22:43Z</time></trkpt>
<trkpt lat="54.3176700000" lon="-2.0942650000"><ele>247</ele><time>2015-10-15T12:22:48Z</time></trkpt>
<trkpt lat="54.3176690000" lon="-2.0943340000"><ele>247</ele><time>2015-10-15T12:22:49Z</time></trkpt>
<trkpt lat="54.3176860000" lon="-2.0943560000"><ele>247</ele><time>2015-10-15T12:23:00Z</time></trkpt>
<trkpt lat="54.3176830000" lon="-2.0944000000"><ele>247</ele><time>2015-10-15T12:23:08Z</time></trkpt>
<trkpt lat="54.3176750000" lon="-2.0944610000"><ele>247</ele><time>2015-10-15T12:23:14Z</time></trkpt>
<trkpt lat="54.3176370000" lon="-2.0947650000"><ele>247</ele><time>2015-10-15T12:23:16Z</time></trkpt>
<trkpt lat="54.3176340000" lon="-2.0948030000"><ele>247</ele><time>2015-10-15T12:23:18Z</time></trkpt>
<trkpt lat="54.3176290000" lon="-2.0948430000"><ele>247</ele><time>2015-10-15T12:23:31Z</time></trkpt>
<trkpt lat="54.3176140000" lon="-2.0950620000"><ele>247</ele><time>2015-10-15T12:23:34Z</time></trkpt>
<trkpt lat="54.3176160000" lon="-2.0951240000"><ele>247</ele><time>2015-10-15T12:23:37Z</time></trkpt>
<trkpt lat="54.3176240000" lon="-2.0951640000"><ele>247</ele><time>2015-10-15T12:23:38Z</time></trkpt>
<trkpt lat="54.3176350000" lon="-2.0952040000"><ele>247</ele><time>2015-10-15T12:23:50Z</time></trkpt>
<trkpt lat="54.3176610000" lon="-2.0952580000"><ele>247</ele><time>2015-10-15T12:24:02Z</time></trkpt>
<trkpt lat="54.3177840000" lon="-2.0954490000"><ele>247</ele><time>2015-10-15T12:24:33Z</time></trkpt>
<trkpt lat="54.3178470000" lon="-2.0955820000"><ele>247</ele><time>2015-10-15T12:24:53Z</time></trkpt>
<trkpt lat="54.3178570000" lon="-2.0956500000"><ele>247</ele><time>2015-10-15T12:24:54Z</time></trkpt>
<trkpt lat="54.3178590000" lon="-2.0956470000"><ele>247</ele><time>2015-10-15T12:24:55Z</time></trkpt>
<trkpt lat="54.3178610000" lon="-2.0956400000"><ele>247</ele></trkpt>
<trkpt lat="54.3178610000" lon="-2.0956400000"><ele>247</ele><time>2015-10-15T12:24:58Z</time></trkpt>
<trkpt lat="54.3178810000" lon="-2.0956340000"><ele>247</ele><time>2015-10-15T12:25:13Z</time></trkpt>
<trkpt lat="54.3179780000" lon="-2.0955840000"><ele>247</ele><time>2015-10-15T12:25:14Z</time></trkpt>
<trkpt lat="54.3179960000" lon="-2.0955660000"><ele>247</ele><time>2015-10-15T12:25:17Z</time></trkpt>
<trkpt lat="54.3180210000" lon="-2.0955690000"><ele>247</ele><time>2015-10-15T12:25:19Z</time></trkpt>
<trkpt lat="54.3180400000" lon="-2.0955630000"><ele>247</ele><time>2015-10-15T12:25:28Z</time></trkpt>
<trkpt lat="54.3181550000" lon="-2.0955320000"><ele>259</ele><time>2015-10-15T12:25:33Z</time></trkpt>
<trkpt lat="54.3181760000" lon="-2.0955260000"><ele>259</ele><time>2015-10-15T12:25:39Z</time></trkpt>
<trkpt lat="54.3182020000" lon="-2.0955170000"><ele>259</ele><time>2015-10-15T12:25:49Z</time></trkpt>
<trkpt lat="54.3183230000" lon="-2.0955240000"><ele>259</ele><time>2015-10-15T12:25:55Z</time></trkpt>
<trkpt lat="54.3183480000" lon="-2.0955230000"><ele>259</ele><time>2015-10-15T12:25:57Z</time></trkpt>
<trkpt lat="54.3183740000" lon="-2.0955130000"><ele>259</ele><time>2015-10-15T12:25:59Z</time></trkpt>
<trkpt lat="54.3186190000" lon="-2.0953230000"><ele>259</ele><time>2015-10-15T12:28:24Z</time></trkpt>
<trkpt lat="54.3185970000" lon="-2.0954430000"><ele>259</ele><time>2015-10-15T12:28:36Z</time></trkpt>
<trkpt lat="54.3185360000" lon="-2.0955900000"><ele>259</ele><time>2015-10-15T12:28:37Z</time></trkpt>
<trkpt lat="54.3185020000" lon="-2.0956170000"><ele>259</ele><time>2015-10-15T12:28:40Z</time></trkpt>
<trkpt lat="54.3184620000" lon="-2.0956490000"><ele>259</ele><time>2015-10-15T12:28:43Z</time></trkpt>
<trkpt lat="54.3184290000" lon="-2.0956820000"><ele>259</ele><time>2015-10-15T12:29:04Z</time></trkpt>
<trkpt lat="54.3183200000" lon="-2.0957770000"><ele>259</ele><time>2015-10-15T12:29:06Z</time></trkpt>
<trkpt lat="54.3182970000" lon="-2.0957780000"><ele>259</ele><time>2015-10-15T12:29:08Z</time></trkpt>
<trkpt lat="54.3182740000" lon="-2.0957900000"><ele>259</ele><time>2015-10-15T12:29:21Z</time></trkpt>
<trkpt lat="54.3182310000" lon="-2.0958060000"><ele>259</ele><time>2015-10-15T12:29:29Z</time></trkpt>
<trkpt lat="54.3180570000" lon="-2.0958750000"><ele>247</ele><time>2015-10-15T12:29:58Z</time></trkpt>
<trkpt lat="54.3179480000" lon="-2.0958650000"><ele>247</ele><time>2015-10-15T12:30:00Z</time></trkpt>
<trkpt lat="54.3179120000" lon="-2.0958540000"><ele>247</ele><time>2015-10-15T12:30:01Z</time></trkpt>
<trkpt lat="54.3178900000" lon="-2.0958390000"><ele>247</ele><time>2015-10-15T12:30:05Z</time></trkpt>
<trkpt lat="54.3178460000" lon="-2.0958260000"><ele>247</ele><time>2015-10-15T12:30:07Z</time></trkpt>
<trkpt lat="54.3179320000" lon="-2.0958170000"><ele>247</ele><time>2015-10-15T12:31:14Z</time></trkpt>
<trkpt lat="54.3180490000" lon="-2.0959330000"><ele>247</ele><time>2015-10-15T12:31:38Z</time></trkpt>
<trkpt lat="54.3181080000" lon="-2.0961540000"><ele>247</ele><time>2015-10-15T12:31:45Z</time></trkpt>
<trkpt lat="54.3181380000" lon="-2.0961780000"><ele>247</ele><time>2015-10-15T12:31:46Z</time></trkpt>
<trkpt lat="54.3181680000" lon="-2.0962190000"><ele>259</ele><time>2015-10-15T12:31:53Z</time></trkpt>
<trkpt lat="54.3182230000" lon="-2.0962960000"><ele>259</ele><time>2015-10-15T12:31:57Z</time></trkpt>
<trkpt lat="54.3182420000" lon="-2.0962820000"><ele>259</ele><time>2015-10-15T12:31:58Z</time></trkpt>
<trkpt lat="54.3182720000" lon="-2.0962890000"><ele>259</ele><time>2015-10-15T12:32:14Z</time></trkpt>
<trkpt lat="54.3183250000" lon="-2.0963010000"><ele>259</ele></trkpt>
<trkpt lat="54.3183260000" lon="-2.0962950000"><ele>259</ele><time>2015-10-15T12:32:16Z</time></trkpt>
<trkpt lat="54.3183260000" lon="-2.0962940000"><ele>259</ele><time>2015-10-15T12:32:17Z</time></trkpt>
<trkpt lat="54.3183260000" lon="-2.0962940000"><ele>259</ele><time>2015-10-15T12:32:20Z</time></trkpt>
<trkpt lat="54.3183260000" lon="-2.0962940000"><ele>259</ele></trkpt>
<trkpt lat="54.3183260000" lon="-2.0962940000"><ele>259</ele><time>2015-10-15T12:32:21Z</time></trkpt>
<trkpt lat="54.3183260000" lon="-2.0962940000"><ele>259</ele><time>2015-10-15T12:32:23Z</time></trkpt>
<trkpt lat="54.3183260000" lon="-2.0962940000"><ele>259</ele><time>2015-10-15T12:32:24Z</time></trkpt>
<trkpt lat="54.3183250000" lon="-2.0962940000"><ele>259</ele><time>2015-10-15T12:32:25Z</time></trkpt>
<trkpt lat="54.3183250000" lon="-2.0962950000"><ele>259</ele><time>2015-10-15T12:32:26Z</time></trkpt>
<trkpt lat="54.3183250000" lon="-2.0962950000"><ele>259</ele></trkpt>
<trkpt lat="54.3183250000" lon="-2.0962950000"><ele>259</ele><time>2015-10-15T12:32:27Z</time></trkpt>
<trkpt lat="54.3183240000" lon="-2.0962950000"><ele>259</ele><time>2015-10-15T12:32:29Z</time></trkpt>
<trkpt lat="54.3183240000" lon="-2.0962950000"><ele>259</ele><time>2015-10-15T12:32:30Z</time></trkpt>
<trkpt lat="54.3183230000" lon="-2.0962950000"><ele>259</ele><time>2015-10-15T12:32:31Z</time></trkpt>
<trkpt lat="54.3183230000" lon="-2.0962950000"><ele>259</ele><time>2015-10-15T12:32:33Z</time></trkpt>
<trkpt lat="54.3183220000" lon="-2.0962950000"><ele>259</ele></trkpt>
<trkpt lat="54.3183220000" lon="-2.0962950000"><ele>259</ele><time>2015-10-15T12:32:34Z</time></trkpt>
<trkpt lat="54.3183210000" lon="-2.0962950000"><ele>259</ele><time>2015-10-15T12:32:35Z</time></trkpt>
<trkpt lat="54.3183210000" lon="-2.0962950000"><ele>259</ele><time>2015-10-15T12:32:36Z</time></trkpt>
<trkpt lat="54.3183210000" lon="-2.0962970000"><ele>259</ele></trkpt>
<trkpt lat="54.3183210000" lon="-2.0962980000"><ele>259</ele><time>2015-10-15T12:32:38Z</time></trkpt>
<trkpt lat="54.3183220000" lon="-2.0963010000"><ele>259</ele><time>2015-10-15T12:32:39Z</time></trkpt>
<trkpt lat="54.3183230000" lon="-2.0963030000"><ele>259</ele><time>2015-10-15T12:32:40Z</time></trkpt>
<trkpt lat="54.3183240000" lon="-2.0963060000"><ele>259</ele><time>2015-10-15T12:32:41Z</time></trkpt>
<trkpt lat="54.3183250000" lon="-2.0963100000"><ele>259</ele><time>2015-10-15T12:32:42Z</time></trkpt>
<trkpt lat="54.3183260000" lon="-2.0963130000"><ele>259</ele></trkpt>
<trkpt lat="54.3183280000" lon="-2.0963170000"><ele>259</ele><time>2015-10-15T12:32:43Z</time></trkpt>
<trkpt lat="54.3183290000" lon="-2.0963200000"><ele>259</ele><time>2015-10-15T12:32:45Z</time></trkpt>
<trkpt lat="54.3183310000" lon="-2.0963240000"><ele>259</ele><time>2015-10-15T12:32:46Z</time></trkpt>
<trkpt lat="54.3183330000" lon="-2.0963280000"><ele>259</ele><time>2015-10-15T12:32:47Z</time></trkpt>
<trkpt lat="54.3183350000" lon="-2.0963310000"><ele>259</ele><time>2015-10-15T12:32:48Z</time></trkpt>
<trkpt lat="54.3183370000" lon="-2.0963340000"><ele>259</ele><time>2015-10-15T12:32:49Z</time></trkpt>
<trkpt lat="54.3183390000" lon="-2.0963370000"><ele>259</ele></trkpt>
<trkpt lat="54.3183410000" lon="-2.0963400000"><ele>259</ele><time>2015-10-15T12:32:51Z</time></trkpt>
<trkpt lat="54.3183530000" lon="-2.0963790000"><ele>259</ele><time>2015-10-15T12:32:58Z</time></trkpt>
<trkpt lat="54.3183850000" lon="-2.0965930000"><ele>259</ele><time>2015-10-15T12:33:00Z</time></trkpt>
<trkpt lat="54.3183870000" lon="-2.0966400000"><ele>259</ele><time>2015-10-15T12:33:02Z</time></trkpt>
<trkpt lat="54.3183880000" lon="-2.0966750000"><ele>259</ele><time>2015-10-15T12:33:07Z</time></trkpt>
<trkpt lat="54.3183880000" lon="-2.0966770000"><ele>259</ele><time>2015-10-15T12:33:08Z</time></trkpt>
<trkpt lat="54.3183890000" lon="-2.0966780000"><ele>259</ele><time>2015-10-15T12:33:10Z</time></trkpt>
<trkpt lat="54.3183890000" lon="-2.0966790000"><ele>259</ele><time>2015-10-15T12:33:11Z</time></trkpt>
<trkpt lat="54.3183890000" lon="-2.0966810000"><ele>259</ele><time>2015-10-15T12:33:12Z</time></trkpt>
<trkpt lat="54.3183890000" lon="-2.0966840000"><ele>259</ele><time>2015-10-15T12:33:13Z</time></trkpt>
<trkpt lat="54.3183900000" lon="-2.0966870000"><ele>259</ele><time>2015-10-15T12:33:14Z</time></trkpt>
<trkpt lat="54.3183900000" lon="-2.0966900000"><ele>259</ele></trkpt>
<trkpt lat="54.3184100000" lon="-2.0968360000"><ele>269</ele><time>2015-10-15T12:33:16Z</time></trkpt>
<trkpt lat="54.3184120000" lon="-2.0968500000"><ele>269</ele><time>2015-10-15T12:33:17Z</time></trkpt>
<trkpt lat="54.3184140000" lon="-2.0968630000"><ele>269</ele><time>2015-10-15T12:33:18Z</time></trkpt>
<trkpt lat="54.3184140000" lon="-2.0968630000"><ele>269</ele><time>2015-10-15T12:33:19Z</time></trkpt>
<trkpt lat="54.3184140000" lon="-2.0968630000"><ele>269</ele><time>2015-10-15T12:33:20Z</time></trkpt>
<trkpt lat="54.3184140000" lon="-2.0968630000"><ele>269</ele></trkpt>
<trkpt lat="54.3184140000" lon="-2.0968640000"><ele>269</ele><time>2015-10-15T12:33:22Z</time></trkpt>
<trkpt lat="54.3184140000" lon="-2.0968660000"><ele>269</ele><time>2015-10-15T12:33:23Z</time></trkpt>
<trkpt lat="54.3184150000" lon="-2.0968670000"><ele>269</ele><time>2015-10-15T12:33:24Z</time></trkpt>
<trkpt lat="54.3184150000" lon="-2.0968690000"><ele>269</ele><time>2015-10-15T12:33:25Z</time></trkpt>
<trkpt lat="54.3184160000" lon="-2.0968730000"><ele>269</ele><time>2015-10-15T12:33:26Z</time></trkpt>
<trkpt lat="54.3184170000" lon="-2.0968760000"><ele>269</ele></trkpt>
<trkpt lat="54.3184180000" lon="-2.0968810000"><ele>269</ele><time>2015-10-15T12:33:27Z</time></trkpt>
<trkpt lat="54.3184190000" lon="-2.0968860000"><ele>269</ele><time>2015-10-15T12:33:28Z</time></trkpt>
<trkpt lat="54.3184200000" lon="-2.0968920000"><ele>269</ele><time>2015-10-15T12:33:30Z</time></trkpt>
<trkpt lat="54.3184220000" lon="-2.0968980000"><ele>269</ele><time>2015-10-15T12:33:31Z</time></trkpt>
<trkpt lat="54.3184230000" lon="-2.0969050000"><ele>269</ele><time>2015-10-15T12:33:33Z</time></trkpt>
<trkpt lat="54.3184250000" lon="-2.0969130000"><ele>269</ele></trkpt>
<trkpt lat="54.3184280000" lon="-2.0969220000"><ele>269</ele><time>2015-10-15T12:33:34Z</time></trkpt>
<trkpt lat="54.3184300000" lon="-2.0969310000"><ele>269</ele><time>2015-10-15T12:33:35Z</time></trkpt>
<trkpt lat="54.3184320000" lon="-2.0969410000"><ele>269</ele><time>2015-10-15T12:33:36Z</time></trkpt>
<trkpt lat="54.3184350000" lon="-2.0969510000"><ele>269</ele><time>2015-10-15T12:33:37Z</time></trkpt>
<trkpt lat="54.3184370000" lon="-2.0969620000"><ele>269</ele></trkpt>
<trkpt lat="54.3184400000" lon="-2.0969730000"><ele>269</ele><time>2015-10-15T12:33:39Z</time></trkpt>
<trkpt lat="54.3184420000" lon="-2.0969840000"><ele>269</ele><time>2015-10-15T12:33:40Z</time></trkpt>
<trkpt lat="54.3184450000" lon="-2.0969960000"><ele>269</ele><time>2015-10-15T12:33:41Z</time></trkpt>
<trkpt lat="54.3184990000" lon="-2.0972500000"><ele>269</ele><time>2015-10-15T12:33:42Z</time></trkpt>
<trkpt lat="54.3185010000" lon="-2.0972650000"><ele>269</ele><time>2015-10-15T12:33:43Z</time></trkpt>
<trkpt lat="54.3185030000" lon="-2.0972840000"><ele>269</ele></trkpt>
<trkpt lat="54.3185040000" lon="-2.0973040000"><ele>269</ele><time>2015-10-15T12:33:45Z</time></trkpt>
<trkpt lat="54.3185060000" lon="-2.0973170000"><ele>269</ele></trkpt>
<trkpt lat="54.3185090000" lon="-2.0973270000"><ele>269</ele><time>2015-10-15T12:33:47Z</time></trkpt>
<trkpt lat="54.3185090000" lon="-2.0973270000"><ele>269</ele><time>2015-10-15T12:33:48Z</time></trkpt>
<trkpt lat="54.3185090000" lon="-2.0973270000"><ele>269</ele><time>2015-10-15T12:33:49Z</time></trkpt>
<trkpt lat="54.3185090000" lon="-2.0973270000"><ele>269</ele></trkpt>
<trkpt lat="54.3185090000" lon="-2.0973280000"><ele>269</ele><time>2015-10-15T12:33:51Z</time></trkpt>
<trkpt lat="54.3185090000" lon="-2.0973290000"><ele>269</ele></trkpt>
<trkpt lat="54.3185100000" lon="-2.0973300000"><ele>269</ele><time>2015-10-15T12:33:53Z</time></trkpt>
<trkpt lat="54.3185100000" lon="-2.0973320000"><ele>269</ele><time>2015-10-15T12:33:54Z</time></trkpt>
<trkpt lat="54.3185100000" lon="-2.0973330000"><ele>269</ele><time>2015-10-15T12:33:55Z</time></trkpt>
<trkpt lat="54.3185110000" lon="-2.0973360000"><ele>269</ele><time>2015-10-15T12:33:56Z</time></trkpt>
<trkpt lat="54.3185120000" lon="-2.0973380000"><ele>269</ele></trkpt>
<trkpt lat="54.3185120000" lon="-2.0973410000"><ele>269</ele><time>2015-10-15T12:33:58Z</time></trkpt>
<trkpt lat="54.3185130000" lon="-2.0973440000"><ele>269</ele><time>2015-10-15T12:33:59Z</time></trkpt>
<trkpt lat="54.3185140000" lon="-2.0973470000"><ele>269</ele><time>2015-10-15T12:34:00Z</time></trkpt>
<trkpt lat="54.3185150000" lon="-2.0973490000"><ele>269</ele><time>2015-10-15T12:34:01Z</time></trkpt>
<trkpt lat="54.3185160000" lon="-2.0973520000"><ele>269</ele><time>2015-10-15T12:34:02Z</time></trkpt>
<trkpt lat="54.3185170000" lon="-2.0973540000"><ele>269</ele></trkpt>
<trkpt lat="54.3185180000" lon="-2.0973580000"><ele>269</ele><time>2015-10-15T12:34:03Z</time></trkpt>
<trkpt lat="54.3185190000" lon="-2.0973620000"><ele>269</ele><time>2015-10-15T12:34:05Z</time></trkpt>
<trkpt lat="54.3185190000" lon="-2.0973650000"><ele>269</ele><time>2015-10-15T12:34:06Z</time></trkpt>
<trkpt lat="54.3185200000" lon="-2.0973690000"><ele>269</ele><time>2015-10-15T12:34:07Z</time></trkpt>
<trkpt lat="54.3185210000" lon="-2.0973730000"><ele>269</ele><time>2015-10-15T12:34:08Z</time></trkpt>
<trkpt lat="54.3185210000" lon="-2.0973760000"><ele>269</ele></trkpt>
<trkpt lat="54.3185220000" lon="-2.0973790000"><ele>269</ele><time>2015-10-15T12:34:10Z</time></trkpt>
<trkpt lat="54.3185220000" lon="-2.0973820000"><ele>269</ele><time>2015-10-15T12:34:11Z</time></trkpt>
<trkpt lat="54.3185230000" lon="-2.0973850000"><ele>269</ele><time>2015-10-15T12:34:12Z</time></trkpt>
<trkpt lat="54.3185230000" lon="-2.0973880000"><ele>269</ele><time>2015-10-15T12:34:13Z</time></trkpt>
<trkpt lat="54.3185230000" lon="-2.0973910000"><ele>269</ele><time>2015-10-15T12:34:14Z</time></trkpt>
<trkpt lat="54.3185240000" lon="-2.0973930000"><ele>269</ele><time>2015-10-15T12:34:15Z</time></trkpt>
<trkpt lat="54.3185240000" lon="-2.0973950000"><ele>269</ele></trkpt>
<trkpt lat="54.3185240000" lon="-2.0973970000"><ele>269</ele><time>2015-10-15T12:34:17Z</time></trkpt>
<trkpt lat="54.3185240000" lon="-2.0973990000"><ele>269</ele><time>2015-10-15T12:34:18Z</time></trkpt>
<trkpt lat="54.3185240000" lon="-2.0974010000"><ele>269</ele><time>2015-10-15T12:34:19Z</time></trkpt>
<trkpt lat="54.3185240000" lon="-2.0974030000"><ele>269</ele><time>2015-10-15T12:34:20Z</time></trkpt>
<trkpt lat="54.3185240000" lon="-2.0974050000"><ele>269</ele><time>2015-10-15T12:34:21Z</time></trkpt>
<trkpt lat="54.3185240000" lon="-2.0974070000"><ele>269</ele></trkpt>
<trkpt lat="54.3185250000" lon="-2.0974090000"><ele>269</ele><time>2015-10-15T12:34:23Z</time></trkpt>
<trkpt lat="54.3185250000" lon="-2.0974110000"><ele>269</ele><time>2015-10-15T12:34:24Z</time></trkpt>
<trkpt lat="54.3185250000" lon="-2.0974130000"><ele>269</ele><time>2015-10-15T12:34:25Z</time></trkpt>
<trkpt lat="54.3185250000" lon="-2.0974140000"><ele>269</ele><time>2015-10-15T12:34:26Z</time></trkpt>
<trkpt lat="54.3185250000" lon="-2.0974160000"><ele>269</ele><time>2015-10-15T12:34:27Z</time></trkpt>
<trkpt lat="54.3185250000" lon="-2.0974170000"><ele>269</ele></trkpt>
<trkpt lat="54.3185250000" lon="-2.0974180000"><ele>269</ele><time>2015-10-15T12:34:29Z</time></trkpt>
<trkpt lat="54.3185250000" lon="-2.0974190000"><ele>269</ele></trkpt>
<trkpt lat="54.3185250000" lon="-2.0974190000"><ele>269</ele><time>2015-10-15T12:34:31Z</time></trkpt>
<trkpt lat="54.3185250000" lon="-2.0974200000"><ele>269</ele><time>2015-10-15T12:34:33Z</time></trkpt>
<trkpt lat="54.3185250000" lon="-2.0974210000"><ele>269</ele></trkpt>
<trkpt lat="54.3185250000" lon="-2.0974210000"><ele>269</ele><time>2015-10-15T12:34:34Z</time></trkpt>
<trkpt lat="54.3185250000" lon="-2.0974220000"><ele>269</ele><time>2015-10-15T12:34:35Z</time></trkpt>
<trkpt lat="54.3185250000" lon="-2.0974220000"><ele>269</ele><time>2015-10-15T12:34:36Z</time></trkpt>
<trkpt lat="54.3185250000" lon="-2.0974220000"><ele>269</ele></trkpt>
<trkpt lat="54.3185250000" lon="-2.0974230000"><ele>269</ele><time>2015-10-15T12:34:38Z</time></trkpt>
<trkpt lat="54.3185250000" lon="-2.0974230000"><ele>269</ele><time>2015-10-15T12:34:39Z</time></trkpt>
<trkpt lat="54.3185250000" lon="-2.0974240000"><ele>269</ele><time>2015-10-15T12:34:40Z</time></trkpt>
<trkpt lat="54.3185250000" lon="-2.0974240000"><ele>269</ele><time>2015-10-15T12:34:41Z</time></trkpt>
<trkpt lat="54.3185250000" lon="-2.0974250000"><ele>269</ele><time>2015-10-15T12:34:42Z</time></trkpt>
<trkpt lat="54.3185250000" lon="-2.0974250000"><ele>269</ele></trkpt>
<trkpt lat="54.3185250000" lon="-2.0974250000"><ele>269</ele><time>2015-10-15T12:34:43Z</time></trkpt>
<trkpt lat="54.3185250000" lon="-2.0974250000"><ele>269</ele><time>2015-10-15T12:34:44Z</time></trkpt>
<trkpt lat="54.3185250000" lon="-2.0974250000"><ele>269</ele><time>2015-10-15T12:34:46Z</time></trkpt>
<trkpt lat="54.3185250000" lon="-2.0974250000"><ele>269</ele><time>2015-10-15T12:34:47Z</time></trkpt>
<trkpt lat="54.3185250000" lon="-2.0974250000"><ele>269</ele><time>2015-10-15T12:34:48Z</time></trkpt>
<trkpt lat="54.3185250000" lon="-2.0974250000"><ele>269</ele><time>2015-10-15T12:34:49Z</time></trkpt>
<trkpt lat="54.3185250000" lon="-2.0974250000"><ele>269</ele></trkpt>
<trkpt lat="54.3185250000" lon="-2.0974250000"><ele>269</ele><time>2015-10-15T12:34:51Z</time></trkpt>
<trkpt lat="54.3185250000" lon="-2.0974250000"><ele>269</ele><time>2015-10-15T12:34:52Z</time></trkpt>
<trkpt lat="54.3185240000" lon="-2.0974250000"><ele>269</ele><time>2015-10-15T12:34:53Z</time></trkpt>
<trkpt lat="54.3185240000" lon="-2.0974250000"><ele>269</ele><time>2015-10-15T12:34:54Z</time></trkpt>
<trkpt lat="54.3185230000" lon="-2.0974250000"><ele>269</ele><time>2015-10-15T12:34:55Z</time></trkpt>
<trkpt lat="54.3185230000" lon="-2.0974260000"><ele>269</ele></trkpt>
<trkpt lat="54.3185230000" lon="-2.0974260000"><ele>269</ele><time>2015-10-15T12:34:57Z</time></trkpt>
<trkpt lat="54.3185220000" lon="-2.0974270000"><ele>269</ele><time>2015-10-15T12:34:58Z</time></trkpt>
<trkpt lat="54.3185220000" lon="-2.0974270000"><ele>269</ele><time>2015-10-15T12:34:59Z</time></trkpt>
<trkpt lat="54.3185220000" lon="-2.0974270000"><ele>269</ele><time>2015-10-15T12:35:00Z</time></trkpt>
<trkpt lat="54.3185220000" lon="-2.0974270000"><ele>269</ele><time>2015-10-15T12:35:01Z</time></trkpt>
<trkpt lat="54.3185210000" lon="-2.0974270000"><ele>269</ele></trkpt>
<trkpt lat="54.3185210000" lon="-2.0974270000"><ele>269</ele><time>2015-10-15T12:35:03Z</time></trkpt>
<trkpt lat="54.3185200000" lon="-2.0974270000"><ele>269</ele><time>2015-10-15T12:35:04Z</time></trkpt>
<trkpt lat="54.3185200000" lon="-2.0974260000"><ele>269</ele><time>2015-10-15T12:35:05Z</time></trkpt>
<trkpt lat="54.3185190000" lon="-2.0974260000"><ele>269</ele><time>2015-10-15T12:35:06Z</time></trkpt>
<trkpt lat="54.3185190000" lon="-2.0974250000"><ele>269</ele><time>2015-10-15T12:35:07Z</time></trkpt>
<trkpt lat="54.3185180000" lon="-2.0974240000"><ele>269</ele><time>2015-10-15T12:35:08Z</time></trkpt>
<trkpt lat="54.3185180000" lon="-2.0974230000"><ele>269</ele></trkpt>
<trkpt lat="54.3185170000" lon="-2.0974220000"><ele>269</ele><time>2015-10-15T12:35:10Z</time></trkpt>
<trkpt lat="54.3185170000" lon="-2.0974200000"><ele>269</ele><time>2015-10-15T12:35:11Z</time></trkpt>
<trkpt lat="54.3185170000" lon="-2.0974190000"><ele>269</ele><time>2015-10-15T12:35:12Z</time></trkpt>
<trkpt lat="54.3185170000" lon="-2.0974180000"><ele>269</ele><time>2015-10-15T12:35:13Z</time></trkpt>
<trkpt lat="54.3185170000" lon="-2.0974170000"><ele>269</ele><time>2015-10-15T12:35:14Z</time></trkpt>
<trkpt lat="54.3185170000" lon="-2.0974160000"><ele>269</ele></trkpt>
<trkpt lat="54.3185170000" lon="-2.0974150000"><ele>269</ele><time>2015-10-15T12:35:16Z</time></trkpt>
<trkpt lat="54.3185170000" lon="-2.0974140000"><ele>269</ele><time>2015-10-15T12:35:17Z</time></trkpt>
<trkpt lat="54.3185170000" lon="-2.0974140000"><ele>269</ele><time>2015-10-15T12:35:18Z</time></trkpt>
<trkpt lat="54.3185180000" lon="-2.0974140000"><ele>269</ele><time>2015-10-15T12:35:19Z</time></trkpt>
<trkpt lat="54.3185180000" lon="-2.0974140000"><ele>269</ele><time>2015-10-15T12:35:20Z</time></trkpt>
<trkpt lat="54.3185190000" lon="-2.0974140000"><ele>269</ele><time>2015-10-15T12:35:21Z</time></trkpt>
<trkpt lat="54.3185190000" lon="-2.0974140000"><ele>269</ele><time>2015-10-15T12:35:22Z</time></trkpt>
<trkpt lat="54.3185200000" lon="-2.0974140000"><ele>269</ele><time>2015-10-15T12:35:23Z</time></trkpt>
<trkpt lat="54.3185210000" lon="-2.0974150000"><ele>269</ele><time>2015-10-15T12:35:24Z</time></trkpt>
<trkpt lat="54.3185210000" lon="-2.0974150000"><ele>269</ele><time>2015-10-15T12:35:25Z</time></trkpt>
<trkpt lat="54.3185220000" lon="-2.0974160000"><ele>269</ele><time>2015-10-15T12:35:26Z</time></trkpt>
<trkpt lat="54.3185230000" lon="-2.0974170000"><ele>269</ele><time>2015-10-15T12:35:27Z</time></trkpt>
<trkpt lat="54.3185240000" lon="-2.0974190000"><ele>269</ele><time>2015-10-15T12:35:28Z</time></trkpt>
<trkpt lat="54.3185260000" lon="-2.0974200000"><ele>269</ele><time>2015-10-15T12:35:29Z</time></trkpt>
<trkpt lat="54.3185300000" lon="-2.0974670000"><ele>269</ele><time>2015-10-15T12:36:06Z</time></trkpt>
<trkpt lat="54.3185360000" lon="-2.0975350000"><ele>269</ele><time>2015-10-15T12:36:08Z</time></trkpt>
<trkpt lat="54.3185450000" lon="-2.0975720000"><ele>269</ele><time>2015-10-15T12:36:10Z</time></trkpt>
<trkpt lat="54.3185500000" lon="-2.0976090000"><ele>269</ele><time>2015-10-15T12:36:21Z</time></trkpt>
<trkpt lat="54.3185520000" lon="-2.0976440000"><ele>269</ele><time>2015-10-15T12:36:27Z</time></trkpt>
<trkpt lat="54.3185560000" lon="-2.0976840000"><ele>269</ele><time>2015-10-15T12:36:31Z</time></trkpt>
<trkpt lat="54.3185800000" lon="-2.0979160000"><ele>269</ele><time>2015-10-15T12:36:32Z</time></trkpt>
<trkpt lat="54.3185850000" lon="-2.0979510000"><ele>269</ele><time>2015-10-15T12:36:33Z</time></trkpt>
<trkpt lat="54.3185870000" lon="-2.0980080000"><ele>269</ele><time>2015-10-15T12:36:47Z</time></trkpt>
<trkpt lat="54.3185920000" lon="-2.0982100000"><ele>269</ele><time>2015-10-15T12:36:50Z</time></trkpt>
<trkpt lat="54.3185880000" lon="-2.0982400000"><ele>269</ele><time>2015-10-15T12:36:55Z</time></trkpt>
<trkpt lat="54.3185880000" lon="-2.0982400000"><ele>269</ele><time>2015-10-15T12:36:56Z</time></trkpt>
<trkpt lat="54.3185880000" lon="-2.0982400000"><ele>269</ele><time>2015-10-15T12:36:57Z</time></trkpt>
<trkpt lat="54.3185880000" lon="-2.0982410000"><ele>269</ele><time>2015-10-15T12:36:58Z</time></trkpt>
<trkpt lat="54.3185880000" lon="-2.0982420000"><ele>269</ele></trkpt>
<trkpt lat="54.3185870000" lon="-2.0982440000"><ele>269</ele><time>2015-10-15T12:36:59Z</time></trkpt>
<trkpt lat="54.3185870000" lon="-2.0982470000"><ele>269</ele><time>2015-10-15T12:37:00Z</time></trkpt>
<trkpt lat="54.3185870000" lon="-2.0982500000"><ele>269</ele><time>2015-10-15T12:37:02Z</time></trkpt>
<trkpt lat="54.3185870000" lon="-2.0982540000"><ele>269</ele><time>2015-10-15T12:37:03Z</time></trkpt>
<trkpt lat="54.3185870000" lon="-2.0982590000"><ele>269</ele><time>2015-10-15T12:37:04Z</time></trkpt>
<trkpt lat="54.3185870000" lon="-2.0982640000"><ele>269</ele><time>2015-10-15T12:37:05Z</time></trkpt>
<trkpt lat="54.3185870000" lon="-2.0982700000"><ele>269</ele></trkpt>
<trkpt lat="54.3185880000" lon="-2.0982760000"><ele>269</ele><time>2015-10-15T12:37:07Z</time></trkpt>
<trkpt lat="54.3185880000" lon="-2.0982830000"><ele>269</ele><time>2015-10-15T12:37:08Z</time></trkpt>
<trkpt lat="54.3185880000" lon="-2.0982900000"><ele>269</ele><time>2015-10-15T12:37:09Z</time></trkpt>
<trkpt lat="54.3185880000" lon="-2.0982970000"><ele>269</ele><time>2015-10-15T12:37:10Z</time></trkpt>
<trkpt lat="54.3185880000" lon="-2.0983040000"><ele>269</ele><time>2015-10-15T12:37:11Z</time></trkpt>
<trkpt lat="54.3185880000" lon="-2.0983130000"><ele>269</ele></trkpt>
<trkpt lat="54.3185880000" lon="-2.0983210000"><ele>269</ele><time>2015-10-15T12:37:12Z</time></trkpt>
<trkpt lat="54.3185880000" lon="-2.0983300000"><ele>269</ele><time>2015-10-15T12:37:14Z</time></trkpt>
<trkpt lat="54.3185880000" lon="-2.0983400000"><ele>269</ele><time>2015-10-15T12:37:15Z</time></trkpt>
<trkpt lat="54.3185880000" lon="-2.0983490000"><ele>269</ele><time>2015-10-15T12:37:16Z</time></trkpt>
<trkpt lat="54.3185880000" lon="-2.0983590000"><ele>269</ele><time>2015-10-15T12:37:17Z</time></trkpt>
<trkpt lat="54.3185870000" lon="-2.0983680000"><ele>269</ele></trkpt>
<trkpt lat="54.3185870000" lon="-2.0983780000"><ele>269</ele><time>2015-10-15T12:37:19Z</time></trkpt>
<trkpt lat="54.3185860000" lon="-2.0983870000"><ele>269</ele><time>2015-10-15T12:37:20Z</time></trkpt>
<trkpt lat="54.3185860000" lon="-2.0983970000"><ele>269</ele><time>2015-10-15T12:37:21Z</time></trkpt>
<trkpt lat="54.3185850000" lon="-2.0984060000"><ele>269</ele><time>2015-10-15T12:37:22Z</time></trkpt>
<trkpt lat="54.3185840000" lon="-2.0984150000"><ele>269</ele><time>2015-10-15T12:37:23Z</time></trkpt>
<trkpt lat="54.3185830000" lon="-2.0984240000"><ele>269</ele><time>2015-10-15T12:37:24Z</time></trkpt>
<trkpt lat="54.3185820000" lon="-2.0984340000"><ele>269</ele></trkpt>
<trkpt lat="54.3185820000" lon="-2.0984440000"><ele>269</ele><time>2015-10-15T12:37:26Z</time></trkpt>
<trkpt lat="54.3185810000" lon="-2.0984540000"><ele>269</ele><time>2015-10-15T12:37:27Z</time></trkpt>
<trkpt lat="54.3185810000" lon="-2.0984640000"><ele>269</ele><time>2015-10-15T12:37:28Z</time></trkpt>
<trkpt lat="54.3185810000" lon="-2.0984750000"><ele>269</ele><time>2015-10-15T12:37:29Z</time></trkpt>
<trkpt lat="54.3185810000" lon="-2.0984860000"><ele>269</ele><time>2015-10-15T12:37:30Z</time></trkpt>
<trkpt lat="54.3185810000" lon="-2.0984970000"><ele>269</ele></trkpt>
<trkpt lat="54.3185820000" lon="-2.0985090000"><ele>269</ele><time>2015-10-15T12:37:32Z</time></trkpt>
<trkpt lat="54.3185820000" lon="-2.0985210000"><ele>269</ele><time>2015-10-15T12:37:33Z</time></trkpt>
<trkpt lat="54.3185820000" lon="-2.0985340000"><ele>269</ele><time>2015-10-15T12:37:34Z</time></trkpt>
<trkpt lat="54.3185830000" lon="-2.0985470000"><ele>269</ele><time>2015-10-15T12:37:35Z</time></trkpt>
<trkpt lat="54.3185830000" lon="-2.0985610000"><ele>269</ele><time>2015-10-15T12:37:36Z</time></trkpt>
<trkpt lat="54.3185840000" lon="-2.0985740000"><ele>269</ele></trkpt>
<trkpt lat="54.3185850000" lon="-2.0985880000"><ele>269</ele><time>2015-10-15T12:37:38Z</time></trkpt>
<trkpt lat="54.3185850000" lon="-2.0986020000"><ele>269</ele><time>2015-10-15T12:37:39Z</time></trkpt>
<trkpt lat="54.3185860000" lon="-2.0986160000"><ele>269</ele><time>2015-10-15T12:37:40Z</time></trkpt>
<trkpt lat="54.3185870000" lon="-2.0986300000"><ele>269</ele><time>2015-10-15T12:37:41Z</time></trkpt>
<trkpt lat="54.3185880000" lon="-2.0986440000"><ele>269</ele><time>2015-10-15T12:37:42Z</time></trkpt>
<trkpt lat="54.3185890000" lon="-2.0986580000"><ele>269</ele></trkpt>
<trkpt lat="54.3185900000" lon="-2.0986720000"><ele>269</ele><time>2015-10-15T12:37:43Z</time></trkpt>
<trkpt lat="54.3185900000" lon="-2.0986870000"><ele>269</ele><time>2015-10-15T12:37:44Z</time></trkpt>
<trkpt lat="54.3185910000" lon="-2.0987010000"><ele>269</ele><time>2015-10-15T12:37:46Z</time></trkpt>
<trkpt lat="54.3185920000" lon="-2.0987160000"><ele>269</ele><time>2015-10-15T12:37:47Z</time></trkpt>
<trkpt lat="54.3185930000" lon="-2.0987310000"><ele>269</ele><time>2015-10-15T12:37:48Z</time></trkpt>
<trkpt lat="54.3185940000" lon="-2.0987460000"><ele>269</ele><time>2015-10-15T12:37:49Z</time></trkpt>
<trkpt lat="54.3185950000" lon="-2.0987600000"><ele>269</ele><time>2015-10-15T12:37:50Z</time></trkpt>
<trkpt lat="54.3185960000" lon="-2.0987750000"><ele>269</ele><time>2015-10-15T12:37:51Z</time></trkpt>
<trkpt lat="54.3185970000" lon="-2.0987890000"><ele>269</ele><time>2015-10-15T12:37:52Z</time></trkpt>
<trkpt lat="54.3185980000" lon="-2.0988040000"><ele>269</ele></trkpt>
<trkpt lat="54.3185980000" lon="-2.0988200000"><ele>269</ele><time>2015-10-15T12:37:54Z</time></trkpt>
<trkpt lat="54.3185990000" lon="-2.0988350000"><ele>269</ele><time>2015-10-15T12:37:55Z</time></trkpt>
<trkpt lat="54.3185990000" lon="-2.0988510000"><ele>269</ele><time>2015-10-15T12:37:56Z</time></trkpt>
<trkpt lat="54.3185990000" lon="-2.0988670000"><ele>269</ele><time>2015-10-15T12:37:57Z</time></trkpt>
<trkpt lat="54.3186090000" lon="-2.0991420000"><ele>269</ele><time>2015-10-15T12:37:58Z</time></trkpt>
<trkpt lat="54.3186110000" lon="-2.0991550000"><ele>269</ele></trkpt>
<trkpt lat="54.3186160000" lon="-2.0991630000"><ele>269</ele><time>2015-10-15T12:38:00Z</time></trkpt>
<trkpt lat="54.3186160000" lon="-2.0991630000"><ele>269</ele></trkpt>
<trkpt lat="54.3186160000" lon="-2.0991630000"><ele>269</ele><time>2015-10-15T12:38:02Z</time></trkpt>
<trkpt lat="54.3186160000" lon="-2.0991640000"><ele>269</ele><time>2015-10-15T12:38:03Z</time></trkpt>
<trkpt lat="54.3186160000" lon="-2.0991650000"><ele>269</ele><time>2015-10-15T12:38:04Z</time></trkpt>
<trkpt lat="54.3186170000" lon="-2.0991670000"><ele>269</ele><time>2015-10-15T12:38:05Z</time></trkpt>
<trkpt lat="54.3186170000" lon="-2.0991690000"><ele>269</ele></trkpt>
<trkpt lat="54.3186170000" lon="-2.0991720000"><ele>269</ele><time>2015-10-15T12:38:07Z</time></trkpt>
<trkpt lat="54.3186170000" lon="-2.0991750000"><ele>269</ele><time>2015-10-15T12:38:08Z</time></trkpt>
<trkpt lat="54.3186170000" lon="-2.0991790000"><ele>269</ele><time>2015-10-15T12:38:09Z</time></trkpt>
<trkpt lat="54.3186180000" lon="-2.0991840000"><ele>269</ele><time>2015-10-15T12:38:10Z</time></trkpt>
<trkpt lat="54.3186180000" lon="-2.0991900000"><ele>269</ele><time>2015-10-15T12:38:11Z</time></trkpt>
<trkpt lat="54.3186190000" lon="-2.0991960000"><ele>269</ele></trkpt>
<trkpt lat="54.3186190000" lon="-2.0992030000"><ele>269</ele><time>2015-10-15T12:38:13Z</time></trkpt>
<trkpt lat="54.3186200000" lon="-2.0992110000"><ele>269</ele><time>2015-10-15T12:38:14Z</time></trkpt>
<trkpt lat="54.3186200000" lon="-2.0992200000"><ele>269</ele><time>2015-10-15T12:38:15Z</time></trkpt>
<trkpt lat="54.3186210000" lon="-2.0992290000"><ele>269</ele><time>2015-10-15T12:38:16Z</time></trkpt>
<trkpt lat="54.3186230000" lon="-2.0992720000"><ele>269</ele><time>2015-10-15T12:38:20Z</time></trkpt>
<trkpt lat="54.3186390000" lon="-2.0995290000"><ele>269</ele><time>2015-10-15T12:38:21Z</time></trkpt>
<trkpt lat="54.3186500000" lon="-2.0995750000"><ele>269</ele><time>2015-10-15T12:38:23Z</time></trkpt>
<trkpt lat="54.3186510000" lon="-2.0995930000"><ele>269</ele><time>2015-10-15T12:38:24Z</time></trkpt>
<trkpt lat="54.3186530000" lon="-2.0996130000"><ele>269</ele><time>2015-10-15T12:38:26Z</time></trkpt>
<trkpt lat="54.3186530000" lon="-2.0996130000"><ele>269</ele><time>2015-10-15T12:38:27Z</time></trkpt>
<trkpt lat="54.3186530000" lon="-2.0996130000"><ele>269</ele><time>2015-10-15T12:38:28Z</time></trkpt>
<trkpt lat="54.3186530000" lon="-2.0996140000"><ele>269</ele><time>2015-10-15T12:38:29Z</time></trkpt>
<trkpt lat="54.3186540000" lon="-2.0996150000"><ele>269</ele><time>2015-10-15T12:38:30Z</time></trkpt>
<trkpt lat="54.3186540000" lon="-2.0996160000"><ele>269</ele></trkpt>
<trkpt lat="54.3186540000" lon="-2.0996190000"><ele>269</ele><time>2015-10-15T12:38:32Z</time></trkpt>
<trkpt lat="54.3186540000" lon="-2.0996220000"><ele>269</ele><time>2015-10-15T12:38:33Z</time></trkpt>
<trkpt lat="54.3186550000" lon="-2.0996250000"><ele>269</ele><time>2015-10-15T12:38:34Z</time></trkpt>
<trkpt lat="54.3186550000" lon="-2.0996290000"><ele>269</ele><time>2015-10-15T12:38:35Z</time></trkpt>
<trkpt lat="54.3186560000" lon="-2.0996350000"><ele>269</ele><time>2015-10-15T12:38:36Z</time></trkpt>
<trkpt lat="54.3186560000" lon="-2.0996410000"><ele>269</ele></trkpt>
<trkpt lat="54.3186600000" lon="-2.0996840000"><ele>269</ele><time>2015-10-15T12:38:42Z</time></trkpt>
<trkpt lat="54.3186620000" lon="-2.0997190000"><ele>269</ele><time>2015-10-15T12:38:44Z</time></trkpt>
<trkpt lat="54.3186770000" lon="-2.1000150000"><ele>274</ele><time>2015-10-15T12:38:47Z</time></trkpt>
<trkpt lat="54.3186780000" lon="-2.1000690000"><ele>274</ele><time>2015-10-15T12:38:50Z</time></trkpt>
<trkpt lat="54.3186790000" lon="-2.1001070000"><ele>274</ele><time>2015-10-15T12:38:52Z</time></trkpt>
<trkpt lat="54.3186790000" lon="-2.1001390000"><ele>274</ele><time>2015-10-15T12:38:55Z</time></trkpt>
<trkpt lat="54.3186790000" lon="-2.1001390000"><ele>274</ele><time>2015-10-15T12:38:56Z</time></trkpt>
<trkpt lat="54.3186720000" lon="-2.1001960000"><ele>274</ele><time>2015-10-15T12:38:57Z</time></trkpt>
<trkpt lat="54.3186720000" lon="-2.1002170000"><ele>274</ele><time>2015-10-15T12:38:58Z</time></trkpt>
<trkpt lat="54.3186710000" lon="-2.1002390000"><ele>274</ele></trkpt>
<trkpt lat="54.3186740000" lon="-2.1002570000"><ele>274</ele><time>2015-10-15T12:39:00Z</time></trkpt>
<trkpt lat="54.3186760000" lon="-2.1002720000"><ele>274</ele></trkpt>
<trkpt lat="54.3186750000" lon="-2.1002920000"><ele>274</ele><time>2015-10-15T12:39:02Z</time></trkpt>
<trkpt lat="54.3186720000" lon="-2.1003130000"><ele>274</ele><time>2015-10-15T12:39:03Z</time></trkpt>
<trkpt lat="54.3186700000" lon="-2.1003290000"><ele>274</ele><time>2015-10-15T12:39:04Z</time></trkpt>
<trkpt lat="54.3186660000" lon="-2.1003510000"><ele>274</ele></trkpt>
<trkpt lat="54.3186670000" lon="-2.1003710000"><ele>274</ele><time>2015-10-15T12:39:05Z</time></trkpt>
<trkpt lat="54.3186660000" lon="-2.1003910000"><ele>274</ele><time>2015-10-15T12:39:07Z</time></trkpt>
<trkpt lat="54.3186660000" lon="-2.1004070000"><ele>274</ele><time>2015-10-15T12:39:08Z</time></trkpt>
<trkpt lat="54.3186660000" lon="-2.1004070000"><ele>274</ele><time>2015-10-15T12:39:09Z</time></trkpt>
<trkpt lat="54.3186660000" lon="-2.1004070000"><ele>274</ele><time>2015-10-15T12:39:10Z</time></trkpt>
<trkpt lat="54.3186660000" lon="-2.1004080000"><ele>274</ele><time>2015-10-15T12:39:11Z</time></trkpt>
<trkpt lat="54.3186660000" lon="-2.1004090000"><ele>274</ele></trkpt>
<trkpt lat="54.3186660000" lon="-2.1004110000"><ele>274</ele><time>2015-10-15T12:39:13Z</time></trkpt>
<trkpt lat="54.3186650000" lon="-2.1004130000"><ele>274</ele><time>2015-10-15T12:39:14Z</time></trkpt>
<trkpt lat="54.3186650000" lon="-2.1004160000"><ele>274</ele><time>2015-10-15T12:39:15Z</time></trkpt>
<trkpt lat="54.3186650000" lon="-2.1004200000"><ele>274</ele><time>2015-10-15T12:39:16Z</time></trkpt>
<trkpt lat="54.3186650000" lon="-2.1004250000"><ele>274</ele><time>2015-10-15T12:39:17Z</time></trkpt>
<trkpt lat="54.3186640000" lon="-2.1004310000"><ele>274</ele></trkpt>
<trkpt lat="54.3186640000" lon="-2.1004370000"><ele>274</ele><time>2015-10-15T12:39:19Z</time></trkpt>
<trkpt lat="54.3186640000" lon="-2.1004450000"><ele>274</ele><time>2015-10-15T12:39:20Z</time></trkpt>
<trkpt lat="54.3186640000" lon="-2.1004530000"><ele>274</ele><time>2015-10-15T12:39:21Z</time></trkpt>
<trkpt lat="54.3186630000" lon="-2.1004620000"><ele>274</ele><time>2015-10-15T12:39:22Z</time></trkpt>
<trkpt lat="54.3186630000" lon="-2.1004720000"><ele>274</ele><time>2015-10-15T12:39:23Z</time></trkpt>
<trkpt lat="54.3186630000" lon="-2.1004820000"><ele>274</ele></trkpt>
<trkpt lat="54.3186620000" lon="-2.1004920000"><ele>274</ele><time>2015-10-15T12:39:24Z</time></trkpt>
<trkpt lat="54.3186620000" lon="-2.1005040000"><ele>274</ele><time>2015-10-15T12:39:26Z</time></trkpt>
<trkpt lat="54.3186610000" lon="-2.1005160000"><ele>274</ele><time>2015-10-15T12:39:27Z</time></trkpt>
<trkpt lat="54.3186610000" lon="-2.1005290000"><ele>274</ele><time>2015-10-15T12:39:28Z</time></trkpt>
<trkpt lat="54.3186600000" lon="-2.1005420000"><ele>274</ele><time>2015-10-15T12:39:29Z</time></trkpt>
<trkpt lat="54.3186590000" lon="-2.1005570000"><ele>274</ele><time>2015-10-15T12:39:30Z</time></trkpt>
<trkpt lat="54.3186580000" lon="-2.1005720000"><ele>274</ele></trkpt>
<trkpt lat="54.3186570000" lon="-2.1005870000"><ele>274</ele><time>2015-10-15T12:39:32Z</time></trkpt>
<trkpt lat="54.3186560000" lon="-2.1006030000"><ele>274</ele><time>2015-10-15T12:39:33Z</time></trkpt>
<trkpt lat="54.3186550000" lon="-2.1006190000"><ele>274</ele><time>2015-10-15T12:39:34Z</time></trkpt>
<trkpt lat="54.3186340000" lon="-2.1009220000"><ele>274</ele><time>2015-10-15T12:39:35Z</time></trkpt>
<trkpt lat="54.3186320000" lon="-2.1009420000"><ele>274</ele><time>2015-10-15T12:39:36Z</time></trkpt>
<trkpt lat="54.3186310000" lon="-2.1009590000"><ele>274</ele></trkpt>
<trkpt lat="54.3186310000" lon="-2.1009750000"><ele>274</ele><time>2015-10-15T12:39:38Z</time></trkpt>
<trkpt lat="54.3186310000" lon="-2.1009750000"><ele>274</ele><time>2015-10-15T12:39:39Z</time></trkpt>
<trkpt lat="54.3186310000" lon="-2.1009760000"><ele>274</ele><time>2015-10-15T12:39:40Z</time></trkpt>
<trkpt lat="54.3186310000" lon="-2.1009760000"><ele>274</ele><time>2015-10-15T12:39:41Z</time></trkpt>
<trkpt lat="54.3186310000" lon="-2.1009780000"><ele>274</ele><time>2015-10-15T12:39:42Z</time></trkpt>
<trkpt lat="54.3186310000" lon="-2.1009790000"><ele>274</ele></trkpt>
<trkpt lat="54.3186310000" lon="-2.1009820000"><ele>274</ele><time>2015-10-15T12:39:44Z</time></trkpt>
<trkpt lat="54.3186320000" lon="-2.1009850000"><ele>274</ele></trkpt>
<trkpt lat="54.3186320000" lon="-2.1009890000"><ele>274</ele><time>2015-10-15T12:39:46Z</time></trkpt>
<trkpt lat="54.3186320000" lon="-2.1009930000"><ele>274</ele><time>2015-10-15T12:39:47Z</time></trkpt>
<trkpt lat="54.3186320000" lon="-2.1009990000"><ele>274</ele><time>2015-10-15T12:39:48Z</time></trkpt>
<trkpt lat="54.3186320000" lon="-2.1010050000"><ele>274</ele></trkpt>
<trkpt lat="54.3186320000" lon="-2.1010130000"><ele>274</ele><time>2015-10-15T12:39:51Z</time></trkpt>
<trkpt lat="54.3186320000" lon="-2.1010210000"><ele>274</ele></trkpt>
<trkpt lat="54.3186320000" lon="-2.1010300000"><ele>274</ele><time>2015-10-15T12:39:52Z</time></trkpt>
<trkpt lat="54.3186320000" lon="-2.1010390000"><ele>274</ele><time>2015-10-15T12:39:53Z</time></trkpt>
<trkpt lat="54.3186320000" lon="-2.1010500000"><ele>274</ele></trkpt>
<trkpt lat="54.3186310000" lon="-2.1010610000"><ele>274</ele><time>2015-10-15T12:39:55Z</time></trkpt>
<trkpt lat="54.3186310000" lon="-2.1010730000"><ele>274</ele><time>2015-10-15T12:39:56Z</time></trkpt>
<trkpt lat="54.3186310000" lon="-2.1010850000"><ele>274</ele><time>2015-10-15T12:39:57Z</time></trkpt>
<trkpt lat="54.3186300000" lon="-2.1010980000"><ele>274</ele><time>2015-10-15T12:39:58Z</time></trkpt>
<trkpt lat="54.3186300000" lon="-2.1011120000"><ele>274</ele><time>2015-10-15T12:39:59Z</time></trkpt>
<trkpt lat="54.3186290000" lon="-2.1011270000"><ele>274</ele></trkpt>
<trkpt lat="54.3186290000" lon="-2.1011410000"><ele>274</ele><time>2015-10-15T12:40:00Z</time></trkpt>
<trkpt lat="54.3186280000" lon="-2.1011560000"><ele>274</ele><time>2015-10-15T12:40:02Z</time></trkpt>
<trkpt lat="54.3186270000" lon="-2.1011720000"><ele>274</ele><time>2015-10-15T12:40:03Z</time></trkpt>
<trkpt lat="54.3186270000" lon="-2.1011870000"><ele>274</ele><time>2015-10-15T12:40:04Z</time></trkpt>
<trkpt lat="54.3186260000" lon="-2.1012030000"><ele>274</ele><time>2015-10-15T12:40:05Z</time></trkpt>
<trkpt lat="54.3186250000" lon="-2.1012190000"><ele>274</ele></trkpt>
<trkpt lat="54.3186110000" lon="-2.1015160000"><ele>274</ele><time>2015-10-15T12:40:07Z</time></trkpt>
<trkpt lat="54.3186100000" lon="-2.1015340000"><ele>274</ele><time>2015-10-15T12:40:08Z</time></trkpt>
<trkpt lat="54.3186090000" lon="-2.1015530000"><ele>274</ele><time>2015-10-15T12:40:09Z</time></trkpt>
<trkpt lat="54.3186090000" lon="-2.1015700000"><ele>274</ele><time>2015-10-15T12:40:10Z</time></trkpt>
<trkpt lat="54.3186090000" lon="-2.1015840000"><ele>274</ele><time>2015-10-15T12:40:11Z</time></trkpt>
<trkpt lat="54.3186090000" lon="-2.1015850000"><ele>274</ele><time>2015-10-15T12:40:12Z</time></trkpt>
<trkpt lat="54.3186100000" lon="-2.1015850000"><ele>274</ele><time>2015-10-15T12:40:14Z</time></trkpt>
<trkpt lat="54.3186100000" lon="-2.1015860000"><ele>274</ele><time>2015-10-15T12:40:15Z</time></trkpt>
<trkpt lat="54.3186100000" lon="-2.1015870000"><ele>274</ele><time>2015-10-15T12:40:16Z</time></trkpt>
<trkpt lat="54.3186100000" lon="-2.1015900000"><ele>274</ele><time>2015-10-15T12:40:17Z</time></trkpt>
<trkpt lat="54.3186100000" lon="-2.1015930000"><ele>274</ele><time>2015-10-15T12:40:18Z</time></trkpt>
<trkpt lat="54.3186100000" lon="-2.1015960000"><ele>274</ele></trkpt>
<trkpt lat="54.3186100000" lon="-2.1016010000"><ele>274</ele><time>2015-10-15T12:40:20Z</time></trkpt>
<trkpt lat="54.3186100000" lon="-2.1016060000"><ele>274</ele><time>2015-10-15T12:40:21Z</time></trkpt>
<trkpt lat="54.3186100000" lon="-2.1016120000"><ele>274</ele><time>2015-10-15T12:40:22Z</time></trkpt>
<trkpt lat="54.3186110000" lon="-2.1016190000"><ele>274</ele><time>2015-10-15T12:40:23Z</time></trkpt>
<trkpt lat="54.3186110000" lon="-2.1016270000"><ele>274</ele><time>2015-10-15T12:40:24Z</time></trkpt>
<trkpt lat="54.3186110000" lon="-2.1016350000"><ele>274</ele></trkpt>
<trkpt lat="54.3186120000" lon="-2.1016450000"><ele>274</ele><time>2015-10-15T12:40:26Z</time></trkpt>
<trkpt lat="54.3186120000" lon="-2.1016550000"><ele>274</ele><time>2015-10-15T12:40:27Z</time></trkpt>
<trkpt lat="54.3186130000" lon="-2.1016650000"><ele>274</ele><time>2015-10-15T12:40:28Z</time></trkpt>
<trkpt lat="54.3186260000" lon="-2.1019090000"><ele>274</ele><time>2015-10-15T12:40:29Z</time></trkpt>
<trkpt lat="54.3186290000" lon="-2.1019220000"><ele>274</ele><time>2015-10-15T12:40:30Z</time></trkpt>
<trkpt lat="54.3186310000" lon="-2.1019400000"><ele>274</ele></trkpt>
<trkpt lat="54.3186330000" lon="-2.1019580000"><ele>274</ele><time>2015-10-15T12:40:32Z</time></trkpt>
<trkpt lat="54.3186330000" lon="-2.1019580000"><ele>274</ele><time>2015-10-15T12:40:33Z</time></trkpt>
<trkpt lat="54.3186330000" lon="-2.1019580000"><ele>274</ele><time>2015-10-15T12:40:34Z</time></trkpt>
<trkpt lat="54.3186330000" lon="-2.1019590000"><ele>274</ele><time>2015-10-15T12:40:35Z</time></trkpt>
<trkpt lat="54.3186330000" lon="-2.1019600000"><ele>274</ele><time>2015-10-15T12:40:36Z</time></trkpt>
<trkpt lat="54.3186330000" lon="-2.1019620000"><ele>274</ele></trkpt>
<trkpt lat="54.3186330000" lon="-2.1019640000"><ele>274</ele><time>2015-10-15T12:40:37Z</time></trkpt>
<trkpt lat="54.3186330000" lon="-2.1019670000"><ele>274</ele><time>2015-10-15T12:40:39Z</time></trkpt>
<trkpt lat="54.3186330000" lon="-2.1019710000"><ele>274</ele><time>2015-10-15T12:40:40Z</time></trkpt>
<trkpt lat="54.3186340000" lon="-2.1019760000"><ele>274</ele><time>2015-10-15T12:40:41Z</time></trkpt>
<trkpt lat="54.3186340000" lon="-2.1019810000"><ele>274</ele><time>2015-10-15T12:40:42Z</time></trkpt>
<trkpt lat="54.3186340000" lon="-2.1019870000"><ele>274</ele><time>2015-10-15T12:40:43Z</time></trkpt>
<trkpt lat="54.3186340000" lon="-2.1019940000"><ele>274</ele></trkpt>
<trkpt lat="54.3186360000" lon="-2.1020290000"><ele>274</ele><time>2015-10-15T12:40:48Z</time></trkpt>
<trkpt lat="54.3186460000" lon="-2.1022930000"><ele>274</ele><time>2015-10-15T12:40:50Z</time></trkpt>
<trkpt lat="54.3186490000" lon="-2.1023300000"><ele>274</ele><time>2015-10-15T12:40:52Z</time></trkpt>
<trkpt lat="54.3186550000" lon="-2.1023630000"><ele>274</ele><time>2015-10-15T12:40:54Z</time></trkpt>
<trkpt lat="54.3186610000" lon="-2.1024000000"><ele>274</ele><time>2015-10-15T12:41:04Z</time></trkpt>
<trkpt lat="54.3186770000" lon="-2.1025900000"><ele>274</ele><time>2015-10-15T12:41:06Z</time></trkpt>
<trkpt lat="54.3186750000" lon="-2.1026280000"><ele>274</ele><time>2015-10-15T12:41:09Z</time></trkpt>
<trkpt lat="54.3186750000" lon="-2.1026640000"><ele>274</ele><time>2015-10-15T12:41:11Z</time></trkpt>
<trkpt lat="54.3186770000" lon="-2.1027030000"><ele>274</ele><time>2015-10-15T12:41:22Z</time></trkpt>
<trkpt lat="54.3186840000" lon="-2.1029130000"><ele>274</ele><time>2015-10-15T12:41:23Z</time></trkpt>
<trkpt lat="54.3186890000" lon="-2.1029470000"><ele>274</ele><time>2015-10-15T12:41:26Z</time></trkpt>
<trkpt lat="54.3186890000" lon="-2.1029830000"><ele>271</ele><time>2015-10-15T12:41:28Z</time></trkpt>
<trkpt lat="54.3186910000" lon="-2.1030040000"><ele>271</ele><time>2015-10-15T12:41:34Z</time></trkpt>
<trkpt lat="54.3186910000" lon="-2.1030060000"><ele>271</ele><time>2015-10-15T12:41:35Z</time></trkpt>
<trkpt lat="54.3186910000" lon="-2.1030100000"><ele>271</ele><time>2015-10-15T12:41:36Z</time></trkpt>
<trkpt lat="54.3186910000" lon="-2.1030140000"><ele>271</ele></trkpt>
<trkpt lat="54.3186910000" lon="-2.1030200000"><ele>271</ele><time>2015-10-15T12:41:38Z</time></trkpt>
<trkpt lat="54.3186900000" lon="-2.1030260000"><ele>271</ele><time>2015-10-15T12:41:39Z</time></trkpt>
<trkpt lat="54.3186900000" lon="-2.1030330000"><ele>271</ele><time>2015-10-15T12:41:40Z</time></trkpt>
<trkpt lat="54.3186900000" lon="-2.1030400000"><ele>271</ele><time>2015-10-15T12:41:41Z</time></trkpt>
<trkpt lat="54.3186900000" lon="-2.1030490000"><ele>271</ele><time>2015-10-15T12:41:42Z</time></trkpt>
<trkpt lat="54.3186900000" lon="-2.1030580000"><ele>271</ele></trkpt>
<trkpt lat="54.3186910000" lon="-2.1030670000"><ele>271</ele><time>2015-10-15T12:41:44Z</time></trkpt>
<trkpt lat="54.3186920000" lon="-2.1030770000"><ele>271</ele></trkpt>
<trkpt lat="54.3186920000" lon="-2.1030880000"><ele>271</ele><time>2015-10-15T12:41:46Z</time></trkpt>
<trkpt lat="54.3186930000" lon="-2.1030990000"><ele>271</ele><time>2015-10-15T12:41:47Z</time></trkpt>
<trkpt lat="54.3186940000" lon="-2.1031110000"><ele>271</ele><time>2015-10-15T12:41:48Z</time></trkpt>
<trkpt lat="54.3186950000" lon="-2.1031240000"><ele>271</ele></trkpt>
<trkpt lat="54.3186950000" lon="-2.1031370000"><ele>271</ele><time>2015-10-15T12:41:50Z</time></trkpt>
<trkpt lat="54.3186960000" lon="-2.1031500000"><ele>271</ele><time>2015-10-15T12:41:51Z</time></trkpt>
<trkpt lat="54.3186960000" lon="-2.1031650000"><ele>271</ele><time>2015-10-15T12:41:52Z</time></trkpt>
<trkpt lat="54.3186960000" lon="-2.1031790000"><ele>271</ele></trkpt>
<trkpt lat="54.3186960000" lon="-2.1031940000"><ele>271</ele><time>2015-10-15T12:41:54Z</time></trkpt>
<trkpt lat="54.3186960000" lon="-2.1032090000"><ele>271</ele><time>2015-10-15T12:41:55Z</time></trkpt>
<trkpt lat="54.3186960000" lon="-2.1032250000"><ele>271</ele><time>2015-10-15T12:41:56Z</time></trkpt>
<trkpt lat="54.3186940000" lon="-2.1035190000"><ele>271</ele><time>2015-10-15T12:41:57Z</time></trkpt>
<trkpt lat="54.3186920000" lon="-2.1035390000"><ele>271</ele><time>2015-10-15T12:41:58Z</time></trkpt>
<trkpt lat="54.3186920000" lon="-2.1035580000"><ele>271</ele></trkpt>
<trkpt lat="54.3186930000" lon="-2.1035730000"><ele>271</ele><time>2015-10-15T12:42:00Z</time></trkpt>
<trkpt lat="54.3186930000" lon="-2.1035740000"><ele>271</ele><time>2015-10-15T12:42:01Z</time></trkpt>
<trkpt lat="54.3186930000" lon="-2.1035740000"><ele>271</ele><time>2015-10-15T12:42:02Z</time></trkpt>
<trkpt lat="54.3186930000" lon="-2.1035750000"><ele>271</ele><time>2015-10-15T12:42:03Z</time></trkpt>
<trkpt lat="54.3186930000" lon="-2.1035760000"><ele>271</ele><time>2015-10-15T12:42:04Z</time></trkpt>
<trkpt lat="54.3186930000" lon="-2.1035780000"><ele>271</ele><time>2015-10-15T12:42:05Z</time></trkpt>
<trkpt lat="54.3186930000" lon="-2.1035800000"><ele>271</ele></trkpt>
<trkpt lat="54.3186930000" lon="-2.1035830000"><ele>271</ele><time>2015-10-15T12:42:07Z</time></trkpt>
<trkpt lat="54.3186930000" lon="-2.1035860000"><ele>271</ele><time>2015-10-15T12:42:08Z</time></trkpt>
<trkpt lat="54.3186940000" lon="-2.1035890000"><ele>271</ele><time>2015-10-15T12:42:09Z</time></trkpt>
<trkpt lat="54.3186950000" lon="-2.1035930000"><ele>271</ele><time>2015-10-15T12:42:10Z</time></trkpt>
<trkpt lat="54.3186960000" lon="-2.1035970000"><ele>271</ele><time>2015-10-15T12:42:11Z</time></trkpt>
<trkpt lat="54.3186970000" lon="-2.1036010000"><ele>271</ele></trkpt>
<trkpt lat="54.3186980000" lon="-2.1036060000"><ele>271</ele><time>2015-10-15T12:42:13Z</time></trkpt>
<trkpt lat="54.3186980000" lon="-2.1036090000"><ele>271</ele><time>2015-10-15T12:42:14Z</time></trkpt>
<trkpt lat="54.3186990000" lon="-2.1036140000"><ele>271</ele><time>2015-10-15T12:42:15Z</time></trkpt>
<trkpt lat="54.3187010000" lon="-2.1036180000"><ele>271</ele><time>2015-10-15T12:42:16Z</time></trkpt>
<trkpt lat="54.3187020000" lon="-2.1036230000"><ele>271</ele><time>2015-10-15T12:42:17Z</time></trkpt>
<trkpt lat="54.3187030000" lon="-2.1036270000"><ele>271</ele></trkpt>
<trkpt lat="54.3187040000" lon="-2.1036320000"><ele>271</ele><time>2015-10-15T12:42:19Z</time></trkpt>
<trkpt lat="54.3187050000" lon="-2.1036370000"><ele>271</ele><time>2015-10-15T12:42:20Z</time></trkpt>
<trkpt lat="54.3187060000" lon="-2.1036430000"><ele>271</ele><time>2015-10-15T12:42:21Z</time></trkpt>
<trkpt lat="54.3187070000" lon="-2.1036490000"><ele>271</ele><time>2015-10-15T12:42:22Z</time></trkpt>
<trkpt lat="54.3187090000" lon="-2.1036550000"><ele>271</ele><time>2015-10-15T12:42:23Z</time></trkpt>
<trkpt lat="54.3187120000" lon="-2.1036610000"><ele>271</ele></trkpt>
<trkpt lat="54.3187150000" lon="-2.1036670000"><ele>271</ele><time>2015-10-15T12:42:25Z</time></trkpt>
<trkpt lat="54.3187180000" lon="-2.1036720000"><ele>271</ele><time>2015-10-15T12:42:26Z</time></trkpt>
<trkpt lat="54.3187220000" lon="-2.1036780000"><ele>271</ele><time>2015-10-15T12:42:27Z</time></trkpt>
<trkpt lat="54.3187260000" lon="-2.1036820000"><ele>271</ele><time>2015-10-15T12:42:28Z</time></trkpt>
<trkpt lat="54.3187310000" lon="-2.1036870000"><ele>271</ele><time>2015-10-15T12:42:29Z</time></trkpt>
<trkpt lat="54.3187360000" lon="-2.1036910000"><ele>271</ele><time>2015-10-15T12:42:30Z</time></trkpt>
<trkpt lat="54.3187410000" lon="-2.1036950000"><ele>271</ele></trkpt>
<trkpt lat="54.3187460000" lon="-2.1036990000"><ele>271</ele><time>2015-10-15T12:42:32Z</time></trkpt>
<trkpt lat="54.3187520000" lon="-2.1037020000"><ele>271</ele><time>2015-10-15T12:42:33Z</time></trkpt>
<trkpt lat="54.3187580000" lon="-2.1037060000"><ele>271</ele><time>2015-10-15T12:42:34Z</time></trkpt>
<trkpt lat="54.3187640000" lon="-2.1037090000"><ele>271</ele><time>2015-10-15T12:42:35Z</time></trkpt>
<trkpt lat="54.3187700000" lon="-2.1037120000"><ele>271</ele><time>2015-10-15T12:42:36Z</time></trkpt>
<trkpt lat="54.3187760000" lon="-2.1037150000"><ele>271</ele></trkpt>
<trkpt lat="54.3187830000" lon="-2.1037170000"><ele>271</ele><time>2015-10-15T12:42:38Z</time></trkpt>
<trkpt lat="54.3187890000" lon="-2.1037200000"><ele>271</ele><time>2015-10-15T12:42:39Z</time></trkpt>
<trkpt lat="54.3187960000" lon="-2.1037220000"><ele>271</ele><time>2015-10-15T12:42:40Z</time></trkpt>
<trkpt lat="54.3188030000" lon="-2.1037240000"><ele>271</ele><time>2015-10-15T12:42:41Z</time></trkpt>
<trkpt lat="54.3188110000" lon="-2.1037260000"><ele>271</ele><time>2015-10-15T12:42:42Z</time></trkpt>
<trkpt lat="54.3188180000" lon="-2.1037280000"><ele>271</ele></trkpt>
<trkpt lat="54.3188260000" lon="-2.1037300000"><ele>271</ele><time>2015-10-15T12:42:44Z</time></trkpt>
<trkpt lat="54.3188340000" lon="-2.1037320000"><ele>271</ele><time>2015-10-15T12:42:45Z</time></trkpt>
<trkpt lat="54.3188420000" lon="-2.1037330000"><ele>271</ele><time>2015-10-15T12:42:46Z</time></trkpt>
<trkpt lat="54.3188500000" lon="-2.1037350000"><ele>271</ele><time>2015-10-15T12:42:47Z</time></trkpt>
<trkpt lat="54.3188590000" lon="-2.1037370000"><ele>271</ele><time>2015-10-15T12:42:48Z</time></trkpt>
<trkpt lat="54.3188670000" lon="-2.1037380000"><ele>271</ele></trkpt>
<trkpt lat="54.3188760000" lon="-2.1037400000"><ele>271</ele><time>2015-10-15T12:42:50Z</time></trkpt>
<trkpt lat="54.3188850000" lon="-2.1037410000"><ele>271</ele><time>2015-10-15T12:42:51Z</time></trkpt>
<trkpt lat="54.3188940000" lon="-2.1037430000"><ele>271</ele><time>2015-10-15T12:42:52Z</time></trkpt>
<trkpt lat="54.3189030000" lon="-2.1037450000"><ele>271</ele></trkpt>
<trkpt lat="54.3189110000" lon="-2.1037470000"><ele>271</ele><time>2015-10-15T12:42:54Z</time></trkpt>
<trkpt lat="54.3189200000" lon="-2.1037490000"><ele>271</ele><time>2015-10-15T12:42:55Z</time></trkpt>
<trkpt lat="54.3189290000" lon="-2.1037510000"><ele>271</ele><time>2015-10-15T12:42:56Z</time></trkpt>
<trkpt lat="54.3189380000" lon="-2.1037520000"><ele>271</ele><time>2015-10-15T12:42:57Z</time></trkpt>
<trkpt lat="54.3189470000" lon="-2.1037540000"><ele>271</ele><time>2015-10-15T12:42:58Z</time></trkpt>
<trkpt lat="54.3189560000" lon="-2.1037560000"><ele>271</ele></trkpt>
<trkpt lat="54.3189660000" lon="-2.1037570000"><ele>271</ele><time>2015-10-15T12:43:00Z</time></trkpt>
<trkpt lat="54.3189760000" lon="-2.1037590000"><ele>271</ele><time>2015-10-15T12:43:01Z</time></trkpt>
<trkpt lat="54.3189850000" lon="-2.1037610000"><ele>271</ele><time>2015-10-15T12:43:02Z</time></trkpt>
<trkpt lat="54.3191580000" lon="-2.1037910000"><ele>271</ele><time>2015-10-15T12:43:03Z</time></trkpt>
<trkpt lat="54.3191700000" lon="-2.1037930000"><ele>271</ele><time>2015-10-15T12:43:04Z</time></trkpt>
<trkpt lat="54.3191820000" lon="-2.1037950000"><ele>271</ele></trkpt>
<trkpt lat="54.3191950000" lon="-2.1037980000"><ele>271</ele><time>2015-10-15T12:43:06Z</time></trkpt>
<trkpt lat="54.3192080000" lon="-2.1038010000"><ele>271</ele><time>2015-10-15T12:43:07Z</time></trkpt>
<trkpt lat="54.3192210000" lon="-2.1038010000"><ele>271</ele><time>2015-10-15T12:43:08Z</time></trkpt>
<trkpt lat="54.3192330000" lon="-2.1038000000"><ele>271</ele><time>2015-10-15T12:43:09Z</time></trkpt>
<trkpt lat="54.3192440000" lon="-2.1038010000"><ele>271</ele><time>2015-10-15T12:43:10Z</time></trkpt>
<trkpt lat="54.3192560000" lon="-2.1038020000"><ele>271</ele><time>2015-10-15T12:43:11Z</time></trkpt>
<trkpt lat="54.3192680000" lon="-2.1038040000"><ele>271</ele></trkpt>
<trkpt lat="54.3192780000" lon="-2.1038070000"><ele>271</ele><time>2015-10-15T12:43:13Z</time></trkpt>
<trkpt lat="54.3192790000" lon="-2.1038070000"><ele>271</ele><time>2015-10-15T12:43:14Z</time></trkpt>
<trkpt lat="54.3192790000" lon="-2.1038070000"><ele>271</ele><time>2015-10-15T12:43:15Z</time></trkpt>
<trkpt lat="54.3192790000" lon="-2.1038070000"><ele>271</ele><time>2015-10-15T12:43:16Z</time></trkpt>
<trkpt lat="54.3192800000" lon="-2.1038070000"><ele>271</ele><time>2015-10-15T12:43:17Z</time></trkpt>
<trkpt lat="54.3192810000" lon="-2.1038070000"><ele>271</ele></trkpt>
<trkpt lat="54.3192820000" lon="-2.1038080000"><ele>271</ele><time>2015-10-15T12:43:19Z</time></trkpt>
<trkpt lat="54.3192840000" lon="-2.1038080000"><ele>271</ele><time>2015-10-15T12:43:20Z</time></trkpt>
<trkpt lat="54.3192860000" lon="-2.1038080000"><ele>271</ele><time>2015-10-15T12:43:21Z</time></trkpt>
<trkpt lat="54.3192880000" lon="-2.1038080000"><ele>271</ele><time>2015-10-15T12:43:22Z</time></trkpt>
<trkpt lat="54.3192910000" lon="-2.1038090000"><ele>271</ele><time>2015-10-15T12:43:23Z</time></trkpt>
<trkpt lat="54.3192940000" lon="-2.1038100000"><ele>271</ele></trkpt>
<trkpt lat="54.3192980000" lon="-2.1038110000"><ele>271</ele><time>2015-10-15T12:43:25Z</time></trkpt>
<trkpt lat="54.3193020000" lon="-2.1038110000"><ele>271</ele><time>2015-10-15T12:43:26Z</time></trkpt>
<trkpt lat="54.3193060000" lon="-2.1038130000"><ele>271</ele><time>2015-10-15T12:43:27Z</time></trkpt>
<trkpt lat="54.3193110000" lon="-2.1038140000"><ele>271</ele><time>2015-10-15T12:43:28Z</time></trkpt>
<trkpt lat="54.3193160000" lon="-2.1038150000"><ele>271</ele><time>2015-10-15T12:43:29Z</time></trkpt>
<trkpt lat="54.3193220000" lon="-2.1038160000"><ele>271</ele></trkpt>
<trkpt lat="54.3193280000" lon="-2.1038180000"><ele>271</ele><time>2015-10-15T12:43:30Z</time></trkpt>
<trkpt lat="54.3193350000" lon="-2.1038190000"><ele>271</ele><time>2015-10-15T12:43:32Z</time></trkpt>
<trkpt lat="54.3193420000" lon="-2.1038210000"><ele>271</ele><time>2015-10-15T12:43:33Z</time></trkpt>
<trkpt lat="54.3193490000" lon="-2.1038220000"><ele>271</ele><time>2015-10-15T12:43:34Z</time></trkpt>
<trkpt lat="54.3193570000" lon="-2.1038230000"><ele>271</ele><time>2015-10-15T12:43:35Z</time></trkpt>
<trkpt lat="54.3193640000" lon="-2.1038240000"><ele>271</ele><time>2015-10-15T12:43:36Z</time></trkpt>
<trkpt lat="54.3193720000" lon="-2.1038250000"><ele>271</ele></trkpt>
<trkpt lat="54.3193800000" lon="-2.1038250000"><ele>271</ele><time>2015-10-15T12:43:38Z</time></trkpt>
<trkpt lat="54.3194200000" lon="-2.1038290000"><ele>271</ele><time>2015-10-15T12:43:42Z</time></trkpt>
<trkpt lat="54.3195820000" lon="-2.1038270000"><ele>271</ele><time>2015-10-15T12:43:44Z</time></trkpt>
<trkpt lat="54.3196110000" lon="-2.1038150000"><ele>271</ele><time>2015-10-15T12:43:47Z</time></trkpt>
<trkpt lat="54.3196320000" lon="-2.1038050000"><ele>271</ele><time>2015-10-15T12:43:48Z</time></trkpt>
<trkpt lat="54.3196440000" lon="-2.1037940000"><ele>271</ele><time>2015-10-15T12:43:56Z</time></trkpt>
<trkpt lat="54.3196450000" lon="-2.1037920000"><ele>271</ele><time>2015-10-15T12:43:57Z</time></trkpt>
<trkpt lat="54.3196470000" lon="-2.1037900000"><ele>271</ele><time>2015-10-15T12:43:58Z</time></trkpt>
<trkpt lat="54.3196490000" lon="-2.1037870000"><ele>271</ele></trkpt>
<trkpt lat="54.3196510000" lon="-2.1037840000"><ele>271</ele><time>2015-10-15T12:43:59Z</time></trkpt>
<trkpt lat="54.3196540000" lon="-2.1037800000"><ele>271</ele><time>2015-10-15T12:44:01Z</time></trkpt>
<trkpt lat="54.3196570000" lon="-2.1037750000"><ele>271</ele><time>2015-10-15T12:44:02Z</time></trkpt>
<trkpt lat="54.3196600000" lon="-2.1037700000"><ele>271</ele><time>2015-10-15T12:44:03Z</time></trkpt>
<trkpt lat="54.3196640000" lon="-2.1037640000"><ele>271</ele><time>2015-10-15T12:44:04Z</time></trkpt>
<trkpt lat="54.3196680000" lon="-2.1037570000"><ele>271</ele></trkpt>
<trkpt lat="54.3196720000" lon="-2.1037500000"><ele>271</ele><time>2015-10-15T12:44:05Z</time></trkpt>
<trkpt lat="54.3196770000" lon="-2.1037420000"><ele>271</ele><time>2015-10-15T12:44:06Z</time></trkpt>
<trkpt lat="54.3196820000" lon="-2.1037330000"><ele>271</ele><time>2015-10-15T12:44:08Z</time></trkpt>
<trkpt lat="54.3196870000" lon="-2.1037250000"><ele>271</ele><time>2015-10-15T12:44:09Z</time></trkpt>
<trkpt lat="54.3196920000" lon="-2.1037150000"><ele>271</ele><time>2015-10-15T12:44:10Z</time></trkpt>
<trkpt lat="54.3196970000" lon="-2.1037050000"><ele>271</ele><time>2015-10-15T12:44:11Z</time></trkpt>
<trkpt lat="54.3197030000" lon="-2.1036950000"><ele>271</ele></trkpt>
<trkpt lat="54.3197080000" lon="-2.1036840000"><ele>271</ele><time>2015-10-15T12:44:12Z</time></trkpt>
<trkpt lat="54.3197140000" lon="-2.1036730000"><ele>271</ele><time>2015-10-15T12:44:14Z</time></trkpt>
<trkpt lat="54.3197200000" lon="-2.1036610000"><ele>271</ele><time>2015-10-15T12:44:15Z</time></trkpt>
<trkpt lat="54.3197250000" lon="-2.1036500000"><ele>271</ele><time>2015-10-15T12:44:16Z</time></trkpt>
<trkpt lat="54.3197310000" lon="-2.1036370000"><ele>271</ele><time>2015-10-15T12:44:17Z</time></trkpt>
<trkpt lat="54.3197370000" lon="-2.1036250000"><ele>271</ele></trkpt>
<trkpt lat="54.3197430000" lon="-2.1036120000"><ele>271</ele><time>2015-10-15T12:44:18Z</time></trkpt>
<trkpt lat="54.3198490000" lon="-2.1033850000"><ele>271</ele><time>2015-10-15T12:44:20Z</time></trkpt>
<trkpt lat="54.3198560000" lon="-2.1033720000"><ele>271</ele><time>2015-10-15T12:44:21Z</time></trkpt>
<trkpt lat="54.3198610000" lon="-2.1033550000"><ele>271</ele><time>2015-10-15T12:44:22Z</time></trkpt>
<trkpt lat="54.3198670000" lon="-2.1033400000"><ele>271</ele><time>2015-10-15T12:44:23Z</time></trkpt>
<trkpt lat="54.3198750000" lon="-2.1033270000"><ele>271</ele></trkpt>
<trkpt lat="54.3198820000" lon="-2.1033200000"><ele>271</ele><time>2015-10-15T12:44:24Z</time></trkpt>
<trkpt lat="54.3198850000" lon="-2.1033150000"><ele>271</ele><time>2015-10-15T12:44:25Z</time></trkpt>
<trkpt lat="54.3198850000" lon="-2.1033150000"><ele>271</ele><time>2015-10-15T12:44:29Z</time></trkpt>
<trkpt lat="54.3198850000" lon="-2.1033150000"><ele>271</ele><time>2015-10-15T12:44:30Z</time></trkpt>
<trkpt lat="54.3198860000" lon="-2.1033140000"><ele>271</ele></trkpt>
<trkpt lat="54.3198860000" lon="-2.1033130000"><ele>271</ele><time>2015-10-15T12:44:31Z</time></trkpt>
<trkpt lat="54.3198870000" lon="-2.1033110000"><ele>271</ele><time>2015-10-15T12:44:33Z</time></trkpt>
<trkpt lat="54.3198880000" lon="-2.1033090000"><ele>271</ele><time>2015-10-15T12:44:34Z</time></trkpt>
<trkpt lat="54.3198890000" lon="-2.1033070000"><ele>271</ele><time>2015-10-15T12:44:35Z</time></trkpt>
<trkpt lat="54.3198900000" lon="-2.1033040000"><ele>271</ele><time>2015-10-15T12:44:36Z</time></trkpt>
<trkpt lat="54.3198920000" lon="-2.1033000000"><ele>271</ele></trkpt>
<trkpt lat="54.3198940000" lon="-2.1032960000"><ele>271</ele><time>2015-10-15T12:44:37Z</time></trkpt>
<trkpt lat="54.3198950000" lon="-2.1032910000"><ele>271</ele><time>2015-10-15T12:44:39Z</time></trkpt>
<trkpt lat="54.3198970000" lon="-2.1032850000"><ele>271</ele><time>2015-10-15T12:44:40Z</time></trkpt>
<trkpt lat="54.3198990000" lon="-2.1032790000"><ele>271</ele><time>2015-10-15T12:44:41Z</time></trkpt>
<trkpt lat="54.3199010000" lon="-2.1032730000"><ele>271</ele><time>2015-10-15T12:44:42Z</time></trkpt>
<trkpt lat="54.3199040000" lon="-2.1032660000"><ele>271</ele></trkpt>
<trkpt lat="54.3199060000" lon="-2.1032580000"><ele>271</ele><time>2015-10-15T12:44:43Z</time></trkpt>
<trkpt lat="54.3199090000" lon="-2.1032500000"><ele>271</ele><time>2015-10-15T12:44:45Z</time></trkpt>
<trkpt lat="54.3199110000" lon="-2.1032420000"><ele>271</ele><time>2015-10-15T12:44:46Z</time></trkpt>
<trkpt lat="54.3199140000" lon="-2.1032330000"><ele>271</ele><time>2015-10-15T12:44:47Z</time></trkpt>
<trkpt lat="54.3199160000" lon="-2.1032230000"><ele>271</ele><time>2015-10-15T12:44:48Z</time></trkpt>
<trkpt lat="54.3199190000" lon="-2.1032130000"><ele>271</ele></trkpt>
<trkpt lat="54.3199210000" lon="-2.1032050000"><ele>271</ele><time>2015-10-15T12:44:51Z</time></trkpt>
<trkpt lat="54.3199230000" lon="-2.1031940000"><ele>271</ele></trkpt>
<trkpt lat="54.3199260000" lon="-2.1031840000"><ele>271</ele><time>2015-10-15T12:44:52Z</time></trkpt>
<trkpt lat="54.3199340000" lon="-2.1031440000"><ele>271</ele><time>2015-10-15T12:44:56Z</time></trkpt>
<trkpt lat="54.3199410000" lon="-2.1031080000"><ele>296</ele><time>2015-10-15T12:44:59Z</time></trkpt>
<trkpt lat="54.3200050000" lon="-2.1028500000"><ele>288</ele><time>2015-10-15T12:45:00Z</time></trkpt>
<trkpt lat="54.3200170000" lon="-2.1028210000"><ele>288</ele><time>2015-10-15T12:45:03Z</time></trkpt>
<trkpt lat="54.3200330000" lon="-2.1027950000"><ele>288</ele><time>2015-10-15T12:45:05Z</time></trkpt>
<trkpt lat="54.3200520000" lon="-2.1027660000"><ele>288</ele><time>2015-10-15T12:45:27Z</time></trkpt>
<trkpt lat="54.3200710000" lon="-2.1027450000"><ele>288</ele><time>2015-10-15T12:45:34Z</time></trkpt>
<trkpt lat="54.3201540000" lon="-2.1026390000"><ele>288</ele><time>2015-10-15T12:45:36Z</time></trkpt>
<trkpt lat="54.3201710000" lon="-2.1026200000"><ele>288</ele><time>2015-10-15T12:45:37Z</time></trkpt>
<trkpt lat="54.3201780000" lon="-2.1026120000"><ele>288</ele><time>2015-10-15T12:45:38Z</time></trkpt>
<trkpt lat="54.3201840000" lon="-2.1026010000"><ele>288</ele><time>2015-10-15T12:45:40Z</time></trkpt>
<trkpt lat="54.3201840000" lon="-2.1026010000"><ele>288</ele><time>2015-10-15T12:45:42Z</time></trkpt>
<trkpt lat="54.3201840000" lon="-2.1026010000"><ele>288</ele><time>2015-10-15T12:45:43Z</time></trkpt>
<trkpt lat="54.3201840000" lon="-2.1026010000"><ele>288</ele></trkpt>
<trkpt lat="54.3201850000" lon="-2.1026000000"><ele>288</ele><time>2015-10-15T12:45:44Z</time></trkpt>
<trkpt lat="54.3201860000" lon="-2.1025990000"><ele>288</ele><time>2015-10-15T12:45:46Z</time></trkpt>
<trkpt lat="54.3201880000" lon="-2.1025980000"><ele>288</ele><time>2015-10-15T12:45:47Z</time></trkpt>
<trkpt lat="54.3201890000" lon="-2.1025970000"><ele>288</ele><time>2015-10-15T12:45:48Z</time></trkpt>
<trkpt lat="54.3201910000" lon="-2.1025950000"><ele>288</ele><time>2015-10-15T12:45:49Z</time></trkpt>
<trkpt lat="54.3201940000" lon="-2.1025930000"><ele>288</ele><time>2015-10-15T12:45:50Z</time></trkpt>
<trkpt lat="54.3201970000" lon="-2.1025900000"><ele>288</ele><time>2015-10-15T12:45:51Z</time></trkpt>
<trkpt lat="54.3202000000" lon="-2.1025870000"><ele>288</ele><time>2015-10-15T12:45:52Z</time></trkpt>
<trkpt lat="54.3202030000" lon="-2.1025830000"><ele>288</ele></trkpt>
<trkpt lat="54.3202070000" lon="-2.1025780000"><ele>288</ele><time>2015-10-15T12:45:53Z</time></trkpt>
<trkpt lat="54.3202110000" lon="-2.1025730000"><ele>288</ele><time>2015-10-15T12:45:55Z</time></trkpt>
<trkpt lat="54.3202150000" lon="-2.1025680000"><ele>288</ele><time>2015-10-15T12:45:56Z</time></trkpt>
<trkpt lat="54.3202190000" lon="-2.1025610000"><ele>288</ele><time>2015-10-15T12:45:57Z</time></trkpt>
<trkpt lat="54.3202240000" lon="-2.1025550000"><ele>288</ele><time>2015-10-15T12:45:58Z</time></trkpt>
<trkpt lat="54.3202290000" lon="-2.1025480000"><ele>288</ele></trkpt>
<trkpt lat="54.3202330000" lon="-2.1025400000"><ele>288</ele><time>2015-10-15T12:45:59Z</time></trkpt>
<trkpt lat="54.3202390000" lon="-2.1025330000"><ele>288</ele><time>2015-10-15T12:46:01Z</time></trkpt>
<trkpt lat="54.3202440000" lon="-2.1025250000"><ele>288</ele><time>2015-10-15T12:46:02Z</time></trkpt>
<trkpt lat="54.3202490000" lon="-2.1025170000"><ele>288</ele><time>2015-10-15T12:46:03Z</time></trkpt>
<trkpt lat="54.3202550000" lon="-2.1025080000"><ele>288</ele><time>2015-10-15T12:46:04Z</time></trkpt>
<trkpt lat="54.3202600000" lon="-2.1025000000"><ele>288</ele></trkpt>
<trkpt lat="54.3202660000" lon="-2.1024920000"><ele>288</ele><time>2015-10-15T12:46:05Z</time></trkpt>
<trkpt lat="54.3202720000" lon="-2.1024830000"><ele>288</ele><time>2015-10-15T12:46:06Z</time></trkpt>
<trkpt lat="54.3202770000" lon="-2.1024750000"><ele>288</ele><time>2015-10-15T12:46:08Z</time></trkpt>
<trkpt lat="54.3202840000" lon="-2.1024670000"><ele>288</ele><time>2015-10-15T12:46:09Z</time></trkpt>
<trkpt lat="54.3202900000" lon="-2.1024600000"><ele>288</ele><time>2015-10-15T12:46:10Z</time></trkpt>
<trkpt lat="54.3202960000" lon="-2.1024530000"><ele>288</ele><time>2015-10-15T12:46:11Z</time></trkpt>
<trkpt lat="54.3203020000" lon="-2.1024460000"><ele>288</ele></trkpt>
<trkpt lat="54.3203090000" lon="-2.1024390000"><ele>288</ele><time>2015-10-15T12:46:12Z</time></trkpt>
<trkpt lat="54.3203150000" lon="-2.1024330000"><ele>288</ele><time>2015-10-15T12:46:14Z</time></trkpt>
<trkpt lat="54.3203220000" lon="-2.1024260000"><ele>288</ele><time>2015-10-15T12:46:15Z</time></trkpt>
<trkpt lat="54.3203290000" lon="-2.1024200000"><ele>288</ele><time>2015-10-15T12:46:16Z</time></trkpt>
<trkpt lat="54.3203350000" lon="-2.1024140000"><ele>288</ele><time>2015-10-15T12:46:17Z</time></trkpt>
<trkpt lat="54.3203420000" lon="-2.1024070000"><ele>288</ele></trkpt>
<trkpt lat="54.3203480000" lon="-2.1024010000"><ele>288</ele><time>2015-10-15T12:46:18Z</time></trkpt>
<trkpt lat="54.3203550000" lon="-2.1023950000"><ele>288</ele><time>2015-10-15T12:46:20Z</time></trkpt>
<trkpt lat="54.3203620000" lon="-2.1023900000"><ele>288</ele><time>2015-10-15T12:46:21Z</time></trkpt>
<trkpt lat="54.3203680000" lon="-2.1023840000"><ele>288</ele><time>2015-10-15T12:46:22Z</time></trkpt>
<trkpt lat="54.3203750000" lon="-2.1023780000"><ele>288</ele><time>2015-10-15T12:46:23Z</time></trkpt>
<trkpt lat="54.3203820000" lon="-2.1023730000"><ele>288</ele></trkpt>
<trkpt lat="54.3203900000" lon="-2.1023690000"><ele>288</ele><time>2015-10-15T12:46:24Z</time></trkpt>
<trkpt lat="54.3203970000" lon="-2.1023640000"><ele>288</ele><time>2015-10-15T12:46:26Z</time></trkpt>
<trkpt lat="54.3204050000" lon="-2.1023600000"><ele>288</ele><time>2015-10-15T12:46:27Z</time></trkpt>
<trkpt lat="54.3204130000" lon="-2.1023560000"><ele>288</ele><time>2015-10-15T12:46:28Z</time></trkpt>
<trkpt lat="54.3204210000" lon="-2.1023530000"><ele>288</ele><time>2015-10-15T12:46:29Z</time></trkpt>
<trkpt lat="54.3204290000" lon="-2.1023500000"><ele>288</ele><time>2015-10-15T12:46:30Z</time></trkpt>
<trkpt lat="54.3204370000" lon="-2.1023480000"><ele>288</ele></trkpt>
<trkpt lat="54.3204450000" lon="-2.1023460000"><ele>288</ele><time>2015-10-15T12:46:31Z</time></trkpt>
<trkpt lat="54.3204530000" lon="-2.1023440000"><ele>288</ele><time>2015-10-15T12:46:33Z</time></trkpt>
<trkpt lat="54.3204610000" lon="-2.1023420000"><ele>288</ele><time>2015-10-15T12:46:34Z</time></trkpt>
<trkpt lat="54.3204680000" lon="-2.1023410000"><ele>288</ele><time>2015-10-15T12:46:35Z</time></trkpt>
<trkpt lat="54.3204760000" lon="-2.1023390000"><ele>288</ele><time>2015-10-15T12:46:36Z</time></trkpt>
<trkpt lat="54.3204840000" lon="-2.1023380000"><ele>288</ele></trkpt>
<trkpt lat="54.3204920000" lon="-2.1023370000"><ele>288</ele><time>2015-10-15T12:46:37Z</time></trkpt>
<trkpt lat="54.3205000000" lon="-2.1023360000"><ele>288</ele><time>2015-10-15T12:46:39Z</time></trkpt>
<trkpt lat="54.3205080000" lon="-2.1023350000"><ele>288</ele><time>2015-10-15T12:46:40Z</time></trkpt>
<trkpt lat="54.3205160000" lon="-2.1023340000"><ele>288</ele><time>2015-10-15T12:46:41Z</time></trkpt>
<trkpt lat="54.3205250000" lon="-2.1023340000"><ele>288</ele><time>2015-10-15T12:46:42Z</time></trkpt>
<trkpt lat="54.3205330000" lon="-2.1023330000"><ele>288</ele></trkpt>
<trkpt lat="54.3205410000" lon="-2.1023330000"><ele>288</ele><time>2015-10-15T12:46:43Z</time></trkpt>
<trkpt lat="54.3205490000" lon="-2.1023330000"><ele>288</ele><time>2015-10-15T12:46:45Z</time></trkpt>
<trkpt lat="54.3205570000" lon="-2.1023330000"><ele>288</ele><time>2015-10-15T12:46:46Z</time></trkpt>
<trkpt lat="54.3205650000" lon="-2.1023320000"><ele>288</ele><time>2015-10-15T12:46:47Z</time></trkpt>
<trkpt lat="54.3205720000" lon="-2.1023310000"><ele>288</ele><time>2015-10-15T12:46:48Z</time></trkpt>
<trkpt lat="54.3205790000" lon="-2.1023290000"><ele>288</ele></trkpt>
<trkpt lat="54.3205860000" lon="-2.1023280000"><ele>288</ele><time>2015-10-15T12:46:50Z</time></trkpt>
<trkpt lat="54.3205930000" lon="-2.1023250000"><ele>288</ele><time>2015-10-15T12:46:51Z</time></trkpt>
<trkpt lat="54.3206000000" lon="-2.1023230000"><ele>288</ele><time>2015-10-15T12:46:52Z</time></trkpt>
<trkpt lat="54.3206080000" lon="-2.1023200000"><ele>288</ele></trkpt>
<trkpt lat="54.3206150000" lon="-2.1023180000"><ele>288</ele><time>2015-10-15T12:46:53Z</time></trkpt>
<trkpt lat="54.3206220000" lon="-2.1023140000"><ele>288</ele><time>2015-10-15T12:46:55Z</time></trkpt>
<trkpt lat="54.3206290000" lon="-2.1023110000"><ele>288</ele><time>2015-10-15T12:46:56Z</time></trkpt>
<trkpt lat="54.3206360000" lon="-2.1023080000"><ele>288</ele><time>2015-10-15T12:46:57Z</time></trkpt>
<trkpt lat="54.3206440000" lon="-2.1023040000"><ele>288</ele><time>2015-10-15T12:46:58Z</time></trkpt>
<trkpt lat="54.3206510000" lon="-2.1023000000"><ele>288</ele></trkpt>
<trkpt lat="54.3206590000" lon="-2.1022960000"><ele>288</ele><time>2015-10-15T12:46:59Z</time></trkpt>
<trkpt lat="54.3206680000" lon="-2.1022920000"><ele>288</ele><time>2015-10-15T12:47:01Z</time></trkpt>
<trkpt lat="54.3206760000" lon="-2.1022880000"><ele>288</ele><time>2015-10-15T12:47:02Z</time></trkpt>
<trkpt lat="54.3206850000" lon="-2.1022840000"><ele>288</ele><time>2015-10-15T12:47:03Z</time></trkpt>
<trkpt lat="54.3206940000" lon="-2.1022800000"><ele>288</ele><time>2015-10-15T12:47:04Z</time></trkpt>
<trkpt lat="54.3207030000" lon="-2.1022760000"><ele>288</ele><time>2015-10-15T12:47:05Z</time></trkpt>
<trkpt lat="54.3208650000" lon="-2.1022100000"><ele>288</ele></trkpt>
<trkpt lat="54.3208800000" lon="-2.1022090000"><ele>288</ele><time>2015-10-15T12:47:06Z</time></trkpt>
<trkpt lat="54.3208940000" lon="-2.1022060000"><ele>288</ele><time>2015-10-15T12:47:08Z</time></trkpt>
<trkpt lat="54.3209080000" lon="-2.1022030000"><ele>288</ele><time>2015-10-15T12:47:09Z</time></trkpt>
<trkpt lat="54.3209210000" lon="-2.1022000000"><ele>288</ele><time>2015-10-15T12:47:10Z</time></trkpt>
<trkpt lat="54.3209360000" lon="-2.1021970000"><ele>288</ele><time>2015-10-15T12:47:11Z</time></trkpt>
<trkpt lat="54.3209480000" lon="-2.1021920000"><ele>288</ele></trkpt>
<trkpt lat="54.3209590000" lon="-2.1021870000"><ele>288</ele><time>2015-10-15T12:47:12Z</time></trkpt>
<trkpt lat="54.3209700000" lon="-2.1021840000"><ele>288</ele><time>2015-10-15T12:47:14Z</time></trkpt>
<trkpt lat="54.3209700000" lon="-2.1021840000"><ele>288</ele><time>2015-10-15T12:47:15Z</time></trkpt>
<trkpt lat="54.3209710000" lon="-2.1021840000"><ele>288</ele><time>2015-10-15T12:47:16Z</time></trkpt>
<trkpt lat="54.3209710000" lon="-2.1021840000"><ele>288</ele><time>2015-10-15T12:47:17Z</time></trkpt>
<trkpt lat="54.3209720000" lon="-2.1021840000"><ele>288</ele></trkpt>
<trkpt lat="54.3209730000" lon="-2.1021840000"><ele>288</ele><time>2015-10-15T12:47:18Z</time></trkpt>
<trkpt lat="54.3209740000" lon="-2.1021830000"><ele>288</ele><time>2015-10-15T12:47:20Z</time></trkpt>
<trkpt lat="54.3209760000" lon="-2.1021830000"><ele>288</ele><time>2015-10-15T12:47:21Z</time></trkpt>
<trkpt lat="54.3209780000" lon="-2.1021820000"><ele>288</ele><time>2015-10-15T12:47:22Z</time></trkpt>
<trkpt lat="54.3209810000" lon="-2.1021810000"><ele>288</ele><time>2015-10-15T12:47:23Z</time></trkpt>
<trkpt lat="54.3209830000" lon="-2.1021800000"><ele>288</ele></trkpt>
<trkpt lat="54.3209870000" lon="-2.1021790000"><ele>288</ele><time>2015-10-15T12:47:24Z</time></trkpt>
<trkpt lat="54.3209910000" lon="-2.1021780000"><ele>288</ele><time>2015-10-15T12:47:26Z</time></trkpt>
<trkpt lat="54.3209960000" lon="-2.1021760000"><ele>288</ele><time>2015-10-15T12:47:27Z</time></trkpt>
<trkpt lat="54.3210020000" lon="-2.1021750000"><ele>288</ele><time>2015-10-15T12:47:28Z</time></trkpt>
<trkpt lat="54.3210070000" lon="-2.1021730000"><ele>288</ele><time>2015-10-15T12:47:29Z</time></trkpt>
<trkpt lat="54.3210130000" lon="-2.1021710000"><ele>288</ele><time>2015-10-15T12:47:30Z</time></trkpt>
<trkpt lat="54.3210200000" lon="-2.1021690000"><ele>288</ele></trkpt>
<trkpt lat="54.3210260000" lon="-2.1021670000"><ele>288</ele><time>2015-10-15T12:47:31Z</time></trkpt>
<trkpt lat="54.3210330000" lon="-2.1021650000"><ele>288</ele><time>2015-10-15T12:47:33Z</time></trkpt>
<trkpt lat="54.3210390000" lon="-2.1021620000"><ele>288</ele><time>2015-10-15T12:47:34Z</time></trkpt>
<trkpt lat="54.3210460000" lon="-2.1021600000"><ele>288</ele><time>2015-10-15T12:47:35Z</time></trkpt>
<trkpt lat="54.3210530000" lon="-2.1021570000"><ele>288</ele><time>2015-10-15T12:47:36Z</time></trkpt>
<trkpt lat="54.3210600000" lon="-2.1021550000"><ele>288</ele></trkpt>
<trkpt lat="54.3210680000" lon="-2.1021520000"><ele>288</ele><time>2015-10-15T12:47:37Z</time></trkpt>
<trkpt lat="54.3210760000" lon="-2.1021490000"><ele>288</ele><time>2015-10-15T12:47:39Z</time></trkpt>
<trkpt lat="54.3210840000" lon="-2.1021460000"><ele>288</ele><time>2015-10-15T12:47:40Z</time></trkpt>
<trkpt lat="54.3210930000" lon="-2.1021430000"><ele>288</ele><time>2015-10-15T12:47:41Z</time></trkpt>
<trkpt lat="54.3211010000" lon="-2.1021400000"><ele>288</ele><time>2015-10-15T12:47:42Z</time></trkpt>
<trkpt lat="54.3211100000" lon="-2.1021360000"><ele>288</ele></trkpt>
<trkpt lat="54.3211180000" lon="-2.1021330000"><ele>288</ele><time>2015-10-15T12:47:43Z</time></trkpt>
<trkpt lat="54.3211270000" lon="-2.1021290000"><ele>288</ele><time>2015-10-15T12:47:45Z</time></trkpt>
<trkpt lat="54.3211360000" lon="-2.1021260000"><ele>288</ele><time>2015-10-15T12:47:46Z</time></trkpt>
<trkpt lat="54.3211450000" lon="-2.1021220000"><ele>288</ele><time>2015-10-15T12:47:47Z</time></trkpt>
<trkpt lat="54.3211540000" lon="-2.1021180000"><ele>288</ele><time>2015-10-15T12:47:48Z</time></trkpt>
<trkpt lat="54.3211630000" lon="-2.1021140000"><ele>288</ele></trkpt>
<trkpt lat="54.3211720000" lon="-2.1021110000"><ele>288</ele><time>2015-10-15T12:47:50Z</time></trkpt>
<trkpt lat="54.3211810000" lon="-2.1021080000"><ele>288</ele><time>2015-10-15T12:47:51Z</time></trkpt>
<trkpt lat="54.3211910000" lon="-2.1021050000"><ele>288</ele><time>2015-10-15T12:47:52Z</time></trkpt>
<trkpt lat="54.3211990000" lon="-2.1021030000"><ele>288</ele></trkpt>
<trkpt lat="54.3212090000" lon="-2.1021000000"><ele>288</ele><time>2015-10-15T12:47:53Z</time></trkpt>
<trkpt lat="54.3212190000" lon="-2.1020970000"><ele>288</ele><time>2015-10-15T12:47:55Z</time></trkpt>
<trkpt lat="54.3212290000" lon="-2.1020940000"><ele>288</ele><time>2015-10-15T12:47:56Z</time></trkpt>
<trkpt lat="54.3212390000" lon="-2.1020910000"><ele>288</ele><time>2015-10-15T12:47:57Z</time></trkpt>
<trkpt lat="54.3214170000" lon="-2.1020340000"><ele>288</ele><time>2015-10-15T12:47:58Z</time></trkpt>
<trkpt lat="54.3214290000" lon="-2.1020330000"><ele>288</ele></trkpt>
<trkpt lat="54.3214400000" lon="-2.1020340000"><ele>288</ele><time>2015-10-15T12:47:59Z</time></trkpt>
<trkpt lat="54.3214490000" lon="-2.1020360000"><ele>288</ele><time>2015-10-15T12:48:01Z</time></trkpt>
<trkpt lat="54.3214490000" lon="-2.1020360000"><ele>288</ele><time>2015-10-15T12:48:02Z</time></trkpt>
<trkpt lat="54.3214490000" lon="-2.1020360000"><ele>288</ele><time>2015-10-15T12:48:03Z</time></trkpt>
<trkpt lat="54.3214490000" lon="-2.1020360000"><ele>288</ele><time>2015-10-15T12:48:04Z</time></trkpt>
<trkpt lat="54.3214500000" lon="-2.1020360000"><ele>288</ele></trkpt>
<trkpt lat="54.3214500000" lon="-2.1020360000"><ele>288</ele><time>2015-10-15T12:48:05Z</time></trkpt>
<trkpt lat="54.3214510000" lon="-2.1020360000"><ele>288</ele><time>2015-10-15T12:48:06Z</time></trkpt>
<trkpt lat="54.3214520000" lon="-2.1020360000"><ele>288</ele><time>2015-10-15T12:48:08Z</time></trkpt>
<trkpt lat="54.3214530000" lon="-2.1020360000"><ele>288</ele><time>2015-10-15T12:48:09Z</time></trkpt>
<trkpt lat="54.3214540000" lon="-2.1020360000"><ele>288</ele><time>2015-10-15T12:48:10Z</time></trkpt>
<trkpt lat="54.3214550000" lon="-2.1020360000"><ele>288</ele><time>2015-10-15T12:48:11Z</time></trkpt>
<trkpt lat="54.3214570000" lon="-2.1020360000"><ele>288</ele></trkpt>
<trkpt lat="54.3214580000" lon="-2.1020360000"><ele>288</ele><time>2015-10-15T12:48:12Z</time></trkpt>
<trkpt lat="54.3214600000" lon="-2.1020360000"><ele>288</ele><time>2015-10-15T12:48:14Z</time></trkpt>
<trkpt lat="54.3214610000" lon="-2.1020360000"><ele>288</ele><time>2015-10-15T12:48:15Z</time></trkpt>
<trkpt lat="54.3214630000" lon="-2.1020360000"><ele>288</ele><time>2015-10-15T12:48:16Z</time></trkpt>
<trkpt lat="54.3214640000" lon="-2.1020360000"><ele>288</ele><time>2015-10-15T12:48:17Z</time></trkpt>
<trkpt lat="54.3214660000" lon="-2.1020350000"><ele>288</ele></trkpt>
<trkpt lat="54.3214670000" lon="-2.1020350000"><ele>288</ele><time>2015-10-15T12:48:18Z</time></trkpt>
<trkpt lat="54.3214690000" lon="-2.1020350000"><ele>288</ele><time>2015-10-15T12:48:20Z</time></trkpt>
<trkpt lat="54.3214700000" lon="-2.1020340000"><ele>288</ele><time>2015-10-15T12:48:21Z</time></trkpt>
<trkpt lat="54.3214720000" lon="-2.1020340000"><ele>288</ele><time>2015-10-15T12:48:22Z</time></trkpt>
<trkpt lat="54.3214730000" lon="-2.1020340000"><ele>288</ele><time>2015-10-15T12:48:23Z</time></trkpt>
<trkpt lat="54.3214750000" lon="-2.1020340000"><ele>288</ele></trkpt>
<trkpt lat="54.3214760000" lon="-2.1020330000"><ele>288</ele><time>2015-10-15T12:48:24Z</time></trkpt>
<trkpt lat="54.3214770000" lon="-2.1020330000"><ele>288</ele><time>2015-10-15T12:48:26Z</time></trkpt>
<trkpt lat="54.3214790000" lon="-2.1020330000"><ele>288</ele><time>2015-10-15T12:48:27Z</time></trkpt>
<trkpt lat="54.3214800000" lon="-2.1020330000"><ele>288</ele><time>2015-10-15T12:48:28Z</time></trkpt>
<trkpt lat="54.3214820000" lon="-2.1020320000"><ele>288</ele><time>2015-10-15T12:48:29Z</time></trkpt>
<trkpt lat="54.3214830000" lon="-2.1020320000"><ele>288</ele><time>2015-10-15T12:48:30Z</time></trkpt>
<trkpt lat="54.3214850000" lon="-2.1020320000"><ele>288</ele></trkpt>
<trkpt lat="54.3214860000" lon="-2.1020320000"><ele>288</ele><time>2015-10-15T12:48:31Z</time></trkpt>
<trkpt lat="54.3214870000" lon="-2.1020310000"><ele>288</ele><time>2015-10-15T12:48:33Z</time></trkpt>
<trkpt lat="54.3214880000" lon="-2.1020310000"><ele>288</ele><time>2015-10-15T12:48:34Z</time></trkpt>
<trkpt lat="54.3214900000" lon="-2.1020310000"><ele>288</ele><time>2015-10-15T12:48:35Z</time></trkpt>
<trkpt lat="54.3214910000" lon="-2.1020310000"><ele>288</ele><time>2015-10-15T12:48:36Z</time></trkpt>
<trkpt lat="54.3214920000" lon="-2.1020300000"><ele>288</ele></trkpt>
<trkpt lat="54.3214940000" lon="-2.1020300000"><ele>288</ele><time>2015-10-15T12:48:37Z</time></trkpt>
<trkpt lat="54.3214950000" lon="-2.1020300000"><ele>288</ele><time>2015-10-15T12:48:39Z</time></trkpt>
<trkpt lat="54.3214960000" lon="-2.1020300000"><ele>288</ele><time>2015-10-15T12:48:40Z</time></trkpt>
<trkpt lat="54.3214970000" lon="-2.1020290000"><ele>288</ele><time>2015-10-15T12:48:41Z</time></trkpt>
<trkpt lat="54.3214990000" lon="-2.1020280000"><ele>288</ele><time>2015-10-15T12:48:42Z</time></trkpt>
<trkpt lat="54.3214990000" lon="-2.1020270000"><ele>288</ele></trkpt>
<trkpt lat="54.3215000000" lon="-2.1020250000"><ele>288</ele><time>2015-10-15T12:48:43Z</time></trkpt>
<trkpt lat="54.3215010000" lon="-2.1020240000"><ele>288</ele><time>2015-10-15T12:48:45Z</time></trkpt>
<trkpt lat="54.3215020000" lon="-2.1020210000"><ele>288</ele><time>2015-10-15T12:48:46Z</time></trkpt>
<trkpt lat="54.3215020000" lon="-2.1020190000"><ele>288</ele><time>2015-10-15T12:48:47Z</time></trkpt>
<trkpt lat="54.3215030000" lon="-2.1020150000"><ele>288</ele><time>2015-10-15T12:48:48Z</time></trkpt>
<trkpt lat="54.3215040000" lon="-2.1020110000"><ele>288</ele></trkpt>
<trkpt lat="54.3215050000" lon="-2.1020070000"><ele>288</ele><time>2015-10-15T12:48:50Z</time></trkpt>
<trkpt lat="54.3215050000" lon="-2.1020020000"><ele>288</ele><time>2015-10-15T12:48:51Z</time></trkpt>
<trkpt lat="54.3215060000" lon="-2.1019960000"><ele>288</ele><time>2015-10-15T12:48:52Z</time></trkpt>
<trkpt lat="54.3215070000" lon="-2.1019910000"><ele>288</ele></trkpt>
<trkpt lat="54.3215070000" lon="-2.1019850000"><ele>288</ele><time>2015-10-15T12:48:53Z</time></trkpt>
<trkpt lat="54.3215080000" lon="-2.1019790000"><ele>288</ele><time>2015-10-15T12:48:55Z</time></trkpt>
<trkpt lat="54.3215080000" lon="-2.1019710000"><ele>288</ele><time>2015-10-15T12:48:56Z</time></trkpt>
<trkpt lat="54.3215090000" lon="-2.1019640000"><ele>288</ele><time>2015-10-15T12:48:57Z</time></trkpt>
<trkpt lat="54.3215090000" lon="-2.1019560000"><ele>288</ele><time>2015-10-15T12:48:58Z</time></trkpt>
<trkpt lat="54.3215090000" lon="-2.1019470000"><ele>288</ele></trkpt>
<trkpt lat="54.3215090000" lon="-2.1019380000"><ele>288</ele><time>2015-10-15T12:48:59Z</time></trkpt>
<trkpt lat="54.3215090000" lon="-2.1019280000"><ele>288</ele><time>2015-10-15T12:49:01Z</time></trkpt>
<trkpt lat="54.3215090000" lon="-2.1019170000"><ele>288</ele><time>2015-10-15T12:49:02Z</time></trkpt>
<trkpt lat="54.3215090000" lon="-2.1019060000"><ele>288</ele><time>2015-10-15T12:49:03Z</time></trkpt>
<trkpt lat="54.3215090000" lon="-2.1018960000"><ele>288</ele><time>2015-10-15T12:49:04Z</time></trkpt>
<trkpt lat="54.3215090000" lon="-2.1018860000"><ele>288</ele><time>2015-10-15T12:49:05Z</time></trkpt>
<trkpt lat="54.3215100000" lon="-2.1018760000"><ele>288</ele></trkpt>
<trkpt lat="54.3215100000" lon="-2.1018380000"><ele>288</ele><time>2015-10-15T12:49:09Z</time></trkpt>
<trkpt lat="54.3215130000" lon="-2.1015670000"><ele>288</ele><time>2015-10-15T12:49:11Z</time></trkpt>
<trkpt lat="54.3215110000" lon="-2.1015270000"><ele>288</ele><time>2015-10-15T12:49:12Z</time></trkpt>
<trkpt lat="54.3215080000" lon="-2.1015040000"><ele>288</ele><time>2015-10-15T12:49:14Z</time></trkpt>
<trkpt lat="54.3215030000" lon="-2.1014780000"><ele>288</ele><time>2015-10-15T12:49:15Z</time></trkpt>
<trkpt lat="54.3215010000" lon="-2.1014530000"><ele>288</ele><time>2015-10-15T12:49:16Z</time></trkpt>
<trkpt lat="54.3215030000" lon="-2.1014280000"><ele>288</ele><time>2015-10-15T12:49:17Z</time></trkpt>
<trkpt lat="54.3215010000" lon="-2.1014050000"><ele>288</ele></trkpt>
<trkpt lat="54.3214980000" lon="-2.1013790000"><ele>288</ele><time>2015-10-15T12:49:18Z</time></trkpt>
<trkpt lat="54.3214970000" lon="-2.1013570000"><ele>288</ele><time>2015-10-15T12:49:20Z</time></trkpt>
<trkpt lat="54.3214950000" lon="-2.1013380000"><ele>288</ele><time>2015-10-15T12:49:21Z</time></trkpt>
<trkpt lat="54.3214930000" lon="-2.1013140000"><ele>288</ele><time>2015-10-15T12:49:22Z</time></trkpt>
<trkpt lat="54.3214900000" lon="-2.1012890000"><ele>288</ele><time>2015-10-15T12:49:23Z</time></trkpt>
<trkpt lat="54.3214880000" lon="-2.1012640000"><ele>288</ele></trkpt>
<trkpt lat="54.3214870000" lon="-2.1012410000"><ele>288</ele><time>2015-10-15T12:49:24Z</time></trkpt>
<trkpt lat="54.3214840000" lon="-2.1012170000"><ele>288</ele><time>2015-10-15T12:49:25Z</time></trkpt>
<trkpt lat="54.3214840000" lon="-2.1011920000"><ele>288</ele><time>2015-10-15T12:49:27Z</time></trkpt>
<trkpt lat="54.3214840000" lon="-2.1011680000"><ele>288</ele><time>2015-10-15T12:49:28Z</time></trkpt>
<trkpt lat="54.3214850000" lon="-2.1011430000"><ele>288</ele><time>2015-10-15T12:49:29Z</time></trkpt>
<trkpt lat="54.3214860000" lon="-2.1011210000"><ele>288</ele><time>2015-10-15T12:49:30Z</time></trkpt>
<trkpt lat="54.3214870000" lon="-2.1010990000"><ele>288</ele></trkpt>
<trkpt lat="54.3214900000" lon="-2.1010740000"><ele>288</ele><time>2015-10-15T12:49:31Z</time></trkpt>
<trkpt lat="54.3214940000" lon="-2.1010540000"><ele>288</ele><time>2015-10-15T12:49:33Z</time></trkpt>
<trkpt lat="54.3214970000" lon="-2.1010310000"><ele>288</ele><time>2015-10-15T12:49:34Z</time></trkpt>
<trkpt lat="54.3214960000" lon="-2.1010060000"><ele>288</ele><time>2015-10-15T12:49:35Z</time></trkpt>
<trkpt lat="54.3214960000" lon="-2.1009820000"><ele>288</ele><time>2015-10-15T12:49:36Z</time></trkpt>
<trkpt lat="54.3214960000" lon="-2.1009570000"><ele>288</ele></trkpt>
<trkpt lat="54.3214950000" lon="-2.1009380000"><ele>288</ele><time>2015-10-15T12:49:37Z</time></trkpt>
<trkpt lat="54.3214940000" lon="-2.1009160000"><ele>288</ele><time>2015-10-15T12:49:39Z</time></trkpt>
<trkpt lat="54.3214950000" lon="-2.1008930000"><ele>288</ele><time>2015-10-15T12:49:40Z</time></trkpt>
<trkpt lat="54.3214940000" lon="-2.1008660000"><ele>288</ele><time>2015-10-15T12:49:41Z</time></trkpt>
<trkpt lat="54.3214950000" lon="-2.1008420000"><ele>288</ele><time>2015-10-15T12:49:42Z</time></trkpt>
<trkpt lat="54.3214950000" lon="-2.1008210000"><ele>288</ele></trkpt>
<trkpt lat="54.3214950000" lon="-2.1008020000"><ele>288</ele><time>2015-10-15T12:49:43Z</time></trkpt>
<trkpt lat="54.3214950000" lon="-2.1007840000"><ele>288</ele><time>2015-10-15T12:49:45Z</time></trkpt>
<trkpt lat="54.3214950000" lon="-2.1007840000"><ele>288</ele><time>2015-10-15T12:49:46Z</time></trkpt>
<trkpt lat="54.3214950000" lon="-2.1007830000"><ele>288</ele><time>2015-10-15T12:49:47Z</time></trkpt>
<trkpt lat="54.3214950000" lon="-2.1007820000"><ele>288</ele><time>2015-10-15T12:49:48Z</time></trkpt>
<trkpt lat="54.3214950000" lon="-2.1007810000"><ele>288</ele></trkpt>
<trkpt lat="54.3214950000" lon="-2.1007790000"><ele>288</ele><time>2015-10-15T12:49:51Z</time></trkpt>
<trkpt lat="54.3214950000" lon="-2.1007760000"><ele>288</ele></trkpt>
<trkpt lat="54.3214950000" lon="-2.1007720000"><ele>288</ele><time>2015-10-15T12:49:52Z</time></trkpt>
<trkpt lat="54.3214940000" lon="-2.1007680000"><ele>288</ele></trkpt>
<trkpt lat="54.3214940000" lon="-2.1007630000"><ele>288</ele><time>2015-10-15T12:49:53Z</time></trkpt>
<trkpt lat="54.3214930000" lon="-2.1007560000"><ele>288</ele><time>2015-10-15T12:49:54Z</time></trkpt>
<trkpt lat="54.3214920000" lon="-2.1007490000"><ele>288</ele><time>2015-10-15T12:49:56Z</time></trkpt>
<trkpt lat="54.3214610000" lon="-2.1005380000"><ele>288</ele><time>2015-10-15T12:49:57Z</time></trkpt>
<trkpt lat="54.3214570000" lon="-2.1005190000"><ele>288</ele><time>2015-10-15T12:49:58Z</time></trkpt>
<trkpt lat="54.3214540000" lon="-2.1005000000"><ele>288</ele><time>2015-10-15T12:49:59Z</time></trkpt>
<trkpt lat="54.3214530000" lon="-2.1004840000"><ele>288</ele></trkpt>
<trkpt lat="54.3214470000" lon="-2.1004590000"><ele>288</ele><time>2015-10-15T12:50:00Z</time></trkpt>
<trkpt lat="54.3214440000" lon="-2.1004390000"><ele>288</ele><time>2015-10-15T12:50:02Z</time></trkpt>
<trkpt lat="54.3214400000" lon="-2.1004170000"><ele>288</ele><time>2015-10-15T12:50:03Z</time></trkpt>
<trkpt lat="54.3214360000" lon="-2.1003950000"><ele>288</ele><time>2015-10-15T12:50:04Z</time></trkpt>
<trkpt lat="54.3214340000" lon="-2.1003730000"><ele>288</ele><time>2015-10-15T12:50:05Z</time></trkpt>
<trkpt lat="54.3214330000" lon="-2.1003530000"><ele>288</ele></trkpt>
<trkpt lat="54.3214330000" lon="-2.1003330000"><ele>288</ele><time>2015-10-15T12:50:06Z</time></trkpt>
<trkpt lat="54.3214290000" lon="-2.1003140000"><ele>288</ele><time>2015-10-15T12:50:08Z</time></trkpt>
<trkpt lat="54.3214240000" lon="-2.1002970000"><ele>288</ele><time>2015-10-15T12:50:09Z</time></trkpt>
<trkpt lat="54.3214160000" lon="-2.1002760000"><ele>288</ele><time>2015-10-15T12:50:10Z</time></trkpt>
<trkpt lat="54.3214130000" lon="-2.1002580000"><ele>288</ele><time>2015-10-15T12:50:11Z</time></trkpt>
<trkpt lat="54.3214090000" lon="-2.1002400000"><ele>288</ele></trkpt>
<trkpt lat="54.3214040000" lon="-2.1002180000"><ele>288</ele><time>2015-10-15T12:50:12Z</time></trkpt>
<trkpt lat="54.3214020000" lon="-2.1001990000"><ele>288</ele><time>2015-10-15T12:50:14Z</time></trkpt>
<trkpt lat="54.3214020000" lon="-2.1001790000"><ele>288</ele><time>2015-10-15T12:50:15Z</time></trkpt>
<trkpt lat="54.3214020000" lon="-2.1001790000"><ele>288</ele><time>2015-10-15T12:50:16Z</time></trkpt>
<trkpt lat="54.3214020000" lon="-2.1001790000"><ele>288</ele><time>2015-10-15T12:50:17Z</time></trkpt>
<trkpt lat="54.3214020000" lon="-2.1001780000"><ele>288</ele><time>2015-10-15T12:50:18Z</time></trkpt>
<trkpt lat="54.3214020000" lon="-2.1001770000"><ele>288</ele></trkpt>
<trkpt lat="54.3214020000" lon="-2.1001750000"><ele>288</ele><time>2015-10-15T12:50:19Z</time></trkpt>
<trkpt lat="54.3214020000" lon="-2.1001720000"><ele>288</ele><time>2015-10-15T12:50:21Z</time></trkpt>
<trkpt lat="54.3214020000" lon="-2.1001700000"><ele>288</ele><time>2015-10-15T12:50:22Z</time></trkpt>
<trkpt lat="54.3214010000" lon="-2.1001660000"><ele>288</ele><time>2015-10-15T12:50:23Z</time></trkpt>
<trkpt lat="54.3214020000" lon="-2.1001620000"><ele>288</ele><time>2015-10-15T12:50:24Z</time></trkpt>
<trkpt lat="54.3214020000" lon="-2.1001580000"><ele>288</ele></trkpt>
<trkpt lat="54.3214020000" lon="-2.1001540000"><ele>288</ele><time>2015-10-15T12:50:25Z</time></trkpt>
<trkpt lat="54.3214030000" lon="-2.1001480000"><ele>288</ele><time>2015-10-15T12:50:27Z</time></trkpt>
<trkpt lat="54.3214030000" lon="-2.1001420000"><ele>288</ele><time>2015-10-15T12:50:28Z</time></trkpt>
<trkpt lat="54.3214030000" lon="-2.1001350000"><ele>288</ele><time>2015-10-15T12:50:29Z</time></trkpt>
<trkpt lat="54.3214030000" lon="-2.1001290000"><ele>288</ele><time>2015-10-15T12:50:30Z</time></trkpt>
<trkpt lat="54.3214030000" lon="-2.1001220000"><ele>288</ele></trkpt>
<trkpt lat="54.3214030000" lon="-2.1001150000"><ele>288</ele><time>2015-10-15T12:50:31Z</time></trkpt>
<trkpt lat="54.3214030000" lon="-2.1001070000"><ele>288</ele><time>2015-10-15T12:50:33Z</time></trkpt>
<trkpt lat="54.3214020000" lon="-2.1000990000"><ele>288</ele><time>2015-10-15T12:50:34Z</time></trkpt>
<trkpt lat="54.3214020000" lon="-2.1000910000"><ele>288</ele><time>2015-10-15T12:50:35Z</time></trkpt>
<trkpt lat="54.3214010000" lon="-2.1000820000"><ele>288</ele><time>2015-10-15T12:50:36Z</time></trkpt>
<trkpt lat="54.3214000000" lon="-2.1000730000"><ele>288</ele></trkpt>
<trkpt lat="54.3213990000" lon="-2.1000630000"><ele>288</ele><time>2015-10-15T12:50:37Z</time></trkpt>
<trkpt lat="54.3213980000" lon="-2.1000530000"><ele>288</ele><time>2015-10-15T12:50:38Z</time></trkpt>
<trkpt lat="54.3213960000" lon="-2.1000430000"><ele>288</ele><time>2015-10-15T12:50:40Z</time></trkpt>
<trkpt lat="54.3213950000" lon="-2.1000320000"><ele>288</ele><time>2015-10-15T12:50:41Z</time></trkpt>
<trkpt lat="54.3213940000" lon="-2.1000210000"><ele>288</ele><time>2015-10-15T12:50:42Z</time></trkpt>
<trkpt lat="54.3213920000" lon="-2.1000100000"><ele>288</ele><time>2015-10-15T12:50:43Z</time></trkpt>
<trkpt lat="54.3213910000" lon="-2.0999990000"><ele>288</ele></trkpt>
<trkpt lat="54.3213890000" lon="-2.0999870000"><ele>288</ele><time>2015-10-15T12:50:44Z</time></trkpt>
<trkpt lat="54.3213870000" lon="-2.0999750000"><ele>288</ele><time>2015-10-15T12:50:46Z</time></trkpt>
<trkpt lat="54.3213860000" lon="-2.0999630000"><ele>288</ele><time>2015-10-15T12:50:47Z</time></trkpt>
<trkpt lat="54.3213840000" lon="-2.0999500000"><ele>288</ele><time>2015-10-15T12:50:48Z</time></trkpt>
<trkpt lat="54.3213820000" lon="-2.0999370000"><ele>288</ele><time>2015-10-15T12:50:49Z</time></trkpt>
<trkpt lat="54.3213810000" lon="-2.0999240000"><ele>288</ele><time>2015-10-15T12:50:50Z</time></trkpt>
<trkpt lat="54.3213790000" lon="-2.0999100000"><ele>288</ele><time>2015-10-15T12:50:51Z</time></trkpt>
<trkpt lat="54.3213780000" lon="-2.0998970000"><ele>275</ele><time>2015-10-15T12:50:52Z</time></trkpt>
<trkpt lat="54.3213760000" lon="-2.0998840000"><ele>275</ele></trkpt>
<trkpt lat="54.3213730000" lon="-2.0998710000"><ele>275</ele><time>2015-10-15T12:50:53Z</time></trkpt>
<trkpt lat="54.3213710000" lon="-2.0998580000"><ele>275</ele><time>2015-10-15T12:50:55Z</time></trkpt>
<trkpt lat="54.3213690000" lon="-2.0998440000"><ele>275</ele><time>2015-10-15T12:50:56Z</time></trkpt>
<trkpt lat="54.3213670000" lon="-2.0998310000"><ele>275</ele><time>2015-10-15T12:50:57Z</time></trkpt>
<trkpt lat="54.3213650000" lon="-2.0998180000"><ele>275</ele><time>2015-10-15T12:50:58Z</time></trkpt>
<trkpt lat="54.3213630000" lon="-2.0998040000"><ele>275</ele></trkpt>
<trkpt lat="54.3213610000" lon="-2.0997900000"><ele>275</ele><time>2015-10-15T12:50:59Z</time></trkpt>
<trkpt lat="54.3213600000" lon="-2.0997760000"><ele>275</ele><time>2015-10-15T12:51:01Z</time></trkpt>
<trkpt lat="54.3213580000" lon="-2.0997630000"><ele>275</ele><time>2015-10-15T12:51:02Z</time></trkpt>
<trkpt lat="54.3213570000" lon="-2.0997500000"><ele>275</ele><time>2015-10-15T12:51:03Z</time></trkpt>
<trkpt lat="54.3213560000" lon="-2.0997360000"><ele>275</ele><time>2015-10-15T12:51:04Z</time></trkpt>
<trkpt lat="54.3213550000" lon="-2.0997230000"><ele>275</ele></trkpt>
<trkpt lat="54.3213540000" lon="-2.0997100000"><ele>275</ele><time>2015-10-15T12:51:05Z</time></trkpt>
<trkpt lat="54.3213540000" lon="-2.0996970000"><ele>275</ele><time>2015-10-15T12:51:06Z</time></trkpt>
<trkpt lat="54.3213540000" lon="-2.0996840000"><ele>275</ele><time>2015-10-15T12:51:08Z</time></trkpt>
<trkpt lat="54.3213540000" lon="-2.0996710000"><ele>275</ele><time>2015-10-15T12:51:09Z</time></trkpt>
<trkpt lat="54.3213550000" lon="-2.0996590000"><ele>275</ele><time>2015-10-15T12:51:10Z</time></trkpt>
<trkpt lat="54.3213560000" lon="-2.0996460000"><ele>275</ele><time>2015-10-15T12:51:11Z</time></trkpt>
<trkpt lat="54.3213570000" lon="-2.0996340000"><ele>275</ele></trkpt>
<trkpt lat="54.3213580000" lon="-2.0996220000"><ele>275</ele><time>2015-10-15T12:51:12Z</time></trkpt>
<trkpt lat="54.3213590000" lon="-2.0996100000"><ele>275</ele><time>2015-10-15T12:51:14Z</time></trkpt>
<trkpt lat="54.3213600000" lon="-2.0995980000"><ele>275</ele><time>2015-10-15T12:51:15Z</time></trkpt>
<trkpt lat="54.3213620000" lon="-2.0995870000"><ele>275</ele><time>2015-10-15T12:51:16Z</time></trkpt>
<trkpt lat="54.3213640000" lon="-2.0995770000"><ele>275</ele><time>2015-10-15T12:51:17Z</time></trkpt>
<trkpt lat="54.3213670000" lon="-2.0995660000"><ele>275</ele></trkpt>
<trkpt lat="54.3213690000" lon="-2.0995560000"><ele>275</ele><time>2015-10-15T12:51:18Z</time></trkpt>
<trkpt lat="54.3213720000" lon="-2.0995470000"><ele>275</ele><time>2015-10-15T12:51:20Z</time></trkpt>
<trkpt lat="54.3213750000" lon="-2.0995370000"><ele>275</ele><time>2015-10-15T12:51:21Z</time></trkpt>
<trkpt lat="54.3213780000" lon="-2.0995280000"><ele>275</ele><time>2015-10-15T12:51:22Z</time></trkpt>
<trkpt lat="54.3213820000" lon="-2.0995190000"><ele>275</ele><time>2015-10-15T12:51:23Z</time></trkpt>
<trkpt lat="54.3213860000" lon="-2.0995100000"><ele>275</ele></trkpt>
<trkpt lat="54.3213900000" lon="-2.0995010000"><ele>275</ele><time>2015-10-15T12:51:24Z</time></trkpt>
<trkpt lat="54.3213950000" lon="-2.0994920000"><ele>275</ele><time>2015-10-15T12:51:26Z</time></trkpt>
<trkpt lat="54.3214000000" lon="-2.0994820000"><ele>275</ele><time>2015-10-15T12:51:27Z</time></trkpt>
<trkpt lat="54.3214050000" lon="-2.0994720000"><ele>275</ele><time>2015-10-15T12:51:28Z</time></trkpt>
<trkpt lat="54.3214110000" lon="-2.0994620000"><ele>275</ele><time>2015-10-15T12:51:29Z</time></trkpt>
<trkpt lat="54.3214170000" lon="-2.0994520000"><ele>275</ele><time>2015-10-15T12:51:30Z</time></trkpt>
<trkpt lat="54.3214220000" lon="-2.0994420000"><ele>275</ele></trkpt>
<trkpt lat="54.3214270000" lon="-2.0994310000"><ele>275</ele><time>2015-10-15T12:51:31Z</time></trkpt>
<trkpt lat="54.3214330000" lon="-2.0994200000"><ele>275</ele><time>2015-10-15T12:51:33Z</time></trkpt>
<trkpt lat="54.3214380000" lon="-2.0994100000"><ele>275</ele><time>2015-10-15T12:51:34Z</time></trkpt>
<trkpt lat="54.3214420000" lon="-2.0994000000"><ele>275</ele><time>2015-10-15T12:51:35Z</time></trkpt>
<trkpt lat="54.3214470000" lon="-2.0993910000"><ele>275</ele><time>2015-10-15T12:51:36Z</time></trkpt>
<trkpt lat="54.3214500000" lon="-2.0993830000"><ele>275</ele></trkpt>
<trkpt lat="54.3214540000" lon="-2.0993770000"><ele>275</ele><time>2015-10-15T12:51:37Z</time></trkpt>
<trkpt lat="54.3214580000" lon="-2.0993690000"><ele>275</ele><time>2015-10-15T12:51:39Z</time></trkpt>
<trkpt lat="54.3214620000" lon="-2.0993610000"><ele>275</ele><time>2015-10-15T12:51:40Z</time></trkpt>
<trkpt lat="54.3214650000" lon="-2.0993540000"><ele>275</ele><time>2015-10-15T12:51:41Z</time></trkpt>
<trkpt lat="54.3214690000" lon="-2.0993470000"><ele>275</ele><time>2015-10-15T12:51:42Z</time></trkpt>
<trkpt lat="54.3214720000" lon="-2.0993410000"><ele>275</ele></trkpt>
<trkpt lat="54.3214760000" lon="-2.0993350000"><ele>275</ele><time>2015-10-15T12:51:43Z</time></trkpt>
<trkpt lat="54.3214790000" lon="-2.0993290000"><ele>275</ele><time>2015-10-15T12:51:45Z</time></trkpt>
<trkpt lat="54.3214830000" lon="-2.0993240000"><ele>275</ele><time>2015-10-15T12:51:46Z</time></trkpt>
<trkpt lat="54.3214860000" lon="-2.0993190000"><ele>275</ele><time>2015-10-15T12:51:47Z</time></trkpt>
<trkpt lat="54.3214890000" lon="-2.0993140000"><ele>275</ele><time>2015-10-15T12:51:48Z</time></trkpt>
<trkpt lat="54.3214920000" lon="-2.0993090000"><ele>275</ele></trkpt>
<trkpt lat="54.3214940000" lon="-2.0993040000"><ele>275</ele><time>2015-10-15T12:51:50Z</time></trkpt>
<trkpt lat="54.3214960000" lon="-2.0993000000"><ele>275</ele><time>2015-10-15T12:51:51Z</time></trkpt>
<trkpt lat="54.3214980000" lon="-2.0992960000"><ele>275</ele><time>2015-10-15T12:51:52Z</time></trkpt>
<trkpt lat="54.3215000000" lon="-2.0992920000"><ele>275</ele></trkpt>
<trkpt lat="54.3215020000" lon="-2.0992880000"><ele>275</ele><time>2015-10-15T12:51:53Z</time></trkpt>
<trkpt lat="54.3215040000" lon="-2.0992850000"><ele>275</ele><time>2015-10-15T12:51:55Z</time></trkpt>
<trkpt lat="54.3215060000" lon="-2.0992820000"><ele>275</ele><time>2015-10-15T12:51:56Z</time></trkpt>
<trkpt lat="54.3215080000" lon="-2.0992800000"><ele>275</ele><time>2015-10-15T12:51:57Z</time></trkpt>
<trkpt lat="54.3215090000" lon="-2.0992770000"><ele>275</ele><time>2015-10-15T12:51:58Z</time></trkpt>
<trkpt lat="54.3215100000" lon="-2.0992750000"><ele>275</ele></trkpt>
<trkpt lat="54.3215120000" lon="-2.0992740000"><ele>275</ele><time>2015-10-15T12:51:59Z</time></trkpt>
<trkpt lat="54.3215130000" lon="-2.0992730000"><ele>275</ele><time>2015-10-15T12:52:01Z</time></trkpt>
<trkpt lat="54.3215140000" lon="-2.0992710000"><ele>275</ele><time>2015-10-15T12:52:02Z</time></trkpt>
<trkpt lat="54.3215150000" lon="-2.0992700000"><ele>275</ele><time>2015-10-15T12:52:03Z</time></trkpt>
<trkpt lat="54.3215160000" lon="-2.0992690000"><ele>275</ele><time>2015-10-15T12:52:04Z</time></trkpt>
<trkpt lat="54.3215160000" lon="-2.0992690000"><ele>275</ele></trkpt>
<trkpt lat="54.3215170000" lon="-2.0992680000"><ele>275</ele><time>2015-10-15T12:52:05Z</time></trkpt>
<trkpt lat="54.3215180000" lon="-2.0992670000"><ele>275</ele><time>2015-10-15T12:52:06Z</time></trkpt>
<trkpt lat="54.3215180000" lon="-2.0992660000"><ele>275</ele><time>2015-10-15T12:52:08Z</time></trkpt>
<trkpt lat="54.3215190000" lon="-2.0992640000"><ele>275</ele><time>2015-10-15T12:52:09Z</time></trkpt>
<trkpt lat="54.3215190000" lon="-2.0992630000"><ele>275</ele><time>2015-10-15T12:52:10Z</time></trkpt>
<trkpt lat="54.3215200000" lon="-2.0992610000"><ele>275</ele><time>2015-10-15T12:52:11Z</time></trkpt>
<trkpt lat="54.3215200000" lon="-2.0992600000"><ele>275</ele></trkpt>
<trkpt lat="54.3215200000" lon="-2.0992580000"><ele>275</ele><time>2015-10-15T12:52:12Z</time></trkpt>
<trkpt lat="54.3215200000" lon="-2.0992560000"><ele>275</ele><time>2015-10-15T12:52:14Z</time></trkpt>
<trkpt lat="54.3215210000" lon="-2.0992550000"><ele>275</ele><time>2015-10-15T12:52:15Z</time></trkpt>
<trkpt lat="54.3215210000" lon="-2.0992530000"><ele>275</ele><time>2015-10-15T12:52:16Z</time></trkpt>
<trkpt lat="54.3215210000" lon="-2.0992510000"><ele>275</ele><time>2015-10-15T12:52:17Z</time></trkpt>
<trkpt lat="54.3215210000" lon="-2.0992490000"><ele>275</ele></trkpt>
<trkpt lat="54.3215210000" lon="-2.0992480000"><ele>275</ele><time>2015-10-15T12:52:18Z</time></trkpt>
<trkpt lat="54.3215210000" lon="-2.0992460000"><ele>275</ele><time>2015-10-15T12:52:20Z</time></trkpt>
<trkpt lat="54.3215210000" lon="-2.0992440000"><ele>275</ele><time>2015-10-15T12:52:21Z</time></trkpt>
<trkpt lat="54.3215200000" lon="-2.0992420000"><ele>275</ele><time>2015-10-15T12:52:22Z</time></trkpt>
<trkpt lat="54.3215200000" lon="-2.0992400000"><ele>275</ele><time>2015-10-15T12:52:23Z</time></trkpt>
<trkpt lat="54.3215200000" lon="-2.0992380000"><ele>275</ele></trkpt>
<trkpt lat="54.3215200000" lon="-2.0992360000"><ele>275</ele><time>2015-10-15T12:52:24Z</time></trkpt>
<trkpt lat="54.3215200000" lon="-2.0992340000"><ele>275</ele><time>2015-10-15T12:52:26Z</time></trkpt>
<trkpt lat="54.3215210000" lon="-2.0992320000"><ele>275</ele><time>2015-10-15T12:52:27Z</time></trkpt>
<trkpt lat="54.3215210000" lon="-2.0992310000"><ele>275</ele><time>2015-10-15T12:52:28Z</time></trkpt>
<trkpt lat="54.3215220000" lon="-2.0992290000"><ele>275</ele><time>2015-10-15T12:52:29Z</time></trkpt>
<trkpt lat="54.3215220000" lon="-2.0992270000"><ele>275</ele><time>2015-10-15T12:52:30Z</time></trkpt>
<trkpt lat="54.3215230000" lon="-2.0992260000"><ele>275</ele></trkpt>
<trkpt lat="54.3215320000" lon="-2.0992410000"><ele>275</ele><time>2015-10-15T12:52:37Z</time></trkpt>
<trkpt lat="54.3215340000" lon="-2.0992450000"><ele>275</ele><time>2015-10-15T12:52:39Z</time></trkpt>
<trkpt lat="54.3215360000" lon="-2.0992510000"><ele>275</ele><time>2015-10-15T12:52:40Z</time></trkpt>
<trkpt lat="54.3215370000" lon="-2.0992560000"><ele>275</ele><time>2015-10-15T12:52:41Z</time></trkpt>
<trkpt lat="54.3215390000" lon="-2.0992630000"><ele>275</ele><time>2015-10-15T12:52:42Z</time></trkpt>
<trkpt lat="54.3215420000" lon="-2.0992690000"><ele>275</ele></trkpt>
<trkpt lat="54.3215440000" lon="-2.0992770000"><ele>275</ele><time>2015-10-15T12:52:43Z</time></trkpt>
<trkpt lat="54.3215460000" lon="-2.0992840000"><ele>275</ele><time>2015-10-15T12:52:45Z</time></trkpt>
<trkpt lat="54.3215490000" lon="-2.0992920000"><ele>275</ele><time>2015-10-15T12:52:46Z</time></trkpt>
<trkpt lat="54.3215520000" lon="-2.0993010000"><ele>275</ele><time>2015-10-15T12:52:47Z</time></trkpt>
<trkpt lat="54.3215550000" lon="-2.0993090000"><ele>275</ele><time>2015-10-15T12:52:48Z</time></trkpt>
<trkpt lat="54.3215590000" lon="-2.0993180000"><ele>275</ele></trkpt>
<trkpt lat="54.3215620000" lon="-2.0993280000"><ele>275</ele><time>2015-10-15T12:52:50Z</time></trkpt>
<trkpt lat="54.3215650000" lon="-2.0993380000"><ele>275</ele><time>2015-10-15T12:52:51Z</time></trkpt>
<trkpt lat="54.3215680000" lon="-2.0993490000"><ele>275</ele><time>2015-10-15T12:52:52Z</time></trkpt>
<trkpt lat="54.3215710000" lon="-2.0993600000"><ele>275</ele></trkpt>
<trkpt lat="54.3215740000" lon="-2.0993710000"><ele>275</ele><time>2015-10-15T12:52:53Z</time></trkpt>
<trkpt lat="54.3215780000" lon="-2.0993840000"><ele>275</ele><time>2015-10-15T12:52:55Z</time></trkpt>
<trkpt lat="54.3215810000" lon="-2.0993970000"><ele>275</ele><time>2015-10-15T12:52:56Z</time></trkpt>
<trkpt lat="54.3215850000" lon="-2.0994100000"><ele>275</ele><time>2015-10-15T12:52:57Z</time></trkpt>
<trkpt lat="54.3215880000" lon="-2.0994240000"><ele>275</ele><time>2015-10-15T12:52:58Z</time></trkpt>
<trkpt lat="54.3215910000" lon="-2.0994390000"><ele>275</ele></trkpt>
<trkpt lat="54.3215950000" lon="-2.0994540000"><ele>275</ele><time>2015-10-15T12:52:59Z</time></trkpt>
<trkpt lat="54.3215990000" lon="-2.0994690000"><ele>275</ele><time>2015-10-15T12:53:01Z</time></trkpt>
<trkpt lat="54.3216020000" lon="-2.0994860000"><ele>275</ele><time>2015-10-15T12:53:02Z</time></trkpt>
<trkpt lat="54.3216060000" lon="-2.0995020000"><ele>275</ele><time>2015-10-15T12:53:03Z</time></trkpt>
<trkpt lat="54.3216680000" lon="-2.0997960000"><ele>275</ele><time>2015-10-15T12:53:04Z</time></trkpt>
<trkpt lat="54.3216710000" lon="-2.0998200000"><ele>275</ele></trkpt>
<trkpt lat="54.3216790000" lon="-2.0998360000"><ele>275</ele><time>2015-10-15T12:53:05Z</time></trkpt>
<trkpt lat="54.3216840000" lon="-2.0998540000"><ele>275</ele><time>2015-10-15T12:53:07Z</time></trkpt>
<trkpt lat="54.3216890000" lon="-2.0998710000"><ele>275</ele><time>2015-10-15T12:53:08Z</time></trkpt>
<trkpt lat="54.3216890000" lon="-2.0998720000"><ele>275</ele><time>2015-10-15T12:53:09Z</time></trkpt>
<trkpt lat="54.3216890000" lon="-2.0998720000"><ele>275</ele><time>2015-10-15T12:53:10Z</time></trkpt>
<trkpt lat="54.3216890000" lon="-2.0998720000"><ele>275</ele><time>2015-10-15T12:53:11Z</time></trkpt>
<trkpt lat="54.3216890000" lon="-2.0998730000"><ele>275</ele></trkpt>
<trkpt lat="54.3216900000" lon="-2.0998750000"><ele>275</ele><time>2015-10-15T12:53:12Z</time></trkpt>
<trkpt lat="54.3216900000" lon="-2.0998770000"><ele>275</ele><time>2015-10-15T12:53:14Z</time></trkpt>
<trkpt lat="54.3216920000" lon="-2.0998790000"><ele>275</ele><time>2015-10-15T12:53:15Z</time></trkpt>
<trkpt lat="54.3216930000" lon="-2.0998820000"><ele>275</ele><time>2015-10-15T12:53:16Z</time></trkpt>
<trkpt lat="54.3216950000" lon="-2.0998860000"><ele>275</ele><time>2015-10-15T12:53:17Z</time></trkpt>
<trkpt lat="54.3216970000" lon="-2.0998900000"><ele>275</ele></trkpt>
<trkpt lat="54.3216990000" lon="-2.0998950000"><ele>275</ele><time>2015-10-15T12:53:18Z</time></trkpt>
<trkpt lat="54.3217020000" lon="-2.0999010000"><ele>275</ele><time>2015-10-15T12:53:20Z</time></trkpt>
<trkpt lat="54.3217130000" lon="-2.0999310000"><ele>288</ele><time>2015-10-15T12:53:23Z</time></trkpt>
<trkpt lat="54.3217160000" lon="-2.0999400000"><ele>288</ele><time>2015-10-15T12:53:24Z</time></trkpt>
<trkpt lat="54.3217190000" lon="-2.0999500000"><ele>288</ele><time>2015-10-15T12:53:26Z</time></trkpt>
<trkpt lat="54.3217230000" lon="-2.0999600000"><ele>288</ele><time>2015-10-15T12:53:27Z</time></trkpt>
<trkpt lat="54.3217270000" lon="-2.0999700000"><ele>288</ele><time>2015-10-15T12:53:28Z</time></trkpt>
<trkpt lat="54.3217300000" lon="-2.0999820000"><ele>288</ele><time>2015-10-15T12:53:29Z</time></trkpt>
<trkpt lat="54.3217340000" lon="-2.0999930000"><ele>288</ele></trkpt>
<trkpt lat="54.3217380000" lon="-2.1000050000"><ele>296</ele><time>2015-10-15T12:53:30Z</time></trkpt>
<trkpt lat="54.3217500000" lon="-2.1000530000"><ele>296</ele><time>2015-10-15T12:53:35Z</time></trkpt>
<trkpt lat="54.3218180000" lon="-2.1003310000"><ele>296</ele><time>2015-10-15T12:53:58Z</time></trkpt>
<trkpt lat="54.3218500000" lon="-2.1004720000"><ele>296</ele><time>2015-10-15T12:54:05Z</time></trkpt>
<trkpt lat="54.3218880000" lon="-2.1005920000"><ele>296</ele><time>2015-10-15T12:54:29Z</time></trkpt>
<trkpt lat="54.3219240000" lon="-2.1007130000"><ele>296</ele><time>2015-10-15T12:54:30Z</time></trkpt>
<trkpt lat="54.3219270000" lon="-2.1007220000"><ele>296</ele><time>2015-10-15T12:54:31Z</time></trkpt>
<trkpt lat="54.3219270000" lon="-2.1007270000"><ele>296</ele><time>2015-10-15T12:54:33Z</time></trkpt>
<trkpt lat="54.3219330000" lon="-2.1007280000"><ele>296</ele><time>2015-10-15T12:54:47Z</time></trkpt>
<trkpt lat="54.3219340000" lon="-2.1007290000"><ele>296</ele><time>2015-10-15T12:54:48Z</time></trkpt>
<trkpt lat="54.3219350000" lon="-2.1007290000"><ele>296</ele></trkpt>
<trkpt lat="54.3219370000" lon="-2.1007300000"><ele>296</ele><time>2015-10-15T12:54:50Z</time></trkpt>
<trkpt lat="54.3219380000" lon="-2.1007320000"><ele>296</ele><time>2015-10-15T12:54:51Z</time></trkpt>
<trkpt lat="54.3219390000" lon="-2.1007330000"><ele>296</ele><time>2015-10-15T12:54:52Z</time></trkpt>
<trkpt lat="54.3219410000" lon="-2.1007340000"><ele>296</ele></trkpt>
<trkpt lat="54.3219420000" lon="-2.1007360000"><ele>296</ele><time>2015-10-15T12:54:53Z</time></trkpt>
<trkpt lat="54.3219420000" lon="-2.1007380000"><ele>296</ele><time>2015-10-15T12:54:55Z</time></trkpt>
<trkpt lat="54.3219430000" lon="-2.1007400000"><ele>296</ele><time>2015-10-15T12:54:56Z</time></trkpt>
<trkpt lat="54.3219440000" lon="-2.1007420000"><ele>296</ele><time>2015-10-15T12:54:57Z</time></trkpt>
<trkpt lat="54.3219450000" lon="-2.1007450000"><ele>296</ele><time>2015-10-15T12:54:58Z</time></trkpt>
<trkpt lat="54.3219470000" lon="-2.1007480000"><ele>296</ele></trkpt>
<trkpt lat="54.3219480000" lon="-2.1007520000"><ele>296</ele><time>2015-10-15T12:54:59Z</time></trkpt>
<trkpt lat="54.3219490000" lon="-2.1007560000"><ele>296</ele><time>2015-10-15T12:55:01Z</time></trkpt>
<trkpt lat="54.3219510000" lon="-2.1007600000"><ele>296</ele><time>2015-10-15T12:55:02Z</time></trkpt>
<trkpt lat="54.3219520000" lon="-2.1007640000"><ele>296</ele><time>2015-10-15T12:55:03Z</time></trkpt>
<trkpt lat="54.3219530000" lon="-2.1007680000"><ele>296</ele><time>2015-10-15T12:55:04Z</time></trkpt>
<trkpt lat="54.3219550000" lon="-2.1007730000"><ele>296</ele></trkpt>
<trkpt lat="54.3219570000" lon="-2.1007780000"><ele>296</ele><time>2015-10-15T12:55:05Z</time></trkpt>
<trkpt lat="54.3219580000" lon="-2.1007830000"><ele>296</ele><time>2015-10-15T12:55:07Z</time></trkpt>
<trkpt lat="54.3219600000" lon="-2.1007880000"><ele>296</ele><time>2015-10-15T12:55:08Z</time></trkpt>
<trkpt lat="54.3219620000" lon="-2.1007940000"><ele>296</ele><time>2015-10-15T12:55:09Z</time></trkpt>
<trkpt lat="54.3219640000" lon="-2.1007990000"><ele>296</ele><time>2015-10-15T12:55:10Z</time></trkpt>
<trkpt lat="54.3219660000" lon="-2.1008050000"><ele>296</ele><time>2015-10-15T12:55:11Z</time></trkpt>
<trkpt lat="54.3219670000" lon="-2.1008100000"><ele>296</ele></trkpt>
<trkpt lat="54.3219690000" lon="-2.1008130000"><ele>296</ele><time>2015-10-15T12:55:12Z</time></trkpt>
<trkpt lat="54.3219760000" lon="-2.1008380000"><ele>296</ele><time>2015-10-15T12:55:17Z</time></trkpt>
<trkpt lat="54.3219770000" lon="-2.1008430000"><ele>296</ele><time>2015-10-15T12:55:18Z</time></trkpt>
<trkpt lat="54.3219790000" lon="-2.1008480000"><ele>296</ele><time>2015-10-15T12:55:20Z</time></trkpt>
<trkpt lat="54.3219920000" lon="-2.1008780000"><ele>296</ele><time>2015-10-15T12:55:26Z</time></trkpt>
<trkpt lat="54.3220130000" lon="-2.1009090000"><ele>296</ele><time>2015-10-15T12:55:31Z</time></trkpt>
<trkpt lat="54.3221170000" lon="-2.1010200000"><ele>296</ele><time>2015-10-15T12:55:35Z</time></trkpt>
<trkpt lat="54.3221420000" lon="-2.1010300000"><ele>296</ele><time>2015-10-15T12:55:40Z</time></trkpt>
<trkpt lat="54.3221650000" lon="-2.1010460000"><ele>296</ele><time>2015-10-15T12:55:41Z</time></trkpt>
<trkpt lat="54.3223690000" lon="-2.1012130000"><ele>296</ele><time>2015-10-15T12:56:40Z</time></trkpt>
<trkpt lat="54.3224480000" lon="-2.1012870000"><ele>296</ele><time>2015-10-15T12:56:42Z</time></trkpt>
<trkpt lat="54.3224730000" lon="-2.1012940000"><ele>296</ele><time>2015-10-15T12:56:48Z</time></trkpt>
<trkpt lat="54.3229840000" lon="-2.1014680000"><ele>296</ele><time>2015-10-15T12:58:09Z</time></trkpt>
<trkpt lat="54.3231420000" lon="-2.1014540000"><ele>296</ele><time>2015-10-15T12:58:16Z</time></trkpt>
<trkpt lat="54.3231920000" lon="-2.1014280000"><ele>296</ele><time>2015-10-15T12:58:17Z</time></trkpt>
<trkpt lat="54.3233410000" lon="-2.1014510000"><ele>296</ele><time>2015-10-15T12:58:52Z</time></trkpt>
<trkpt lat="54.3234670000" lon="-2.1015050000"><ele>296</ele><time>2015-10-15T12:58:53Z</time></trkpt>
<trkpt lat="54.3238330000" lon="-2.1016620000"><ele>318</ele><time>2015-10-15T13:00:20Z</time></trkpt>
<trkpt lat="54.3239600000" lon="-2.1016930000"><ele>318</ele><time>2015-10-15T13:00:27Z</time></trkpt>
<trkpt lat="54.3239950000" lon="-2.1017180000"><ele>318</ele><time>2015-10-15T13:00:28Z</time></trkpt>
<trkpt lat="54.3242880000" lon="-2.1019190000"><ele>318</ele><time>2015-10-15T13:01:42Z</time></trkpt>
<trkpt lat="54.3244340000" lon="-2.1019810000"><ele>318</ele><time>2015-10-15T13:02:04Z</time></trkpt>
<trkpt lat="54.3245450000" lon="-2.1020430000"><ele>318</ele><time>2015-10-15T13:02:23Z</time></trkpt>
<trkpt lat="54.3246080000" lon="-2.1020900000"><ele>318</ele><time>2015-10-15T13:02:27Z</time></trkpt>
<trkpt lat="54.3246420000" lon="-2.1020710000"><ele>318</ele><time>2015-10-15T13:02:34Z</time></trkpt>
<trkpt lat="54.3246780000" lon="-2.1021060000"><ele>318</ele><time>2015-10-15T13:02:57Z</time></trkpt>
<trkpt lat="54.3247440000" lon="-2.1021290000"><ele>318</ele><time>2015-10-15T13:02:58Z</time></trkpt>
<trkpt lat="54.3247980000" lon="-2.1021230000"><ele>318</ele><time>2015-10-15T13:03:52Z</time></trkpt>
<trkpt lat="54.3248670000" lon="-2.1021230000"><ele>318</ele><time>2015-10-15T13:03:59Z</time></trkpt>
<trkpt lat="54.3249380000" lon="-2.1021320000"><ele>318</ele><time>2015-10-15T13:04:00Z</time></trkpt>
<trkpt lat="54.3249830000" lon="-2.1021680000"><ele>318</ele><time>2015-10-15T13:04:30Z</time></trkpt>
<trkpt lat="54.3250510000" lon="-2.1022130000"><ele>318</ele></trkpt>
<trkpt lat="54.3251020000" lon="-2.1023250000"><ele>318</ele><time>2015-10-15T13:05:58Z</time></trkpt>
<trkpt lat="54.3251600000" lon="-2.1023440000"><ele>318</ele><time>2015-10-15T13:06:12Z</time></trkpt>
<trkpt lat="54.3251850000" lon="-2.1024320000"><ele>318</ele><time>2015-10-15T13:06:27Z</time></trkpt>
<trkpt lat="54.3252280000" lon="-2.1025630000"><ele>318</ele><time>2015-10-15T13:06:28Z</time></trkpt>
<trkpt lat="54.3251460000" lon="-2.1024560000"><ele>318</ele><time>2015-10-15T13:07:04Z</time></trkpt>
<trkpt lat="54.3249810000" lon="-2.1023280000"><ele>318</ele><time>2015-10-15T13:07:37Z</time></trkpt>
<trkpt lat="54.3249780000" lon="-2.1021640000"><ele>318</ele><time>2015-10-15T13:09:36Z</time></trkpt>
<trkpt lat="54.3250490000" lon="-2.1020540000"><ele>318</ele><time>2015-10-15T13:10:43Z</time></trkpt>
<trkpt lat="54.3251080000" lon="-2.1020270000"><ele>318</ele><time>2015-10-15T13:11:27Z</time></trkpt>
<trkpt lat="54.3249080000" lon="-2.1019770000"><ele>318</ele><time>2015-10-15T13:11:46Z</time></trkpt>
<trkpt lat="54.3248570000" lon="-2.1019820000"><ele>318</ele><time>2015-10-15T13:12:18Z</time></trkpt>
<trkpt lat="54.3247830000" lon="-2.1018800000"><ele>318</ele><time>2015-10-15T13:12:21Z</time></trkpt>
<trkpt lat="54.3247370000" lon="-2.1019360000"><ele>318</ele><time>2015-10-15T13:13:14Z</time></trkpt>
<trkpt lat="54.3246670000" lon="-2.1020040000"><ele>318</ele><time>2015-10-15T13:13:17Z</time></trkpt>
<trkpt lat="54.3245290000" lon="-2.1019180000"><ele>318</ele><time>2015-10-15T13:14:11Z</time></trkpt>
<trkpt lat="54.3243600000" lon="-2.1018690000"><ele>318</ele><time>2015-10-15T13:14:14Z</time></trkpt>
<trkpt lat="54.3243290000" lon="-2.1018770000"><ele>318</ele><time>2015-10-15T13:14:30Z</time></trkpt>
<trkpt lat="54.3241030000" lon="-2.1018350000"><ele>318</ele><time>2015-10-15T13:15:13Z</time></trkpt>
<trkpt lat="54.3239550000" lon="-2.1017360000"><ele>318</ele><time>2015-10-15T13:15:16Z</time></trkpt>
<trkpt lat="54.3236600000" lon="-2.1016090000"><ele>318</ele><time>2015-10-15T13:16:39Z</time></trkpt>
<trkpt lat="54.3235980000" lon="-2.1015440000"><ele>318</ele><time>2015-10-15T13:16:43Z</time></trkpt>
<trkpt lat="54.3235640000" lon="-2.1015280000"><ele>318</ele><time>2015-10-15T13:16:48Z</time></trkpt>
<trkpt lat="54.3235450000" lon="-2.1014890000"><ele>318</ele><time>2015-10-15T13:16:52Z</time></trkpt>
<trkpt lat="54.3234280000" lon="-2.1014780000"><ele>296</ele><time>2015-10-15T13:17:33Z</time></trkpt>
<trkpt lat="54.3234940000" lon="-2.1014780000"><ele>296</ele><time>2015-10-15T13:18:06Z</time></trkpt>
<trkpt lat="54.3234990000" lon="-2.1015620000"><ele>296</ele><time>2015-10-15T13:18:52Z</time></trkpt>
<trkpt lat="54.3235230000" lon="-2.1017140000"><ele>296</ele><time>2015-10-15T13:18:53Z</time></trkpt>
<trkpt lat="54.3235460000" lon="-2.1017450000"><ele>318</ele><time>2015-10-15T13:18:56Z</time></trkpt>
<trkpt lat="54.3235650000" lon="-2.1017700000"><ele>318</ele><time>2015-10-15T13:19:06Z</time></trkpt>
<trkpt lat="54.3235850000" lon="-2.1018000000"><ele>318</ele><time>2015-10-15T13:19:14Z</time></trkpt>
<trkpt lat="54.3235880000" lon="-2.1018050000"><ele>318</ele><time>2015-10-15T13:19:16Z</time></trkpt>
<trkpt lat="54.3236680000" lon="-2.1019420000"><ele>318</ele><time>2015-10-15T13:19:17Z</time></trkpt>
<trkpt lat="54.3236740000" lon="-2.1019540000"><ele>318</ele><time>2015-10-15T13:19:18Z</time></trkpt>
<trkpt lat="54.3236780000" lon="-2.1019670000"><ele>318</ele><time>2015-10-15T13:19:19Z</time></trkpt>
<trkpt lat="54.3236790000" lon="-2.1019670000"><ele>318</ele><time>2015-10-15T13:19:20Z</time></trkpt>
<trkpt lat="54.3236790000" lon="-2.1019670000"><ele>318</ele><time>2015-10-15T13:19:21Z</time></trkpt>
<trkpt lat="54.3236790000" lon="-2.1019680000"><ele>318</ele><time>2015-10-15T13:19:23Z</time></trkpt>
<trkpt lat="54.3236790000" lon="-2.1019680000"><ele>318</ele><time>2015-10-15T13:19:24Z</time></trkpt>
<trkpt lat="54.3236800000" lon="-2.1019690000"><ele>318</ele><time>2015-10-15T13:19:25Z</time></trkpt>
<trkpt lat="54.3236810000" lon="-2.1019700000"><ele>318</ele><time>2015-10-15T13:19:26Z</time></trkpt>
<trkpt lat="54.3236810000" lon="-2.1019710000"><ele>318</ele></trkpt>
<trkpt lat="54.3236820000" lon="-2.1019730000"><ele>318</ele><time>2015-10-15T13:19:27Z</time></trkpt>
<trkpt lat="54.3236840000" lon="-2.1019740000"><ele>318</ele><time>2015-10-15T13:19:29Z</time></trkpt>
<trkpt lat="54.3236850000" lon="-2.1019760000"><ele>318</ele><time>2015-10-15T13:19:30Z</time></trkpt>
<trkpt lat="54.3236890000" lon="-2.1019810000"><ele>318</ele><time>2015-10-15T13:19:31Z</time></trkpt>
<trkpt lat="54.3237240000" lon="-2.1020230000"><ele>318</ele><time>2015-10-15T13:19:44Z</time></trkpt>
<trkpt lat="54.3238060000" lon="-2.1021330000"><ele>318</ele></trkpt>
<trkpt lat="54.3238230000" lon="-2.1021710000"><ele>318</ele><time>2015-10-15T13:20:01Z</time></trkpt>
<trkpt lat="54.3238840000" lon="-2.1022760000"><ele>318</ele><time>2015-10-15T13:20:26Z</time></trkpt>
<trkpt lat="54.3239420000" lon="-2.1024020000"><ele>318</ele><time>2015-10-15T13:20:27Z</time></trkpt>
<trkpt lat="54.3239640000" lon="-2.1024110000"><ele>318</ele><time>2015-10-15T13:20:30Z</time></trkpt>
<trkpt lat="54.3240010000" lon="-2.1024200000"><ele>318</ele><time>2015-10-15T13:20:51Z</time></trkpt>
<trkpt lat="54.3241470000" lon="-2.1024630000"><ele>318</ele><time>2015-10-15T13:20:52Z</time></trkpt>
<trkpt lat="54.3241710000" lon="-2.1024780000"><ele>318</ele><time>2015-10-15T13:20:59Z</time></trkpt>
<trkpt lat="54.3242410000" lon="-2.1025080000"><ele>318</ele><time>2015-10-15T13:21:00Z</time></trkpt>
<trkpt lat="54.3242630000" lon="-2.1025120000"><ele>318</ele><time>2015-10-15T13:21:03Z</time></trkpt>
<trkpt lat="54.3243010000" lon="-2.1025050000"><ele>318</ele><time>2015-10-15T13:21:06Z</time></trkpt>
<trkpt lat="54.3243230000" lon="-2.1025070000"><ele>318</ele><time>2015-10-15T13:21:07Z</time></trkpt>
<trkpt lat="54.3243430000" lon="-2.1025120000"><ele>318</ele><time>2015-10-15T13:21:19Z</time></trkpt>
<trkpt lat="54.3243640000" lon="-2.1025190000"><ele>318</ele><time>2015-10-15T13:21:24Z</time></trkpt>
<trkpt lat="54.3243850000" lon="-2.1025250000"><ele>318</ele><time>2015-10-15T13:21:29Z</time></trkpt>
<trkpt lat="54.3245450000" lon="-2.1025910000"><ele>318</ele><time>2015-10-15T13:21:30Z</time></trkpt>
<trkpt lat="54.3245710000" lon="-2.1026120000"><ele>318</ele><time>2015-10-15T13:21:44Z</time></trkpt>
<trkpt lat="54.3246860000" lon="-2.1026820000"><ele>318</ele><time>2015-10-15T13:21:45Z</time></trkpt>
<trkpt lat="54.3247060000" lon="-2.1027050000"><ele>318</ele><time>2015-10-15T13:21:52Z</time></trkpt>
<trkpt lat="54.3247360000" lon="-2.1027410000"><ele>318</ele><time>2015-10-15T13:21:54Z</time></trkpt>
<trkpt lat="54.3247570000" lon="-2.1027750000"><ele>318</ele><time>2015-10-15T13:22:12Z</time></trkpt>
<trkpt lat="54.3248650000" lon="-2.1028350000"><ele>318</ele><time>2015-10-15T13:22:14Z</time></trkpt>
<trkpt lat="54.3248920000" lon="-2.1028430000"><ele>318</ele><time>2015-10-15T13:22:26Z</time></trkpt>
<trkpt lat="54.3249990000" lon="-2.1028610000"><ele>318</ele><time>2015-10-15T13:22:27Z</time></trkpt>
<trkpt lat="54.3250500000" lon="-2.1029200000"><ele>318</ele><time>2015-10-15T13:22:56Z</time></trkpt>
<trkpt lat="54.3251390000" lon="-2.1030130000"><ele>335</ele><time>2015-10-15T13:22:59Z</time></trkpt>
<trkpt lat="54.3252030000" lon="-2.1030800000"><ele>335</ele><time>2015-10-15T13:23:30Z</time></trkpt>
<trkpt lat="54.3252600000" lon="-2.1031910000"><ele>335</ele><time>2015-10-15T13:23:31Z</time></trkpt>
<trkpt lat="54.3252810000" lon="-2.1032010000"><ele>335</ele><time>2015-10-15T13:23:46Z</time></trkpt>
<trkpt lat="54.3253240000" lon="-2.1032310000"><ele>335</ele><time>2015-10-15T13:24:08Z</time></trkpt>
<trkpt lat="54.3253600000" lon="-2.1032140000"><ele>357</ele><time>2015-10-15T13:24:48Z</time></trkpt>
<trkpt lat="54.3253930000" lon="-2.1031920000"><ele>357</ele><time>2015-10-15T13:24:49Z</time></trkpt>
<trkpt lat="54.3253650000" lon="-2.1031730000"><ele>357</ele><time>2015-10-15T13:25:37Z</time></trkpt>
<trkpt lat="54.3252960000" lon="-2.1031520000"><ele>335</ele><time>2015-10-15T13:25:45Z</time></trkpt>
<trkpt lat="54.3252520000" lon="-2.1030660000"><ele>335</ele><time>2015-10-15T13:26:03Z</time></trkpt>
<trkpt lat="54.3251810000" lon="-2.1030010000"><ele>335</ele><time>2015-10-15T13:26:12Z</time></trkpt>
<trkpt lat="54.3251310000" lon="-2.1029830000"><ele>318</ele><time>2015-10-15T13:26:13Z</time></trkpt>
<trkpt lat="54.3251210000" lon="-2.1029760000"><ele>318</ele><time>2015-10-15T13:26:21Z</time></trkpt>
<trkpt lat="54.3251200000" lon="-2.1029760000"><ele>318</ele><time>2015-10-15T13:26:22Z</time></trkpt>
<trkpt lat="54.3251110000" lon="-2.1029690000"><ele>318</ele><time>2015-10-15T13:26:28Z</time></trkpt>
<trkpt lat="54.3251080000" lon="-2.1029660000"><ele>318</ele><time>2015-10-15T13:26:29Z</time></trkpt>
<trkpt lat="54.3251050000" lon="-2.1029630000"><ele>318</ele><time>2015-10-15T13:26:30Z</time></trkpt>
<trkpt lat="54.3251020000" lon="-2.1029590000"><ele>318</ele><time>2015-10-15T13:26:31Z</time></trkpt>
<trkpt lat="54.3250980000" lon="-2.1029560000"><ele>318</ele></trkpt>
<trkpt lat="54.3250950000" lon="-2.1029520000"><ele>318</ele><time>2015-10-15T13:26:32Z</time></trkpt>
<trkpt lat="54.3250920000" lon="-2.1029480000"><ele>318</ele><time>2015-10-15T13:26:34Z</time></trkpt>
<trkpt lat="54.3250880000" lon="-2.1029450000"><ele>318</ele><time>2015-10-15T13:26:35Z</time></trkpt>
<trkpt lat="54.3250850000" lon="-2.1029410000"><ele>318</ele><time>2015-10-15T13:26:36Z</time></trkpt>
<trkpt lat="54.3250820000" lon="-2.1029370000"><ele>318</ele><time>2015-10-15T13:26:37Z</time></trkpt>
<trkpt lat="54.3250780000" lon="-2.1029330000"><ele>318</ele></trkpt>
<trkpt lat="54.3250740000" lon="-2.1029290000"><ele>318</ele><time>2015-10-15T13:26:39Z</time></trkpt>
<trkpt lat="54.3250700000" lon="-2.1029250000"><ele>318</ele><time>2015-10-15T13:26:40Z</time></trkpt>
<trkpt lat="54.3250660000" lon="-2.1029210000"><ele>318</ele><time>2015-10-15T13:26:41Z</time></trkpt>
<trkpt lat="54.3250620000" lon="-2.1029170000"><ele>318</ele></trkpt>
<trkpt lat="54.3250380000" lon="-2.1028970000"><ele>318</ele><time>2015-10-15T13:26:47Z</time></trkpt>
<trkpt lat="54.3249180000" lon="-2.1028180000"><ele>318</ele><time>2015-10-15T13:26:50Z</time></trkpt>
<trkpt lat="54.3248920000" lon="-2.1028170000"><ele>318</ele><time>2015-10-15T13:26:52Z</time></trkpt>
<trkpt lat="54.3248760000" lon="-2.1028100000"><ele>318</ele><time>2015-10-15T13:27:03Z</time></trkpt>
<trkpt lat="54.3248740000" lon="-2.1028090000"><ele>318</ele><time>2015-10-15T13:27:04Z</time></trkpt>
<trkpt lat="54.3248710000" lon="-2.1028080000"><ele>318</ele><time>2015-10-15T13:27:05Z</time></trkpt>
<trkpt lat="54.3248680000" lon="-2.1028060000"><ele>318</ele><time>2015-10-15T13:27:06Z</time></trkpt>
<trkpt lat="54.3248650000" lon="-2.1028050000"><ele>318</ele></trkpt>
<trkpt lat="54.3248610000" lon="-2.1028030000"><ele>318</ele><time>2015-10-15T13:27:07Z</time></trkpt>
<trkpt lat="54.3248580000" lon="-2.1028010000"><ele>318</ele><time>2015-10-15T13:27:09Z</time></trkpt>
<trkpt lat="54.3248540000" lon="-2.1027990000"><ele>318</ele><time>2015-10-15T13:27:10Z</time></trkpt>
<trkpt lat="54.3248510000" lon="-2.1027970000"><ele>318</ele><time>2015-10-15T13:27:11Z</time></trkpt>
<trkpt lat="54.3248470000" lon="-2.1027940000"><ele>318</ele><time>2015-10-15T13:27:12Z</time></trkpt>
<trkpt lat="54.3248440000" lon="-2.1027920000"><ele>318</ele><time>2015-10-15T13:27:13Z</time></trkpt>
<trkpt lat="54.3248400000" lon="-2.1027890000"><ele>318</ele></trkpt>
<trkpt lat="54.3248370000" lon="-2.1027850000"><ele>318</ele><time>2015-10-15T13:27:15Z</time></trkpt>
<trkpt lat="54.3248330000" lon="-2.1027810000"><ele>318</ele><time>2015-10-15T13:27:16Z</time></trkpt>
<trkpt lat="54.3248290000" lon="-2.1027770000"><ele>318</ele><time>2015-10-15T13:27:17Z</time></trkpt>
<trkpt lat="54.3248250000" lon="-2.1027720000"><ele>318</ele><time>2015-10-15T13:27:18Z</time></trkpt>
<trkpt lat="54.3248210000" lon="-2.1027680000"><ele>318</ele><time>2015-10-15T13:27:19Z</time></trkpt>
<trkpt lat="54.3248170000" lon="-2.1027630000"><ele>318</ele></trkpt>
<trkpt lat="54.3248130000" lon="-2.1027590000"><ele>318</ele><time>2015-10-15T13:27:21Z</time></trkpt>
<trkpt lat="54.3248090000" lon="-2.1027540000"><ele>318</ele><time>2015-10-15T13:27:22Z</time></trkpt>
<trkpt lat="54.3248050000" lon="-2.1027510000"><ele>318</ele><time>2015-10-15T13:27:23Z</time></trkpt>
<trkpt lat="54.3248010000" lon="-2.1027470000"><ele>318</ele><time>2015-10-15T13:27:24Z</time></trkpt>
<trkpt lat="54.3247980000" lon="-2.1027440000"><ele>318</ele><time>2015-10-15T13:27:25Z</time></trkpt>
<trkpt lat="54.3247940000" lon="-2.1027410000"><ele>318</ele></trkpt>
<trkpt lat="54.3247910000" lon="-2.1027370000"><ele>318</ele><time>2015-10-15T13:27:26Z</time></trkpt>
<trkpt lat="54.3247870000" lon="-2.1027340000"><ele>318</ele><time>2015-10-15T13:27:28Z</time></trkpt>
<trkpt lat="54.3247840000" lon="-2.1027310000"><ele>318</ele><time>2015-10-15T13:27:29Z</time></trkpt>
<trkpt lat="54.3247810000" lon="-2.1027280000"><ele>318</ele><time>2015-10-15T13:27:30Z</time></trkpt>
<trkpt lat="54.3247780000" lon="-2.1027250000"><ele>318</ele><time>2015-10-15T13:27:31Z</time></trkpt>
<trkpt lat="54.3247740000" lon="-2.1027220000"><ele>318</ele></trkpt>
<trkpt lat="54.3247700000" lon="-2.1027190000"><ele>318</ele><time>2015-10-15T13:27:32Z</time></trkpt>
<trkpt lat="54.3247660000" lon="-2.1027150000"><ele>318</ele><time>2015-10-15T13:27:34Z</time></trkpt>
<trkpt lat="54.3247610000" lon="-2.1027110000"><ele>318</ele><time>2015-10-15T13:27:35Z</time></trkpt>
<trkpt lat="54.3247560000" lon="-2.1027070000"><ele>318</ele><time>2015-10-15T13:27:36Z</time></trkpt>
<trkpt lat="54.3247510000" lon="-2.1027020000"><ele>318</ele><time>2015-10-15T13:27:37Z</time></trkpt>
<trkpt lat="54.3247450000" lon="-2.1026980000"><ele>318</ele><time>2015-10-15T13:27:38Z</time></trkpt>
<trkpt lat="54.3247390000" lon="-2.1026930000"><ele>318</ele></trkpt>
<trkpt lat="54.3247330000" lon="-2.1026880000"><ele>318</ele><time>2015-10-15T13:27:40Z</time></trkpt>
<trkpt lat="54.3247270000" lon="-2.1026830000"><ele>318</ele><time>2015-10-15T13:27:41Z</time></trkpt>
<trkpt lat="54.3247200000" lon="-2.1026780000"><ele>318</ele><time>2015-10-15T13:27:42Z</time></trkpt>
<trkpt lat="54.3247140000" lon="-2.1026740000"><ele>318</ele><time>2015-10-15T13:27:43Z</time></trkpt>
<trkpt lat="54.3247070000" lon="-2.1026690000"><ele>318</ele><time>2015-10-15T13:27:44Z</time></trkpt>
<trkpt lat="54.3247010000" lon="-2.1026650000"><ele>318</ele><time>2015-10-15T13:27:45Z</time></trkpt>
<trkpt lat="54.3246940000" lon="-2.1026600000"><ele>318</ele></trkpt>
<trkpt lat="54.3246870000" lon="-2.1026550000"><ele>318</ele><time>2015-10-15T13:27:47Z</time></trkpt>
<trkpt lat="54.3246800000" lon="-2.1026510000"><ele>318</ele><time>2015-10-15T13:27:48Z</time></trkpt>
<trkpt lat="54.3246730000" lon="-2.1026460000"><ele>318</ele><time>2015-10-15T13:27:49Z</time></trkpt>
<trkpt lat="54.3246660000" lon="-2.1026400000"><ele>318</ele><time>2015-10-15T13:27:50Z</time></trkpt>
<trkpt lat="54.3246590000" lon="-2.1026350000"><ele>318</ele><time>2015-10-15T13:27:51Z</time></trkpt>
<trkpt lat="54.3246520000" lon="-2.1026300000"><ele>318</ele></trkpt>
<trkpt lat="54.3246440000" lon="-2.1026250000"><ele>318</ele><time>2015-10-15T13:27:52Z</time></trkpt>
<trkpt lat="54.3246360000" lon="-2.1026200000"><ele>318</ele><time>2015-10-15T13:27:54Z</time></trkpt>
<trkpt lat="54.3246280000" lon="-2.1026150000"><ele>318</ele><time>2015-10-15T13:27:55Z</time></trkpt>
<trkpt lat="54.3246200000" lon="-2.1026110000"><ele>318</ele><time>2015-10-15T13:27:56Z</time></trkpt>
<trkpt lat="54.3246120000" lon="-2.1026060000"><ele>318</ele><time>2015-10-15T13:27:57Z</time></trkpt>
<trkpt lat="54.3246030000" lon="-2.1026010000"><ele>318</ele></trkpt>
<trkpt lat="54.3245950000" lon="-2.1025970000"><ele>318</ele><time>2015-10-15T13:27:58Z</time></trkpt>
<trkpt lat="54.3245870000" lon="-2.1025930000"><ele>318</ele><time>2015-10-15T13:28:00Z</time></trkpt>
<trkpt lat="54.3245400000" lon="-2.1025710000"><ele>318</ele><time>2015-10-15T13:28:06Z</time></trkpt>
<trkpt lat="54.3243810000" lon="-2.1024840000"><ele>318</ele><time>2015-10-15T13:28:07Z</time></trkpt>
<trkpt lat="54.3243620000" lon="-2.1024800000"><ele>318</ele><time>2015-10-15T13:28:09Z</time></trkpt>
<trkpt lat="54.3243510000" lon="-2.1024770000"><ele>318</ele><time>2015-10-15T13:28:15Z</time></trkpt>
<trkpt lat="54.3243500000" lon="-2.1024770000"><ele>318</ele><time>2015-10-15T13:28:16Z</time></trkpt>
<trkpt lat="54.3243480000" lon="-2.1024760000"><ele>318</ele><time>2015-10-15T13:28:17Z</time></trkpt>
<trkpt lat="54.3243460000" lon="-2.1024760000"><ele>318</ele></trkpt>
<trkpt lat="54.3243440000" lon="-2.1024750000"><ele>318</ele><time>2015-10-15T13:28:19Z</time></trkpt>
<trkpt lat="54.3243420000" lon="-2.1024750000"><ele>318</ele><time>2015-10-15T13:28:20Z</time></trkpt>
<trkpt lat="54.3243390000" lon="-2.1024740000"><ele>318</ele><time>2015-10-15T13:28:21Z</time></trkpt>
<trkpt lat="54.3243360000" lon="-2.1024730000"><ele>318</ele><time>2015-10-15T13:28:22Z</time></trkpt>
<trkpt lat="54.3243320000" lon="-2.1024720000"><ele>318</ele><time>2015-10-15T13:28:23Z</time></trkpt>
<trkpt lat="54.3243290000" lon="-2.1024710000"><ele>318</ele></trkpt>
<trkpt lat="54.3243250000" lon="-2.1024700000"><ele>318</ele><time>2015-10-15T13:28:25Z</time></trkpt>
<trkpt lat="54.3243200000" lon="-2.1024690000"><ele>318</ele></trkpt>
<trkpt lat="54.3242750000" lon="-2.1024590000"><ele>318</ele><time>2015-10-15T13:28:35Z</time></trkpt>
<trkpt lat="54.3241230000" lon="-2.1024030000"><ele>318</ele><time>2015-10-15T13:28:37Z</time></trkpt>
<trkpt lat="54.3240940000" lon="-2.1024050000"><ele>318</ele><time>2015-10-15T13:28:40Z</time></trkpt>
<trkpt lat="54.3240750000" lon="-2.1023980000"><ele>318</ele><time>2015-10-15T13:28:43Z</time></trkpt>
<trkpt lat="54.3240390000" lon="-2.1023760000"><ele>318</ele><time>2015-10-15T13:29:01Z</time></trkpt>
<trkpt lat="54.3239450000" lon="-2.1022920000"><ele>318</ele><time>2015-10-15T13:29:02Z</time></trkpt>
<trkpt lat="54.3239420000" lon="-2.1022840000"><ele>318</ele></trkpt>
<trkpt lat="54.3239390000" lon="-2.1022760000"><ele>318</ele><time>2015-10-15T13:29:03Z</time></trkpt>
<trkpt lat="54.3239390000" lon="-2.1022760000"><ele>318</ele><time>2015-10-15T13:29:06Z</time></trkpt>
<trkpt lat="54.3239390000" lon="-2.1022760000"><ele>318</ele><time>2015-10-15T13:29:07Z</time></trkpt>
<trkpt lat="54.3239250000" lon="-2.1022610000"><ele>318</ele><time>2015-10-15T13:29:16Z</time></trkpt>
<trkpt lat="54.3239220000" lon="-2.1022580000"><ele>318</ele><time>2015-10-15T13:29:18Z</time></trkpt>
<trkpt lat="54.3239190000" lon="-2.1022550000"><ele>318</ele><time>2015-10-15T13:29:19Z</time></trkpt>
<trkpt lat="54.3239150000" lon="-2.1022510000"><ele>318</ele><time>2015-10-15T13:29:20Z</time></trkpt>
<trkpt lat="54.3239110000" lon="-2.1022470000"><ele>318</ele><time>2015-10-15T13:29:21Z</time></trkpt>
<trkpt lat="54.3239070000" lon="-2.1022420000"><ele>318</ele></trkpt>
<trkpt lat="54.3239030000" lon="-2.1022380000"><ele>318</ele><time>2015-10-15T13:29:22Z</time></trkpt>
<trkpt lat="54.3238990000" lon="-2.1022330000"><ele>318</ele><time>2015-10-15T13:29:24Z</time></trkpt>
<trkpt lat="54.3238950000" lon="-2.1022290000"><ele>318</ele><time>2015-10-15T13:29:25Z</time></trkpt>
<trkpt lat="54.3238910000" lon="-2.1022230000"><ele>318</ele><time>2015-10-15T13:29:26Z</time></trkpt>
<trkpt lat="54.3238870000" lon="-2.1022180000"><ele>318</ele><time>2015-10-15T13:29:27Z</time></trkpt>
<trkpt lat="54.3238830000" lon="-2.1022120000"><ele>318</ele><time>2015-10-15T13:29:28Z</time></trkpt>
<trkpt lat="54.3238780000" lon="-2.1022070000"><ele>318</ele></trkpt>
<trkpt lat="54.3238740000" lon="-2.1022010000"><ele>318</ele><time>2015-10-15T13:29:30Z</time></trkpt>
<trkpt lat="54.3238690000" lon="-2.1021950000"><ele>318</ele><time>2015-10-15T13:29:31Z</time></trkpt>
<trkpt lat="54.3238640000" lon="-2.1021900000"><ele>318</ele><time>2015-10-15T13:29:32Z</time></trkpt>
<trkpt lat="54.3238590000" lon="-2.1021840000"><ele>318</ele><time>2015-10-15T13:29:33Z</time></trkpt>
<trkpt lat="54.3238540000" lon="-2.1021780000"><ele>318</ele><time>2015-10-15T13:29:34Z</time></trkpt>
<trkpt lat="54.3238480000" lon="-2.1021720000"><ele>318</ele></trkpt>
<trkpt lat="54.3238430000" lon="-2.1021660000"><ele>318</ele><time>2015-10-15T13:29:36Z</time></trkpt>
<trkpt lat="54.3238370000" lon="-2.1021590000"><ele>318</ele><time>2015-10-15T13:29:37Z</time></trkpt>
<trkpt lat="54.3238310000" lon="-2.1021530000"><ele>318</ele><time>2015-10-15T13:29:38Z</time></trkpt>
<trkpt lat="54.3238260000" lon="-2.1021460000"><ele>318</ele><time>2015-10-15T13:29:39Z</time></trkpt>
<trkpt lat="54.3238200000" lon="-2.1021390000"><ele>318</ele><time>2015-10-15T13:29:40Z</time></trkpt>
<trkpt lat="54.3238140000" lon="-2.1021320000"><ele>318</ele></trkpt>
<trkpt lat="54.3238080000" lon="-2.1021250000"><ele>318</ele><time>2015-10-15T13:29:41Z</time></trkpt>
<trkpt lat="54.3238030000" lon="-2.1021180000"><ele>318</ele><time>2015-10-15T13:29:43Z</time></trkpt>
<trkpt lat="54.3237970000" lon="-2.1021110000"><ele>318</ele><time>2015-10-15T13:29:44Z</time></trkpt>
<trkpt lat="54.3237900000" lon="-2.1021040000"><ele>318</ele><time>2015-10-15T13:29:45Z</time></trkpt>
<trkpt lat="54.3237850000" lon="-2.1020970000"><ele>318</ele><time>2015-10-15T13:29:46Z</time></trkpt>
<trkpt lat="54.3237790000" lon="-2.1020900000"><ele>318</ele><time>2015-10-15T13:29:47Z</time></trkpt>
<trkpt lat="54.3237730000" lon="-2.1020830000"><ele>318</ele></trkpt>
<trkpt lat="54.3237670000" lon="-2.1020760000"><ele>318</ele><time>2015-10-15T13:29:49Z</time></trkpt>
<trkpt lat="54.3237610000" lon="-2.1020680000"><ele>318</ele><time>2015-10-15T13:29:50Z</time></trkpt>
<trkpt lat="54.3237560000" lon="-2.1020610000"><ele>318</ele><time>2015-10-15T13:29:51Z</time></trkpt>
<trkpt lat="54.3237500000" lon="-2.1020530000"><ele>318</ele><time>2015-10-15T13:29:52Z</time></trkpt>
<trkpt lat="54.3237450000" lon="-2.1020450000"><ele>318</ele><time>2015-10-15T13:29:53Z</time></trkpt>
<trkpt lat="54.3237390000" lon="-2.1020370000"><ele>318</ele></trkpt>
<trkpt lat="54.3237340000" lon="-2.1020290000"><ele>318</ele><time>2015-10-15T13:29:55Z</time></trkpt>
<trkpt lat="54.3237280000" lon="-2.1020210000"><ele>318</ele><time>2015-10-15T13:29:57Z</time></trkpt>
<trkpt lat="54.3237230000" lon="-2.1020130000"><ele>318</ele></trkpt>
<trkpt lat="54.3237170000" lon="-2.1020050000"><ele>318</ele><time>2015-10-15T13:29:58Z</time></trkpt>
<trkpt lat="54.3237120000" lon="-2.1019970000"><ele>318</ele><time>2015-10-15T13:29:59Z</time></trkpt>
<trkpt lat="54.3237070000" lon="-2.1019890000"><ele>318</ele></trkpt>
<trkpt lat="54.3237020000" lon="-2.1019810000"><ele>318</ele><time>2015-10-15T13:30:00Z</time></trkpt>
<trkpt lat="54.3236970000" lon="-2.1019740000"><ele>318</ele><time>2015-10-15T13:30:02Z</time></trkpt>
<trkpt lat="54.3236930000" lon="-2.1019660000"><ele>318</ele><time>2015-10-15T13:30:03Z</time></trkpt>
<trkpt lat="54.3236880000" lon="-2.1019580000"><ele>318</ele><time>2015-10-15T13:30:04Z</time></trkpt>
<trkpt lat="54.3236830000" lon="-2.1019500000"><ele>318</ele><time>2015-10-15T13:30:05Z</time></trkpt>
<trkpt lat="54.3236790000" lon="-2.1019420000"><ele>318</ele><time>2015-10-15T13:30:06Z</time></trkpt>
<trkpt lat="54.3236740000" lon="-2.1019340000"><ele>318</ele></trkpt>
<trkpt lat="54.3236700000" lon="-2.1019260000"><ele>318</ele><time>2015-10-15T13:30:08Z</time></trkpt>
<trkpt lat="54.3236650000" lon="-2.1019180000"><ele>318</ele><time>2015-10-15T13:30:09Z</time></trkpt>
<trkpt lat="54.3236600000" lon="-2.1019090000"><ele>318</ele><time>2015-10-15T13:30:10Z</time></trkpt>
<trkpt lat="54.3236550000" lon="-2.1019000000"><ele>318</ele></trkpt>
<trkpt lat="54.3235560000" lon="-2.1017250000"><ele>318</ele><time>2015-10-15T13:30:13Z</time></trkpt>
<trkpt lat="54.3235380000" lon="-2.1017020000"><ele>318</ele><time>2015-10-15T13:30:14Z</time></trkpt>
<trkpt lat="54.3235160000" lon="-2.1016770000"><ele>296</ele><time>2015-10-15T13:30:26Z</time></trkpt>
<trkpt lat="54.3234460000" lon="-2.1015290000"><ele>296</ele><time>2015-10-15T13:30:28Z</time></trkpt>
<trkpt lat="54.3234340000" lon="-2.1014920000"><ele>296</ele><time>2015-10-15T13:30:33Z</time></trkpt>
<trkpt lat="54.3233950000" lon="-2.1014570000"><ele>296</ele><time>2015-10-15T13:30:35Z</time></trkpt>
<trkpt lat="54.3233770000" lon="-2.1014310000"><ele>296</ele><time>2015-10-15T13:30:36Z</time></trkpt>
<trkpt lat="54.3233560000" lon="-2.1014180000"><ele>296</ele><time>2015-10-15T13:30:49Z</time></trkpt>
<trkpt lat="54.3232240000" lon="-2.1013970000"><ele>296</ele><time>2015-10-15T13:30:50Z</time></trkpt>
<trkpt lat="54.3232030000" lon="-2.1014030000"><ele>296</ele><time>2015-10-15T13:30:53Z</time></trkpt>
<trkpt lat="54.3231740000" lon="-2.1014170000"><ele>296</ele><time>2015-10-15T13:30:55Z</time></trkpt>
<trkpt lat="54.3231470000" lon="-2.1014320000"><ele>296</ele><time>2015-10-15T13:30:59Z</time></trkpt>
<trkpt lat="54.3231040000" lon="-2.1014420000"><ele>296</ele><time>2015-10-15T13:31:15Z</time></trkpt>
<trkpt lat="54.3229590000" lon="-2.1014440000"><ele>296</ele><time>2015-10-15T13:31:18Z</time></trkpt>
<trkpt lat="54.3229270000" lon="-2.1014510000"><ele>296</ele><time>2015-10-15T13:31:19Z</time></trkpt>
<trkpt lat="54.3228610000" lon="-2.1014340000"><ele>296</ele><time>2015-10-15T13:31:28Z</time></trkpt>
<trkpt lat="54.3228430000" lon="-2.1014260000"><ele>296</ele><time>2015-10-15T13:31:38Z</time></trkpt>
<trkpt lat="54.3228420000" lon="-2.1014260000"><ele>296</ele><time>2015-10-15T13:31:39Z</time></trkpt>
<trkpt lat="54.3228400000" lon="-2.1014260000"><ele>296</ele><time>2015-10-15T13:31:40Z</time></trkpt>
<trkpt lat="54.3228380000" lon="-2.1014250000"><ele>296</ele><time>2015-10-15T13:31:41Z</time></trkpt>
<trkpt lat="54.3227100000" lon="-2.1014080000"><ele>296</ele><time>2015-10-15T13:31:45Z</time></trkpt>
<trkpt lat="54.3226910000" lon="-2.1014070000"><ele>296</ele><time>2015-10-15T13:31:46Z</time></trkpt>
<trkpt lat="54.3226800000" lon="-2.1014050000"><ele>296</ele><time>2015-10-15T13:31:52Z</time></trkpt>
<trkpt lat="54.3226800000" lon="-2.1014050000"><ele>296</ele></trkpt>
<trkpt lat="54.3226790000" lon="-2.1014050000"><ele>296</ele><time>2015-10-15T13:31:53Z</time></trkpt>
<trkpt lat="54.3226770000" lon="-2.1014050000"><ele>296</ele><time>2015-10-15T13:31:55Z</time></trkpt>
<trkpt lat="54.3226760000" lon="-2.1014050000"><ele>296</ele><time>2015-10-15T13:31:56Z</time></trkpt>
<trkpt lat="54.3226740000" lon="-2.1014040000"><ele>296</ele><time>2015-10-15T13:31:57Z</time></trkpt>
<trkpt lat="54.3226720000" lon="-2.1014040000"><ele>296</ele><time>2015-10-15T13:31:58Z</time></trkpt>
<trkpt lat="54.3226690000" lon="-2.1014030000"><ele>296</ele></trkpt>
<trkpt lat="54.3226660000" lon="-2.1014010000"><ele>296</ele><time>2015-10-15T13:31:59Z</time></trkpt>
<trkpt lat="54.3226630000" lon="-2.1014000000"><ele>296</ele><time>2015-10-15T13:32:01Z</time></trkpt>
<trkpt lat="54.3226600000" lon="-2.1013980000"><ele>296</ele><time>2015-10-15T13:32:02Z</time></trkpt>
<trkpt lat="54.3226560000" lon="-2.1013960000"><ele>296</ele><time>2015-10-15T13:32:03Z</time></trkpt>
<trkpt lat="54.3226520000" lon="-2.1013930000"><ele>296</ele><time>2015-10-15T13:32:04Z</time></trkpt>
<trkpt lat="54.3226470000" lon="-2.1013900000"><ele>296</ele></trkpt>
<trkpt lat="54.3226420000" lon="-2.1013860000"><ele>296</ele><time>2015-10-15T13:32:05Z</time></trkpt>
<trkpt lat="54.3226360000" lon="-2.1013820000"><ele>296</ele><time>2015-10-15T13:32:07Z</time></trkpt>
<trkpt lat="54.3226310000" lon="-2.1013790000"><ele>296</ele><time>2015-10-15T13:32:08Z</time></trkpt>
<trkpt lat="54.3226250000" lon="-2.1013750000"><ele>296</ele><time>2015-10-15T13:32:09Z</time></trkpt>
<trkpt lat="54.3226190000" lon="-2.1013710000"><ele>296</ele><time>2015-10-15T13:32:10Z</time></trkpt>
<trkpt lat="54.3226130000" lon="-2.1013660000"><ele>296</ele><time>2015-10-15T13:32:11Z</time></trkpt>
<trkpt lat="54.3226070000" lon="-2.1013620000"><ele>296</ele></trkpt>
<trkpt lat="54.3226010000" lon="-2.1013570000"><ele>296</ele><time>2015-10-15T13:32:13Z</time></trkpt>
<trkpt lat="54.3225950000" lon="-2.1013520000"><ele>296</ele><time>2015-10-15T13:32:14Z</time></trkpt>
<trkpt lat="54.3225880000" lon="-2.1013480000"><ele>296</ele><time>2015-10-15T13:32:15Z</time></trkpt>
<trkpt lat="54.3225810000" lon="-2.1013430000"><ele>296</ele><time>2015-10-15T13:32:16Z</time></trkpt>
<trkpt lat="54.3225750000" lon="-2.1013380000"><ele>296</ele><time>2015-10-15T13:32:17Z</time></trkpt>
<trkpt lat="54.3225680000" lon="-2.1013340000"><ele>296</ele></trkpt>
<trkpt lat="54.3225620000" lon="-2.1013290000"><ele>296</ele><time>2015-10-15T13:32:18Z</time></trkpt>
<trkpt lat="54.3225550000" lon="-2.1013240000"><ele>296</ele><time>2015-10-15T13:32:20Z</time></trkpt>
<trkpt lat="54.3225490000" lon="-2.1013190000"><ele>296</ele><time>2015-10-15T13:32:21Z</time></trkpt>
<trkpt lat="54.3225430000" lon="-2.1013130000"><ele>296</ele><time>2015-10-15T13:32:22Z</time></trkpt>
<trkpt lat="54.3225380000" lon="-2.1013090000"><ele>296</ele><time>2015-10-15T13:32:23Z</time></trkpt>
<trkpt lat="54.3225320000" lon="-2.1013040000"><ele>296</ele></trkpt>
<trkpt lat="54.3225270000" lon="-2.1012980000"><ele>296</ele><time>2015-10-15T13:32:24Z</time></trkpt>
<trkpt lat="54.3225220000" lon="-2.1012930000"><ele>296</ele><time>2015-10-15T13:32:26Z</time></trkpt>
<trkpt lat="54.3225180000" lon="-2.1012890000"><ele>296</ele><time>2015-10-15T13:32:27Z</time></trkpt>
<trkpt lat="54.3225130000" lon="-2.1012840000"><ele>296</ele><time>2015-10-15T13:32:28Z</time></trkpt>
<trkpt lat="54.3225100000" lon="-2.1012800000"><ele>296</ele><time>2015-10-15T13:32:29Z</time></trkpt>
<trkpt lat="54.3225060000" lon="-2.1012770000"><ele>296</ele><time>2015-10-15T13:32:30Z</time></trkpt>
<trkpt lat="54.3225020000" lon="-2.1012730000"><ele>296</ele></trkpt>
<trkpt lat="54.3224990000" lon="-2.1012700000"><ele>296</ele><time>2015-10-15T13:32:32Z</time></trkpt>
<trkpt lat="54.3224960000" lon="-2.1012680000"><ele>296</ele><time>2015-10-15T13:32:33Z</time></trkpt>
<trkpt lat="54.3224930000" lon="-2.1012650000"><ele>296</ele><time>2015-10-15T13:32:34Z</time></trkpt>
<trkpt lat="54.3224900000" lon="-2.1012640000"><ele>296</ele></trkpt>
<trkpt lat="54.3224870000" lon="-2.1012620000"><ele>296</ele><time>2015-10-15T13:32:36Z</time></trkpt>
<trkpt lat="54.3224760000" lon="-2.1012580000"><ele>296</ele><time>2015-10-15T13:32:40Z</time></trkpt>
<trkpt lat="54.3224730000" lon="-2.1012570000"><ele>296</ele></trkpt>
<trkpt lat="54.3224620000" lon="-2.1012530000"><ele>296</ele><time>2015-10-15T13:32:47Z</time></trkpt>
<trkpt lat="54.3224610000" lon="-2.1012530000"><ele>296</ele></trkpt>
<trkpt lat="54.3224600000" lon="-2.1012520000"><ele>296</ele><time>2015-10-15T13:32:49Z</time></trkpt>
<trkpt lat="54.3224580000" lon="-2.1012520000"><ele>296</ele><time>2015-10-15T13:32:50Z</time></trkpt>
<trkpt lat="54.3224570000" lon="-2.1012520000"><ele>296</ele><time>2015-10-15T13:32:51Z</time></trkpt>
<trkpt lat="54.3225120000" lon="-2.1012420000"><ele>296</ele><time>2015-10-15T13:34:21Z</time></trkpt>
<trkpt lat="54.3226700000" lon="-2.1012350000"><ele>296</ele><time>2015-10-15T13:34:22Z</time></trkpt>
<trkpt lat="54.3227140000" lon="-2.1012160000"><ele>296</ele><time>2015-10-15T13:34:41Z</time></trkpt>
<trkpt lat="54.3228020000" lon="-2.1010830000"><ele>296</ele></trkpt>
<trkpt lat="54.3228390000" lon="-2.1010480000"><ele>296</ele><time>2015-10-15T13:35:02Z</time></trkpt>
<trkpt lat="54.3229410000" lon="-2.1009480000"><ele>296</ele><time>2015-10-15T13:35:04Z</time></trkpt>
<trkpt lat="54.3229800000" lon="-2.1009080000"><ele>296</ele><time>2015-10-15T13:35:23Z</time></trkpt>
<trkpt lat="54.3230670000" lon="-2.1008690000"><ele>296</ele><time>2015-10-15T13:35:24Z</time></trkpt>
<trkpt lat="54.3230300000" lon="-2.1008160000"><ele>296</ele><time>2015-10-15T13:36:17Z</time></trkpt>
<trkpt lat="54.3228870000" lon="-2.1007800000"><ele>296</ele><time>2015-10-15T13:36:41Z</time></trkpt>
<trkpt lat="54.3228920000" lon="-2.1005290000"><ele>296</ele><time>2015-10-15T13:37:52Z</time></trkpt>
<trkpt lat="54.3230350000" lon="-2.1004880000"><ele>296</ele><time>2015-10-15T13:37:55Z</time></trkpt>
<trkpt lat="54.3230550000" lon="-2.1004760000"><ele>296</ele><time>2015-10-15T13:38:01Z</time></trkpt>
<trkpt lat="54.3230750000" lon="-2.1004780000"><ele>296</ele><time>2015-10-15T13:38:11Z</time></trkpt>
<trkpt lat="54.3232110000" lon="-2.1005150000"><ele>296</ele><time>2015-10-15T13:38:13Z</time></trkpt>
<trkpt lat="54.3232600000" lon="-2.1005190000"><ele>296</ele><time>2015-10-15T13:38:23Z</time></trkpt>
<trkpt lat="54.3233510000" lon="-2.1005030000"><ele>296</ele><time>2015-10-15T13:38:30Z</time></trkpt>
<trkpt lat="54.3234090000" lon="-2.1004810000"><ele>296</ele><time>2015-10-15T13:38:32Z</time></trkpt>
<trkpt lat="54.3234480000" lon="-2.1004760000"><ele>296</ele><time>2015-10-15T13:38:47Z</time></trkpt>
<trkpt lat="54.3236320000" lon="-2.1004960000"><ele>318</ele><time>2015-10-15T13:39:13Z</time></trkpt>
<trkpt lat="54.3237770000" lon="-2.1005670000"><ele>318</ele><time>2015-10-15T13:39:33Z</time></trkpt>
<trkpt lat="54.3238690000" lon="-2.1006920000"><ele>318</ele><time>2015-10-15T13:39:34Z</time></trkpt>
<trkpt lat="54.3239770000" lon="-2.1008100000"><ele>318</ele><time>2015-10-15T13:40:06Z</time></trkpt>
<trkpt lat="54.3240820000" lon="-2.1009520000"><ele>318</ele><time>2015-10-15T13:40:07Z</time></trkpt>
<trkpt lat="54.3241130000" lon="-2.1009890000"><ele>318</ele><time>2015-10-15T13:40:10Z</time></trkpt>
<trkpt lat="54.3241320000" lon="-2.1010140000"><ele>318</ele><time>2015-10-15T13:40:12Z</time></trkpt>
<trkpt lat="54.3241480000" lon="-2.1010340000"><ele>318</ele><time>2015-10-15T13:40:22Z</time></trkpt>
<trkpt lat="54.3241870000" lon="-2.1010730000"><ele>318</ele><time>2015-10-15T13:40:33Z</time></trkpt>
<trkpt lat="54.3243070000" lon="-2.1011710000"><ele>318</ele><time>2015-10-15T13:40:34Z</time></trkpt>
<trkpt lat="54.3243310000" lon="-2.1011850000"><ele>318</ele><time>2015-10-15T13:40:36Z</time></trkpt>
<trkpt lat="54.3243510000" lon="-2.1011970000"><ele>318</ele><time>2015-10-15T13:40:43Z</time></trkpt>
<trkpt lat="54.3244000000" lon="-2.1012310000"><ele>318</ele><time>2015-10-15T13:40:55Z</time></trkpt>
<trkpt lat="54.3245180000" lon="-2.1013320000"><ele>318</ele><time>2015-10-15T13:40:57Z</time></trkpt>
<trkpt lat="54.3245560000" lon="-2.1013600000"><ele>318</ele><time>2015-10-15T13:41:00Z</time></trkpt>
<trkpt lat="54.3245820000" lon="-2.1013720000"><ele>318</ele><time>2015-10-15T13:41:01Z</time></trkpt>
<trkpt lat="54.3245980000" lon="-2.1013840000"><ele>318</ele><time>2015-10-15T13:41:12Z</time></trkpt>
<trkpt lat="54.3246000000" lon="-2.1013840000"><ele>318</ele><time>2015-10-15T13:41:13Z</time></trkpt>
<trkpt lat="54.3246030000" lon="-2.1013850000"><ele>318</ele><time>2015-10-15T13:41:14Z</time></trkpt>
<trkpt lat="54.3246050000" lon="-2.1013860000"><ele>318</ele></trkpt>
<trkpt lat="54.3246250000" lon="-2.1013920000"><ele>318</ele><time>2015-10-15T13:41:20Z</time></trkpt>
<trkpt lat="54.3246430000" lon="-2.1013980000"><ele>318</ele><time>2015-10-15T13:41:23Z</time></trkpt>
<trkpt lat="54.3246850000" lon="-2.1014090000"><ele>318</ele><time>2015-10-15T13:41:29Z</time></trkpt>
<trkpt lat="54.3248410000" lon="-2.1014330000"><ele>318</ele><time>2015-10-15T13:41:30Z</time></trkpt>
<trkpt lat="54.3248610000" lon="-2.1014290000"><ele>318</ele><time>2015-10-15T13:41:33Z</time></trkpt>
<trkpt lat="54.3248830000" lon="-2.1014300000"><ele>318</ele><time>2015-10-15T13:41:40Z</time></trkpt>
<trkpt lat="54.3249510000" lon="-2.1014620000"><ele>318</ele><time>2015-10-15T13:41:42Z</time></trkpt>
<trkpt lat="54.3249810000" lon="-2.1014590000"><ele>318</ele><time>2015-10-15T13:41:51Z</time></trkpt>
<trkpt lat="54.3250390000" lon="-2.1014540000"><ele>318</ele><time>2015-10-15T13:41:57Z</time></trkpt>
<trkpt lat="54.3250840000" lon="-2.1014460000"><ele>318</ele><time>2015-10-15T13:42:06Z</time></trkpt>
<trkpt lat="54.3251320000" lon="-2.1014120000"><ele>318</ele><time>2015-10-15T13:42:07Z</time></trkpt>
<trkpt lat="54.3251600000" lon="-2.1013900000"><ele>318</ele><time>2015-10-15T13:42:10Z</time></trkpt>
<trkpt lat="54.3251790000" lon="-2.1013830000"><ele>318</ele><time>2015-10-15T13:42:14Z</time></trkpt>
<trkpt lat="54.3252860000" lon="-2.1012520000"><ele>318</ele><time>2015-10-15T13:42:52Z</time></trkpt>
<trkpt lat="54.3253360000" lon="-2.1011760000"><ele>354</ele><time>2015-10-15T13:42:53Z</time></trkpt>
<trkpt lat="54.3253390000" lon="-2.1011720000"><ele>354</ele><time>2015-10-15T13:42:54Z</time></trkpt>
<trkpt lat="54.3253380000" lon="-2.1011700000"><ele>354</ele><time>2015-10-15T13:42:55Z</time></trkpt>
<trkpt lat="54.3253390000" lon="-2.1011700000"><ele>354</ele><time>2015-10-15T13:42:58Z</time></trkpt>
<trkpt lat="54.3253380000" lon="-2.1011700000"><ele>354</ele><time>2015-10-15T13:43:02Z</time></trkpt>
<trkpt lat="54.3253380000" lon="-2.1011690000"><ele>354</ele><time>2015-10-15T13:43:03Z</time></trkpt>
<trkpt lat="54.3253380000" lon="-2.1011690000"><ele>354</ele><time>2015-10-15T13:43:04Z</time></trkpt>
<trkpt lat="54.3253380000" lon="-2.1011690000"><ele>354</ele><time>2015-10-15T13:43:05Z</time></trkpt>
<trkpt lat="54.3253380000" lon="-2.1011690000"><ele>354</ele><time>2015-10-15T13:43:06Z</time></trkpt>
<trkpt lat="54.3253380000" lon="-2.1011660000"><ele>354</ele><time>2015-10-15T13:43:14Z</time></trkpt>
<trkpt lat="54.3253380000" lon="-2.1011660000"><ele>354</ele></trkpt>
<trkpt lat="54.3253380000" lon="-2.1011650000"><ele>354</ele><time>2015-10-15T13:43:16Z</time></trkpt>
<trkpt lat="54.3253380000" lon="-2.1011640000"><ele>354</ele><time>2015-10-15T13:43:17Z</time></trkpt>
<trkpt lat="54.3253380000" lon="-2.1011630000"><ele>354</ele><time>2015-10-15T13:43:18Z</time></trkpt>
<trkpt lat="54.3253360000" lon="-2.1011520000"><ele>354</ele><time>2015-10-15T13:43:27Z</time></trkpt>
<trkpt lat="54.3253360000" lon="-2.1011510000"><ele>354</ele></trkpt>
<trkpt lat="54.3253360000" lon="-2.1011500000"><ele>354</ele><time>2015-10-15T13:43:29Z</time></trkpt>
<trkpt lat="54.3253360000" lon="-2.1011490000"><ele>354</ele><time>2015-10-15T13:43:30Z</time></trkpt>
<trkpt lat="54.3253360000" lon="-2.1011490000"><ele>354</ele><time>2015-10-15T13:43:31Z</time></trkpt>
<trkpt lat="54.3253360000" lon="-2.1011480000"><ele>354</ele><time>2015-10-15T13:43:32Z</time></trkpt>
<trkpt lat="54.3253360000" lon="-2.1011480000"><ele>354</ele><time>2015-10-15T13:43:33Z</time></trkpt>
<trkpt lat="54.3253370000" lon="-2.1011480000"><ele>354</ele><time>2015-10-15T13:43:34Z</time></trkpt>
<trkpt lat="54.3253370000" lon="-2.1011480000"><ele>354</ele><time>2015-10-15T13:43:35Z</time></trkpt>
<trkpt lat="54.3253370000" lon="-2.1011480000"><ele>354</ele><time>2015-10-15T13:43:36Z</time></trkpt>
<trkpt lat="54.3253370000" lon="-2.1011480000"><ele>354</ele><time>2015-10-15T13:43:37Z</time></trkpt>
<trkpt lat="54.3253370000" lon="-2.1011480000"><ele>354</ele><time>2015-10-15T13:43:38Z</time></trkpt>
<trkpt lat="54.3253370000" lon="-2.1011490000"><ele>354</ele><time>2015-10-15T13:43:40Z</time></trkpt>
<trkpt lat="54.3253380000" lon="-2.1011500000"><ele>354</ele></trkpt>
<trkpt lat="54.3253380000" lon="-2.1011500000"><ele>354</ele><time>2015-10-15T13:43:42Z</time></trkpt>
<trkpt lat="54.3253380000" lon="-2.1011510000"><ele>354</ele><time>2015-10-15T13:43:43Z</time></trkpt>
<trkpt lat="54.3253380000" lon="-2.1011510000"><ele>354</ele><time>2015-10-15T13:43:44Z</time></trkpt>
<trkpt lat="54.3253380000" lon="-2.1011520000"><ele>354</ele><time>2015-10-15T13:43:45Z</time></trkpt>
<trkpt lat="54.3253380000" lon="-2.1011530000"><ele>354</ele><time>2015-10-15T13:43:46Z</time></trkpt>
<trkpt lat="54.3253380000" lon="-2.1011530000"><ele>354</ele></trkpt>
<trkpt lat="54.3253390000" lon="-2.1011540000"><ele>354</ele><time>2015-10-15T13:43:48Z</time></trkpt>
<trkpt lat="54.3253390000" lon="-2.1011550000"><ele>354</ele><time>2015-10-15T13:43:49Z</time></trkpt>
<trkpt lat="54.3253390000" lon="-2.1011550000"><ele>354</ele><time>2015-10-15T13:43:50Z</time></trkpt>
<trkpt lat="54.3253400000" lon="-2.1011550000"><ele>354</ele><time>2015-10-15T13:43:51Z</time></trkpt>
<trkpt lat="54.3253400000" lon="-2.1011560000"><ele>354</ele><time>2015-10-15T13:43:52Z</time></trkpt>
<trkpt lat="54.3253400000" lon="-2.1011560000"><ele>354</ele><time>2015-10-15T13:43:53Z</time></trkpt>
<trkpt lat="54.3253410000" lon="-2.1011560000"><ele>354</ele></trkpt>
<trkpt lat="54.3253410000" lon="-2.1011560000"><ele>354</ele><time>2015-10-15T13:43:55Z</time></trkpt>
<trkpt lat="54.3253410000" lon="-2.1011560000"><ele>354</ele><time>2015-10-15T13:43:56Z</time></trkpt>
<trkpt lat="54.3253410000" lon="-2.1011560000"><ele>354</ele><time>2015-10-15T13:43:57Z</time></trkpt>
<trkpt lat="54.3253420000" lon="-2.1011560000"><ele>354</ele><time>2015-10-15T13:43:58Z</time></trkpt>
<trkpt lat="54.3253420000" lon="-2.1011570000"><ele>354</ele><time>2015-10-15T13:43:59Z</time></trkpt>
<trkpt lat="54.3253420000" lon="-2.1011570000"><ele>354</ele></trkpt>
<trkpt lat="54.3253420000" lon="-2.1011570000"><ele>354</ele><time>2015-10-15T13:44:01Z</time></trkpt>
<trkpt lat="54.3253420000" lon="-2.1011570000"><ele>354</ele><time>2015-10-15T13:44:02Z</time></trkpt>
<trkpt lat="54.3253430000" lon="-2.1011570000"><ele>354</ele><time>2015-10-15T13:44:03Z</time></trkpt>
<trkpt lat="54.3253430000" lon="-2.1011570000"><ele>354</ele><time>2015-10-15T13:44:04Z</time></trkpt>
<trkpt lat="54.3253430000" lon="-2.1011570000"><ele>354</ele><time>2015-10-15T13:44:05Z</time></trkpt>
<trkpt lat="54.3253430000" lon="-2.1011570000"><ele>354</ele></trkpt>
<trkpt lat="54.3253430000" lon="-2.1011570000"><ele>354</ele><time>2015-10-15T13:44:07Z</time></trkpt>
<trkpt lat="54.3253440000" lon="-2.1011570000"><ele>354</ele><time>2015-10-15T13:44:08Z</time></trkpt>
<trkpt lat="54.3253440000" lon="-2.1011560000"><ele>354</ele><time>2015-10-15T13:44:09Z</time></trkpt>
<trkpt lat="54.3253440000" lon="-2.1011560000"><ele>354</ele><time>2015-10-15T13:44:10Z</time></trkpt>
<trkpt lat="54.3253440000" lon="-2.1011560000"><ele>354</ele><time>2015-10-15T13:44:11Z</time></trkpt>
<trkpt lat="54.3253440000" lon="-2.1011550000"><ele>354</ele><time>2015-10-15T13:44:12Z</time></trkpt>
<trkpt lat="54.3253440000" lon="-2.1011550000"><ele>354</ele><time>2015-10-15T13:44:13Z</time></trkpt>
<trkpt lat="54.3253440000" lon="-2.1011550000"><ele>354</ele><time>2015-10-15T13:44:14Z</time></trkpt>
<trkpt lat="54.3253440000" lon="-2.1011550000"><ele>354</ele><time>2015-10-15T13:44:15Z</time></trkpt>
<trkpt lat="54.3253440000" lon="-2.1011540000"><ele>354</ele><time>2015-10-15T13:44:16Z</time></trkpt>
<trkpt lat="54.3253440000" lon="-2.1011540000"><ele>354</ele><time>2015-10-15T13:44:17Z</time></trkpt>
<trkpt lat="54.3253440000" lon="-2.1011540000"><ele>354</ele><time>2015-10-15T13:44:18Z</time></trkpt>
<trkpt lat="54.3253440000" lon="-2.1011530000"><ele>354</ele></trkpt>
<trkpt lat="54.3253440000" lon="-2.1011530000"><ele>354</ele><time>2015-10-15T13:44:20Z</time></trkpt>
<trkpt lat="54.3253440000" lon="-2.1011530000"><ele>354</ele><time>2015-10-15T13:44:21Z</time></trkpt>
<trkpt lat="54.3253450000" lon="-2.1011530000"><ele>354</ele><time>2015-10-15T13:44:22Z</time></trkpt>
<trkpt lat="54.3253450000" lon="-2.1011530000"><ele>354</ele><time>2015-10-15T13:44:23Z</time></trkpt>
<trkpt lat="54.3253450000" lon="-2.1011520000"><ele>354</ele><time>2015-10-15T13:44:24Z</time></trkpt>
<trkpt lat="54.3253460000" lon="-2.1011520000"><ele>354</ele></trkpt>
<trkpt lat="54.3253460000" lon="-2.1011520000"><ele>354</ele><time>2015-10-15T13:44:25Z</time></trkpt>
<trkpt lat="54.3253460000" lon="-2.1011520000"><ele>354</ele><time>2015-10-15T13:44:27Z</time></trkpt>
<trkpt lat="54.3253470000" lon="-2.1011520000"><ele>354</ele><time>2015-10-15T13:44:28Z</time></trkpt>
<trkpt lat="54.3253470000" lon="-2.1011520000"><ele>354</ele><time>2015-10-15T13:44:29Z</time></trkpt>
<trkpt lat="54.3253470000" lon="-2.1011530000"><ele>354</ele><time>2015-10-15T13:44:30Z</time></trkpt>
<trkpt lat="54.3253470000" lon="-2.1011530000"><ele>354</ele><time>2015-10-15T13:44:31Z</time></trkpt>
<trkpt lat="54.3253480000" lon="-2.1011530000"><ele>354</ele></trkpt>
<trkpt lat="54.3253480000" lon="-2.1011530000"><ele>354</ele><time>2015-10-15T13:44:33Z</time></trkpt>
<trkpt lat="54.3253480000" lon="-2.1011540000"><ele>354</ele><time>2015-10-15T13:44:34Z</time></trkpt>
<trkpt lat="54.3253490000" lon="-2.1011540000"><ele>354</ele><time>2015-10-15T13:44:35Z</time></trkpt>
<trkpt lat="54.3253490000" lon="-2.1011540000"><ele>354</ele><time>2015-10-15T13:44:36Z</time></trkpt>
<trkpt lat="54.3253490000" lon="-2.1011550000"><ele>354</ele><time>2015-10-15T13:44:37Z</time></trkpt>
<trkpt lat="54.3253490000" lon="-2.1011550000"><ele>354</ele></trkpt>
<trkpt lat="54.3253500000" lon="-2.1011560000"><ele>354</ele><time>2015-10-15T13:44:39Z</time></trkpt>
<trkpt lat="54.3253500000" lon="-2.1011560000"><ele>354</ele><time>2015-10-15T13:44:40Z</time></trkpt>
<trkpt lat="54.3253500000" lon="-2.1011560000"><ele>354</ele><time>2015-10-15T13:44:41Z</time></trkpt>
<trkpt lat="54.3253500000" lon="-2.1011560000"><ele>354</ele><time>2015-10-15T13:44:43Z</time></trkpt>
<trkpt lat="54.3253500000" lon="-2.1011560000"><ele>354</ele><time>2015-10-15T13:44:44Z</time></trkpt>
<trkpt lat="54.3253500000" lon="-2.1011560000"><ele>354</ele><time>2015-10-15T13:44:46Z</time></trkpt>
<trkpt lat="54.3253500000" lon="-2.1011550000"><ele>354</ele><time>2015-10-15T13:44:47Z</time></trkpt>
<trkpt lat="54.3253500000" lon="-2.1011550000"><ele>354</ele><time>2015-10-15T13:44:48Z</time></trkpt>
<trkpt lat="54.3253500000" lon="-2.1011550000"><ele>354</ele><time>2015-10-15T13:44:49Z</time></trkpt>
<trkpt lat="54.3253500000" lon="-2.1011550000"><ele>354</ele><time>2015-10-15T13:44:50Z</time></trkpt>
<trkpt lat="54.3253500000" lon="-2.1011550000"><ele>354</ele></trkpt>
<trkpt lat="54.3253500000" lon="-2.1011540000"><ele>354</ele><time>2015-10-15T13:44:52Z</time></trkpt>
<trkpt lat="54.3253500000" lon="-2.1011540000"><ele>354</ele><time>2015-10-15T13:44:53Z</time></trkpt>
<trkpt lat="54.3253500000" lon="-2.1011540000"><ele>354</ele><time>2015-10-15T13:44:54Z</time></trkpt>
<trkpt lat="54.3253500000" lon="-2.1011530000"><ele>354</ele><time>2015-10-15T13:44:55Z</time></trkpt>
<trkpt lat="54.3253500000" lon="-2.1011530000"><ele>354</ele><time>2015-10-15T13:44:56Z</time></trkpt>
<trkpt lat="54.3253500000" lon="-2.1011530000"><ele>354</ele><time>2015-10-15T13:44:57Z</time></trkpt>
<trkpt lat="54.3253500000" lon="-2.1011520000"><ele>354</ele><time>2015-10-15T13:44:58Z</time></trkpt>
<trkpt lat="54.3253500000" lon="-2.1011510000"><ele>354</ele></trkpt>
<trkpt lat="54.3253500000" lon="-2.1011510000"><ele>354</ele><time>2015-10-15T13:45:00Z</time></trkpt>
<trkpt lat="54.3253500000" lon="-2.1011500000"><ele>354</ele><time>2015-10-15T13:45:01Z</time></trkpt>
<trkpt lat="54.3253500000" lon="-2.1011500000"><ele>354</ele><time>2015-10-15T13:45:02Z</time></trkpt>
<trkpt lat="54.3253500000" lon="-2.1011490000"><ele>354</ele><time>2015-10-15T13:45:03Z</time></trkpt>
<trkpt lat="54.3253500000" lon="-2.1011490000"><ele>354</ele><time>2015-10-15T13:45:04Z</time></trkpt>
<trkpt lat="54.3253500000" lon="-2.1011480000"><ele>354</ele><time>2015-10-15T13:45:05Z</time></trkpt>
<trkpt lat="54.3253500000" lon="-2.1011480000"><ele>354</ele></trkpt>
<trkpt lat="54.3253490000" lon="-2.1011480000"><ele>354</ele><time>2015-10-15T13:45:07Z</time></trkpt>
<trkpt lat="54.3253490000" lon="-2.1011470000"><ele>354</ele><time>2015-10-15T13:45:08Z</time></trkpt>
<trkpt lat="54.3253490000" lon="-2.1011470000"><ele>354</ele><time>2015-10-15T13:45:09Z</time></trkpt>
<trkpt lat="54.3253490000" lon="-2.1011460000"><ele>354</ele><time>2015-10-15T13:45:10Z</time></trkpt>
<trkpt lat="54.3253480000" lon="-2.1011450000"><ele>354</ele><time>2015-10-15T13:45:11Z</time></trkpt>
<trkpt lat="54.3253470000" lon="-2.1011430000"><ele>354</ele></trkpt>
<trkpt lat="54.3253460000" lon="-2.1011400000"><ele>354</ele><time>2015-10-15T13:45:13Z</time></trkpt>
<trkpt lat="54.3253450000" lon="-2.1011380000"><ele>354</ele><time>2015-10-15T13:45:14Z</time></trkpt>
<trkpt lat="54.3253430000" lon="-2.1011340000"><ele>354</ele><time>2015-10-15T13:45:15Z</time></trkpt>
<trkpt lat="54.3253410000" lon="-2.1011300000"><ele>354</ele><time>2015-10-15T13:45:16Z</time></trkpt>
<trkpt lat="54.3253020000" lon="-2.1010610000"><ele>318</ele><time>2015-10-15T13:45:17Z</time></trkpt>
<trkpt lat="54.3253000000" lon="-2.1010570000"><ele>318</ele></trkpt>
<trkpt lat="54.3252170000" lon="-2.1009160000"><ele>318</ele><time>2015-10-15T13:45:30Z</time></trkpt>
<trkpt lat="54.3252020000" lon="-2.1008760000"><ele>318</ele><time>2015-10-15T13:45:33Z</time></trkpt>
<trkpt lat="54.3251910000" lon="-2.1008350000"><ele>318</ele><time>2015-10-15T13:45:42Z</time></trkpt>
<trkpt lat="54.3251790000" lon="-2.1008050000"><ele>318</ele><time>2015-10-15T13:45:48Z</time></trkpt>
<trkpt lat="54.3251650000" lon="-2.1007730000"><ele>318</ele><time>2015-10-15T13:45:52Z</time></trkpt>
<trkpt lat="54.3250700000" lon="-2.1005560000"><ele>318</ele><time>2015-10-15T13:45:53Z</time></trkpt>
<trkpt lat="54.3250530000" lon="-2.1005210000"><ele>318</ele><time>2015-10-15T13:45:55Z</time></trkpt>
<trkpt lat="54.3250460000" lon="-2.1005060000"><ele>318</ele><time>2015-10-15T13:45:59Z</time></trkpt>
<trkpt lat="54.3250450000" lon="-2.1005050000"><ele>318</ele><time>2015-10-15T13:46:00Z</time></trkpt>
<trkpt lat="54.3250400000" lon="-2.1004960000"><ele>318</ele><time>2015-10-15T13:46:04Z</time></trkpt>
<trkpt lat="54.3250380000" lon="-2.1004920000"><ele>318</ele><time>2015-10-15T13:46:05Z</time></trkpt>
<trkpt lat="54.3250360000" lon="-2.1004870000"><ele>318</ele><time>2015-10-15T13:46:06Z</time></trkpt>
<trkpt lat="54.3250340000" lon="-2.1004820000"><ele>318</ele><time>2015-10-15T13:46:07Z</time></trkpt>
<trkpt lat="54.3250310000" lon="-2.1004770000"><ele>318</ele><time>2015-10-15T13:46:08Z</time></trkpt>
<trkpt lat="54.3250280000" lon="-2.1004700000"><ele>318</ele></trkpt>
<trkpt lat="54.3250240000" lon="-2.1004630000"><ele>318</ele><time>2015-10-15T13:46:10Z</time></trkpt>
<trkpt lat="54.3250210000" lon="-2.1004550000"><ele>318</ele><time>2015-10-15T13:46:11Z</time></trkpt>
<trkpt lat="54.3250170000" lon="-2.1004470000"><ele>318</ele><time>2015-10-15T13:46:12Z</time></trkpt>
<trkpt lat="54.3250120000" lon="-2.1004380000"><ele>318</ele><time>2015-10-15T13:46:13Z</time></trkpt>
<trkpt lat="54.3249150000" lon="-2.1002310000"><ele>318</ele><time>2015-10-15T13:46:14Z</time></trkpt>
<trkpt lat="54.3249080000" lon="-2.1002180000"><ele>318</ele></trkpt>
<trkpt lat="54.3249000000" lon="-2.1002040000"><ele>318</ele><time>2015-10-15T13:46:16Z</time></trkpt>
<trkpt lat="54.3249000000" lon="-2.1002040000"><ele>318</ele><time>2015-10-15T13:46:17Z</time></trkpt>
<trkpt lat="54.3249000000" lon="-2.1002040000"><ele>318</ele><time>2015-10-15T13:46:18Z</time></trkpt>
<trkpt lat="54.3249000000" lon="-2.1002030000"><ele>318</ele><time>2015-10-15T13:46:19Z</time></trkpt>
<trkpt lat="54.3248990000" lon="-2.1002020000"><ele>318</ele><time>2015-10-15T13:46:20Z</time></trkpt>
<trkpt lat="54.3248980000" lon="-2.1002010000"><ele>318</ele></trkpt>
<trkpt lat="54.3248560000" lon="-2.1001130000"><ele>318</ele><time>2015-10-15T13:46:22Z</time></trkpt>
<trkpt lat="54.3248490000" lon="-2.1000960000"><ele>318</ele><time>2015-10-15T13:46:23Z</time></trkpt>
<trkpt lat="54.3248420000" lon="-2.1000810000"><ele>318</ele><time>2015-10-15T13:46:24Z</time></trkpt>
<trkpt lat="54.3248350000" lon="-2.1000690000"><ele>318</ele><time>2015-10-15T13:46:25Z</time></trkpt>
<trkpt lat="54.3248290000" lon="-2.1000570000"><ele>318</ele><time>2015-10-15T13:46:26Z</time></trkpt>
<trkpt lat="54.3248220000" lon="-2.1000430000"><ele>318</ele></trkpt>
<trkpt lat="54.3248150000" lon="-2.1000250000"><ele>318</ele><time>2015-10-15T13:46:28Z</time></trkpt>
<trkpt lat="54.3248080000" lon="-2.1000090000"><ele>318</ele><time>2015-10-15T13:46:29Z</time></trkpt>
<trkpt lat="54.3248010000" lon="-2.0999900000"><ele>318</ele><time>2015-10-15T13:46:30Z</time></trkpt>
<trkpt lat="54.3247930000" lon="-2.0999750000"><ele>318</ele><time>2015-10-15T13:46:31Z</time></trkpt>
<trkpt lat="54.3247850000" lon="-2.0999590000"><ele>318</ele><time>2015-10-15T13:46:32Z</time></trkpt>
<trkpt lat="54.3247790000" lon="-2.0999440000"><ele>318</ele><time>2015-10-15T13:46:33Z</time></trkpt>
<trkpt lat="54.3247710000" lon="-2.0999340000"><ele>318</ele></trkpt>
<trkpt lat="54.3247640000" lon="-2.0999200000"><ele>318</ele><time>2015-10-15T13:46:35Z</time></trkpt>
<trkpt lat="54.3247640000" lon="-2.0999200000"><ele>318</ele><time>2015-10-15T13:46:36Z</time></trkpt>
<trkpt lat="54.3247490000" lon="-2.0998830000"><ele>331</ele><time>2015-10-15T13:46:37Z</time></trkpt>
<trkpt lat="54.3247410000" lon="-2.0998670000"><ele>331</ele><time>2015-10-15T13:46:38Z</time></trkpt>
<trkpt lat="54.3247250000" lon="-2.0998280000"><ele>331</ele><time>2015-10-15T13:46:40Z</time></trkpt>
<trkpt lat="54.3247170000" lon="-2.0998090000"><ele>331</ele><time>2015-10-15T13:46:41Z</time></trkpt>
<trkpt lat="54.3247070000" lon="-2.0997910000"><ele>331</ele><time>2015-10-15T13:46:42Z</time></trkpt>
<trkpt lat="54.3246970000" lon="-2.0997770000"><ele>331</ele><time>2015-10-15T13:46:43Z</time></trkpt>
<trkpt lat="54.3246890000" lon="-2.0997580000"><ele>331</ele><time>2015-10-15T13:46:44Z</time></trkpt>
<trkpt lat="54.3246820000" lon="-2.0997420000"><ele>331</ele><time>2015-10-15T13:46:45Z</time></trkpt>
<trkpt lat="54.3246730000" lon="-2.0997290000"><ele>331</ele><time>2015-10-15T13:46:46Z</time></trkpt>
<trkpt lat="54.3246640000" lon="-2.0997130000"><ele>331</ele><time>2015-10-15T13:46:47Z</time></trkpt>
<trkpt lat="54.3246550000" lon="-2.0996950000"><ele>331</ele><time>2015-10-15T13:46:48Z</time></trkpt>
<trkpt lat="54.3246490000" lon="-2.0996790000"><ele>331</ele><time>2015-10-15T13:46:49Z</time></trkpt>
<trkpt lat="54.3246430000" lon="-2.0996650000"><ele>331</ele><time>2015-10-15T13:46:50Z</time></trkpt>
<trkpt lat="54.3246350000" lon="-2.0996470000"><ele>331</ele><time>2015-10-15T13:46:51Z</time></trkpt>
<trkpt lat="54.3246280000" lon="-2.0996300000"><ele>331</ele><time>2015-10-15T13:46:52Z</time></trkpt>
<trkpt lat="54.3246200000" lon="-2.0996110000"><ele>331</ele></trkpt>
<trkpt lat="54.3246120000" lon="-2.0995940000"><ele>331</ele><time>2015-10-15T13:46:54Z</time></trkpt>
<trkpt lat="54.3246030000" lon="-2.0995770000"><ele>331</ele><time>2015-10-15T13:46:55Z</time></trkpt>
<trkpt lat="54.3245930000" lon="-2.0995630000"><ele>331</ele><time>2015-10-15T13:46:56Z</time></trkpt>
<trkpt lat="54.3245830000" lon="-2.0995480000"><ele>331</ele><time>2015-10-15T13:46:57Z</time></trkpt>
<trkpt lat="54.3245750000" lon="-2.0995310000"><ele>331</ele><time>2015-10-15T13:46:58Z</time></trkpt>
<trkpt lat="54.3245680000" lon="-2.0995110000"><ele>331</ele></trkpt>
<trkpt lat="54.3245600000" lon="-2.0994930000"><ele>331</ele><time>2015-10-15T13:47:00Z</time></trkpt>
<trkpt lat="54.3245520000" lon="-2.0994760000"><ele>331</ele><time>2015-10-15T13:47:01Z</time></trkpt>
<trkpt lat="54.3245440000" lon="-2.0994610000"><ele>331</ele><time>2015-10-15T13:47:02Z</time></trkpt>
<trkpt lat="54.3245350000" lon="-2.0994450000"><ele>331</ele><time>2015-10-15T13:47:03Z</time></trkpt>
<trkpt lat="54.3245260000" lon="-2.0994260000"><ele>331</ele><time>2015-10-15T13:47:04Z</time></trkpt>
<trkpt lat="54.3245170000" lon="-2.0994080000"><ele>331</ele></trkpt>
<trkpt lat="54.3245090000" lon="-2.0993940000"><ele>331</ele><time>2015-10-15T13:47:06Z</time></trkpt>
<trkpt lat="54.3245020000" lon="-2.0993780000"><ele>331</ele><time>2015-10-15T13:47:07Z</time></trkpt>
<trkpt lat="54.3245020000" lon="-2.0993780000"><ele>331</ele><time>2015-10-15T13:47:08Z</time></trkpt>
<trkpt lat="54.3245020000" lon="-2.0993780000"><ele>331</ele><time>2015-10-15T13:47:09Z</time></trkpt>
<trkpt lat="54.3245020000" lon="-2.0993780000"><ele>331</ele><time>2015-10-15T13:47:10Z</time></trkpt>
<trkpt lat="54.3245010000" lon="-2.0993770000"><ele>331</ele><time>2015-10-15T13:47:11Z</time></trkpt>
<trkpt lat="54.3245000000" lon="-2.0993750000"><ele>331</ele></trkpt>
<trkpt lat="54.3244990000" lon="-2.0993730000"><ele>331</ele><time>2015-10-15T13:47:13Z</time></trkpt>
<trkpt lat="54.3244980000" lon="-2.0993710000"><ele>331</ele><time>2015-10-15T13:47:14Z</time></trkpt>
<trkpt lat="54.3244960000" lon="-2.0993680000"><ele>331</ele><time>2015-10-15T13:47:15Z</time></trkpt>
<trkpt lat="54.3244950000" lon="-2.0993640000"><ele>331</ele><time>2015-10-15T13:47:16Z</time></trkpt>
<trkpt lat="54.3244280000" lon="-2.0992310000"><ele>331</ele><time>2015-10-15T13:47:17Z</time></trkpt>
<trkpt lat="54.3244200000" lon="-2.0992120000"><ele>331</ele></trkpt>
<trkpt lat="54.3244110000" lon="-2.0991950000"><ele>331</ele><time>2015-10-15T13:47:19Z</time></trkpt>
<trkpt lat="54.3244010000" lon="-2.0991800000"><ele>331</ele><time>2015-10-15T13:47:20Z</time></trkpt>
<trkpt lat="54.3243920000" lon="-2.0991650000"><ele>331</ele><time>2015-10-15T13:47:21Z</time></trkpt>
<trkpt lat="54.3243840000" lon="-2.0991460000"><ele>331</ele><time>2015-10-15T13:47:22Z</time></trkpt>
<trkpt lat="54.3243770000" lon="-2.0991310000"><ele>331</ele><time>2015-10-15T13:47:23Z</time></trkpt>
<trkpt lat="54.3243690000" lon="-2.0991130000"><ele>331</ele></trkpt>
<trkpt lat="54.3243620000" lon="-2.0991000000"><ele>331</ele><time>2015-10-15T13:47:25Z</time></trkpt>
<trkpt lat="54.3243550000" lon="-2.0990860000"><ele>331</ele><time>2015-10-15T13:47:26Z</time></trkpt>
<trkpt lat="54.3243550000" lon="-2.0990860000"><ele>331</ele><time>2015-10-15T13:47:27Z</time></trkpt>
<trkpt lat="54.3243550000" lon="-2.0990860000"><ele>331</ele><time>2015-10-15T13:47:28Z</time></trkpt>
<trkpt lat="54.3243550000" lon="-2.0990850000"><ele>331</ele><time>2015-10-15T13:47:29Z</time></trkpt>
<trkpt lat="54.3243550000" lon="-2.0990840000"><ele>331</ele></trkpt>
<trkpt lat="54.3243200000" lon="-2.0990100000"><ele>331</ele><time>2015-10-15T13:47:31Z</time></trkpt>
<trkpt lat="54.3243130000" lon="-2.0989930000"><ele>331</ele><time>2015-10-15T13:47:32Z</time></trkpt>
<trkpt lat="54.3243060000" lon="-2.0989760000"><ele>331</ele><time>2015-10-15T13:47:33Z</time></trkpt>
<trkpt lat="54.3242960000" lon="-2.0989620000"><ele>331</ele><time>2015-10-15T13:47:34Z</time></trkpt>
<trkpt lat="54.3242900000" lon="-2.0989470000"><ele>331</ele><time>2015-10-15T13:47:35Z</time></trkpt>
<trkpt lat="54.3242820000" lon="-2.0989310000"><ele>331</ele><time>2015-10-15T13:47:36Z</time></trkpt>
<trkpt lat="54.3242740000" lon="-2.0989180000"><ele>331</ele></trkpt>
<trkpt lat="54.3242680000" lon="-2.0989040000"><ele>331</ele><time>2015-10-15T13:47:38Z</time></trkpt>
<trkpt lat="54.3242680000" lon="-2.0989040000"><ele>331</ele><time>2015-10-15T13:47:40Z</time></trkpt>
<trkpt lat="54.3242590000" lon="-2.0988800000"><ele>331</ele><time>2015-10-15T13:47:49Z</time></trkpt>
<trkpt lat="54.3242560000" lon="-2.0988750000"><ele>331</ele><time>2015-10-15T13:47:50Z</time></trkpt>
<trkpt lat="54.3241830000" lon="-2.0987110000"><ele>331</ele><time>2015-10-15T13:47:51Z</time></trkpt>
<trkpt lat="54.3241760000" lon="-2.0986960000"><ele>331</ele><time>2015-10-15T13:47:52Z</time></trkpt>
<trkpt lat="54.3241680000" lon="-2.0986830000"><ele>331</ele></trkpt>
<trkpt lat="54.3241610000" lon="-2.0986690000"><ele>331</ele><time>2015-10-15T13:47:54Z</time></trkpt>
<trkpt lat="54.3241610000" lon="-2.0986690000"><ele>331</ele><time>2015-10-15T13:47:55Z</time></trkpt>
<trkpt lat="54.3241450000" lon="-2.0986340000"><ele>331</ele><time>2015-10-15T13:47:56Z</time></trkpt>
<trkpt lat="54.3241370000" lon="-2.0986160000"><ele>331</ele><time>2015-10-15T13:47:57Z</time></trkpt>
<trkpt lat="54.3241290000" lon="-2.0985970000"><ele>331</ele><time>2015-10-15T13:47:58Z</time></trkpt>
<trkpt lat="54.3241190000" lon="-2.0985800000"><ele>331</ele></trkpt>
<trkpt lat="54.3241110000" lon="-2.0985640000"><ele>331</ele><time>2015-10-15T13:48:00Z</time></trkpt>
<trkpt lat="54.3241050000" lon="-2.0985500000"><ele>331</ele><time>2015-10-15T13:48:01Z</time></trkpt>
<trkpt lat="54.3241050000" lon="-2.0985500000"><ele>331</ele><time>2015-10-15T13:48:02Z</time></trkpt>
<trkpt lat="54.3241050000" lon="-2.0985490000"><ele>331</ele><time>2015-10-15T13:48:03Z</time></trkpt>
<trkpt lat="54.3240810000" lon="-2.0985020000"><ele>331</ele><time>2015-10-15T13:48:04Z</time></trkpt>
<trkpt lat="54.3240720000" lon="-2.0984860000"><ele>331</ele><time>2015-10-15T13:48:05Z</time></trkpt>
<trkpt lat="54.3240630000" lon="-2.0984680000"><ele>331</ele><time>2015-10-15T13:48:06Z</time></trkpt>
<trkpt lat="54.3240550000" lon="-2.0984480000"><ele>331</ele><time>2015-10-15T13:48:07Z</time></trkpt>
<trkpt lat="54.3240480000" lon="-2.0984300000"><ele>331</ele><time>2015-10-15T13:48:08Z</time></trkpt>
<trkpt lat="54.3240370000" lon="-2.0984120000"><ele>331</ele><time>2015-10-15T13:48:09Z</time></trkpt>
<trkpt lat="54.3240280000" lon="-2.0983940000"><ele>331</ele><time>2015-10-15T13:48:10Z</time></trkpt>
<trkpt lat="54.3240180000" lon="-2.0983750000"><ele>331</ele><time>2015-10-15T13:48:11Z</time></trkpt>
<trkpt lat="54.3240100000" lon="-2.0983590000"><ele>331</ele></trkpt>
<trkpt lat="54.3240020000" lon="-2.0983400000"><ele>331</ele><time>2015-10-15T13:48:13Z</time></trkpt>
<trkpt lat="54.3239940000" lon="-2.0983230000"><ele>331</ele><time>2015-10-15T13:48:14Z</time></trkpt>
<trkpt lat="54.3239860000" lon="-2.0983060000"><ele>331</ele><time>2015-10-15T13:48:15Z</time></trkpt>
<trkpt lat="54.3239780000" lon="-2.0982920000"><ele>331</ele><time>2015-10-15T13:48:16Z</time></trkpt>
<trkpt lat="54.3239700000" lon="-2.0982750000"><ele>331</ele><time>2015-10-15T13:48:17Z</time></trkpt>
<trkpt lat="54.3239610000" lon="-2.0982580000"><ele>331</ele></trkpt>
<trkpt lat="54.3239520000" lon="-2.0982430000"><ele>331</ele><time>2015-10-15T13:48:19Z</time></trkpt>
<trkpt lat="54.3239430000" lon="-2.0982250000"><ele>331</ele><time>2015-10-15T13:48:20Z</time></trkpt>
<trkpt lat="54.3239350000" lon="-2.0982080000"><ele>331</ele><time>2015-10-15T13:48:21Z</time></trkpt>
<trkpt lat="54.3239290000" lon="-2.0981910000"><ele>331</ele><time>2015-10-15T13:48:22Z</time></trkpt>
<trkpt lat="54.3239220000" lon="-2.0981780000"><ele>331</ele><time>2015-10-15T13:48:23Z</time></trkpt>
<trkpt lat="54.3239140000" lon="-2.0981640000"><ele>331</ele></trkpt>
<trkpt lat="54.3239070000" lon="-2.0981490000"><ele>331</ele><time>2015-10-15T13:48:25Z</time></trkpt>
<trkpt lat="54.3239070000" lon="-2.0981490000"><ele>331</ele><time>2015-10-15T13:48:26Z</time></trkpt>
<trkpt lat="54.3239070000" lon="-2.0981490000"><ele>331</ele><time>2015-10-15T13:48:27Z</time></trkpt>
<trkpt lat="54.3239060000" lon="-2.0981480000"><ele>331</ele><time>2015-10-15T13:48:28Z</time></trkpt>
<trkpt lat="54.3239060000" lon="-2.0981480000"><ele>331</ele><time>2015-10-15T13:48:29Z</time></trkpt>
<trkpt lat="54.3239050000" lon="-2.0981460000"><ele>331</ele><time>2015-10-15T13:48:30Z</time></trkpt>
<trkpt lat="54.3239040000" lon="-2.0981440000"><ele>331</ele></trkpt>
<trkpt lat="54.3239030000" lon="-2.0981420000"><ele>331</ele><time>2015-10-15T13:48:32Z</time></trkpt>
<trkpt lat="54.3239010000" lon="-2.0981390000"><ele>331</ele><time>2015-10-15T13:48:33Z</time></trkpt>
<trkpt lat="54.3239000000" lon="-2.0981360000"><ele>331</ele><time>2015-10-15T13:48:34Z</time></trkpt>
<trkpt lat="54.3238980000" lon="-2.0981320000"><ele>331</ele><time>2015-10-15T13:48:35Z</time></trkpt>
<trkpt lat="54.3238950000" lon="-2.0981270000"><ele>331</ele><time>2015-10-15T13:48:36Z</time></trkpt>
<trkpt lat="54.3238930000" lon="-2.0981210000"><ele>331</ele></trkpt>
<trkpt lat="54.3238900000" lon="-2.0981150000"><ele>331</ele><time>2015-10-15T13:48:38Z</time></trkpt>
<trkpt lat="54.3238830000" lon="-2.0981000000"><ele>331</ele><time>2015-10-15T13:48:40Z</time></trkpt>
<trkpt lat="54.3238800000" lon="-2.0980920000"><ele>331</ele><time>2015-10-15T13:48:41Z</time></trkpt>
<trkpt lat="54.3238760000" lon="-2.0980830000"><ele>331</ele><time>2015-10-15T13:48:42Z</time></trkpt>
<trkpt lat="54.3238720000" lon="-2.0980740000"><ele>331</ele><time>2015-10-15T13:48:43Z</time></trkpt>
<trkpt lat="54.3238670000" lon="-2.0980640000"><ele>331</ele><time>2015-10-15T13:48:44Z</time></trkpt>
<trkpt lat="54.3238630000" lon="-2.0980540000"><ele>331</ele><time>2015-10-15T13:48:45Z</time></trkpt>
<trkpt lat="54.3238580000" lon="-2.0980440000"><ele>331</ele><time>2015-10-15T13:48:46Z</time></trkpt>
<trkpt lat="54.3238530000" lon="-2.0980330000"><ele>331</ele></trkpt>
<trkpt lat="54.3238480000" lon="-2.0980220000"><ele>331</ele><time>2015-10-15T13:48:48Z</time></trkpt>
<trkpt lat="54.3238430000" lon="-2.0980110000"><ele>331</ele><time>2015-10-15T13:48:49Z</time></trkpt>
<trkpt lat="54.3238370000" lon="-2.0979990000"><ele>331</ele><time>2015-10-15T13:48:50Z</time></trkpt>
<trkpt lat="54.3238320000" lon="-2.0979870000"><ele>331</ele><time>2015-10-15T13:48:51Z</time></trkpt>
<trkpt lat="54.3238260000" lon="-2.0979750000"><ele>331</ele><time>2015-10-15T13:48:52Z</time></trkpt>
<trkpt lat="54.3238200000" lon="-2.0979630000"><ele>331</ele></trkpt>
<trkpt lat="54.3238140000" lon="-2.0979520000"><ele>331</ele><time>2015-10-15T13:48:54Z</time></trkpt>
<trkpt lat="54.3238080000" lon="-2.0979400000"><ele>331</ele><time>2015-10-15T13:48:55Z</time></trkpt>
<trkpt lat="54.3238020000" lon="-2.0979280000"><ele>331</ele><time>2015-10-15T13:48:56Z</time></trkpt>
<trkpt lat="54.3237970000" lon="-2.0979160000"><ele>331</ele><time>2015-10-15T13:48:57Z</time></trkpt>
<trkpt lat="54.3237900000" lon="-2.0979030000"><ele>331</ele><time>2015-10-15T13:48:58Z</time></trkpt>
<trkpt lat="54.3236820000" lon="-2.0976830000"><ele>331</ele></trkpt>
<trkpt lat="54.3236750000" lon="-2.0976670000"><ele>331</ele><time>2015-10-15T13:49:00Z</time></trkpt>
<trkpt lat="54.3236680000" lon="-2.0976500000"><ele>331</ele><time>2015-10-15T13:49:01Z</time></trkpt>
<trkpt lat="54.3236620000" lon="-2.0976330000"><ele>331</ele><time>2015-10-15T13:49:02Z</time></trkpt>
<trkpt lat="54.3236560000" lon="-2.0976190000"><ele>331</ele><time>2015-10-15T13:49:03Z</time></trkpt>
<trkpt lat="54.3236520000" lon="-2.0976050000"><ele>331</ele><time>2015-10-15T13:49:04Z</time></trkpt>
<trkpt lat="54.3236450000" lon="-2.0975910000"><ele>331</ele><time>2015-10-15T13:49:05Z</time></trkpt>
<trkpt lat="54.3236380000" lon="-2.0975760000"><ele>331</ele></trkpt>
<trkpt lat="54.3236310000" lon="-2.0975660000"><ele>331</ele><time>2015-10-15T13:49:07Z</time></trkpt>
<trkpt lat="54.3236310000" lon="-2.0975660000"><ele>331</ele><time>2015-10-15T13:49:08Z</time></trkpt>
<trkpt lat="54.3236310000" lon="-2.0975650000"><ele>331</ele><time>2015-10-15T13:49:09Z</time></trkpt>
<trkpt lat="54.3236300000" lon="-2.0975650000"><ele>331</ele><time>2015-10-15T13:49:10Z</time></trkpt>
<trkpt lat="54.3236300000" lon="-2.0975640000"><ele>331</ele><time>2015-10-15T13:49:11Z</time></trkpt>
<trkpt lat="54.3236300000" lon="-2.0975630000"><ele>331</ele></trkpt>
<trkpt lat="54.3236290000" lon="-2.0975610000"><ele>331</ele><time>2015-10-15T13:49:13Z</time></trkpt>
<trkpt lat="54.3236280000" lon="-2.0975590000"><ele>331</ele><time>2015-10-15T13:49:14Z</time></trkpt>
<trkpt lat="54.3236260000" lon="-2.0975560000"><ele>331</ele><time>2015-10-15T13:49:15Z</time></trkpt>
<trkpt lat="54.3236250000" lon="-2.0975530000"><ele>331</ele><time>2015-10-15T13:49:16Z</time></trkpt>
<trkpt lat="54.3236230000" lon="-2.0975490000"><ele>331</ele><time>2015-10-15T13:49:17Z</time></trkpt>
<trkpt lat="54.3236200000" lon="-2.0975450000"><ele>331</ele></trkpt>
<trkpt lat="54.3236180000" lon="-2.0975400000"><ele>331</ele><time>2015-10-15T13:49:19Z</time></trkpt>
<trkpt lat="54.3236150000" lon="-2.0975340000"><ele>331</ele><time>2015-10-15T13:49:20Z</time></trkpt>
<trkpt lat="54.3236120000" lon="-2.0975280000"><ele>331</ele><time>2015-10-15T13:49:21Z</time></trkpt>
<trkpt lat="54.3236090000" lon="-2.0975220000"><ele>331</ele><time>2015-10-15T13:49:22Z</time></trkpt>
<trkpt lat="54.3236050000" lon="-2.0975150000"><ele>331</ele><time>2015-10-15T13:49:23Z</time></trkpt>
<trkpt lat="54.3236010000" lon="-2.0975070000"><ele>331</ele></trkpt>
<trkpt lat="54.3235970000" lon="-2.0974990000"><ele>331</ele><time>2015-10-15T13:49:25Z</time></trkpt>
<trkpt lat="54.3235930000" lon="-2.0974910000"><ele>331</ele><time>2015-10-15T13:49:26Z</time></trkpt>
<trkpt lat="54.3234990000" lon="-2.0973080000"><ele>303</ele><time>2015-10-15T13:49:27Z</time></trkpt>
<trkpt lat="54.3234930000" lon="-2.0972980000"><ele>303</ele><time>2015-10-15T13:49:28Z</time></trkpt>
<trkpt lat="54.3234870000" lon="-2.0972890000"><ele>303</ele><time>2015-10-15T13:49:29Z</time></trkpt>
<trkpt lat="54.3234870000" lon="-2.0972890000"><ele>303</ele><time>2015-10-15T13:49:30Z</time></trkpt>
<trkpt lat="54.3234870000" lon="-2.0972890000"><ele>303</ele></trkpt>
<trkpt lat="54.3234860000" lon="-2.0972890000"><ele>303</ele><time>2015-10-15T13:49:32Z</time></trkpt>
<trkpt lat="54.3234860000" lon="-2.0972880000"><ele>303</ele><time>2015-10-15T13:49:33Z</time></trkpt>
<trkpt lat="54.3234860000" lon="-2.0972870000"><ele>303</ele><time>2015-10-15T13:49:34Z</time></trkpt>
<trkpt lat="54.3234850000" lon="-2.0972860000"><ele>303</ele><time>2015-10-15T13:49:35Z</time></trkpt>
<trkpt lat="54.3234840000" lon="-2.0972840000"><ele>303</ele><time>2015-10-15T13:49:36Z</time></trkpt>
<trkpt lat="54.3234820000" lon="-2.0972820000"><ele>303</ele></trkpt>
<trkpt lat="54.3234810000" lon="-2.0972790000"><ele>303</ele><time>2015-10-15T13:49:38Z</time></trkpt>
<trkpt lat="54.3234770000" lon="-2.0972720000"><ele>303</ele><time>2015-10-15T13:49:40Z</time></trkpt>
<trkpt lat="54.3234750000" lon="-2.0972670000"><ele>303</ele><time>2015-10-15T13:49:41Z</time></trkpt>
<trkpt lat="54.3234720000" lon="-2.0972620000"><ele>303</ele><time>2015-10-15T13:49:42Z</time></trkpt>
<trkpt lat="54.3234700000" lon="-2.0972560000"><ele>303</ele><time>2015-10-15T13:49:43Z</time></trkpt>
<trkpt lat="54.3234670000" lon="-2.0972500000"><ele>303</ele><time>2015-10-15T13:49:44Z</time></trkpt>
<trkpt lat="54.3234640000" lon="-2.0972430000"><ele>303</ele><time>2015-10-15T13:49:45Z</time></trkpt>
<trkpt lat="54.3234620000" lon="-2.0972360000"><ele>303</ele><time>2015-10-15T13:49:46Z</time></trkpt>
<trkpt lat="54.3234580000" lon="-2.0972290000"><ele>303</ele></trkpt>
<trkpt lat="54.3234550000" lon="-2.0972210000"><ele>303</ele><time>2015-10-15T13:49:48Z</time></trkpt>
<trkpt lat="54.3234520000" lon="-2.0972130000"><ele>303</ele><time>2015-10-15T13:49:49Z</time></trkpt>
<trkpt lat="54.3234480000" lon="-2.0972040000"><ele>303</ele><time>2015-10-15T13:49:50Z</time></trkpt>
<trkpt lat="54.3234440000" lon="-2.0971950000"><ele>303</ele><time>2015-10-15T13:49:51Z</time></trkpt>
<trkpt lat="54.3234400000" lon="-2.0971850000"><ele>303</ele><time>2015-10-15T13:49:52Z</time></trkpt>
<trkpt lat="54.3234360000" lon="-2.0971740000"><ele>303</ele></trkpt>
<trkpt lat="54.3234310000" lon="-2.0971640000"><ele>303</ele><time>2015-10-15T13:49:54Z</time></trkpt>
<trkpt lat="54.3234270000" lon="-2.0971530000"><ele>303</ele><time>2015-10-15T13:49:55Z</time></trkpt>
<trkpt lat="54.3234220000" lon="-2.0971420000"><ele>303</ele><time>2015-10-15T13:49:56Z</time></trkpt>
<trkpt lat="54.3234170000" lon="-2.0971300000"><ele>303</ele><time>2015-10-15T13:49:57Z</time></trkpt>
<trkpt lat="54.3234130000" lon="-2.0971190000"><ele>303</ele><time>2015-10-15T13:49:58Z</time></trkpt>
<trkpt lat="54.3234080000" lon="-2.0971070000"><ele>303</ele></trkpt>
<trkpt lat="54.3234020000" lon="-2.0970950000"><ele>303</ele><time>2015-10-15T13:50:00Z</time></trkpt>
<trkpt lat="54.3233970000" lon="-2.0970840000"><ele>303</ele><time>2015-10-15T13:50:01Z</time></trkpt>
<trkpt lat="54.3233920000" lon="-2.0970720000"><ele>303</ele><time>2015-10-15T13:50:02Z</time></trkpt>
<trkpt lat="54.3233860000" lon="-2.0970590000"><ele>303</ele><time>2015-10-15T13:50:03Z</time></trkpt>
<trkpt lat="54.3233810000" lon="-2.0970470000"><ele>303</ele><time>2015-10-15T13:50:04Z</time></trkpt>
<trkpt lat="54.3233750000" lon="-2.0970350000"><ele>303</ele><time>2015-10-15T13:50:05Z</time></trkpt>
<trkpt lat="54.3233690000" lon="-2.0970220000"><ele>303</ele></trkpt>
<trkpt lat="54.3232680000" lon="-2.0967890000"><ele>310</ele><time>2015-10-15T13:50:07Z</time></trkpt>
<trkpt lat="54.3232610000" lon="-2.0967740000"><ele>310</ele><time>2015-10-15T13:50:08Z</time></trkpt>
<trkpt lat="54.3232540000" lon="-2.0967580000"><ele>310</ele><time>2015-10-15T13:50:09Z</time></trkpt>
<trkpt lat="54.3232490000" lon="-2.0967420000"><ele>310</ele><time>2015-10-15T13:50:10Z</time></trkpt>
<trkpt lat="54.3232410000" lon="-2.0967280000"><ele>310</ele><time>2015-10-15T13:50:11Z</time></trkpt>
<trkpt lat="54.3232320000" lon="-2.0967140000"><ele>310</ele></trkpt>
<trkpt lat="54.3232240000" lon="-2.0967000000"><ele>310</ele><time>2015-10-15T13:50:13Z</time></trkpt>
<trkpt lat="54.3232160000" lon="-2.0966840000"><ele>310</ele><time>2015-10-15T13:50:14Z</time></trkpt>
<trkpt lat="54.3232080000" lon="-2.0966640000"><ele>310</ele><time>2015-10-15T13:50:15Z</time></trkpt>
<trkpt lat="54.3232000000" lon="-2.0966440000"><ele>310</ele><time>2015-10-15T13:50:16Z</time></trkpt>
<trkpt lat="54.3231920000" lon="-2.0966270000"><ele>310</ele><time>2015-10-15T13:50:17Z</time></trkpt>
<trkpt lat="54.3231840000" lon="-2.0966120000"><ele>310</ele></trkpt>
<trkpt lat="54.3231770000" lon="-2.0966020000"><ele>310</ele><time>2015-10-15T13:50:19Z</time></trkpt>
<trkpt lat="54.3231770000" lon="-2.0966020000"><ele>310</ele><time>2015-10-15T13:50:20Z</time></trkpt>
<trkpt lat="54.3231770000" lon="-2.0966020000"><ele>310</ele><time>2015-10-15T13:50:21Z</time></trkpt>
<trkpt lat="54.3231770000" lon="-2.0966020000"><ele>310</ele><time>2015-10-15T13:50:22Z</time></trkpt>
<trkpt lat="54.3231760000" lon="-2.0966010000"><ele>310</ele><time>2015-10-15T13:50:23Z</time></trkpt>
<trkpt lat="54.3231360000" lon="-2.0965430000"><ele>310</ele></trkpt>
<trkpt lat="54.3231290000" lon="-2.0965260000"><ele>310</ele><time>2015-10-15T13:50:25Z</time></trkpt>
<trkpt lat="54.3231220000" lon="-2.0965090000"><ele>310</ele><time>2015-10-15T13:50:26Z</time></trkpt>
<trkpt lat="54.3231130000" lon="-2.0964910000"><ele>310</ele><time>2015-10-15T13:50:27Z</time></trkpt>
<trkpt lat="54.3231060000" lon="-2.0964730000"><ele>310</ele><time>2015-10-15T13:50:28Z</time></trkpt>
<trkpt lat="54.3231000000" lon="-2.0964510000"><ele>310</ele><time>2015-10-15T13:50:29Z</time></trkpt>
<trkpt lat="54.3230920000" lon="-2.0964310000"><ele>310</ele><time>2015-10-15T13:50:30Z</time></trkpt>
<trkpt lat="54.3230870000" lon="-2.0964130000"><ele>310</ele></trkpt>
<trkpt lat="54.3230810000" lon="-2.0963970000"><ele>310</ele><time>2015-10-15T13:50:32Z</time></trkpt>
<trkpt lat="54.3230810000" lon="-2.0963970000"><ele>310</ele><time>2015-10-15T13:50:33Z</time></trkpt>
<trkpt lat="54.3230810000" lon="-2.0963970000"><ele>310</ele><time>2015-10-15T13:50:34Z</time></trkpt>
<trkpt lat="54.3230810000" lon="-2.0963960000"><ele>310</ele><time>2015-10-15T13:50:35Z</time></trkpt>
<trkpt lat="54.3230600000" lon="-2.0963280000"><ele>310</ele><time>2015-10-15T13:50:36Z</time></trkpt>
<trkpt lat="54.3230560000" lon="-2.0963080000"><ele>310</ele></trkpt>
<trkpt lat="54.3230510000" lon="-2.0962890000"><ele>310</ele><time>2015-10-15T13:50:38Z</time></trkpt>
<trkpt lat="54.3230420000" lon="-2.0962460000"><ele>310</ele><time>2015-10-15T13:50:40Z</time></trkpt>
<trkpt lat="54.3230390000" lon="-2.0962290000"><ele>310</ele></trkpt>
<trkpt lat="54.3230350000" lon="-2.0962110000"><ele>310</ele><time>2015-10-15T13:50:42Z</time></trkpt>
<trkpt lat="54.3230350000" lon="-2.0962110000"><ele>310</ele><time>2015-10-15T13:50:43Z</time></trkpt>
<trkpt lat="54.3230350000" lon="-2.0962110000"><ele>310</ele><time>2015-10-15T13:50:44Z</time></trkpt>
<trkpt lat="54.3230350000" lon="-2.0962100000"><ele>310</ele><time>2015-10-15T13:50:45Z</time></trkpt>
<trkpt lat="54.3230350000" lon="-2.0962090000"><ele>310</ele><time>2015-10-15T13:50:46Z</time></trkpt>
<trkpt lat="54.3230340000" lon="-2.0962070000"><ele>310</ele></trkpt>
<trkpt lat="54.3230340000" lon="-2.0962050000"><ele>310</ele><time>2015-10-15T13:50:48Z</time></trkpt>
<trkpt lat="54.3230330000" lon="-2.0962010000"><ele>310</ele><time>2015-10-15T13:50:49Z</time></trkpt>
<trkpt lat="54.3230320000" lon="-2.0961970000"><ele>310</ele><time>2015-10-15T13:50:50Z</time></trkpt>
<trkpt lat="54.3229920000" lon="-2.0960400000"><ele>310</ele><time>2015-10-15T13:50:51Z</time></trkpt>
<trkpt lat="54.3229860000" lon="-2.0960220000"><ele>310</ele><time>2015-10-15T13:50:52Z</time></trkpt>
<trkpt lat="54.3229820000" lon="-2.0960020000"><ele>310</ele><time>2015-10-15T13:50:53Z</time></trkpt>
<trkpt lat="54.3229770000" lon="-2.0959840000"><ele>310</ele></trkpt>
<trkpt lat="54.3229710000" lon="-2.0959640000"><ele>310</ele><time>2015-10-15T13:50:55Z</time></trkpt>
<trkpt lat="54.3229660000" lon="-2.0959450000"><ele>310</ele><time>2015-10-15T13:50:56Z</time></trkpt>
<trkpt lat="54.3229610000" lon="-2.0959260000"><ele>310</ele><time>2015-10-15T13:50:57Z</time></trkpt>
<trkpt lat="54.3229570000" lon="-2.0959050000"><ele>310</ele><time>2015-10-15T13:50:58Z</time></trkpt>
<trkpt lat="54.3229520000" lon="-2.0958850000"><ele>310</ele><time>2015-10-15T13:50:59Z</time></trkpt>
<trkpt lat="54.3229460000" lon="-2.0958670000"><ele>310</ele></trkpt>
<trkpt lat="54.3229410000" lon="-2.0958470000"><ele>310</ele><time>2015-10-15T13:51:01Z</time></trkpt>
<trkpt lat="54.3229370000" lon="-2.0958260000"><ele>310</ele><time>2015-10-15T13:51:02Z</time></trkpt>
<trkpt lat="54.3229320000" lon="-2.0958070000"><ele>310</ele><time>2015-10-15T13:51:03Z</time></trkpt>
<trkpt lat="54.3229270000" lon="-2.0957890000"><ele>310</ele><time>2015-10-15T13:51:04Z</time></trkpt>
<trkpt lat="54.3229220000" lon="-2.0957720000"><ele>310</ele><time>2015-10-15T13:51:05Z</time></trkpt>
<trkpt lat="54.3229170000" lon="-2.0957570000"><ele>310</ele></trkpt>
<trkpt lat="54.3229110000" lon="-2.0957400000"><ele>310</ele><time>2015-10-15T13:51:07Z</time></trkpt>
<trkpt lat="54.3229110000" lon="-2.0957400000"><ele>310</ele><time>2015-10-15T13:51:08Z</time></trkpt>
<trkpt lat="54.3229000000" lon="-2.0956990000"><ele>310</ele><time>2015-10-15T13:51:09Z</time></trkpt>
<trkpt lat="54.3228950000" lon="-2.0956790000"><ele>310</ele><time>2015-10-15T13:51:10Z</time></trkpt>
<trkpt lat="54.3228900000" lon="-2.0956600000"><ele>310</ele><time>2015-10-15T13:51:11Z</time></trkpt>
<trkpt lat="54.3228850000" lon="-2.0956420000"><ele>310</ele><time>2015-10-15T13:51:12Z</time></trkpt>
<trkpt lat="54.3228810000" lon="-2.0956240000"><ele>310</ele><time>2015-10-15T13:51:13Z</time></trkpt>
<trkpt lat="54.3228810000" lon="-2.0956240000"><ele>310</ele><time>2015-10-15T13:51:14Z</time></trkpt>
<trkpt lat="54.3228810000" lon="-2.0956240000"><ele>310</ele><time>2015-10-15T13:51:15Z</time></trkpt>
<trkpt lat="54.3228800000" lon="-2.0956230000"><ele>310</ele><time>2015-10-15T13:51:16Z</time></trkpt>
<trkpt lat="54.3228620000" lon="-2.0955520000"><ele>310</ele><time>2015-10-15T13:51:17Z</time></trkpt>
<trkpt lat="54.3228570000" lon="-2.0955350000"><ele>310</ele><time>2015-10-15T13:51:18Z</time></trkpt>
<trkpt lat="54.3228520000" lon="-2.0955190000"><ele>310</ele></trkpt>
<trkpt lat="54.3228490000" lon="-2.0955050000"><ele>310</ele><time>2015-10-15T13:51:20Z</time></trkpt>
<trkpt lat="54.3228490000" lon="-2.0955050000"><ele>310</ele><time>2015-10-15T13:51:21Z</time></trkpt>
<trkpt lat="54.3228430000" lon="-2.0954840000"><ele>310</ele><time>2015-10-15T13:51:30Z</time></trkpt>
<trkpt lat="54.3228410000" lon="-2.0954780000"><ele>310</ele></trkpt>
<trkpt lat="54.3228390000" lon="-2.0954710000"><ele>310</ele><time>2015-10-15T13:51:32Z</time></trkpt>
<trkpt lat="54.3227790000" lon="-2.0952830000"><ele>310</ele><time>2015-10-15T13:51:33Z</time></trkpt>
<trkpt lat="54.3227730000" lon="-2.0952670000"><ele>310</ele><time>2015-10-15T13:51:34Z</time></trkpt>
<trkpt lat="54.3227680000" lon="-2.0952490000"><ele>310</ele><time>2015-10-15T13:51:35Z</time></trkpt>
<trkpt lat="54.3227640000" lon="-2.0952320000"><ele>310</ele><time>2015-10-15T13:51:36Z</time></trkpt>
<trkpt lat="54.3227610000" lon="-2.0952150000"><ele>310</ele><time>2015-10-15T13:51:37Z</time></trkpt>
<trkpt lat="54.3227560000" lon="-2.0951980000"><ele>310</ele><time>2015-10-15T13:51:38Z</time></trkpt>
<trkpt lat="54.3227560000" lon="-2.0951970000"><ele>310</ele><time>2015-10-15T13:51:40Z</time></trkpt>
<trkpt lat="54.3227560000" lon="-2.0951970000"><ele>310</ele><time>2015-10-15T13:51:41Z</time></trkpt>
<trkpt lat="54.3227560000" lon="-2.0951950000"><ele>310</ele><time>2015-10-15T13:51:42Z</time></trkpt>
<trkpt lat="54.3227550000" lon="-2.0951940000"><ele>310</ele><time>2015-10-15T13:51:43Z</time></trkpt>
<trkpt lat="54.3227300000" lon="-2.0950820000"><ele>310</ele><time>2015-10-15T13:51:44Z</time></trkpt>
<trkpt lat="54.3227250000" lon="-2.0950660000"><ele>310</ele><time>2015-10-15T13:51:45Z</time></trkpt>
<trkpt lat="54.3227200000" lon="-2.0950500000"><ele>310</ele><time>2015-10-15T13:51:46Z</time></trkpt>
<trkpt lat="54.3227150000" lon="-2.0950340000"><ele>310</ele></trkpt>
<trkpt lat="54.3227110000" lon="-2.0950110000"><ele>310</ele><time>2015-10-15T13:51:48Z</time></trkpt>
<trkpt lat="54.3227080000" lon="-2.0949870000"><ele>310</ele><time>2015-10-15T13:51:49Z</time></trkpt>
<trkpt lat="54.3227040000" lon="-2.0949670000"><ele>310</ele><time>2015-10-15T13:51:50Z</time></trkpt>
<trkpt lat="54.3226990000" lon="-2.0949480000"><ele>310</ele><time>2015-10-15T13:51:51Z</time></trkpt>
<trkpt lat="54.3226940000" lon="-2.0949300000"><ele>310</ele><time>2015-10-15T13:51:52Z</time></trkpt>
<trkpt lat="54.3226890000" lon="-2.0949110000"><ele>310</ele></trkpt>
<trkpt lat="54.3226830000" lon="-2.0948900000"><ele>310</ele><time>2015-10-15T13:51:54Z</time></trkpt>
<trkpt lat="54.3226780000" lon="-2.0948690000"><ele>310</ele><time>2015-10-15T13:51:55Z</time></trkpt>
<trkpt lat="54.3226740000" lon="-2.0948510000"><ele>310</ele><time>2015-10-15T13:51:56Z</time></trkpt>
<trkpt lat="54.3226690000" lon="-2.0948320000"><ele>310</ele><time>2015-10-15T13:51:57Z</time></trkpt>
<trkpt lat="54.3226650000" lon="-2.0948140000"><ele>310</ele><time>2015-10-15T13:51:58Z</time></trkpt>
<trkpt lat="54.3226610000" lon="-2.0947970000"><ele>310</ele></trkpt>
<trkpt lat="54.3226570000" lon="-2.0947790000"><ele>310</ele><time>2015-10-15T13:52:00Z</time></trkpt>
<trkpt lat="54.3226570000" lon="-2.0947790000"><ele>310</ele><time>2015-10-15T13:52:01Z</time></trkpt>
<trkpt lat="54.3226570000" lon="-2.0947790000"><ele>310</ele><time>2015-10-15T13:52:02Z</time></trkpt>
<trkpt lat="54.3226420000" lon="-2.0947210000"><ele>310</ele><time>2015-10-15T13:52:03Z</time></trkpt>
<trkpt lat="54.3226370000" lon="-2.0947010000"><ele>310</ele><time>2015-10-15T13:52:04Z</time></trkpt>
<trkpt lat="54.3226320000" lon="-2.0946830000"><ele>310</ele><time>2015-10-15T13:52:05Z</time></trkpt>
<trkpt lat="54.3226280000" lon="-2.0946640000"><ele>310</ele></trkpt>
<trkpt lat="54.3226230000" lon="-2.0946450000"><ele>310</ele><time>2015-10-15T13:52:07Z</time></trkpt>
<trkpt lat="54.3226180000" lon="-2.0946230000"><ele>310</ele><time>2015-10-15T13:52:08Z</time></trkpt>
<trkpt lat="54.3226120000" lon="-2.0946020000"><ele>310</ele><time>2015-10-15T13:52:09Z</time></trkpt>
<trkpt lat="54.3226070000" lon="-2.0945810000"><ele>310</ele><time>2015-10-15T13:52:10Z</time></trkpt>
<trkpt lat="54.3226010000" lon="-2.0945650000"><ele>310</ele><time>2015-10-15T13:52:11Z</time></trkpt>
<trkpt lat="54.3225960000" lon="-2.0945490000"><ele>310</ele></trkpt>
<trkpt lat="54.3225910000" lon="-2.0945310000"><ele>310</ele><time>2015-10-15T13:52:13Z</time></trkpt>
<trkpt lat="54.3225910000" lon="-2.0945310000"><ele>310</ele><time>2015-10-15T13:52:14Z</time></trkpt>
<trkpt lat="54.3225910000" lon="-2.0945310000"><ele>310</ele><time>2015-10-15T13:52:15Z</time></trkpt>
<trkpt lat="54.3225900000" lon="-2.0945300000"><ele>310</ele><time>2015-10-15T13:52:16Z</time></trkpt>
<trkpt lat="54.3225730000" lon="-2.0944580000"><ele>310</ele><time>2015-10-15T13:52:17Z</time></trkpt>
<trkpt lat="54.3225680000" lon="-2.0944380000"><ele>310</ele></trkpt>
<trkpt lat="54.3225620000" lon="-2.0944190000"><ele>310</ele><time>2015-10-15T13:52:19Z</time></trkpt>
<trkpt lat="54.3225580000" lon="-2.0943990000"><ele>310</ele><time>2015-10-15T13:52:20Z</time></trkpt>
<trkpt lat="54.3225540000" lon="-2.0943820000"><ele>310</ele><time>2015-10-15T13:52:21Z</time></trkpt>
<trkpt lat="54.3225480000" lon="-2.0943660000"><ele>310</ele><time>2015-10-15T13:52:22Z</time></trkpt>
<trkpt lat="54.3225420000" lon="-2.0943480000"><ele>310</ele><time>2015-10-15T13:52:23Z</time></trkpt>
<trkpt lat="54.3225370000" lon="-2.0943320000"><ele>310</ele></trkpt>
<trkpt lat="54.3225310000" lon="-2.0943160000"><ele>310</ele><time>2015-10-15T13:52:25Z</time></trkpt>
<trkpt lat="54.3225310000" lon="-2.0943160000"><ele>310</ele><time>2015-10-15T13:52:26Z</time></trkpt>
<trkpt lat="54.3225310000" lon="-2.0943150000"><ele>310</ele><time>2015-10-15T13:52:27Z</time></trkpt>
<trkpt lat="54.3225310000" lon="-2.0943150000"><ele>310</ele><time>2015-10-15T13:52:28Z</time></trkpt>
<trkpt lat="54.3225310000" lon="-2.0943130000"><ele>310</ele><time>2015-10-15T13:52:29Z</time></trkpt>
<trkpt lat="54.3225070000" lon="-2.0942110000"><ele>310</ele><time>2015-10-15T13:52:30Z</time></trkpt>
<trkpt lat="54.3225020000" lon="-2.0941910000"><ele>310</ele></trkpt>
<trkpt lat="54.3224970000" lon="-2.0941710000"><ele>310</ele><time>2015-10-15T13:52:32Z</time></trkpt>
<trkpt lat="54.3224930000" lon="-2.0941500000"><ele>310</ele><time>2015-10-15T13:52:33Z</time></trkpt>
<trkpt lat="54.3224880000" lon="-2.0941310000"><ele>310</ele><time>2015-10-15T13:52:34Z</time></trkpt>
<trkpt lat="54.3224820000" lon="-2.0941120000"><ele>310</ele><time>2015-10-15T13:52:35Z</time></trkpt>
<trkpt lat="54.3224760000" lon="-2.0940950000"><ele>310</ele><time>2015-10-15T13:52:36Z</time></trkpt>
<trkpt lat="54.3224720000" lon="-2.0940780000"><ele>310</ele></trkpt>
<trkpt lat="54.3224670000" lon="-2.0940590000"><ele>310</ele><time>2015-10-15T13:52:38Z</time></trkpt>
<trkpt lat="54.3224670000" lon="-2.0940590000"><ele>310</ele><time>2015-10-15T13:52:40Z</time></trkpt>
<trkpt lat="54.3224530000" lon="-2.0940030000"><ele>310</ele><time>2015-10-15T13:52:41Z</time></trkpt>
<trkpt lat="54.3224480000" lon="-2.0939860000"><ele>310</ele><time>2015-10-15T13:52:42Z</time></trkpt>
<trkpt lat="54.3224440000" lon="-2.0939700000"><ele>310</ele><time>2015-10-15T13:52:43Z</time></trkpt>
<trkpt lat="54.3224380000" lon="-2.0939520000"><ele>310</ele><time>2015-10-15T13:52:44Z</time></trkpt>
<trkpt lat="54.3224330000" lon="-2.0939340000"><ele>310</ele><time>2015-10-15T13:52:45Z</time></trkpt>
<trkpt lat="54.3224280000" lon="-2.0939130000"><ele>310</ele><time>2015-10-15T13:52:46Z</time></trkpt>
<trkpt lat="54.3224220000" lon="-2.0938920000"><ele>310</ele></trkpt>
<trkpt lat="54.3224180000" lon="-2.0938700000"><ele>310</ele><time>2015-10-15T13:52:47Z</time></trkpt>
<trkpt lat="54.3224140000" lon="-2.0938490000"><ele>310</ele><time>2015-10-15T13:52:49Z</time></trkpt>
<trkpt lat="54.3224100000" lon="-2.0938300000"><ele>310</ele><time>2015-10-15T13:52:50Z</time></trkpt>
<trkpt lat="54.3224060000" lon="-2.0938100000"><ele>310</ele><time>2015-10-15T13:52:51Z</time></trkpt>
<trkpt lat="54.3224020000" lon="-2.0937920000"><ele>310</ele><time>2015-10-15T13:52:52Z</time></trkpt>
<trkpt lat="54.3223990000" lon="-2.0937720000"><ele>310</ele></trkpt>
<trkpt lat="54.3223950000" lon="-2.0937500000"><ele>305</ele><time>2015-10-15T13:52:53Z</time></trkpt>
<trkpt lat="54.3223910000" lon="-2.0937320000"><ele>305</ele><time>2015-10-15T13:52:55Z</time></trkpt>
<trkpt lat="54.3223880000" lon="-2.0937110000"><ele>305</ele><time>2015-10-15T13:52:56Z</time></trkpt>
<trkpt lat="54.3223860000" lon="-2.0936930000"><ele>305</ele><time>2015-10-15T13:52:57Z</time></trkpt>
<trkpt lat="54.3223840000" lon="-2.0936770000"><ele>305</ele><time>2015-10-15T13:52:58Z</time></trkpt>
<trkpt lat="54.3223820000" lon="-2.0936580000"><ele>305</ele></trkpt>
<trkpt lat="54.3223800000" lon="-2.0936400000"><ele>305</ele><time>2015-10-15T13:52:59Z</time></trkpt>
<trkpt lat="54.3223780000" lon="-2.0936250000"><ele>305</ele><time>2015-10-15T13:53:01Z</time></trkpt>
<trkpt lat="54.3223780000" lon="-2.0936250000"><ele>305</ele><time>2015-10-15T13:53:02Z</time></trkpt>
<trkpt lat="54.3223780000" lon="-2.0936250000"><ele>305</ele><time>2015-10-15T13:53:03Z</time></trkpt>
<trkpt lat="54.3223780000" lon="-2.0936240000"><ele>305</ele><time>2015-10-15T13:53:04Z</time></trkpt>
<trkpt lat="54.3223780000" lon="-2.0936230000"><ele>305</ele><time>2015-10-15T13:53:05Z</time></trkpt>
<trkpt lat="54.3223780000" lon="-2.0936220000"><ele>305</ele></trkpt>
<trkpt lat="54.3223770000" lon="-2.0936190000"><ele>305</ele><time>2015-10-15T13:53:06Z</time></trkpt>
<trkpt lat="54.3223770000" lon="-2.0936160000"><ele>305</ele><time>2015-10-15T13:53:08Z</time></trkpt>
<trkpt lat="54.3223600000" lon="-2.0934760000"><ele>305</ele><time>2015-10-15T13:53:09Z</time></trkpt>
<trkpt lat="54.3223590000" lon="-2.0934550000"><ele>305</ele><time>2015-10-15T13:53:10Z</time></trkpt>
<trkpt lat="54.3223580000" lon="-2.0934370000"><ele>305</ele><time>2015-10-15T13:53:11Z</time></trkpt>
<trkpt lat="54.3223560000" lon="-2.0934160000"><ele>305</ele></trkpt>
<trkpt lat="54.3223530000" lon="-2.0933970000"><ele>305</ele><time>2015-10-15T13:53:12Z</time></trkpt>
<trkpt lat="54.3223510000" lon="-2.0933760000"><ele>305</ele><time>2015-10-15T13:53:14Z</time></trkpt>
<trkpt lat="54.3223500000" lon="-2.0933550000"><ele>305</ele><time>2015-10-15T13:53:15Z</time></trkpt>
<trkpt lat="54.3223490000" lon="-2.0933350000"><ele>305</ele><time>2015-10-15T13:53:16Z</time></trkpt>
<trkpt lat="54.3223460000" lon="-2.0933140000"><ele>305</ele><time>2015-10-15T13:53:17Z</time></trkpt>
<trkpt lat="54.3223450000" lon="-2.0932920000"><ele>305</ele></trkpt>
<trkpt lat="54.3223420000" lon="-2.0932710000"><ele>305</ele><time>2015-10-15T13:53:18Z</time></trkpt>
<trkpt lat="54.3223400000" lon="-2.0932530000"><ele>305</ele><time>2015-10-15T13:53:20Z</time></trkpt>
<trkpt lat="54.3223380000" lon="-2.0932340000"><ele>305</ele><time>2015-10-15T13:53:21Z</time></trkpt>
<trkpt lat="54.3223380000" lon="-2.0932340000"><ele>305</ele><time>2015-10-15T13:53:22Z</time></trkpt>
<trkpt lat="54.3223340000" lon="-2.0931930000"><ele>305</ele><time>2015-10-15T13:53:23Z</time></trkpt>
<trkpt lat="54.3223310000" lon="-2.0931730000"><ele>305</ele></trkpt>
<trkpt lat="54.3223290000" lon="-2.0931540000"><ele>305</ele><time>2015-10-15T13:53:24Z</time></trkpt>
<trkpt lat="54.3223270000" lon="-2.0931330000"><ele>305</ele><time>2015-10-15T13:53:26Z</time></trkpt>
<trkpt lat="54.3223260000" lon="-2.0931120000"><ele>305</ele><time>2015-10-15T13:53:27Z</time></trkpt>
<trkpt lat="54.3223240000" lon="-2.0930890000"><ele>305</ele><time>2015-10-15T13:53:28Z</time></trkpt>
<trkpt lat="54.3223230000" lon="-2.0930690000"><ele>305</ele><time>2015-10-15T13:53:29Z</time></trkpt>
<trkpt lat="54.3223210000" lon="-2.0930460000"><ele>305</ele><time>2015-10-15T13:53:30Z</time></trkpt>
<trkpt lat="54.3223190000" lon="-2.0930230000"><ele>305</ele><time>2015-10-15T13:53:31Z</time></trkpt>
<trkpt lat="54.3223180000" lon="-2.0930030000"><ele>305</ele></trkpt>
<trkpt lat="54.3223170000" lon="-2.0929810000"><ele>305</ele><time>2015-10-15T13:53:33Z</time></trkpt>
<trkpt lat="54.3223140000" lon="-2.0929580000"><ele>305</ele><time>2015-10-15T13:53:34Z</time></trkpt>
<trkpt lat="54.3223110000" lon="-2.0929370000"><ele>305</ele><time>2015-10-15T13:53:35Z</time></trkpt>
<trkpt lat="54.3223100000" lon="-2.0929160000"><ele>305</ele><time>2015-10-15T13:53:36Z</time></trkpt>
<trkpt lat="54.3223080000" lon="-2.0928970000"><ele>305</ele></trkpt>
<trkpt lat="54.3223060000" lon="-2.0928780000"><ele>305</ele><time>2015-10-15T13:53:37Z</time></trkpt>
<trkpt lat="54.3223010000" lon="-2.0928380000"><ele>305</ele><time>2015-10-15T13:53:40Z</time></trkpt>
<trkpt lat="54.3223000000" lon="-2.0928180000"><ele>305</ele></trkpt>
<trkpt lat="54.3222980000" lon="-2.0927960000"><ele>305</ele><time>2015-10-15T13:53:41Z</time></trkpt>
<trkpt lat="54.3222970000" lon="-2.0927740000"><ele>305</ele><time>2015-10-15T13:53:43Z</time></trkpt>
<trkpt lat="54.3222950000" lon="-2.0927530000"><ele>305</ele><time>2015-10-15T13:53:44Z</time></trkpt>
<trkpt lat="54.3222940000" lon="-2.0927320000"><ele>305</ele><time>2015-10-15T13:53:45Z</time></trkpt>
<trkpt lat="54.3222920000" lon="-2.0927120000"><ele>305</ele><time>2015-10-15T13:53:46Z</time></trkpt>
<trkpt lat="54.3222900000" lon="-2.0926920000"><ele>305</ele></trkpt>
<trkpt lat="54.3222880000" lon="-2.0926710000"><ele>305</ele><time>2015-10-15T13:53:47Z</time></trkpt>
<trkpt lat="54.3222850000" lon="-2.0926500000"><ele>305</ele><time>2015-10-15T13:53:49Z</time></trkpt>
<trkpt lat="54.3222830000" lon="-2.0926280000"><ele>305</ele><time>2015-10-15T13:53:50Z</time></trkpt>
<trkpt lat="54.3222820000" lon="-2.0926070000"><ele>305</ele><time>2015-10-15T13:53:51Z</time></trkpt>
<trkpt lat="54.3222810000" lon="-2.0925870000"><ele>305</ele><time>2015-10-15T13:53:52Z</time></trkpt>
<trkpt lat="54.3222800000" lon="-2.0925670000"><ele>305</ele></trkpt>
<trkpt lat="54.3222780000" lon="-2.0925490000"><ele>305</ele><time>2015-10-15T13:53:53Z</time></trkpt>
<trkpt lat="54.3222760000" lon="-2.0925290000"><ele>305</ele><time>2015-10-15T13:53:55Z</time></trkpt>
<trkpt lat="54.3222740000" lon="-2.0925080000"><ele>305</ele><time>2015-10-15T13:53:56Z</time></trkpt>
<trkpt lat="54.3222720000" lon="-2.0924880000"><ele>305</ele><time>2015-10-15T13:53:57Z</time></trkpt>
<trkpt lat="54.3222700000" lon="-2.0924670000"><ele>305</ele><time>2015-10-15T13:53:58Z</time></trkpt>
<trkpt lat="54.3222670000" lon="-2.0924460000"><ele>305</ele></trkpt>
<trkpt lat="54.3222650000" lon="-2.0924240000"><ele>305</ele><time>2015-10-15T13:53:59Z</time></trkpt>
<trkpt lat="54.3222630000" lon="-2.0924030000"><ele>305</ele><time>2015-10-15T13:54:01Z</time></trkpt>
<trkpt lat="54.3222610000" lon="-2.0923840000"><ele>305</ele><time>2015-10-15T13:54:02Z</time></trkpt>
<trkpt lat="54.3222600000" lon="-2.0923630000"><ele>305</ele><time>2015-10-15T13:54:03Z</time></trkpt>
<trkpt lat="54.3222580000" lon="-2.0923420000"><ele>305</ele><time>2015-10-15T13:54:04Z</time></trkpt>
<trkpt lat="54.3222560000" lon="-2.0923220000"><ele>305</ele></trkpt>
<trkpt lat="54.3222540000" lon="-2.0922990000"><ele>305</ele><time>2015-10-15T13:54:05Z</time></trkpt>
<trkpt lat="54.3222520000" lon="-2.0922770000"><ele>305</ele><time>2015-10-15T13:54:06Z</time></trkpt>
<trkpt lat="54.3222500000" lon="-2.0922580000"><ele>305</ele><time>2015-10-15T13:54:08Z</time></trkpt>
<trkpt lat="54.3222480000" lon="-2.0922360000"><ele>305</ele><time>2015-10-15T13:54:09Z</time></trkpt>
<trkpt lat="54.3222460000" lon="-2.0922140000"><ele>305</ele><time>2015-10-15T13:54:10Z</time></trkpt>
<trkpt lat="54.3222440000" lon="-2.0921930000"><ele>305</ele><time>2015-10-15T13:54:11Z</time></trkpt>
<trkpt lat="54.3222420000" lon="-2.0921710000"><ele>305</ele></trkpt>
<trkpt lat="54.3222400000" lon="-2.0921500000"><ele>305</ele><time>2015-10-15T13:54:12Z</time></trkpt>
<trkpt lat="54.3222370000" lon="-2.0921300000"><ele>305</ele><time>2015-10-15T13:54:14Z</time></trkpt>
<trkpt lat="54.3222350000" lon="-2.0921100000"><ele>305</ele><time>2015-10-15T13:54:15Z</time></trkpt>
<trkpt lat="54.3222320000" lon="-2.0920880000"><ele>305</ele><time>2015-10-15T13:54:16Z</time></trkpt>
<trkpt lat="54.3222300000" lon="-2.0920660000"><ele>305</ele><time>2015-10-15T13:54:17Z</time></trkpt>
<trkpt lat="54.3222270000" lon="-2.0920450000"><ele>305</ele></trkpt>
<trkpt lat="54.3222230000" lon="-2.0920230000"><ele>305</ele><time>2015-10-15T13:54:18Z</time></trkpt>
<trkpt lat="54.3222210000" lon="-2.0920010000"><ele>305</ele><time>2015-10-15T13:54:20Z</time></trkpt>
<trkpt lat="54.3222180000" lon="-2.0919780000"><ele>305</ele><time>2015-10-15T13:54:21Z</time></trkpt>
<trkpt lat="54.3222160000" lon="-2.0919550000"><ele>305</ele><time>2015-10-15T13:54:22Z</time></trkpt>
<trkpt lat="54.3222140000" lon="-2.0919330000"><ele>305</ele><time>2015-10-15T13:54:23Z</time></trkpt>
<trkpt lat="54.3222130000" lon="-2.0919120000"><ele>305</ele></trkpt>
<trkpt lat="54.3222110000" lon="-2.0918880000"><ele>305</ele><time>2015-10-15T13:54:24Z</time></trkpt>
<trkpt lat="54.3222070000" lon="-2.0918670000"><ele>305</ele><time>2015-10-15T13:54:26Z</time></trkpt>
<trkpt lat="54.3222050000" lon="-2.0918460000"><ele>305</ele><time>2015-10-15T13:54:27Z</time></trkpt>
<trkpt lat="54.3222030000" lon="-2.0918230000"><ele>305</ele><time>2015-10-15T13:54:28Z</time></trkpt>
<trkpt lat="54.3222000000" lon="-2.0918020000"><ele>305</ele><time>2015-10-15T13:54:29Z</time></trkpt>
<trkpt lat="54.3221980000" lon="-2.0917820000"><ele>305</ele><time>2015-10-15T13:54:30Z</time></trkpt>
<trkpt lat="54.3221960000" lon="-2.0917620000"><ele>305</ele></trkpt>
<trkpt lat="54.3221940000" lon="-2.0917400000"><ele>305</ele><time>2015-10-15T13:54:31Z</time></trkpt>
<trkpt lat="54.3221910000" lon="-2.0917210000"><ele>305</ele><time>2015-10-15T13:54:33Z</time></trkpt>
<trkpt lat="54.3221890000" lon="-2.0917010000"><ele>305</ele><time>2015-10-15T13:54:34Z</time></trkpt>
<trkpt lat="54.3221870000" lon="-2.0916810000"><ele>305</ele><time>2015-10-15T13:54:35Z</time></trkpt>
<trkpt lat="54.3221840000" lon="-2.0916610000"><ele>305</ele><time>2015-10-15T13:54:36Z</time></trkpt>
<trkpt lat="54.3221830000" lon="-2.0916400000"><ele>305</ele></trkpt>
<trkpt lat="54.3221810000" lon="-2.0916180000"><ele>305</ele><time>2015-10-15T13:54:37Z</time></trkpt>
<trkpt lat="54.3221770000" lon="-2.0915740000"><ele>305</ele><time>2015-10-15T13:54:40Z</time></trkpt>
<trkpt lat="54.3221750000" lon="-2.0915520000"><ele>305</ele></trkpt>
<trkpt lat="54.3221730000" lon="-2.0915290000"><ele>305</ele><time>2015-10-15T13:54:41Z</time></trkpt>
<trkpt lat="54.3221690000" lon="-2.0915060000"><ele>305</ele><time>2015-10-15T13:54:43Z</time></trkpt>
<trkpt lat="54.3221660000" lon="-2.0914820000"><ele>305</ele><time>2015-10-15T13:54:44Z</time></trkpt>
<trkpt lat="54.3221640000" lon="-2.0914600000"><ele>305</ele><time>2015-10-15T13:54:45Z</time></trkpt>
<trkpt lat="54.3221620000" lon="-2.0914380000"><ele>305</ele><time>2015-10-15T13:54:46Z</time></trkpt>
<trkpt lat="54.3221590000" lon="-2.0914170000"><ele>305</ele></trkpt>
<trkpt lat="54.3221560000" lon="-2.0913970000"><ele>305</ele><time>2015-10-15T13:54:47Z</time></trkpt>
<trkpt lat="54.3221540000" lon="-2.0913760000"><ele>305</ele><time>2015-10-15T13:54:49Z</time></trkpt>
<trkpt lat="54.3221530000" lon="-2.0913570000"><ele>305</ele><time>2015-10-15T13:54:50Z</time></trkpt>
<trkpt lat="54.3221510000" lon="-2.0913350000"><ele>305</ele><time>2015-10-15T13:54:51Z</time></trkpt>
<trkpt lat="54.3221490000" lon="-2.0913150000"><ele>305</ele><time>2015-10-15T13:54:52Z</time></trkpt>
<trkpt lat="54.3221460000" lon="-2.0912960000"><ele>305</ele></trkpt>
<trkpt lat="54.3221440000" lon="-2.0912770000"><ele>305</ele><time>2015-10-15T13:54:53Z</time></trkpt>
<trkpt lat="54.3221410000" lon="-2.0912580000"><ele>305</ele><time>2015-10-15T13:54:55Z</time></trkpt>
<trkpt lat="54.3221410000" lon="-2.0912580000"><ele>305</ele><time>2015-10-15T13:54:56Z</time></trkpt>
<trkpt lat="54.3221410000" lon="-2.0912570000"><ele>305</ele><time>2015-10-15T13:54:57Z</time></trkpt>
<trkpt lat="54.3221410000" lon="-2.0912560000"><ele>305</ele><time>2015-10-15T13:54:58Z</time></trkpt>
<trkpt lat="54.3221410000" lon="-2.0912550000"><ele>305</ele></trkpt>
<trkpt lat="54.3221320000" lon="-2.0911540000"><ele>305</ele><time>2015-10-15T13:54:59Z</time></trkpt>
<trkpt lat="54.3221300000" lon="-2.0911330000"><ele>305</ele><time>2015-10-15T13:55:01Z</time></trkpt>
<trkpt lat="54.3221270000" lon="-2.0911140000"><ele>305</ele><time>2015-10-15T13:55:02Z</time></trkpt>
<trkpt lat="54.3221230000" lon="-2.0910930000"><ele>305</ele><time>2015-10-15T13:55:03Z</time></trkpt>
<trkpt lat="54.3221200000" lon="-2.0910710000"><ele>305</ele><time>2015-10-15T13:55:04Z</time></trkpt>
<trkpt lat="54.3221170000" lon="-2.0910520000"><ele>305</ele></trkpt>
<trkpt lat="54.3221140000" lon="-2.0910330000"><ele>305</ele><time>2015-10-15T13:55:05Z</time></trkpt>
<trkpt lat="54.3221120000" lon="-2.0910150000"><ele>305</ele><time>2015-10-15T13:55:07Z</time></trkpt>
<trkpt lat="54.3221120000" lon="-2.0910150000"><ele>305</ele><time>2015-10-15T13:55:08Z</time></trkpt>
<trkpt lat="54.3221050000" lon="-2.0909750000"><ele>305</ele><time>2015-10-15T13:55:09Z</time></trkpt>
<trkpt lat="54.3221040000" lon="-2.0909540000"><ele>305</ele><time>2015-10-15T13:55:10Z</time></trkpt>
<trkpt lat="54.3221030000" lon="-2.0909320000"><ele>305</ele><time>2015-10-15T13:55:11Z</time></trkpt>
<trkpt lat="54.3221010000" lon="-2.0909140000"><ele>305</ele></trkpt>
<trkpt lat="54.3220980000" lon="-2.0908950000"><ele>305</ele><time>2015-10-15T13:55:12Z</time></trkpt>
<trkpt lat="54.3220980000" lon="-2.0908740000"><ele>305</ele><time>2015-10-15T13:55:14Z</time></trkpt>
<trkpt lat="54.3220960000" lon="-2.0908540000"><ele>305</ele><time>2015-10-15T13:55:15Z</time></trkpt>
<trkpt lat="54.3220940000" lon="-2.0908360000"><ele>305</ele><time>2015-10-15T13:55:16Z</time></trkpt>
<trkpt lat="54.3220910000" lon="-2.0908170000"><ele>305</ele><time>2015-10-15T13:55:17Z</time></trkpt>
<trkpt lat="54.3220890000" lon="-2.0907980000"><ele>305</ele></trkpt>
<trkpt lat="54.3220880000" lon="-2.0907780000"><ele>305</ele><time>2015-10-15T13:55:18Z</time></trkpt>
<trkpt lat="54.3220850000" lon="-2.0907570000"><ele>305</ele><time>2015-10-15T13:55:20Z</time></trkpt>
<trkpt lat="54.3220830000" lon="-2.0907380000"><ele>305</ele><time>2015-10-15T13:55:21Z</time></trkpt>
<trkpt lat="54.3220810000" lon="-2.0907190000"><ele>305</ele><time>2015-10-15T13:55:22Z</time></trkpt>
<trkpt lat="54.3220790000" lon="-2.0906990000"><ele>305</ele><time>2015-10-15T13:55:23Z</time></trkpt>
<trkpt lat="54.3220790000" lon="-2.0906790000"><ele>300</ele></trkpt>
<trkpt lat="54.3220780000" lon="-2.0906570000"><ele>300</ele><time>2015-10-15T13:55:24Z</time></trkpt>
<trkpt lat="54.3220780000" lon="-2.0906350000"><ele>300</ele><time>2015-10-15T13:55:26Z</time></trkpt>
<trkpt lat="54.3220770000" lon="-2.0906160000"><ele>300</ele><time>2015-10-15T13:55:27Z</time></trkpt>
<trkpt lat="54.3220750000" lon="-2.0905950000"><ele>300</ele><time>2015-10-15T13:55:28Z</time></trkpt>
<trkpt lat="54.3220740000" lon="-2.0905730000"><ele>300</ele><time>2015-10-15T13:55:29Z</time></trkpt>
<trkpt lat="54.3220730000" lon="-2.0905500000"><ele>300</ele><time>2015-10-15T13:55:30Z</time></trkpt>
<trkpt lat="54.3220720000" lon="-2.0905280000"><ele>300</ele></trkpt>
<trkpt lat="54.3220730000" lon="-2.0905080000"><ele>300</ele><time>2015-10-15T13:55:31Z</time></trkpt>
<trkpt lat="54.3220740000" lon="-2.0904890000"><ele>300</ele><time>2015-10-15T13:55:33Z</time></trkpt>
<trkpt lat="54.3220740000" lon="-2.0904890000"><ele>300</ele><time>2015-10-15T13:55:34Z</time></trkpt>
<trkpt lat="54.3220740000" lon="-2.0904890000"><ele>300</ele><time>2015-10-15T13:55:35Z</time></trkpt>
<trkpt lat="54.3220740000" lon="-2.0904880000"><ele>300</ele><time>2015-10-15T13:55:36Z</time></trkpt>
<trkpt lat="54.3220740000" lon="-2.0904870000"><ele>300</ele></trkpt>
<trkpt lat="54.3220730000" lon="-2.0904860000"><ele>300</ele><time>2015-10-15T13:55:37Z</time></trkpt>
<trkpt lat="54.3220730000" lon="-2.0904810000"><ele>300</ele><time>2015-10-15T13:55:40Z</time></trkpt>
<trkpt lat="54.3220720000" lon="-2.0904770000"><ele>300</ele></trkpt>
<trkpt lat="54.3220720000" lon="-2.0904730000"><ele>300</ele><time>2015-10-15T13:55:41Z</time></trkpt>
<trkpt lat="54.3220720000" lon="-2.0904680000"><ele>300</ele><time>2015-10-15T13:55:43Z</time></trkpt>
<trkpt lat="54.3220710000" lon="-2.0904630000"><ele>300</ele><time>2015-10-15T13:55:44Z</time></trkpt>
<trkpt lat="54.3220710000" lon="-2.0904560000"><ele>300</ele><time>2015-10-15T13:55:45Z</time></trkpt>
<trkpt lat="54.3220700000" lon="-2.0904480000"><ele>300</ele><time>2015-10-15T13:55:46Z</time></trkpt>
<trkpt lat="54.3220700000" lon="-2.0904400000"><ele>300</ele></trkpt>
<trkpt lat="54.3220690000" lon="-2.0904310000"><ele>300</ele><time>2015-10-15T13:55:47Z</time></trkpt>
<trkpt lat="54.3220680000" lon="-2.0904210000"><ele>300</ele><time>2015-10-15T13:55:49Z</time></trkpt>
<trkpt lat="54.3220670000" lon="-2.0904100000"><ele>300</ele><time>2015-10-15T13:55:50Z</time></trkpt>
<trkpt lat="54.3220660000" lon="-2.0903990000"><ele>300</ele><time>2015-10-15T13:55:51Z</time></trkpt>
<trkpt lat="54.3220420000" lon="-2.0901450000"><ele>300</ele><time>2015-10-15T13:55:52Z</time></trkpt>
<trkpt lat="54.3220360000" lon="-2.0901250000"><ele>300</ele><time>2015-10-15T13:55:53Z</time></trkpt>
<trkpt lat="54.3220290000" lon="-2.0901050000"><ele>300</ele></trkpt>
<trkpt lat="54.3220230000" lon="-2.0900840000"><ele>300</ele><time>2015-10-15T13:55:54Z</time></trkpt>
<trkpt lat="54.3220180000" lon="-2.0900640000"><ele>300</ele><time>2015-10-15T13:55:56Z</time></trkpt>
<trkpt lat="54.3220140000" lon="-2.0900420000"><ele>300</ele><time>2015-10-15T13:55:57Z</time></trkpt>
<trkpt lat="54.3220120000" lon="-2.0900180000"><ele>300</ele><time>2015-10-15T13:55:58Z</time></trkpt>
<trkpt lat="54.3220090000" lon="-2.0899940000"><ele>300</ele><time>2015-10-15T13:55:59Z</time></trkpt>
<trkpt lat="54.3220070000" lon="-2.0899710000"><ele>300</ele></trkpt>
<trkpt lat="54.3220050000" lon="-2.0899480000"><ele>300</ele><time>2015-10-15T13:56:00Z</time></trkpt>
<trkpt lat="54.3220030000" lon="-2.0899240000"><ele>300</ele><time>2015-10-15T13:56:02Z</time></trkpt>
<trkpt lat="54.3220020000" lon="-2.0899020000"><ele>300</ele><time>2015-10-15T13:56:03Z</time></trkpt>
<trkpt lat="54.3220000000" lon="-2.0898800000"><ele>300</ele><time>2015-10-15T13:56:04Z</time></trkpt>
<trkpt lat="54.3219980000" lon="-2.0898590000"><ele>300</ele><time>2015-10-15T13:56:05Z</time></trkpt>
<trkpt lat="54.3219940000" lon="-2.0898380000"><ele>300</ele></trkpt>
<trkpt lat="54.3219920000" lon="-2.0898180000"><ele>300</ele><time>2015-10-15T13:56:06Z</time></trkpt>
<trkpt lat="54.3219890000" lon="-2.0897990000"><ele>300</ele><time>2015-10-15T13:56:08Z</time></trkpt>
<trkpt lat="54.3219880000" lon="-2.0897810000"><ele>300</ele><time>2015-10-15T13:56:09Z</time></trkpt>
<trkpt lat="54.3219880000" lon="-2.0897800000"><ele>300</ele><time>2015-10-15T13:56:10Z</time></trkpt>
<trkpt lat="54.3219880000" lon="-2.0897800000"><ele>300</ele><time>2015-10-15T13:56:11Z</time></trkpt>
<trkpt lat="54.3219880000" lon="-2.0897790000"><ele>300</ele></trkpt>
<trkpt lat="54.3219760000" lon="-2.0897050000"><ele>300</ele><time>2015-10-15T13:56:12Z</time></trkpt>
<trkpt lat="54.3219740000" lon="-2.0896870000"><ele>300</ele><time>2015-10-15T13:56:13Z</time></trkpt>
<trkpt lat="54.3219730000" lon="-2.0896650000"><ele>300</ele><time>2015-10-15T13:56:15Z</time></trkpt>
<trkpt lat="54.3219730000" lon="-2.0896650000"><ele>300</ele><time>2015-10-15T13:56:16Z</time></trkpt>
<trkpt lat="54.3219700000" lon="-2.0896250000"><ele>300</ele><time>2015-10-15T13:56:17Z</time></trkpt>
<trkpt lat="54.3219680000" lon="-2.0896040000"><ele>300</ele><time>2015-10-15T13:56:18Z</time></trkpt>
<trkpt lat="54.3219670000" lon="-2.0895820000"><ele>300</ele></trkpt>
<trkpt lat="54.3219650000" lon="-2.0895610000"><ele>300</ele><time>2015-10-15T13:56:19Z</time></trkpt>
<trkpt lat="54.3219620000" lon="-2.0895440000"><ele>300</ele><time>2015-10-15T13:56:21Z</time></trkpt>
<trkpt lat="54.3219620000" lon="-2.0895440000"><ele>300</ele><time>2015-10-15T13:56:22Z</time></trkpt>
<trkpt lat="54.3219620000" lon="-2.0895430000"><ele>300</ele><time>2015-10-15T13:56:23Z</time></trkpt>
<trkpt lat="54.3219620000" lon="-2.0895430000"><ele>300</ele><time>2015-10-15T13:56:24Z</time></trkpt>
<trkpt lat="54.3219620000" lon="-2.0895420000"><ele>300</ele></trkpt>
<trkpt lat="54.3219420000" lon="-2.0893830000"><ele>300</ele><time>2015-10-15T13:56:29Z</time></trkpt>
<trkpt lat="54.3219420000" lon="-2.0893380000"><ele>300</ele><time>2015-10-15T13:56:30Z</time></trkpt>
<trkpt lat="54.3219380000" lon="-2.0893000000"><ele>300</ele><time>2015-10-15T13:56:33Z</time></trkpt>
<trkpt lat="54.3219330000" lon="-2.0892600000"><ele>300</ele><time>2015-10-15T13:56:35Z</time></trkpt>
<trkpt lat="54.3219310000" lon="-2.0892360000"><ele>300</ele><time>2015-10-15T13:56:36Z</time></trkpt>
<trkpt lat="54.3219290000" lon="-2.0892130000"><ele>300</ele><time>2015-10-15T13:56:37Z</time></trkpt>
<trkpt lat="54.3219270000" lon="-2.0891910000"><ele>300</ele></trkpt>
<trkpt lat="54.3219230000" lon="-2.0891510000"><ele>300</ele><time>2015-10-15T13:56:40Z</time></trkpt>
<trkpt lat="54.3219210000" lon="-2.0891310000"><ele>300</ele></trkpt>
<trkpt lat="54.3219190000" lon="-2.0891100000"><ele>300</ele><time>2015-10-15T13:56:42Z</time></trkpt>
<trkpt lat="54.3219170000" lon="-2.0890900000"><ele>300</ele><time>2015-10-15T13:56:43Z</time></trkpt>
<trkpt lat="54.3219150000" lon="-2.0890690000"><ele>300</ele><time>2015-10-15T13:56:44Z</time></trkpt>
<trkpt lat="54.3219140000" lon="-2.0890490000"><ele>300</ele><time>2015-10-15T13:56:45Z</time></trkpt>
<trkpt lat="54.3219120000" lon="-2.0890290000"><ele>300</ele><time>2015-10-15T13:56:46Z</time></trkpt>
<trkpt lat="54.3219100000" lon="-2.0890090000"><ele>300</ele></trkpt>
<trkpt lat="54.3219080000" lon="-2.0889900000"><ele>300</ele><time>2015-10-15T13:56:47Z</time></trkpt>
<trkpt lat="54.3219050000" lon="-2.0889690000"><ele>300</ele><time>2015-10-15T13:56:49Z</time></trkpt>
<trkpt lat="54.3219020000" lon="-2.0889470000"><ele>300</ele><time>2015-10-15T13:56:50Z</time></trkpt>
<trkpt lat="54.3219000000" lon="-2.0889260000"><ele>300</ele><time>2015-10-15T13:56:51Z</time></trkpt>
<trkpt lat="54.3218970000" lon="-2.0889060000"><ele>300</ele><time>2015-10-15T13:56:52Z</time></trkpt>
<trkpt lat="54.3218930000" lon="-2.0888850000"><ele>300</ele></trkpt>
<trkpt lat="54.3218890000" lon="-2.0888620000"><ele>300</ele><time>2015-10-15T13:56:53Z</time></trkpt>
<trkpt lat="54.3218860000" lon="-2.0888400000"><ele>300</ele><time>2015-10-15T13:56:55Z</time></trkpt>
<trkpt lat="54.3218810000" lon="-2.0888210000"><ele>300</ele><time>2015-10-15T13:56:56Z</time></trkpt>
<trkpt lat="54.3218790000" lon="-2.0888010000"><ele>300</ele><time>2015-10-15T13:56:57Z</time></trkpt>
<trkpt lat="54.3218770000" lon="-2.0887780000"><ele>300</ele><time>2015-10-15T13:56:58Z</time></trkpt>
<trkpt lat="54.3218740000" lon="-2.0887560000"><ele>300</ele></trkpt>
<trkpt lat="54.3218710000" lon="-2.0887350000"><ele>300</ele><time>2015-10-15T13:56:59Z</time></trkpt>
<trkpt lat="54.3218680000" lon="-2.0887130000"><ele>300</ele><time>2015-10-15T13:57:01Z</time></trkpt>
<trkpt lat="54.3218650000" lon="-2.0886920000"><ele>300</ele><time>2015-10-15T13:57:02Z</time></trkpt>
<trkpt lat="54.3218620000" lon="-2.0886710000"><ele>300</ele><time>2015-10-15T13:57:03Z</time></trkpt>
<trkpt lat="54.3218590000" lon="-2.0886500000"><ele>300</ele><time>2015-10-15T13:57:04Z</time></trkpt>
<trkpt lat="54.3218560000" lon="-2.0886300000"><ele>300</ele></trkpt>
<trkpt lat="54.3218540000" lon="-2.0886090000"><ele>300</ele><time>2015-10-15T13:57:05Z</time></trkpt>
<trkpt lat="54.3218520000" lon="-2.0885870000"><ele>300</ele><time>2015-10-15T13:57:07Z</time></trkpt>
<trkpt lat="54.3218500000" lon="-2.0885640000"><ele>300</ele><time>2015-10-15T13:57:08Z</time></trkpt>
<trkpt lat="54.3218470000" lon="-2.0885430000"><ele>300</ele><time>2015-10-15T13:57:09Z</time></trkpt>
<trkpt lat="54.3218440000" lon="-2.0885200000"><ele>300</ele><time>2015-10-15T13:57:10Z</time></trkpt>
<trkpt lat="54.3218420000" lon="-2.0884970000"><ele>300</ele><time>2015-10-15T13:57:11Z</time></trkpt>
<trkpt lat="54.3218400000" lon="-2.0884720000"><ele>300</ele></trkpt>
<trkpt lat="54.3218380000" lon="-2.0884460000"><ele>300</ele><time>2015-10-15T13:57:12Z</time></trkpt>
<trkpt lat="54.3218350000" lon="-2.0884240000"><ele>300</ele><time>2015-10-15T13:57:14Z</time></trkpt>
<trkpt lat="54.3218320000" lon="-2.0884050000"><ele>300</ele><time>2015-10-15T13:57:15Z</time></trkpt>
<trkpt lat="54.3218300000" lon="-2.0883840000"><ele>300</ele><time>2015-10-15T13:57:16Z</time></trkpt>
<trkpt lat="54.3218280000" lon="-2.0883620000"><ele>300</ele><time>2015-10-15T13:57:17Z</time></trkpt>
<trkpt lat="54.3218270000" lon="-2.0883400000"><ele>300</ele></trkpt>
<trkpt lat="54.3218260000" lon="-2.0883180000"><ele>300</ele><time>2015-10-15T13:57:18Z</time></trkpt>
<trkpt lat="54.3218230000" lon="-2.0882960000"><ele>300</ele><time>2015-10-15T13:57:20Z</time></trkpt>
<trkpt lat="54.3218220000" lon="-2.0882730000"><ele>300</ele><time>2015-10-15T13:57:21Z</time></trkpt>
<trkpt lat="54.3218200000" lon="-2.0882530000"><ele>300</ele><time>2015-10-15T13:57:22Z</time></trkpt>
<trkpt lat="54.3218180000" lon="-2.0882320000"><ele>300</ele><time>2015-10-15T13:57:23Z</time></trkpt>
<trkpt lat="54.3218160000" lon="-2.0882110000"><ele>300</ele></trkpt>
<trkpt lat="54.3218130000" lon="-2.0881900000"><ele>300</ele><time>2015-10-15T13:57:24Z</time></trkpt>
<trkpt lat="54.3218110000" lon="-2.0881720000"><ele>300</ele><time>2015-10-15T13:57:26Z</time></trkpt>
<trkpt lat="54.3218090000" lon="-2.0881500000"><ele>300</ele><time>2015-10-15T13:57:27Z</time></trkpt>
<trkpt lat="54.3218070000" lon="-2.0881270000"><ele>300</ele><time>2015-10-15T13:57:28Z</time></trkpt>
<trkpt lat="54.3218050000" lon="-2.0881030000"><ele>300</ele><time>2015-10-15T13:57:29Z</time></trkpt>
<trkpt lat="54.3218020000" lon="-2.0880830000"><ele>300</ele></trkpt>
<trkpt lat="54.3218010000" lon="-2.0880610000"><ele>300</ele><time>2015-10-15T13:57:30Z</time></trkpt>
<trkpt lat="54.3217980000" lon="-2.0880390000"><ele>300</ele><time>2015-10-15T13:57:31Z</time></trkpt>
<trkpt lat="54.3217960000" lon="-2.0880180000"><ele>300</ele><time>2015-10-15T13:57:33Z</time></trkpt>
<trkpt lat="54.3217960000" lon="-2.0880010000"><ele>300</ele><time>2015-10-15T13:57:34Z</time></trkpt>
<trkpt lat="54.3217960000" lon="-2.0880010000"><ele>300</ele><time>2015-10-15T13:57:42Z</time></trkpt>
<trkpt lat="54.3217960000" lon="-2.0880100000"><ele>300</ele><time>2015-10-15T13:58:47Z</time></trkpt>
<trkpt lat="54.3217950000" lon="-2.0880100000"><ele>300</ele><time>2015-10-15T13:58:49Z</time></trkpt>
<trkpt lat="54.3217930000" lon="-2.0880110000"><ele>300</ele><time>2015-10-15T13:58:50Z</time></trkpt>
<trkpt lat="54.3217460000" lon="-2.0880150000"><ele>300</ele><time>2015-10-15T13:58:51Z</time></trkpt>
<trkpt lat="54.3217310000" lon="-2.0880100000"><ele>283</ele><time>2015-10-15T13:58:52Z</time></trkpt>
<trkpt lat="54.3217170000" lon="-2.0880050000"><ele>283</ele></trkpt>
<trkpt lat="54.3217040000" lon="-2.0880000000"><ele>283</ele><time>2015-10-15T13:58:53Z</time></trkpt>
<trkpt lat="54.3216900000" lon="-2.0879930000"><ele>283</ele><time>2015-10-15T13:58:55Z</time></trkpt>
<trkpt lat="54.3216780000" lon="-2.0879840000"><ele>283</ele><time>2015-10-15T13:58:56Z</time></trkpt>
<trkpt lat="54.3216670000" lon="-2.0879740000"><ele>283</ele><time>2015-10-15T13:58:57Z</time></trkpt>
<trkpt lat="54.3216550000" lon="-2.0879640000"><ele>283</ele><time>2015-10-15T13:58:58Z</time></trkpt>
<trkpt lat="54.3216420000" lon="-2.0879510000"><ele>283</ele></trkpt>
<trkpt lat="54.3216290000" lon="-2.0879370000"><ele>283</ele><time>2015-10-15T13:58:59Z</time></trkpt>
<trkpt lat="54.3216170000" lon="-2.0879270000"><ele>283</ele><time>2015-10-15T13:59:01Z</time></trkpt>
<trkpt lat="54.3216040000" lon="-2.0879210000"><ele>283</ele><time>2015-10-15T13:59:02Z</time></trkpt>
<trkpt lat="54.3215910000" lon="-2.0879160000"><ele>283</ele><time>2015-10-15T13:59:03Z</time></trkpt>
<trkpt lat="54.3215780000" lon="-2.0879110000"><ele>283</ele><time>2015-10-15T13:59:04Z</time></trkpt>
<trkpt lat="54.3215650000" lon="-2.0879030000"><ele>283</ele></trkpt>
<trkpt lat="54.3215530000" lon="-2.0878940000"><ele>283</ele><time>2015-10-15T13:59:05Z</time></trkpt>
<trkpt lat="54.3215390000" lon="-2.0878810000"><ele>283</ele><time>2015-10-15T13:59:07Z</time></trkpt>
<trkpt lat="54.3214950000" lon="-2.0878580000"><ele>283</ele><time>2015-10-15T13:59:11Z</time></trkpt>
<trkpt lat="54.3214680000" lon="-2.0878370000"><ele>283</ele><time>2015-10-15T13:59:12Z</time></trkpt>
<trkpt lat="54.3213680000" lon="-2.0877540000"><ele>283</ele><time>2015-10-15T13:59:22Z</time></trkpt>
<trkpt lat="54.3213480000" lon="-2.0877340000"><ele>283</ele><time>2015-10-15T13:59:23Z</time></trkpt>
<trkpt lat="54.3212600000" lon="-2.0876320000"><ele>283</ele><time>2015-10-15T13:59:33Z</time></trkpt>
<trkpt lat="54.3212400000" lon="-2.0876040000"><ele>283</ele><time>2015-10-15T13:59:35Z</time></trkpt>
<trkpt lat="54.3212290000" lon="-2.0875920000"><ele>279</ele><time>2015-10-15T13:59:40Z</time></trkpt>
<trkpt lat="54.3211790000" lon="-2.0875260000"><ele>279</ele></trkpt>
<trkpt lat="54.3211690000" lon="-2.0875150000"><ele>279</ele><time>2015-10-15T13:59:42Z</time></trkpt>
<trkpt lat="54.3211540000" lon="-2.0874910000"><ele>279</ele><time>2015-10-15T13:59:52Z</time></trkpt>
<trkpt lat="54.3211470000" lon="-2.0874780000"><ele>279</ele><time>2015-10-15T13:59:56Z</time></trkpt>
<trkpt lat="54.3211440000" lon="-2.0874720000"><ele>279</ele><time>2015-10-15T13:59:57Z</time></trkpt>
<trkpt lat="54.3211410000" lon="-2.0874660000"><ele>279</ele><time>2015-10-15T13:59:58Z</time></trkpt>
<trkpt lat="54.3211370000" lon="-2.0874590000"><ele>279</ele></trkpt>
<trkpt lat="54.3211330000" lon="-2.0874520000"><ele>279</ele><time>2015-10-15T13:59:59Z</time></trkpt>
<trkpt lat="54.3211290000" lon="-2.0874440000"><ele>279</ele><time>2015-10-15T14:00:01Z</time></trkpt>
<trkpt lat="54.3211250000" lon="-2.0874350000"><ele>279</ele><time>2015-10-15T14:00:02Z</time></trkpt>
<trkpt lat="54.3210200000" lon="-2.0872120000"><ele>279</ele><time>2015-10-15T14:00:03Z</time></trkpt>
<trkpt lat="54.3210070000" lon="-2.0871900000"><ele>279</ele><time>2015-10-15T14:00:04Z</time></trkpt>
<trkpt lat="54.3210000000" lon="-2.0871730000"><ele>279</ele><time>2015-10-15T14:00:11Z</time></trkpt>
<trkpt lat="54.3210000000" lon="-2.0871710000"><ele>279</ele></trkpt>
<trkpt lat="54.3209990000" lon="-2.0871690000"><ele>279</ele><time>2015-10-15T14:00:12Z</time></trkpt>
<trkpt lat="54.3209980000" lon="-2.0871670000"><ele>279</ele><time>2015-10-15T14:00:14Z</time></trkpt>
<trkpt lat="54.3209970000" lon="-2.0871630000"><ele>279</ele><time>2015-10-15T14:00:15Z</time></trkpt>
<trkpt lat="54.3209960000" lon="-2.0871600000"><ele>279</ele><time>2015-10-15T14:00:16Z</time></trkpt>
<trkpt lat="54.3209950000" lon="-2.0871560000"><ele>279</ele><time>2015-10-15T14:00:17Z</time></trkpt>
<trkpt lat="54.3209930000" lon="-2.0871510000"><ele>279</ele></trkpt>
<trkpt lat="54.3209910000" lon="-2.0871460000"><ele>279</ele><time>2015-10-15T14:00:18Z</time></trkpt>
<trkpt lat="54.3209890000" lon="-2.0871400000"><ele>279</ele><time>2015-10-15T14:00:20Z</time></trkpt>
<trkpt lat="54.3209860000" lon="-2.0871340000"><ele>279</ele><time>2015-10-15T14:00:21Z</time></trkpt>
<trkpt lat="54.3209830000" lon="-2.0871270000"><ele>279</ele><time>2015-10-15T14:00:22Z</time></trkpt>
<trkpt lat="54.3209800000" lon="-2.0871200000"><ele>279</ele><time>2015-10-15T14:00:23Z</time></trkpt>
<trkpt lat="54.3209770000" lon="-2.0871130000"><ele>279</ele></trkpt>
<trkpt lat="54.3209730000" lon="-2.0871050000"><ele>279</ele><time>2015-10-15T14:00:24Z</time></trkpt>
<trkpt lat="54.3209700000" lon="-2.0870970000"><ele>279</ele><time>2015-10-15T14:00:26Z</time></trkpt>
<trkpt lat="54.3209660000" lon="-2.0870880000"><ele>279</ele><time>2015-10-15T14:00:27Z</time></trkpt>
<trkpt lat="54.3208670000" lon="-2.0868740000"><ele>279</ele><time>2015-10-15T14:00:28Z</time></trkpt>
<trkpt lat="54.3208590000" lon="-2.0868610000"><ele>279</ele><time>2015-10-15T14:00:29Z</time></trkpt>
<trkpt lat="54.3208510000" lon="-2.0868510000"><ele>279</ele><time>2015-10-15T14:00:30Z</time></trkpt>
<trkpt lat="54.3208430000" lon="-2.0868400000"><ele>279</ele></trkpt>
<trkpt lat="54.3208350000" lon="-2.0868280000"><ele>279</ele><time>2015-10-15T14:00:31Z</time></trkpt>
<trkpt lat="54.3208270000" lon="-2.0868150000"><ele>279</ele><time>2015-10-15T14:00:33Z</time></trkpt>
<trkpt lat="54.3208270000" lon="-2.0868150000"><ele>279</ele><time>2015-10-15T14:00:34Z</time></trkpt>
<trkpt lat="54.3208260000" lon="-2.0868140000"><ele>279</ele><time>2015-10-15T14:00:35Z</time></trkpt>
<trkpt lat="54.3208260000" lon="-2.0868140000"><ele>279</ele><time>2015-10-15T14:00:36Z</time></trkpt>
<trkpt lat="54.3208260000" lon="-2.0868130000"><ele>279</ele></trkpt>
<trkpt lat="54.3208250000" lon="-2.0868120000"><ele>279</ele><time>2015-10-15T14:00:37Z</time></trkpt>
<trkpt lat="54.3208230000" lon="-2.0868100000"><ele>279</ele><time>2015-10-15T14:00:40Z</time></trkpt>
<trkpt lat="54.3208220000" lon="-2.0868070000"><ele>279</ele></trkpt>
<trkpt lat="54.3208200000" lon="-2.0868050000"><ele>279</ele><time>2015-10-15T14:00:41Z</time></trkpt>
<trkpt lat="54.3208180000" lon="-2.0868020000"><ele>279</ele><time>2015-10-15T14:00:43Z</time></trkpt>
<trkpt lat="54.3208150000" lon="-2.0867980000"><ele>279</ele><time>2015-10-15T14:00:44Z</time></trkpt>
<trkpt lat="54.3208120000" lon="-2.0867940000"><ele>279</ele><time>2015-10-15T14:00:45Z</time></trkpt>
<trkpt lat="54.3207330000" lon="-2.0866620000"><ele>279</ele><time>2015-10-15T14:00:46Z</time></trkpt>
<trkpt lat="54.3207280000" lon="-2.0866490000"><ele>279</ele></trkpt>
<trkpt lat="54.3207200000" lon="-2.0866370000"><ele>279</ele><time>2015-10-15T14:00:47Z</time></trkpt>
<trkpt lat="54.3207150000" lon="-2.0866280000"><ele>279</ele><time>2015-10-15T14:00:49Z</time></trkpt>
<trkpt lat="54.3207150000" lon="-2.0866280000"><ele>279</ele><time>2015-10-15T14:00:51Z</time></trkpt>
<trkpt lat="54.3207150000" lon="-2.0866280000"><ele>279</ele><time>2015-10-15T14:00:52Z</time></trkpt>
<trkpt lat="54.3207140000" lon="-2.0866270000"><ele>279</ele><time>2015-10-15T14:00:53Z</time></trkpt>
<trkpt lat="54.3207140000" lon="-2.0866260000"><ele>279</ele></trkpt>
<trkpt lat="54.3206800000" lon="-2.0865440000"><ele>279</ele><time>2015-10-15T14:00:54Z</time></trkpt>
<trkpt lat="54.3206750000" lon="-2.0865240000"><ele>279</ele><time>2015-10-15T14:00:56Z</time></trkpt>
<trkpt lat="54.3206690000" lon="-2.0865070000"><ele>279</ele><time>2015-10-15T14:00:57Z</time></trkpt>
<trkpt lat="54.3206610000" lon="-2.0864920000"><ele>279</ele><time>2015-10-15T14:00:58Z</time></trkpt>
<trkpt lat="54.3206520000" lon="-2.0864770000"><ele>279</ele><time>2015-10-15T14:00:59Z</time></trkpt>
<trkpt lat="54.3206440000" lon="-2.0864620000"><ele>279</ele></trkpt>
<trkpt lat="54.3206360000" lon="-2.0864500000"><ele>279</ele><time>2015-10-15T14:01:00Z</time></trkpt>
<trkpt lat="54.3206300000" lon="-2.0864370000"><ele>279</ele><time>2015-10-15T14:01:02Z</time></trkpt>
<trkpt lat="54.3206300000" lon="-2.0864370000"><ele>279</ele><time>2015-10-15T14:01:03Z</time></trkpt>
<trkpt lat="54.3206300000" lon="-2.0864370000"><ele>279</ele><time>2015-10-15T14:01:04Z</time></trkpt>
<trkpt lat="54.3206300000" lon="-2.0864370000"><ele>279</ele><time>2015-10-15T14:01:05Z</time></trkpt>
<trkpt lat="54.3206290000" lon="-2.0864360000"><ele>279</ele></trkpt>
<trkpt lat="54.3206290000" lon="-2.0864350000"><ele>279</ele><time>2015-10-15T14:01:06Z</time></trkpt>
<trkpt lat="54.3206280000" lon="-2.0864330000"><ele>279</ele><time>2015-10-15T14:01:08Z</time></trkpt>
<trkpt lat="54.3206270000" lon="-2.0864310000"><ele>279</ele><time>2015-10-15T14:01:09Z</time></trkpt>
<trkpt lat="54.3206250000" lon="-2.0864290000"><ele>279</ele><time>2015-10-15T14:01:10Z</time></trkpt>
<trkpt lat="54.3206230000" lon="-2.0864260000"><ele>279</ele><time>2015-10-15T14:01:11Z</time></trkpt>
<trkpt lat="54.3206210000" lon="-2.0864240000"><ele>279</ele><time>2015-10-15T14:01:12Z</time></trkpt>
<trkpt lat="54.3206190000" lon="-2.0864210000"><ele>279</ele></trkpt>
<trkpt lat="54.3206170000" lon="-2.0864180000"><ele>279</ele><time>2015-10-15T14:01:13Z</time></trkpt>
<trkpt lat="54.3206150000" lon="-2.0864150000"><ele>279</ele><time>2015-10-15T14:01:15Z</time></trkpt>
<trkpt lat="54.3206120000" lon="-2.0864130000"><ele>279</ele><time>2015-10-15T14:01:16Z</time></trkpt>
<trkpt lat="54.3206100000" lon="-2.0864100000"><ele>279</ele><time>2015-10-15T14:01:17Z</time></trkpt>
<trkpt lat="54.3206080000" lon="-2.0864070000"><ele>279</ele><time>2015-10-15T14:01:18Z</time></trkpt>
<trkpt lat="54.3206060000" lon="-2.0864050000"><ele>279</ele></trkpt>
<trkpt lat="54.3206040000" lon="-2.0864020000"><ele>279</ele><time>2015-10-15T14:01:19Z</time></trkpt>
<trkpt lat="54.3206020000" lon="-2.0864000000"><ele>279</ele><time>2015-10-15T14:01:21Z</time></trkpt>
<trkpt lat="54.3206000000" lon="-2.0863970000"><ele>279</ele><time>2015-10-15T14:01:22Z</time></trkpt>
<trkpt lat="54.3205980000" lon="-2.0863950000"><ele>279</ele><time>2015-10-15T14:01:23Z</time></trkpt>
<trkpt lat="54.3205960000" lon="-2.0863920000"><ele>279</ele><time>2015-10-15T14:01:24Z</time></trkpt>
<trkpt lat="54.3205940000" lon="-2.0863890000"><ele>279</ele></trkpt>
<trkpt lat="54.3205920000" lon="-2.0863870000"><ele>279</ele><time>2015-10-15T14:01:25Z</time></trkpt>
<trkpt lat="54.3205900000" lon="-2.0863850000"><ele>279</ele><time>2015-10-15T14:01:27Z</time></trkpt>
<trkpt lat="54.3205880000" lon="-2.0863830000"><ele>279</ele><time>2015-10-15T14:01:28Z</time></trkpt>
<trkpt lat="54.3205840000" lon="-2.0863780000"><ele>279</ele><time>2015-10-15T14:01:29Z</time></trkpt>
<trkpt lat="54.3205810000" lon="-2.0863760000"><ele>279</ele><time>2015-10-15T14:01:31Z</time></trkpt>
<trkpt lat="54.3205800000" lon="-2.0863750000"><ele>279</ele><time>2015-10-15T14:01:32Z</time></trkpt>
<trkpt lat="54.3205790000" lon="-2.0863740000"><ele>279</ele><time>2015-10-15T14:01:33Z</time></trkpt>
<trkpt lat="54.3205770000" lon="-2.0863720000"><ele>279</ele><time>2015-10-15T14:01:34Z</time></trkpt>
<trkpt lat="54.3205750000" lon="-2.0863710000"><ele>279</ele></trkpt>
<trkpt lat="54.3205740000" lon="-2.0863700000"><ele>279</ele><time>2015-10-15T14:01:35Z</time></trkpt>
<trkpt lat="54.3205670000" lon="-2.0863630000"><ele>279</ele><time>2015-10-15T14:01:40Z</time></trkpt>
<trkpt lat="54.3205660000" lon="-2.0863610000"><ele>279</ele><time>2015-10-15T14:01:41Z</time></trkpt>
<trkpt lat="54.3205650000" lon="-2.0863590000"><ele>279</ele><time>2015-10-15T14:01:42Z</time></trkpt>
<trkpt lat="54.3205650000" lon="-2.0863570000"><ele>279</ele><time>2015-10-15T14:01:44Z</time></trkpt>
<trkpt lat="54.3205640000" lon="-2.0863560000"><ele>279</ele><time>2015-10-15T14:01:45Z</time></trkpt>
<trkpt lat="54.3205580000" lon="-2.0863490000"><ele>279</ele><time>2015-10-15T14:01:51Z</time></trkpt>
<trkpt lat="54.3205570000" lon="-2.0863480000"><ele>279</ele><time>2015-10-15T14:01:52Z</time></trkpt>
<trkpt lat="54.3205560000" lon="-2.0863470000"><ele>279</ele><time>2015-10-15T14:01:53Z</time></trkpt>
<trkpt lat="54.3205550000" lon="-2.0863470000"><ele>279</ele></trkpt>
<trkpt lat="54.3205530000" lon="-2.0863470000"><ele>279</ele><time>2015-10-15T14:01:54Z</time></trkpt>
<trkpt lat="54.3205010000" lon="-2.0863850000"><ele>279</ele><time>2015-10-15T14:01:57Z</time></trkpt>
<trkpt lat="54.3204900000" lon="-2.0864010000"><ele>279</ele><time>2015-10-15T14:01:58Z</time></trkpt>
<trkpt lat="54.3204800000" lon="-2.0864160000"><ele>279</ele><time>2015-10-15T14:01:59Z</time></trkpt>
<trkpt lat="54.3204700000" lon="-2.0864330000"><ele>279</ele><time>2015-10-15T14:02:00Z</time></trkpt>
<trkpt lat="54.3204610000" lon="-2.0864460000"><ele>279</ele></trkpt>
<trkpt lat="54.3204520000" lon="-2.0864530000"><ele>279</ele><time>2015-10-15T14:02:02Z</time></trkpt>
<trkpt lat="54.3204410000" lon="-2.0864660000"><ele>279</ele><time>2015-10-15T14:02:03Z</time></trkpt>
<trkpt lat="54.3204300000" lon="-2.0864760000"><ele>279</ele><time>2015-10-15T14:02:04Z</time></trkpt>
<trkpt lat="54.3204190000" lon="-2.0864870000"><ele>279</ele><time>2015-10-15T14:02:05Z</time></trkpt>
<trkpt lat="54.3204090000" lon="-2.0864990000"><ele>279</ele><time>2015-10-15T14:02:06Z</time></trkpt>
<trkpt lat="54.3204000000" lon="-2.0865100000"><ele>279</ele></trkpt>
<trkpt lat="54.3203930000" lon="-2.0865170000"><ele>279</ele><time>2015-10-15T14:02:07Z</time></trkpt>
<trkpt lat="54.3203850000" lon="-2.0865250000"><ele>279</ele><time>2015-10-15T14:02:09Z</time></trkpt>
<trkpt lat="54.3203850000" lon="-2.0865250000"><ele>279</ele><time>2015-10-15T14:02:10Z</time></trkpt>
<trkpt lat="54.3203850000" lon="-2.0865250000"><ele>279</ele><time>2015-10-15T14:02:11Z</time></trkpt>
<trkpt lat="54.3203850000" lon="-2.0865260000"><ele>279</ele><time>2015-10-15T14:02:12Z</time></trkpt>
<trkpt lat="54.3203840000" lon="-2.0865270000"><ele>279</ele><time>2015-10-15T14:02:13Z</time></trkpt>
<trkpt lat="54.3203840000" lon="-2.0865280000"><ele>279</ele></trkpt>
<trkpt lat="54.3203820000" lon="-2.0865290000"><ele>279</ele><time>2015-10-15T14:02:14Z</time></trkpt>
<trkpt lat="54.3203810000" lon="-2.0865310000"><ele>279</ele><time>2015-10-15T14:02:16Z</time></trkpt>
<trkpt lat="54.3203800000" lon="-2.0865340000"><ele>279</ele><time>2015-10-15T14:02:17Z</time></trkpt>
<trkpt lat="54.3203780000" lon="-2.0865370000"><ele>279</ele><time>2015-10-15T14:02:18Z</time></trkpt>
<trkpt lat="54.3203760000" lon="-2.0865410000"><ele>279</ele><time>2015-10-15T14:02:19Z</time></trkpt>
<trkpt lat="54.3203740000" lon="-2.0865460000"><ele>279</ele><time>2015-10-15T14:02:20Z</time></trkpt>
<trkpt lat="54.3203710000" lon="-2.0865510000"><ele>279</ele></trkpt>
<trkpt lat="54.3203680000" lon="-2.0865570000"><ele>279</ele><time>2015-10-15T14:02:21Z</time></trkpt>
<trkpt lat="54.3203650000" lon="-2.0865630000"><ele>279</ele><time>2015-10-15T14:02:23Z</time></trkpt>
<trkpt lat="54.3203620000" lon="-2.0865690000"><ele>279</ele><time>2015-10-15T14:02:24Z</time></trkpt>
<trkpt lat="54.3203580000" lon="-2.0865740000"><ele>279</ele><time>2015-10-15T14:02:25Z</time></trkpt>
<trkpt lat="54.3203530000" lon="-2.0865800000"><ele>279</ele><time>2015-10-15T14:02:26Z</time></trkpt>
<trkpt lat="54.3203480000" lon="-2.0865850000"><ele>279</ele></trkpt>
<trkpt lat="54.3203430000" lon="-2.0865910000"><ele>279</ele><time>2015-10-15T14:02:27Z</time></trkpt>
<trkpt lat="54.3203380000" lon="-2.0865960000"><ele>279</ele><time>2015-10-15T14:02:29Z</time></trkpt>
<trkpt lat="54.3202230000" lon="-2.0867090000"><ele>279</ele><time>2015-10-15T14:02:30Z</time></trkpt>
<trkpt lat="54.3202120000" lon="-2.0867150000"><ele>279</ele><time>2015-10-15T14:02:31Z</time></trkpt>
<trkpt lat="54.3202020000" lon="-2.0867250000"><ele>279</ele><time>2015-10-15T14:02:32Z</time></trkpt>
<trkpt lat="54.3201940000" lon="-2.0867300000"><ele>279</ele></trkpt>
<trkpt lat="54.3201830000" lon="-2.0867380000"><ele>279</ele><time>2015-10-15T14:02:33Z</time></trkpt>
<trkpt lat="54.3201750000" lon="-2.0867480000"><ele>279</ele><time>2015-10-15T14:02:35Z</time></trkpt>
<trkpt lat="54.3201670000" lon="-2.0867590000"><ele>279</ele><time>2015-10-15T14:02:36Z</time></trkpt>
<trkpt lat="54.3201670000" lon="-2.0867590000"><ele>279</ele><time>2015-10-15T14:02:37Z</time></trkpt>
<trkpt lat="54.3201670000" lon="-2.0867600000"><ele>279</ele><time>2015-10-15T14:02:38Z</time></trkpt>
<trkpt lat="54.3201670000" lon="-2.0867600000"><ele>279</ele><time>2015-10-15T14:02:39Z</time></trkpt>
<trkpt lat="54.3201260000" lon="-2.0868100000"><ele>279</ele></trkpt>
<trkpt lat="54.3201000000" lon="-2.0868420000"><ele>279</ele><time>2015-10-15T14:02:42Z</time></trkpt>
<trkpt lat="54.3200820000" lon="-2.0868670000"><ele>279</ele><time>2015-10-15T14:02:44Z</time></trkpt>
<trkpt lat="54.3200690000" lon="-2.0868820000"><ele>279</ele><time>2015-10-15T14:02:51Z</time></trkpt>
<trkpt lat="54.3200680000" lon="-2.0868820000"><ele>279</ele></trkpt>
<trkpt lat="54.3200650000" lon="-2.0868830000"><ele>279</ele><time>2015-10-15T14:02:52Z</time></trkpt>
<trkpt lat="54.3200630000" lon="-2.0868840000"><ele>279</ele><time>2015-10-15T14:02:54Z</time></trkpt>
<trkpt lat="54.3200600000" lon="-2.0868840000"><ele>279</ele><time>2015-10-15T14:02:55Z</time></trkpt>
<trkpt lat="54.3200570000" lon="-2.0868840000"><ele>279</ele><time>2015-10-15T14:02:56Z</time></trkpt>
<trkpt lat="54.3200530000" lon="-2.0868840000"><ele>279</ele><time>2015-10-15T14:02:57Z</time></trkpt>
<trkpt lat="54.3200500000" lon="-2.0868840000"><ele>279</ele><time>2015-10-15T14:02:58Z</time></trkpt>
<trkpt lat="54.3200460000" lon="-2.0868840000"><ele>279</ele><time>2015-10-15T14:02:59Z</time></trkpt>
<trkpt lat="54.3200420000" lon="-2.0868840000"><ele>279</ele><time>2015-10-15T14:03:00Z</time></trkpt>
<trkpt lat="54.3200380000" lon="-2.0868840000"><ele>279</ele><time>2015-10-15T14:03:01Z</time></trkpt>
<trkpt lat="54.3200340000" lon="-2.0868840000"><ele>279</ele></trkpt>
<trkpt lat="54.3200290000" lon="-2.0868830000"><ele>279</ele><time>2015-10-15T14:03:02Z</time></trkpt>
<trkpt lat="54.3200240000" lon="-2.0868820000"><ele>279</ele><time>2015-10-15T14:03:04Z</time></trkpt>
<trkpt lat="54.3199130000" lon="-2.0868470000"><ele>262</ele><time>2015-10-15T14:03:05Z</time></trkpt>
<trkpt lat="54.3199040000" lon="-2.0868410000"><ele>262</ele><time>2015-10-15T14:03:06Z</time></trkpt>
<trkpt lat="54.3198950000" lon="-2.0868360000"><ele>262</ele><time>2015-10-15T14:03:07Z</time></trkpt>
<trkpt lat="54.3198870000" lon="-2.0868280000"><ele>262</ele><time>2015-10-15T14:03:08Z</time></trkpt>
<trkpt lat="54.3198790000" lon="-2.0868210000"><ele>262</ele></trkpt>
<trkpt lat="54.3198690000" lon="-2.0868080000"><ele>262</ele><time>2015-10-15T14:03:09Z</time></trkpt>
<trkpt lat="54.3198590000" lon="-2.0867960000"><ele>262</ele><time>2015-10-15T14:03:11Z</time></trkpt>
<trkpt lat="54.3198490000" lon="-2.0867850000"><ele>262</ele><time>2015-10-15T14:03:12Z</time></trkpt>
<trkpt lat="54.3198410000" lon="-2.0867750000"><ele>262</ele><time>2015-10-15T14:03:13Z</time></trkpt>
<trkpt lat="54.3198350000" lon="-2.0867610000"><ele>262</ele><time>2015-10-15T14:03:14Z</time></trkpt>
<trkpt lat="54.3198260000" lon="-2.0867480000"><ele>262</ele></trkpt>
<trkpt lat="54.3198050000" lon="-2.0867210000"><ele>262</ele><time>2015-10-15T14:03:17Z</time></trkpt>
<trkpt lat="54.3197850000" lon="-2.0867000000"><ele>262</ele><time>2015-10-15T14:03:19Z</time></trkpt>
<trkpt lat="54.3197640000" lon="-2.0866620000"><ele>262</ele><time>2015-10-15T14:03:20Z</time></trkpt>
<trkpt lat="54.3197450000" lon="-2.0866320000"><ele>262</ele><time>2015-10-15T14:03:22Z</time></trkpt>
<trkpt lat="54.3197260000" lon="-2.0866100000"><ele>262</ele><time>2015-10-15T14:03:25Z</time></trkpt>
<trkpt lat="54.3197040000" lon="-2.0865830000"><ele>262</ele><time>2015-10-15T14:03:27Z</time></trkpt>
<trkpt lat="54.3196790000" lon="-2.0865560000"><ele>262</ele><time>2015-10-15T14:03:31Z</time></trkpt>
<trkpt lat="54.3196530000" lon="-2.0865500000"><ele>262</ele><time>2015-10-15T14:03:33Z</time></trkpt>
<trkpt lat="54.3196390000" lon="-2.0865390000"><ele>262</ele><time>2015-10-15T14:03:39Z</time></trkpt>
<trkpt lat="54.3196370000" lon="-2.0865380000"><ele>262</ele><time>2015-10-15T14:03:40Z</time></trkpt>
<trkpt lat="54.3196360000" lon="-2.0865370000"><ele>262</ele><time>2015-10-15T14:03:41Z</time></trkpt>
<trkpt lat="54.3196340000" lon="-2.0865350000"><ele>262</ele><time>2015-10-15T14:03:42Z</time></trkpt>
<trkpt lat="54.3196320000" lon="-2.0865320000"><ele>262</ele></trkpt>
<trkpt lat="54.3196290000" lon="-2.0865300000"><ele>262</ele><time>2015-10-15T14:03:43Z</time></trkpt>
<trkpt lat="54.3196260000" lon="-2.0865270000"><ele>262</ele><time>2015-10-15T14:03:45Z</time></trkpt>
<trkpt lat="54.3196230000" lon="-2.0865230000"><ele>262</ele><time>2015-10-15T14:03:46Z</time></trkpt>
<trkpt lat="54.3196200000" lon="-2.0865180000"><ele>262</ele><time>2015-10-15T14:03:47Z</time></trkpt>
<trkpt lat="54.3196160000" lon="-2.0865130000"><ele>262</ele><time>2015-10-15T14:03:48Z</time></trkpt>
<trkpt lat="54.3196120000" lon="-2.0865070000"><ele>262</ele><time>2015-10-15T14:03:49Z</time></trkpt>
<trkpt lat="54.3196070000" lon="-2.0865010000"><ele>262</ele></trkpt>
<trkpt lat="54.3196020000" lon="-2.0864940000"><ele>262</ele><time>2015-10-15T14:03:50Z</time></trkpt>
<trkpt lat="54.3195960000" lon="-2.0864870000"><ele>262</ele><time>2015-10-15T14:03:52Z</time></trkpt>
<trkpt lat="54.3195900000" lon="-2.0864800000"><ele>262</ele><time>2015-10-15T14:03:53Z</time></trkpt>
<trkpt lat="54.3195850000" lon="-2.0864740000"><ele>262</ele><time>2015-10-15T14:03:54Z</time></trkpt>
<trkpt lat="54.3195790000" lon="-2.0864680000"><ele>262</ele><time>2015-10-15T14:03:55Z</time></trkpt>
<trkpt lat="54.3195730000" lon="-2.0864600000"><ele>262</ele></trkpt>
<trkpt lat="54.3195660000" lon="-2.0864530000"><ele>262</ele><time>2015-10-15T14:03:56Z</time></trkpt>
<trkpt lat="54.3195590000" lon="-2.0864450000"><ele>262</ele><time>2015-10-15T14:03:58Z</time></trkpt>
<trkpt lat="54.3195520000" lon="-2.0864380000"><ele>262</ele><time>2015-10-15T14:03:59Z</time></trkpt>
<trkpt lat="54.3195440000" lon="-2.0864300000"><ele>262</ele><time>2015-10-15T14:04:00Z</time></trkpt>
<trkpt lat="54.3195370000" lon="-2.0864220000"><ele>262</ele><time>2015-10-15T14:04:01Z</time></trkpt>
<trkpt lat="54.3195290000" lon="-2.0864140000"><ele>262</ele></trkpt>
<trkpt lat="54.3193630000" lon="-2.0862470000"><ele>262</ele><time>2015-10-15T14:04:04Z</time></trkpt>
<trkpt lat="54.3193360000" lon="-2.0862340000"><ele>262</ele><time>2015-10-15T14:04:07Z</time></trkpt>
<trkpt lat="54.3193260000" lon="-2.0862350000"><ele>262</ele><time>2015-10-15T14:04:08Z</time></trkpt>
<trkpt lat="54.3193200000" lon="-2.0862290000"><ele>262</ele><time>2015-10-15T14:04:25Z</time></trkpt>
<trkpt lat="54.3193190000" lon="-2.0862280000"><ele>262</ele><time>2015-10-15T14:04:26Z</time></trkpt>
<trkpt lat="54.3193180000" lon="-2.0862270000"><ele>262</ele><time>2015-10-15T14:04:27Z</time></trkpt>
<trkpt lat="54.3193170000" lon="-2.0862270000"><ele>262</ele></trkpt>
<trkpt lat="54.3193170000" lon="-2.0862260000"><ele>262</ele><time>2015-10-15T14:04:28Z</time></trkpt>
<trkpt lat="54.3193170000" lon="-2.0862250000"><ele>262</ele><time>2015-10-15T14:04:30Z</time></trkpt>
<trkpt lat="54.3193170000" lon="-2.0862250000"><ele>262</ele><time>2015-10-15T14:04:31Z</time></trkpt>
<trkpt lat="54.3193160000" lon="-2.0862240000"><ele>262</ele><time>2015-10-15T14:04:32Z</time></trkpt>
<trkpt lat="54.3193160000" lon="-2.0862230000"><ele>262</ele><time>2015-10-15T14:04:33Z</time></trkpt>
<trkpt lat="54.3193150000" lon="-2.0862210000"><ele>262</ele></trkpt>
<trkpt lat="54.3193130000" lon="-2.0862190000"><ele>262</ele><time>2015-10-15T14:04:34Z</time></trkpt>
<trkpt lat="54.3192950000" lon="-2.0861940000"><ele>262</ele><time>2015-10-15T14:04:41Z</time></trkpt>
<trkpt lat="54.3192170000" lon="-2.0861000000"><ele>262</ele><time>2015-10-15T14:04:43Z</time></trkpt>
<trkpt lat="54.3192000000" lon="-2.0860850000"><ele>262</ele><time>2015-10-15T14:04:45Z</time></trkpt>
<trkpt lat="54.3191920000" lon="-2.0860760000"><ele>262</ele><time>2015-10-15T14:04:46Z</time></trkpt>
<trkpt lat="54.3191810000" lon="-2.0860670000"><ele>262</ele></trkpt>
<trkpt lat="54.3191690000" lon="-2.0860580000"><ele>262</ele><time>2015-10-15T14:04:47Z</time></trkpt>
<trkpt lat="54.3191600000" lon="-2.0860510000"><ele>262</ele><time>2015-10-15T14:04:49Z</time></trkpt>
<trkpt lat="54.3191600000" lon="-2.0860510000"><ele>262</ele><time>2015-10-15T14:04:50Z</time></trkpt>
<trkpt lat="54.3191360000" lon="-2.0860340000"><ele>262</ele><time>2015-10-15T14:04:51Z</time></trkpt>
<trkpt lat="54.3191260000" lon="-2.0860280000"><ele>262</ele><time>2015-10-15T14:04:52Z</time></trkpt>
<trkpt lat="54.3191150000" lon="-2.0860210000"><ele>262</ele><time>2015-10-15T14:04:53Z</time></trkpt>
<trkpt lat="54.3191040000" lon="-2.0860140000"><ele>262</ele><time>2015-10-15T14:04:54Z</time></trkpt>
<trkpt lat="54.3190940000" lon="-2.0860070000"><ele>262</ele><time>2015-10-15T14:04:55Z</time></trkpt>
<trkpt lat="54.3190830000" lon="-2.0859990000"><ele>262</ele></trkpt>
<trkpt lat="54.3190710000" lon="-2.0859900000"><ele>262</ele><time>2015-10-15T14:04:56Z</time></trkpt>
<trkpt lat="54.3190580000" lon="-2.0859810000"><ele>262</ele><time>2015-10-15T14:04:58Z</time></trkpt>
<trkpt lat="54.3190480000" lon="-2.0859740000"><ele>262</ele><time>2015-10-15T14:04:59Z</time></trkpt>
<trkpt lat="54.3190380000" lon="-2.0859650000"><ele>262</ele><time>2015-10-15T14:05:00Z</time></trkpt>
<trkpt lat="54.3190250000" lon="-2.0859570000"><ele>262</ele><time>2015-10-15T14:05:01Z</time></trkpt>
<trkpt lat="54.3190130000" lon="-2.0859490000"><ele>262</ele></trkpt>
<trkpt lat="54.3190050000" lon="-2.0859440000"><ele>262</ele><time>2015-10-15T14:05:02Z</time></trkpt>
<trkpt lat="54.3189960000" lon="-2.0859390000"><ele>262</ele><time>2015-10-15T14:05:04Z</time></trkpt>
<trkpt lat="54.3189960000" lon="-2.0859390000"><ele>262</ele><time>2015-10-15T14:05:05Z</time></trkpt>
<trkpt lat="54.3189760000" lon="-2.0859170000"><ele>262</ele><time>2015-10-15T14:05:06Z</time></trkpt>
<trkpt lat="54.3189630000" lon="-2.0859080000"><ele>262</ele><time>2015-10-15T14:05:07Z</time></trkpt>
<trkpt lat="54.3189530000" lon="-2.0858990000"><ele>262</ele></trkpt>
<trkpt lat="54.3189440000" lon="-2.0858940000"><ele>262</ele><time>2015-10-15T14:05:08Z</time></trkpt>
<trkpt lat="54.3189340000" lon="-2.0858880000"><ele>262</ele><time>2015-10-15T14:05:13Z</time></trkpt>
<trkpt lat="54.3189340000" lon="-2.0858880000"><ele>262</ele><time>2015-10-15T14:05:14Z</time></trkpt>
<trkpt lat="54.3188690000" lon="-2.0858750000"><ele>262</ele><time>2015-10-15T14:05:15Z</time></trkpt>
<trkpt lat="54.3188410000" lon="-2.0858660000"><ele>262</ele><time>2015-10-15T14:05:18Z</time></trkpt>
<trkpt lat="54.3188180000" lon="-2.0858400000"><ele>262</ele><time>2015-10-15T14:05:20Z</time></trkpt>
<trkpt lat="54.3187920000" lon="-2.0858280000"><ele>262</ele><time>2015-10-15T14:05:21Z</time></trkpt>
<trkpt lat="54.3187700000" lon="-2.0858230000"><ele>262</ele><time>2015-10-15T14:05:24Z</time></trkpt>
<trkpt lat="54.3187450000" lon="-2.0858240000"><ele>262</ele><time>2015-10-15T14:05:26Z</time></trkpt>
<trkpt lat="54.3187240000" lon="-2.0858220000"><ele>262</ele><time>2015-10-15T14:05:27Z</time></trkpt>
<trkpt lat="54.3187020000" lon="-2.0858140000"><ele>262</ele><time>2015-10-15T14:05:30Z</time></trkpt>
<trkpt lat="54.3186810000" lon="-2.0858080000"><ele>262</ele><time>2015-10-15T14:05:32Z</time></trkpt>
<trkpt lat="54.3186620000" lon="-2.0858040000"><ele>262</ele><time>2015-10-15T14:05:40Z</time></trkpt>
<trkpt lat="54.3186420000" lon="-2.0857950000"><ele>262</ele><time>2015-10-15T14:05:45Z</time></trkpt>
<trkpt lat="54.3186360000" lon="-2.0857930000"><ele>262</ele><time>2015-10-15T14:05:46Z</time></trkpt>
<trkpt lat="54.3186300000" lon="-2.0857900000"><ele>262</ele><time>2015-10-15T14:05:48Z</time></trkpt>
<trkpt lat="54.3184780000" lon="-2.0857270000"><ele>262</ele><time>2015-10-15T14:05:49Z</time></trkpt>
<trkpt lat="54.3184670000" lon="-2.0857250000"><ele>262</ele><time>2015-10-15T14:05:50Z</time></trkpt>
<trkpt lat="54.3184560000" lon="-2.0857210000"><ele>262</ele><time>2015-10-15T14:05:51Z</time></trkpt>
<trkpt lat="54.3184460000" lon="-2.0857170000"><ele>262</ele><time>2015-10-15T14:05:52Z</time></trkpt>
<trkpt lat="54.3184330000" lon="-2.0857180000"><ele>262</ele></trkpt>
<trkpt lat="54.3184190000" lon="-2.0857140000"><ele>262</ele><time>2015-10-15T14:05:54Z</time></trkpt>
<trkpt lat="54.3184070000" lon="-2.0857070000"><ele>262</ele><time>2015-10-15T14:05:55Z</time></trkpt>
<trkpt lat="54.3183960000" lon="-2.0856970000"><ele>262</ele><time>2015-10-15T14:05:56Z</time></trkpt>
<trkpt lat="54.3183870000" lon="-2.0856890000"><ele>262</ele><time>2015-10-15T14:05:57Z</time></trkpt>
<trkpt lat="54.3183770000" lon="-2.0856790000"><ele>262</ele><time>2015-10-15T14:05:58Z</time></trkpt>
<trkpt lat="54.3183660000" lon="-2.0856680000"><ele>262</ele></trkpt>
<trkpt lat="54.3183540000" lon="-2.0856580000"><ele>262</ele><time>2015-10-15T14:05:59Z</time></trkpt>
<trkpt lat="54.3183420000" lon="-2.0856500000"><ele>262</ele><time>2015-10-15T14:06:01Z</time></trkpt>
<trkpt lat="54.3183310000" lon="-2.0856450000"><ele>262</ele><time>2015-10-15T14:06:02Z</time></trkpt>
<trkpt lat="54.3183220000" lon="-2.0856410000"><ele>262</ele><time>2015-10-15T14:06:03Z</time></trkpt>
<trkpt lat="54.3183100000" lon="-2.0856350000"><ele>262</ele><time>2015-10-15T14:06:04Z</time></trkpt>
<trkpt lat="54.3182990000" lon="-2.0856260000"><ele>262</ele></trkpt>
<trkpt lat="54.3182880000" lon="-2.0856180000"><ele>262</ele><time>2015-10-15T14:06:06Z</time></trkpt>
<trkpt lat="54.3182770000" lon="-2.0856110000"><ele>262</ele></trkpt>
<trkpt lat="54.3182640000" lon="-2.0856090000"><ele>262</ele><time>2015-10-15T14:06:08Z</time></trkpt>
<trkpt lat="54.3182530000" lon="-2.0856060000"><ele>262</ele><time>2015-10-15T14:06:09Z</time></trkpt>
<trkpt lat="54.3182410000" lon="-2.0856000000"><ele>262</ele><time>2015-10-15T14:06:10Z</time></trkpt>
<trkpt lat="54.3182310000" lon="-2.0855940000"><ele>262</ele><time>2015-10-15T14:06:11Z</time></trkpt>
<trkpt lat="54.3182210000" lon="-2.0855910000"><ele>262</ele><time>2015-10-15T14:06:12Z</time></trkpt>
<trkpt lat="54.3182100000" lon="-2.0855850000"><ele>262</ele></trkpt>
<trkpt lat="54.3181990000" lon="-2.0855780000"><ele>262</ele><time>2015-10-15T14:06:14Z</time></trkpt>
<trkpt lat="54.3181880000" lon="-2.0855720000"><ele>262</ele><time>2015-10-15T14:06:15Z</time></trkpt>
<trkpt lat="54.3181760000" lon="-2.0855680000"><ele>262</ele><time>2015-10-15T14:06:16Z</time></trkpt>
<trkpt lat="54.3181600000" lon="-2.0855620000"><ele>262</ele><time>2015-10-15T14:06:17Z</time></trkpt>
<trkpt lat="54.3181370000" lon="-2.0855540000"><ele>240</ele><time>2015-10-15T14:06:18Z</time></trkpt>
<trkpt lat="54.3181140000" lon="-2.0855520000"><ele>240</ele><time>2015-10-15T14:06:33Z</time></trkpt>
<trkpt lat="54.3181020000" lon="-2.0855490000"><ele>240</ele><time>2015-10-15T14:06:37Z</time></trkpt>
<trkpt lat="54.3180970000" lon="-2.0855470000"><ele>240</ele><time>2015-10-15T14:06:38Z</time></trkpt>
<trkpt lat="54.3180930000" lon="-2.0855450000"><ele>240</ele><time>2015-10-15T14:06:39Z</time></trkpt>
<trkpt lat="54.3180880000" lon="-2.0855430000"><ele>240</ele></trkpt>
<trkpt lat="54.3180830000" lon="-2.0855410000"><ele>240</ele><time>2015-10-15T14:06:41Z</time></trkpt>
<trkpt lat="54.3180780000" lon="-2.0855370000"><ele>240</ele><time>2015-10-15T14:06:42Z</time></trkpt>
<trkpt lat="54.3180730000" lon="-2.0855340000"><ele>240</ele><time>2015-10-15T14:06:43Z</time></trkpt>
<trkpt lat="54.3180670000" lon="-2.0855310000"><ele>240</ele><time>2015-10-15T14:06:44Z</time></trkpt>
<trkpt lat="54.3180620000" lon="-2.0855270000"><ele>240</ele><time>2015-10-15T14:06:45Z</time></trkpt>
<trkpt lat="54.3180560000" lon="-2.0855230000"><ele>240</ele></trkpt>
<trkpt lat="54.3180490000" lon="-2.0855190000"><ele>240</ele><time>2015-10-15T14:06:46Z</time></trkpt>
<trkpt lat="54.3179290000" lon="-2.0854380000"><ele>240</ele><time>2015-10-15T14:06:48Z</time></trkpt>
<trkpt lat="54.3179170000" lon="-2.0854320000"><ele>240</ele><time>2015-10-15T14:06:49Z</time></trkpt>
<trkpt lat="54.3179060000" lon="-2.0854300000"><ele>240</ele><time>2015-10-15T14:06:50Z</time></trkpt>
<trkpt lat="54.3178930000" lon="-2.0854250000"><ele>240</ele><time>2015-10-15T14:06:51Z</time></trkpt>
<trkpt lat="54.3178820000" lon="-2.0854190000"><ele>240</ele></trkpt>
<trkpt lat="54.3178700000" lon="-2.0854140000"><ele>240</ele><time>2015-10-15T14:06:52Z</time></trkpt>
<trkpt lat="54.3178590000" lon="-2.0854070000"><ele>240</ele><time>2015-10-15T14:06:54Z</time></trkpt>
<trkpt lat="54.3178490000" lon="-2.0854000000"><ele>240</ele><time>2015-10-15T14:06:55Z</time></trkpt>
<trkpt lat="54.3178410000" lon="-2.0853930000"><ele>240</ele></trkpt>
<trkpt lat="54.3178330000" lon="-2.0853840000"><ele>240</ele><time>2015-10-15T14:06:56Z</time></trkpt>
<trkpt lat="54.3178330000" lon="-2.0853840000"><ele>240</ele><time>2015-10-15T14:06:58Z</time></trkpt>
<trkpt lat="54.3178330000" lon="-2.0853840000"><ele>240</ele><time>2015-10-15T14:06:59Z</time></trkpt>
<trkpt lat="54.3178320000" lon="-2.0853840000"><ele>240</ele><time>2015-10-15T14:07:00Z</time></trkpt>
<trkpt lat="54.3178320000" lon="-2.0853830000"><ele>240</ele><time>2015-10-15T14:07:01Z</time></trkpt>
<trkpt lat="54.3178310000" lon="-2.0853830000"><ele>240</ele></trkpt>
<trkpt lat="54.3178300000" lon="-2.0853820000"><ele>240</ele><time>2015-10-15T14:07:02Z</time></trkpt>
<trkpt lat="54.3178280000" lon="-2.0853810000"><ele>240</ele><time>2015-10-15T14:07:04Z</time></trkpt>
<trkpt lat="54.3178260000" lon="-2.0853800000"><ele>240</ele><time>2015-10-15T14:07:05Z</time></trkpt>
<trkpt lat="54.3178240000" lon="-2.0853780000"><ele>240</ele><time>2015-10-15T14:07:06Z</time></trkpt>
<trkpt lat="54.3178210000" lon="-2.0853760000"><ele>240</ele><time>2015-10-15T14:07:07Z</time></trkpt>
<trkpt lat="54.3178180000" lon="-2.0853730000"><ele>240</ele><time>2015-10-15T14:07:08Z</time></trkpt>
<trkpt lat="54.3178150000" lon="-2.0853710000"><ele>240</ele></trkpt>
<trkpt lat="54.3177070000" lon="-2.0852780000"><ele>240</ele><time>2015-10-15T14:07:10Z</time></trkpt>
<trkpt lat="54.3176960000" lon="-2.0852700000"><ele>240</ele><time>2015-10-15T14:07:11Z</time></trkpt>
<trkpt lat="54.3176860000" lon="-2.0852630000"><ele>240</ele><time>2015-10-15T14:07:12Z</time></trkpt>
<trkpt lat="54.3176740000" lon="-2.0852520000"><ele>240</ele><time>2015-10-15T14:07:13Z</time></trkpt>
<trkpt lat="54.3176620000" lon="-2.0852350000"><ele>240</ele><time>2015-10-15T14:07:14Z</time></trkpt>
<trkpt lat="54.3176410000" lon="-2.0852060000"><ele>240</ele><time>2015-10-15T14:07:15Z</time></trkpt>
<trkpt lat="54.3176190000" lon="-2.0851780000"><ele>240</ele><time>2015-10-15T14:07:18Z</time></trkpt>
<trkpt lat="54.3175990000" lon="-2.0851580000"><ele>240</ele><time>2015-10-15T14:07:20Z</time></trkpt>
<trkpt lat="54.3175890000" lon="-2.0851470000"><ele>240</ele></trkpt>
<trkpt lat="54.3175800000" lon="-2.0851370000"><ele>240</ele><time>2015-10-15T14:07:21Z</time></trkpt>
<trkpt lat="54.3175700000" lon="-2.0851290000"><ele>240</ele><time>2015-10-15T14:07:23Z</time></trkpt>
<trkpt lat="54.3175700000" lon="-2.0851290000"><ele>240</ele><time>2015-10-15T14:07:24Z</time></trkpt>
<trkpt lat="54.3175700000" lon="-2.0851290000"><ele>240</ele><time>2015-10-15T14:07:25Z</time></trkpt>
<trkpt lat="54.3175410000" lon="-2.0851060000"><ele>240</ele><time>2015-10-15T14:07:26Z</time></trkpt>
<trkpt lat="54.3175310000" lon="-2.0850980000"><ele>240</ele><time>2015-10-15T14:07:27Z</time></trkpt>
<trkpt lat="54.3175200000" lon="-2.0850870000"><ele>240</ele><time>2015-10-15T14:07:28Z</time></trkpt>
<trkpt lat="54.3175110000" lon="-2.0850700000"><ele>240</ele><time>2015-10-15T14:07:29Z</time></trkpt>
<trkpt lat="54.3175050000" lon="-2.0850580000"><ele>240</ele></trkpt>
<trkpt lat="54.3174970000" lon="-2.0850500000"><ele>240</ele><time>2015-10-15T14:07:30Z</time></trkpt>
<trkpt lat="54.3174870000" lon="-2.0850380000"><ele>240</ele><time>2015-10-15T14:07:32Z</time></trkpt>
<trkpt lat="54.3174870000" lon="-2.0850380000"><ele>240</ele><time>2015-10-15T14:07:33Z</time></trkpt>
<trkpt lat="54.3174680000" lon="-2.0850130000"><ele>240</ele><time>2015-10-15T14:07:34Z</time></trkpt>
<trkpt lat="54.3174570000" lon="-2.0850000000"><ele>240</ele><time>2015-10-15T14:07:35Z</time></trkpt>
<trkpt lat="54.3174460000" lon="-2.0849890000"><ele>240</ele></trkpt>
<trkpt lat="54.3174360000" lon="-2.0849800000"><ele>240</ele><time>2015-10-15T14:07:36Z</time></trkpt>
<trkpt lat="54.3174310000" lon="-2.0849790000"><ele>240</ele><time>2015-10-15T14:07:38Z</time></trkpt>
<trkpt lat="54.3174310000" lon="-2.0849790000"><ele>240</ele><time>2015-10-15T14:07:40Z</time></trkpt>
<trkpt lat="54.3174310000" lon="-2.0849790000"><ele>240</ele><time>2015-10-15T14:07:41Z</time></trkpt>
<trkpt lat="54.3174300000" lon="-2.0849790000"><ele>240</ele><time>2015-10-15T14:07:42Z</time></trkpt>
<trkpt lat="54.3174300000" lon="-2.0849790000"><ele>240</ele></trkpt>
<trkpt lat="54.3174300000" lon="-2.0849790000"><ele>240</ele><time>2015-10-15T14:07:44Z</time></trkpt>
<trkpt lat="54.3174300000" lon="-2.0849790000"><ele>240</ele><time>2015-10-15T14:07:45Z</time></trkpt>
<trkpt lat="54.3174290000" lon="-2.0849790000"><ele>240</ele><time>2015-10-15T14:07:46Z</time></trkpt>
<trkpt lat="54.3173910000" lon="-2.0849720000"><ele>240</ele><time>2015-10-15T14:07:47Z</time></trkpt>
<trkpt lat="54.3173900000" lon="-2.0849710000"><ele>240</ele><time>2015-10-15T14:07:48Z</time></trkpt>
<trkpt lat="54.3173910000" lon="-2.0849720000"><ele>240</ele></trkpt>
<trkpt lat="54.3173910000" lon="-2.0849720000"><ele>240</ele><time>2015-10-15T14:07:53Z</time></trkpt>
<trkpt lat="54.3173910000" lon="-2.0849710000"><ele>240</ele></trkpt>
<trkpt lat="54.3173910000" lon="-2.0849710000"><ele>240</ele><time>2015-10-15T14:07:56Z</time></trkpt>
<trkpt lat="54.3173910000" lon="-2.0849710000"><ele>240</ele><time>2015-10-15T14:07:57Z</time></trkpt>
<trkpt lat="54.3173910000" lon="-2.0849710000"><ele>240</ele><time>2015-10-15T14:07:58Z</time></trkpt>
<trkpt lat="54.3173910000" lon="-2.0849720000"><ele>240</ele><time>2015-10-15T14:07:59Z</time></trkpt>
<trkpt lat="54.3173920000" lon="-2.0849720000"><ele>240</ele></trkpt>
<trkpt lat="54.3173920000" lon="-2.0849720000"><ele>240</ele><time>2015-10-15T14:08:01Z</time></trkpt>
<trkpt lat="54.3173920000" lon="-2.0849720000"><ele>240</ele><time>2015-10-15T14:08:02Z</time></trkpt>
<trkpt lat="54.3173910000" lon="-2.0849710000"><ele>240</ele><time>2015-10-15T14:08:03Z</time></trkpt>
<trkpt lat="54.3173900000" lon="-2.0849700000"><ele>240</ele><time>2015-10-15T14:08:04Z</time></trkpt>
<trkpt lat="54.3173610000" lon="-2.0849270000"><ele>240</ele><time>2015-10-15T14:08:05Z</time></trkpt>
<trkpt lat="54.3173520000" lon="-2.0849160000"><ele>240</ele></trkpt>
<trkpt lat="54.3173440000" lon="-2.0849010000"><ele>240</ele><time>2015-10-15T14:08:06Z</time></trkpt>
<trkpt lat="54.3173360000" lon="-2.0848870000"><ele>240</ele><time>2015-10-15T14:08:08Z</time></trkpt>
<trkpt lat="54.3173280000" lon="-2.0848730000"><ele>240</ele><time>2015-10-15T14:08:09Z</time></trkpt>
<trkpt lat="54.3173200000" lon="-2.0848600000"><ele>240</ele><time>2015-10-15T14:08:10Z</time></trkpt>
<trkpt lat="54.3173130000" lon="-2.0848470000"><ele>240</ele><time>2015-10-15T14:08:11Z</time></trkpt>
<trkpt lat="54.3173030000" lon="-2.0848320000"><ele>240</ele></trkpt>
<trkpt lat="54.3172930000" lon="-2.0848170000"><ele>240</ele><time>2015-10-15T14:08:12Z</time></trkpt>
<trkpt lat="54.3172850000" lon="-2.0848050000"><ele>240</ele><time>2015-10-15T14:08:14Z</time></trkpt>
<trkpt lat="54.3172720000" lon="-2.0847750000"><ele>240</ele><time>2015-10-15T14:08:16Z</time></trkpt>
<trkpt lat="54.3172590000" lon="-2.0847400000"><ele>240</ele><time>2015-10-15T14:08:18Z</time></trkpt>
<trkpt lat="54.3172450000" lon="-2.0847020000"><ele>240</ele><time>2015-10-15T14:08:20Z</time></trkpt>
<trkpt lat="54.3172310000" lon="-2.0846670000"><ele>240</ele><time>2015-10-15T14:08:22Z</time></trkpt>
<trkpt lat="54.3171980000" lon="-2.0846070000"><ele>240</ele><time>2015-10-15T14:08:25Z</time></trkpt>
<trkpt lat="54.3171840000" lon="-2.0845750000"><ele>240</ele><time>2015-10-15T14:08:28Z</time></trkpt>
<trkpt lat="54.3171690000" lon="-2.0845420000"><ele>240</ele><time>2015-10-15T14:08:30Z</time></trkpt>
<trkpt lat="54.3171600000" lon="-2.0845210000"><ele>242</ele><time>2015-10-15T14:08:35Z</time></trkpt>
<trkpt lat="54.3171600000" lon="-2.0845200000"><ele>242</ele><time>2015-10-15T14:08:36Z</time></trkpt>
<trkpt lat="54.3171590000" lon="-2.0845190000"><ele>242</ele><time>2015-10-15T14:08:37Z</time></trkpt>
<trkpt lat="54.3171070000" lon="-2.0844090000"><ele>242</ele><time>2015-10-15T14:08:39Z</time></trkpt>
<trkpt lat="54.3170990000" lon="-2.0843920000"><ele>242</ele><time>2015-10-15T14:08:40Z</time></trkpt>
<trkpt lat="54.3170830000" lon="-2.0843710000"><ele>242</ele><time>2015-10-15T14:08:42Z</time></trkpt>
<trkpt lat="54.3170750000" lon="-2.0843590000"><ele>242</ele><time>2015-10-15T14:08:46Z</time></trkpt>
<trkpt lat="54.3170750000" lon="-2.0843580000"><ele>242</ele></trkpt>
<trkpt lat="54.3170740000" lon="-2.0843570000"><ele>242</ele><time>2015-10-15T14:08:48Z</time></trkpt>
<trkpt lat="54.3170720000" lon="-2.0843560000"><ele>242</ele><time>2015-10-15T14:08:49Z</time></trkpt>
<trkpt lat="54.3170710000" lon="-2.0843530000"><ele>242</ele><time>2015-10-15T14:08:50Z</time></trkpt>
<trkpt lat="54.3170690000" lon="-2.0843500000"><ele>242</ele><time>2015-10-15T14:08:51Z</time></trkpt>
<trkpt lat="54.3170660000" lon="-2.0843470000"><ele>242</ele><time>2015-10-15T14:08:52Z</time></trkpt>
<trkpt lat="54.3170640000" lon="-2.0843430000"><ele>242</ele></trkpt>
<trkpt lat="54.3169710000" lon="-2.0842040000"><ele>242</ele><time>2015-10-15T14:08:53Z</time></trkpt>
<trkpt lat="54.3169630000" lon="-2.0841900000"><ele>242</ele><time>2015-10-15T14:08:55Z</time></trkpt>
<trkpt lat="54.3169560000" lon="-2.0841740000"><ele>242</ele><time>2015-10-15T14:08:56Z</time></trkpt>
<trkpt lat="54.3169510000" lon="-2.0841580000"><ele>242</ele><time>2015-10-15T14:08:57Z</time></trkpt>
<trkpt lat="54.3169450000" lon="-2.0841440000"><ele>242</ele><time>2015-10-15T14:08:58Z</time></trkpt>
<trkpt lat="54.3169400000" lon="-2.0841330000"><ele>242</ele><time>2015-10-15T14:08:59Z</time></trkpt>
<trkpt lat="54.3169400000" lon="-2.0841330000"><ele>242</ele></trkpt>
<trkpt lat="54.3169400000" lon="-2.0841330000"><ele>242</ele><time>2015-10-15T14:09:01Z</time></trkpt>
<trkpt lat="54.3169400000" lon="-2.0841330000"><ele>242</ele><time>2015-10-15T14:09:02Z</time></trkpt>
<trkpt lat="54.3169400000" lon="-2.0841320000"><ele>242</ele><time>2015-10-15T14:09:03Z</time></trkpt>
<trkpt lat="54.3169400000" lon="-2.0841310000"><ele>242</ele><time>2015-10-15T14:09:04Z</time></trkpt>
<trkpt lat="54.3169390000" lon="-2.0841290000"><ele>242</ele><time>2015-10-15T14:09:05Z</time></trkpt>
<trkpt lat="54.3169380000" lon="-2.0841270000"><ele>242</ele></trkpt>
<trkpt lat="54.3169370000" lon="-2.0841240000"><ele>242</ele><time>2015-10-15T14:09:06Z</time></trkpt>
<trkpt lat="54.3169350000" lon="-2.0841200000"><ele>242</ele><time>2015-10-15T14:09:08Z</time></trkpt>
<trkpt lat="54.3169340000" lon="-2.0841160000"><ele>242</ele><time>2015-10-15T14:09:09Z</time></trkpt>
<trkpt lat="54.3169320000" lon="-2.0841110000"><ele>242</ele><time>2015-10-15T14:09:10Z</time></trkpt>
<trkpt lat="54.3169290000" lon="-2.0841060000"><ele>242</ele><time>2015-10-15T14:09:11Z</time></trkpt>
<trkpt lat="54.3169260000" lon="-2.0841000000"><ele>242</ele><time>2015-10-15T14:09:12Z</time></trkpt>
<trkpt lat="54.3168540000" lon="-2.0839420000"><ele>242</ele></trkpt>
<trkpt lat="54.3168460000" lon="-2.0839270000"><ele>242</ele><time>2015-10-15T14:09:14Z</time></trkpt>
<trkpt lat="54.3168370000" lon="-2.0839120000"><ele>242</ele><time>2015-10-15T14:09:15Z</time></trkpt>
<trkpt lat="54.3168270000" lon="-2.0838940000"><ele>242</ele><time>2015-10-15T14:09:16Z</time></trkpt>
<trkpt lat="54.3168180000" lon="-2.0838800000"><ele>242</ele><time>2015-10-15T14:09:17Z</time></trkpt>
<trkpt lat="54.3168110000" lon="-2.0838690000"><ele>242</ele><time>2015-10-15T14:09:18Z</time></trkpt>
<trkpt lat="54.3168040000" lon="-2.0838600000"><ele>242</ele></trkpt>
<trkpt lat="54.3167950000" lon="-2.0838500000"><ele>242</ele><time>2015-10-15T14:09:19Z</time></trkpt>
<trkpt lat="54.3167890000" lon="-2.0838440000"><ele>242</ele><time>2015-10-15T14:09:21Z</time></trkpt>
<trkpt lat="54.3167890000" lon="-2.0838440000"><ele>242</ele><time>2015-10-15T14:09:22Z</time></trkpt>
<trkpt lat="54.3167890000" lon="-2.0838430000"><ele>242</ele><time>2015-10-15T14:09:23Z</time></trkpt>
<trkpt lat="54.3167890000" lon="-2.0838430000"><ele>242</ele><time>2015-10-15T14:09:24Z</time></trkpt>
<trkpt lat="54.3167880000" lon="-2.0838420000"><ele>242</ele><time>2015-10-15T14:09:25Z</time></trkpt>
<trkpt lat="54.3167880000" lon="-2.0838410000"><ele>242</ele><time>2015-10-15T14:09:26Z</time></trkpt>
<trkpt lat="54.3167870000" lon="-2.0838400000"><ele>242</ele><time>2015-10-15T14:09:27Z</time></trkpt>
<trkpt lat="54.3167860000" lon="-2.0838390000"><ele>242</ele><time>2015-10-15T14:09:28Z</time></trkpt>
<trkpt lat="54.3167850000" lon="-2.0838370000"><ele>242</ele></trkpt>
<trkpt lat="54.3167830000" lon="-2.0838340000"><ele>242</ele><time>2015-10-15T14:09:30Z</time></trkpt>
<trkpt lat="54.3167810000" lon="-2.0838310000"><ele>242</ele><time>2015-10-15T14:09:31Z</time></trkpt>
<trkpt lat="54.3167790000" lon="-2.0838270000"><ele>242</ele><time>2015-10-15T14:09:32Z</time></trkpt>
<trkpt lat="54.3167760000" lon="-2.0838230000"><ele>242</ele><time>2015-10-15T14:09:33Z</time></trkpt>
<trkpt lat="54.3167730000" lon="-2.0838190000"><ele>242</ele><time>2015-10-15T14:09:34Z</time></trkpt>
<trkpt lat="54.3167700000" lon="-2.0838140000"><ele>242</ele></trkpt>
<trkpt lat="54.3167670000" lon="-2.0838100000"><ele>242</ele><time>2015-10-15T14:09:35Z</time></trkpt>
<trkpt lat="54.3167640000" lon="-2.0838050000"><ele>242</ele><time>2015-10-15T14:09:37Z</time></trkpt>
<trkpt lat="54.3167610000" lon="-2.0837990000"><ele>242</ele><time>2015-10-15T14:09:38Z</time></trkpt>
<trkpt lat="54.3167570000" lon="-2.0837930000"><ele>242</ele><time>2015-10-15T14:09:39Z</time></trkpt>
<trkpt lat="54.3167530000" lon="-2.0837880000"><ele>242</ele><time>2015-10-15T14:09:40Z</time></trkpt>
<trkpt lat="54.3167500000" lon="-2.0837820000"><ele>242</ele></trkpt>
<trkpt lat="54.3167470000" lon="-2.0837770000"><ele>242</ele><time>2015-10-15T14:09:41Z</time></trkpt>
<trkpt lat="54.3167440000" lon="-2.0837710000"><ele>242</ele><time>2015-10-15T14:09:43Z</time></trkpt>
<trkpt lat="54.3167410000" lon="-2.0837660000"><ele>242</ele><time>2015-10-15T14:09:44Z</time></trkpt>
<trkpt lat="54.3167370000" lon="-2.0837600000"><ele>242</ele><time>2015-10-15T14:09:45Z</time></trkpt>
<trkpt lat="54.3167340000" lon="-2.0837540000"><ele>242</ele><time>2015-10-15T14:09:46Z</time></trkpt>
<trkpt lat="54.3167310000" lon="-2.0837490000"><ele>242</ele><time>2015-10-15T14:09:47Z</time></trkpt>
<trkpt lat="54.3167270000" lon="-2.0837440000"><ele>242</ele></trkpt>
<trkpt lat="54.3167240000" lon="-2.0837390000"><ele>242</ele><time>2015-10-15T14:09:49Z</time></trkpt>
<trkpt lat="54.3167210000" lon="-2.0837350000"><ele>242</ele><time>2015-10-15T14:09:50Z</time></trkpt>
<trkpt lat="54.3167180000" lon="-2.0837290000"><ele>242</ele><time>2015-10-15T14:09:51Z</time></trkpt>
<trkpt lat="54.3167140000" lon="-2.0837240000"><ele>242</ele><time>2015-10-15T14:09:52Z</time></trkpt>
<trkpt lat="54.3167100000" lon="-2.0837180000"><ele>242</ele><time>2015-10-15T14:09:53Z</time></trkpt>
<trkpt lat="54.3167070000" lon="-2.0837130000"><ele>242</ele></trkpt>
<trkpt lat="54.3167030000" lon="-2.0837060000"><ele>242</ele><time>2015-10-15T14:09:54Z</time></trkpt>
<trkpt lat="54.3166980000" lon="-2.0837000000"><ele>242</ele><time>2015-10-15T14:09:56Z</time></trkpt>
<trkpt lat="54.3166780000" lon="-2.0836650000"><ele>242</ele><time>2015-10-15T14:10:00Z</time></trkpt>
<trkpt lat="54.3166190000" lon="-2.0835530000"><ele>242</ele><time>2015-10-15T14:10:02Z</time></trkpt>
<trkpt lat="54.3166210000" lon="-2.0835520000"><ele>242</ele><time>2015-10-15T14:10:03Z</time></trkpt>
<trkpt lat="54.3166200000" lon="-2.0835510000"><ele>242</ele><time>2015-10-15T14:10:04Z</time></trkpt>
<trkpt lat="54.3166200000" lon="-2.0835510000"><ele>242</ele><time>2015-10-15T14:10:06Z</time></trkpt>
<trkpt lat="54.3166200000" lon="-2.0835510000"><ele>242</ele><time>2015-10-15T14:10:08Z</time></trkpt>
<trkpt lat="54.3165930000" lon="-2.0835190000"><ele>242</ele><time>2015-10-15T14:10:25Z</time></trkpt>
<trkpt lat="54.3165290000" lon="-2.0834720000"><ele>242</ele><time>2015-10-15T14:10:28Z</time></trkpt>
<trkpt lat="54.3165070000" lon="-2.0834540000"><ele>242</ele><time>2015-10-15T14:10:30Z</time></trkpt>
<trkpt lat="54.3164970000" lon="-2.0834480000"><ele>242</ele><time>2015-10-15T14:10:31Z</time></trkpt>
<trkpt lat="54.3164860000" lon="-2.0834410000"><ele>242</ele></trkpt>
<trkpt lat="54.3164790000" lon="-2.0834390000"><ele>242</ele><time>2015-10-15T14:10:32Z</time></trkpt>
<trkpt lat="54.3164710000" lon="-2.0834380000"><ele>242</ele><time>2015-10-15T14:10:34Z</time></trkpt>
<trkpt lat="54.3164710000" lon="-2.0834380000"><ele>242</ele><time>2015-10-15T14:10:36Z</time></trkpt>
<trkpt lat="54.3164710000" lon="-2.0834380000"><ele>242</ele><time>2015-10-15T14:10:37Z</time></trkpt>
<trkpt lat="54.3164700000" lon="-2.0834380000"><ele>242</ele></trkpt>
<trkpt lat="54.3164700000" lon="-2.0834370000"><ele>242</ele><time>2015-10-15T14:10:38Z</time></trkpt>
<trkpt lat="54.3164690000" lon="-2.0834370000"><ele>242</ele><time>2015-10-15T14:10:40Z</time></trkpt>
<trkpt lat="54.3164680000" lon="-2.0834370000"><ele>242</ele><time>2015-10-15T14:10:41Z</time></trkpt>
<trkpt lat="54.3164660000" lon="-2.0834370000"><ele>242</ele><time>2015-10-15T14:10:42Z</time></trkpt>
<trkpt lat="54.3164650000" lon="-2.0834370000"><ele>242</ele><time>2015-10-15T14:10:43Z</time></trkpt>
<trkpt lat="54.3164630000" lon="-2.0834370000"><ele>242</ele><time>2015-10-15T14:10:44Z</time></trkpt>
<trkpt lat="54.3164610000" lon="-2.0834360000"><ele>242</ele></trkpt>
<trkpt lat="54.3164590000" lon="-2.0834360000"><ele>242</ele><time>2015-10-15T14:10:46Z</time></trkpt>
<trkpt lat="54.3164550000" lon="-2.0834350000"><ele>242</ele><time>2015-10-15T14:10:47Z</time></trkpt>
<trkpt lat="54.3164520000" lon="-2.0834350000"><ele>242</ele><time>2015-10-15T14:10:48Z</time></trkpt>
<trkpt lat="54.3164480000" lon="-2.0834340000"><ele>242</ele><time>2015-10-15T14:10:49Z</time></trkpt>
<trkpt lat="54.3164430000" lon="-2.0834340000"><ele>242</ele><time>2015-10-15T14:10:50Z</time></trkpt>
<trkpt lat="54.3164380000" lon="-2.0834330000"><ele>242</ele><time>2015-10-15T14:10:51Z</time></trkpt>
<trkpt lat="54.3164320000" lon="-2.0834320000"><ele>242</ele><time>2015-10-15T14:10:52Z</time></trkpt>
<trkpt lat="54.3164260000" lon="-2.0834310000"><ele>242</ele><time>2015-10-15T14:10:53Z</time></trkpt>
<trkpt lat="54.3164200000" lon="-2.0834300000"><ele>242</ele><time>2015-10-15T14:10:54Z</time></trkpt>
<trkpt lat="54.3164130000" lon="-2.0834290000"><ele>242</ele></trkpt>
<trkpt lat="54.3164060000" lon="-2.0834280000"><ele>242</ele><time>2015-10-15T14:10:56Z</time></trkpt>
<trkpt lat="54.3163980000" lon="-2.0834270000"><ele>242</ele><time>2015-10-15T14:10:57Z</time></trkpt>
<trkpt lat="54.3163900000" lon="-2.0834260000"><ele>242</ele><time>2015-10-15T14:10:58Z</time></trkpt>
<trkpt lat="54.3163820000" lon="-2.0834250000"><ele>242</ele><time>2015-10-15T14:10:59Z</time></trkpt>
<trkpt lat="54.3163740000" lon="-2.0834230000"><ele>242</ele><time>2015-10-15T14:11:00Z</time></trkpt>
<trkpt lat="54.3163650000" lon="-2.0834220000"><ele>242</ele></trkpt>
<trkpt lat="54.3163560000" lon="-2.0834210000"><ele>242</ele><time>2015-10-15T14:11:01Z</time></trkpt>
<trkpt lat="54.3163470000" lon="-2.0834200000"><ele>223</ele><time>2015-10-15T14:11:03Z</time></trkpt>
<trkpt lat="54.3163380000" lon="-2.0834190000"><ele>223</ele><time>2015-10-15T14:11:04Z</time></trkpt>
<trkpt lat="54.3163280000" lon="-2.0834180000"><ele>223</ele><time>2015-10-15T14:11:05Z</time></trkpt>
<trkpt lat="54.3161660000" lon="-2.0834010000"><ele>223</ele><time>2015-10-15T14:11:06Z</time></trkpt>
<trkpt lat="54.3161550000" lon="-2.0834020000"><ele>223</ele><time>2015-10-15T14:11:07Z</time></trkpt>
<trkpt lat="54.3161430000" lon="-2.0834010000"><ele>223</ele><time>2015-10-15T14:11:08Z</time></trkpt>
<trkpt lat="54.3161330000" lon="-2.0834020000"><ele>223</ele><time>2015-10-15T14:11:09Z</time></trkpt>
<trkpt lat="54.3161330000" lon="-2.0834020000"><ele>223</ele><time>2015-10-15T14:11:10Z</time></trkpt>
<trkpt lat="54.3161330000" lon="-2.0834020000"><ele>223</ele><time>2015-10-15T14:11:11Z</time></trkpt>
<trkpt lat="54.3161320000" lon="-2.0834020000"><ele>223</ele><time>2015-10-15T14:11:12Z</time></trkpt>
<trkpt lat="54.3161320000" lon="-2.0834020000"><ele>223</ele><time>2015-10-15T14:11:13Z</time></trkpt>
<trkpt lat="54.3161310000" lon="-2.0834020000"><ele>223</ele></trkpt>
<trkpt lat="54.3161290000" lon="-2.0834020000"><ele>223</ele><time>2015-10-15T14:11:14Z</time></trkpt>
<trkpt lat="54.3161270000" lon="-2.0834010000"><ele>223</ele><time>2015-10-15T14:11:16Z</time></trkpt>
<trkpt lat="54.3161250000" lon="-2.0834010000"><ele>223</ele><time>2015-10-15T14:11:17Z</time></trkpt>
<trkpt lat="54.3161220000" lon="-2.0834000000"><ele>223</ele><time>2015-10-15T14:11:18Z</time></trkpt>
<trkpt lat="54.3161190000" lon="-2.0834000000"><ele>223</ele><time>2015-10-15T14:11:19Z</time></trkpt>
<trkpt lat="54.3161160000" lon="-2.0833990000"><ele>223</ele></trkpt>
<trkpt lat="54.3161120000" lon="-2.0833980000"><ele>223</ele><time>2015-10-15T14:11:20Z</time></trkpt>
<trkpt lat="54.3161080000" lon="-2.0833970000"><ele>223</ele><time>2015-10-15T14:11:22Z</time></trkpt>
<trkpt lat="54.3161030000" lon="-2.0833950000"><ele>223</ele><time>2015-10-15T14:11:23Z</time></trkpt>
<trkpt lat="54.3160980000" lon="-2.0833940000"><ele>223</ele><time>2015-10-15T14:11:24Z</time></trkpt>
<trkpt lat="54.3160930000" lon="-2.0833920000"><ele>223</ele><time>2015-10-15T14:11:25Z</time></trkpt>
<trkpt lat="54.3160880000" lon="-2.0833910000"><ele>223</ele><time>2015-10-15T14:11:26Z</time></trkpt>
<trkpt lat="54.3160830000" lon="-2.0833900000"><ele>223</ele></trkpt>
<trkpt lat="54.3160770000" lon="-2.0833890000"><ele>223</ele><time>2015-10-15T14:11:28Z</time></trkpt>
<trkpt lat="54.3160700000" lon="-2.0833870000"><ele>223</ele><time>2015-10-15T14:11:29Z</time></trkpt>
<trkpt lat="54.3160640000" lon="-2.0833860000"><ele>223</ele><time>2015-10-15T14:11:30Z</time></trkpt>
<trkpt lat="54.3160580000" lon="-2.0833850000"><ele>223</ele><time>2015-10-15T14:11:31Z</time></trkpt>
<trkpt lat="54.3160520000" lon="-2.0833840000"><ele>223</ele><time>2015-10-15T14:11:32Z</time></trkpt>
<trkpt lat="54.3160450000" lon="-2.0833840000"><ele>223</ele></trkpt>
<trkpt lat="54.3160380000" lon="-2.0833830000"><ele>223</ele><time>2015-10-15T14:11:33Z</time></trkpt>
<trkpt lat="54.3160300000" lon="-2.0833820000"><ele>223</ele><time>2015-10-15T14:11:35Z</time></trkpt>
<trkpt lat="54.3160230000" lon="-2.0833810000"><ele>223</ele><time>2015-10-15T14:11:36Z</time></trkpt>
<trkpt lat="54.3160150000" lon="-2.0833800000"><ele>223</ele><time>2015-10-15T14:11:37Z</time></trkpt>
<trkpt lat="54.3160080000" lon="-2.0833790000"><ele>223</ele><time>2015-10-15T14:11:38Z</time></trkpt>
<trkpt lat="54.3160030000" lon="-2.0833790000"><ele>223</ele></trkpt>
<trkpt lat="54.3159950000" lon="-2.0833780000"><ele>223</ele><time>2015-10-15T14:11:39Z</time></trkpt>
<trkpt lat="54.3159870000" lon="-2.0833770000"><ele>223</ele><time>2015-10-15T14:11:41Z</time></trkpt>
<trkpt lat="54.3159780000" lon="-2.0833760000"><ele>223</ele><time>2015-10-15T14:11:42Z</time></trkpt>
<trkpt lat="54.3159690000" lon="-2.0833750000"><ele>223</ele><time>2015-10-15T14:11:43Z</time></trkpt>
<trkpt lat="54.3159600000" lon="-2.0833740000"><ele>223</ele><time>2015-10-15T14:11:44Z</time></trkpt>
<trkpt lat="54.3159510000" lon="-2.0833740000"><ele>223</ele><time>2015-10-15T14:11:45Z</time></trkpt>
<trkpt lat="54.3159420000" lon="-2.0833740000"><ele>223</ele><time>2015-10-15T14:11:46Z</time></trkpt>
<trkpt lat="54.3159320000" lon="-2.0833740000"><ele>223</ele><time>2015-10-15T14:11:47Z</time></trkpt>
<trkpt lat="54.3159230000" lon="-2.0833740000"><ele>223</ele><time>2015-10-15T14:11:48Z</time></trkpt>
<trkpt lat="54.3157630000" lon="-2.0833730000"><ele>223</ele><time>2015-10-15T14:11:49Z</time></trkpt>
<trkpt lat="54.3157530000" lon="-2.0833730000"><ele>223</ele></trkpt>
<trkpt lat="54.3157460000" lon="-2.0833650000"><ele>223</ele><time>2015-10-15T14:11:51Z</time></trkpt>
<trkpt lat="54.3157460000" lon="-2.0833650000"><ele>223</ele><time>2015-10-15T14:11:52Z</time></trkpt>
<trkpt lat="54.3157460000" lon="-2.0833650000"><ele>223</ele><time>2015-10-15T14:11:53Z</time></trkpt>
<trkpt lat="54.3157450000" lon="-2.0833650000"><ele>223</ele><time>2015-10-15T14:11:54Z</time></trkpt>
<trkpt lat="54.3157450000" lon="-2.0833650000"><ele>223</ele><time>2015-10-15T14:11:55Z</time></trkpt>
<trkpt lat="54.3156890000" lon="-2.0833360000"><ele>223</ele></trkpt>
<trkpt lat="54.3156780000" lon="-2.0833310000"><ele>223</ele><time>2015-10-15T14:11:56Z</time></trkpt>
<trkpt lat="54.3156700000" lon="-2.0833300000"><ele>223</ele><time>2015-10-15T14:11:58Z</time></trkpt>
<trkpt lat="54.3156700000" lon="-2.0833300000"><ele>223</ele><time>2015-10-15T14:11:59Z</time></trkpt>
<trkpt lat="54.3156690000" lon="-2.0833300000"><ele>223</ele><time>2015-10-15T14:12:00Z</time></trkpt>
<trkpt lat="54.3156690000" lon="-2.0833300000"><ele>223</ele><time>2015-10-15T14:12:01Z</time></trkpt>
<trkpt lat="54.3156680000" lon="-2.0833300000"><ele>223</ele></trkpt>
<trkpt lat="54.3156670000" lon="-2.0833300000"><ele>223</ele><time>2015-10-15T14:12:02Z</time></trkpt>
<trkpt lat="54.3156660000" lon="-2.0833300000"><ele>223</ele><time>2015-10-15T14:12:04Z</time></trkpt>
<trkpt lat="54.3156640000" lon="-2.0833310000"><ele>223</ele><time>2015-10-15T14:12:05Z</time></trkpt>
<trkpt lat="54.3156610000" lon="-2.0833310000"><ele>223</ele><time>2015-10-15T14:12:06Z</time></trkpt>
<trkpt lat="54.3156590000" lon="-2.0833320000"><ele>223</ele><time>2015-10-15T14:12:07Z</time></trkpt>
<trkpt lat="54.3156560000" lon="-2.0833320000"><ele>223</ele><time>2015-10-15T14:12:08Z</time></trkpt>
<trkpt lat="54.3156520000" lon="-2.0833340000"><ele>223</ele></trkpt>
<trkpt lat="54.3156480000" lon="-2.0833350000"><ele>223</ele><time>2015-10-15T14:12:10Z</time></trkpt>
<trkpt lat="54.3156440000" lon="-2.0833370000"><ele>223</ele><time>2015-10-15T14:12:11Z</time></trkpt>
<trkpt lat="54.3156400000" lon="-2.0833390000"><ele>223</ele><time>2015-10-15T14:12:12Z</time></trkpt>
<trkpt lat="54.3156210000" lon="-2.0833480000"><ele>223</ele><time>2015-10-15T14:12:15Z</time></trkpt>
<trkpt lat="54.3156150000" lon="-2.0833500000"><ele>223</ele><time>2015-10-15T14:12:17Z</time></trkpt>
<trkpt lat="54.3156090000" lon="-2.0833520000"><ele>223</ele><time>2015-10-15T14:12:18Z</time></trkpt>
<trkpt lat="54.3156030000" lon="-2.0833530000"><ele>223</ele><time>2015-10-15T14:12:19Z</time></trkpt>
<trkpt lat="54.3155960000" lon="-2.0833540000"><ele>223</ele><time>2015-10-15T14:12:20Z</time></trkpt>
<trkpt lat="54.3155900000" lon="-2.0833550000"><ele>223</ele></trkpt>
<trkpt lat="54.3155830000" lon="-2.0833560000"><ele>223</ele><time>2015-10-15T14:12:21Z</time></trkpt>
<trkpt lat="54.3155760000" lon="-2.0833570000"><ele>223</ele><time>2015-10-15T14:12:23Z</time></trkpt>
<trkpt lat="54.3155700000" lon="-2.0833580000"><ele>223</ele><time>2015-10-15T14:12:24Z</time></trkpt>
<trkpt lat="54.3155630000" lon="-2.0833590000"><ele>223</ele><time>2015-10-15T14:12:25Z</time></trkpt>
<trkpt lat="54.3155560000" lon="-2.0833600000"><ele>223</ele><time>2015-10-15T14:12:26Z</time></trkpt>
<trkpt lat="54.3155500000" lon="-2.0833610000"><ele>223</ele><time>2015-10-15T14:12:27Z</time></trkpt>
<trkpt lat="54.3155430000" lon="-2.0833620000"><ele>223</ele></trkpt>
<trkpt lat="54.3155370000" lon="-2.0833640000"><ele>223</ele><time>2015-10-15T14:12:29Z</time></trkpt>
<trkpt lat="54.3154130000" lon="-2.0833840000"><ele>223</ele><time>2015-10-15T14:12:30Z</time></trkpt>
<trkpt lat="54.3153980000" lon="-2.0833840000"><ele>223</ele><time>2015-10-15T14:12:31Z</time></trkpt>
<trkpt lat="54.3153850000" lon="-2.0833840000"><ele>223</ele><time>2015-10-15T14:12:32Z</time></trkpt>
<trkpt lat="54.3153710000" lon="-2.0833900000"><ele>223</ele><time>2015-10-15T14:12:33Z</time></trkpt>
<trkpt lat="54.3153570000" lon="-2.0833970000"><ele>223</ele></trkpt>
<trkpt lat="54.3153440000" lon="-2.0834020000"><ele>223</ele><time>2015-10-15T14:12:34Z</time></trkpt>
<trkpt lat="54.3153320000" lon="-2.0834030000"><ele>223</ele><time>2015-10-15T14:12:36Z</time></trkpt>
<trkpt lat="54.3153200000" lon="-2.0834050000"><ele>223</ele><time>2015-10-15T14:12:37Z</time></trkpt>
<trkpt lat="54.3153110000" lon="-2.0834050000"><ele>223</ele><time>2015-10-15T14:12:38Z</time></trkpt>
<trkpt lat="54.3153010000" lon="-2.0834020000"><ele>223</ele><time>2015-10-15T14:12:39Z</time></trkpt>
<trkpt lat="54.3152920000" lon="-2.0833930000"><ele>223</ele></trkpt>
<trkpt lat="54.3152840000" lon="-2.0833800000"><ele>223</ele><time>2015-10-15T14:12:40Z</time></trkpt>
<trkpt lat="54.3152790000" lon="-2.0833640000"><ele>223</ele><time>2015-10-15T14:12:42Z</time></trkpt>
<trkpt lat="54.3152770000" lon="-2.0833460000"><ele>223</ele><time>2015-10-15T14:12:43Z</time></trkpt>
<trkpt lat="54.3152770000" lon="-2.0833460000"><ele>223</ele><time>2015-10-15T14:12:44Z</time></trkpt>
<trkpt lat="54.3152770000" lon="-2.0833460000"><ele>223</ele><time>2015-10-15T14:12:45Z</time></trkpt>
<trkpt lat="54.3152770000" lon="-2.0833450000"><ele>223</ele></trkpt>
<trkpt lat="54.3152770000" lon="-2.0833440000"><ele>223</ele><time>2015-10-15T14:12:46Z</time></trkpt>
<trkpt lat="54.3152780000" lon="-2.0832510000"><ele>223</ele><time>2015-10-15T14:12:48Z</time></trkpt>
<trkpt lat="54.3152750000" lon="-2.0832280000"><ele>223</ele><time>2015-10-15T14:12:49Z</time></trkpt>
<trkpt lat="54.3152720000" lon="-2.0832030000"><ele>223</ele></trkpt>
<trkpt lat="54.3152690000" lon="-2.0831820000"><ele>223</ele><time>2015-10-15T14:12:51Z</time></trkpt>
<trkpt lat="54.3152650000" lon="-2.0831660000"><ele>223</ele><time>2015-10-15T14:12:52Z</time></trkpt>
<trkpt lat="54.3152650000" lon="-2.0831650000"><ele>223</ele><time>2015-10-15T14:12:54Z</time></trkpt>
<trkpt lat="54.3152520000" lon="-2.0830950000"><ele>223</ele><time>2015-10-15T14:12:55Z</time></trkpt>
<trkpt lat="54.3152400000" lon="-2.0830590000"><ele>223</ele><time>2015-10-15T14:12:58Z</time></trkpt>
<trkpt lat="54.3152310000" lon="-2.0830250000"><ele>223</ele><time>2015-10-15T14:13:00Z</time></trkpt>
<trkpt lat="54.3152250000" lon="-2.0830070000"><ele>223</ele><time>2015-10-15T14:13:03Z</time></trkpt>
<trkpt lat="54.3152250000" lon="-2.0830060000"><ele>223</ele><time>2015-10-15T14:13:04Z</time></trkpt>
<trkpt lat="54.3152240000" lon="-2.0830050000"><ele>223</ele><time>2015-10-15T14:13:05Z</time></trkpt>
<trkpt lat="54.3152240000" lon="-2.0830030000"><ele>223</ele><time>2015-10-15T14:13:06Z</time></trkpt>
<trkpt lat="54.3152230000" lon="-2.0830010000"><ele>223</ele><time>2015-10-15T14:13:07Z</time></trkpt>
<trkpt lat="54.3152210000" lon="-2.0829980000"><ele>223</ele></trkpt>
<trkpt lat="54.3152200000" lon="-2.0829950000"><ele>223</ele><time>2015-10-15T14:13:08Z</time></trkpt>
<trkpt lat="54.3152180000" lon="-2.0829910000"><ele>223</ele><time>2015-10-15T14:13:10Z</time></trkpt>
<trkpt lat="54.3152150000" lon="-2.0829860000"><ele>223</ele><time>2015-10-15T14:13:11Z</time></trkpt>
<trkpt lat="54.3152130000" lon="-2.0829810000"><ele>223</ele><time>2015-10-15T14:13:12Z</time></trkpt>
<trkpt lat="54.3152100000" lon="-2.0829750000"><ele>223</ele><time>2015-10-15T14:13:13Z</time></trkpt>
<trkpt lat="54.3152070000" lon="-2.0829680000"><ele>223</ele></trkpt>
<trkpt lat="54.3152030000" lon="-2.0829610000"><ele>223</ele><time>2015-10-15T14:13:14Z</time></trkpt>
<trkpt lat="54.3152000000" lon="-2.0829540000"><ele>223</ele><time>2015-10-15T14:13:16Z</time></trkpt>
<trkpt lat="54.3151960000" lon="-2.0829450000"><ele>223</ele><time>2015-10-15T14:13:17Z</time></trkpt>
<trkpt lat="54.3151920000" lon="-2.0829360000"><ele>223</ele><time>2015-10-15T14:13:18Z</time></trkpt>
<trkpt lat="54.3151880000" lon="-2.0829270000"><ele>223</ele><time>2015-10-15T14:13:19Z</time></trkpt>
<trkpt lat="54.3151840000" lon="-2.0829170000"><ele>223</ele><time>2015-10-15T14:13:20Z</time></trkpt>
<trkpt lat="54.3151800000" lon="-2.0829060000"><ele>223</ele></trkpt>
<trkpt lat="54.3151760000" lon="-2.0828950000"><ele>223</ele><time>2015-10-15T14:13:22Z</time></trkpt>
<trkpt lat="54.3151720000" lon="-2.0828840000"><ele>223</ele><time>2015-10-15T14:13:23Z</time></trkpt>
<trkpt lat="54.3151680000" lon="-2.0828720000"><ele>223</ele><time>2015-10-15T14:13:24Z</time></trkpt>
<trkpt lat="54.3151630000" lon="-2.0828600000"><ele>223</ele><time>2015-10-15T14:13:25Z</time></trkpt>
<trkpt lat="54.3151590000" lon="-2.0828490000"><ele>223</ele><time>2015-10-15T14:13:26Z</time></trkpt>
<trkpt lat="54.3151540000" lon="-2.0828370000"><ele>223</ele></trkpt>
<trkpt lat="54.3151500000" lon="-2.0828250000"><ele>223</ele><time>2015-10-15T14:13:27Z</time></trkpt>
<trkpt lat="54.3151340000" lon="-2.0827880000"><ele>223</ele><time>2015-10-15T14:13:31Z</time></trkpt>
<trkpt lat="54.3151190000" lon="-2.0827510000"><ele>223</ele><time>2015-10-15T14:13:33Z</time></trkpt>
<trkpt lat="54.3150150000" lon="-2.0824770000"><ele>223</ele><time>2015-10-15T14:13:36Z</time></trkpt>
<trkpt lat="54.3150070000" lon="-2.0824390000"><ele>223</ele><time>2015-10-15T14:13:38Z</time></trkpt>
<trkpt lat="54.3150060000" lon="-2.0823950000"><ele>223</ele><time>2015-10-15T14:13:50Z</time></trkpt>
<trkpt lat="54.3150030000" lon="-2.0823530000"><ele>223</ele><time>2015-10-15T14:13:55Z</time></trkpt>
<trkpt lat="54.3150030000" lon="-2.0823440000"><ele>223</ele><time>2015-10-15T14:13:56Z</time></trkpt>
<trkpt lat="54.3150000000" lon="-2.0821220000"><ele>223</ele><time>2015-10-15T14:13:57Z</time></trkpt>
<trkpt lat="54.3150020000" lon="-2.0820680000"><ele>223</ele><time>2015-10-15T14:14:00Z</time></trkpt>
<trkpt lat="54.3150070000" lon="-2.0820250000"><ele>223</ele><time>2015-10-15T14:14:02Z</time></trkpt>
<trkpt lat="54.3150110000" lon="-2.0819800000"><ele>223</ele><time>2015-10-15T14:14:04Z</time></trkpt>
<trkpt lat="54.3150160000" lon="-2.0819200000"><ele>223</ele><time>2015-10-15T14:14:17Z</time></trkpt>
<trkpt lat="54.3150150000" lon="-2.0816900000"><ele>223</ele><time>2015-10-15T14:14:18Z</time></trkpt>
<trkpt lat="54.3150040000" lon="-2.0816320000"><ele>223</ele><time>2015-10-15T14:14:20Z</time></trkpt>
<trkpt lat="54.3149990000" lon="-2.0815640000"><ele>223</ele><time>2015-10-15T14:14:24Z</time></trkpt>
</trkseg>
</trk>
</gpx>